<?xml version="1.0" encoding="UTF-8" standalone="no" ?>
<gpx xmlns="http://www.topografix.com/GPX/1/1" xmlns:xsi="http://www.w3.org/2001/XMLSchema-instance" xsi:schemaLocation="http://www.topografix.com/GPX/1/1 http://www.topografix.com/GPX/1/1/gpx.xsd" version="1.1" creator="VisuGPX - https://www.visugpx.com">
  <metadata>
    <name>ski rando La Sambuis N</name>
    <desc><![CDATA[
]]></desc>
  </metadata>
  <trk>
    <name><![CDATA[ski rando La Sambuis N]]></name>
    <trkseg>
      <trkpt lat="45.2828" lon="6.20999">
        <ele>1210.1999511719</ele>
        <time>2013-03-02T06:30:30.000Z</time>
      </trkpt>
      <trkpt lat="45.2828" lon="6.21">
        <ele>1210.1999511719</ele>
        <time>2013-03-02T06:30:31.000Z</time>
      </trkpt>
      <trkpt lat="45.28281" lon="6.21007">
        <ele>1210.5999755859</ele>
        <time>2013-03-02T06:30:46.000Z</time>
      </trkpt>
      <trkpt lat="45.28278" lon="6.20999">
        <ele>1210</ele>
        <time>2013-03-02T06:31:21.000Z</time>
      </trkpt>
      <trkpt lat="45.28278" lon="6.20996">
        <ele>1210</ele>
        <time>2013-03-02T06:31:28.000Z</time>
      </trkpt>
      <trkpt lat="45.28276" lon="6.20999">
        <ele>1210</ele>
        <time>2013-03-02T06:31:35.000Z</time>
      </trkpt>
      <trkpt lat="45.2828" lon="6.20998">
        <ele>1209.5999755859</ele>
        <time>2013-03-02T06:32:09.000Z</time>
      </trkpt>
      <trkpt lat="45.28283" lon="6.21003">
        <ele>1209.5999755859</ele>
        <time>2013-03-02T06:32:13.000Z</time>
      </trkpt>
      <trkpt lat="45.28292" lon="6.21006">
        <ele>1210</ele>
        <time>2013-03-02T06:32:21.000Z</time>
      </trkpt>
      <trkpt lat="45.28299" lon="6.21009">
        <ele>1210</ele>
        <time>2013-03-02T06:32:27.000Z</time>
      </trkpt>
      <trkpt lat="45.28309" lon="6.21016">
        <ele>1211.1999511719</ele>
        <time>2013-03-02T06:32:36.000Z</time>
      </trkpt>
      <trkpt lat="45.28319" lon="6.2102">
        <ele>1211.4000244141</ele>
        <time>2013-03-02T06:32:44.000Z</time>
      </trkpt>
      <trkpt lat="45.28328" lon="6.2103">
        <ele>1213.5999755859</ele>
        <time>2013-03-02T06:32:53.000Z</time>
      </trkpt>
      <trkpt lat="45.28338" lon="6.21037">
        <ele>1214.5999755859</ele>
        <time>2013-03-02T06:33:00.000Z</time>
      </trkpt>
      <trkpt lat="45.28341" lon="6.21037">
        <ele>1214.8000488281</ele>
        <time>2013-03-02T06:33:02.000Z</time>
      </trkpt>
      <trkpt lat="45.28347" lon="6.21031">
        <ele>1215</ele>
        <time>2013-03-02T06:33:07.000Z</time>
      </trkpt>
      <trkpt lat="45.28346" lon="6.21028">
        <ele>1215.1999511719</ele>
        <time>2013-03-02T06:33:09.000Z</time>
      </trkpt>
      <trkpt lat="45.28344" lon="6.21022">
        <ele>1216.1999511719</ele>
        <time>2013-03-02T06:33:15.000Z</time>
      </trkpt>
      <trkpt lat="45.28346" lon="6.21011">
        <ele>1216.4000244141</ele>
        <time>2013-03-02T06:33:48.000Z</time>
      </trkpt>
      <trkpt lat="45.28344" lon="6.21002">
        <ele>1216.1999511719</ele>
        <time>2013-03-02T06:33:55.000Z</time>
      </trkpt>
      <trkpt lat="45.28342" lon="6.20996">
        <ele>1217</ele>
        <time>2013-03-02T06:34:01.000Z</time>
      </trkpt>
      <trkpt lat="45.28341" lon="6.20992">
        <ele>1218</ele>
        <time>2013-03-02T06:34:05.000Z</time>
      </trkpt>
      <trkpt lat="45.28337" lon="6.20988">
        <ele>1218.8000488281</ele>
        <time>2013-03-02T06:34:10.000Z</time>
      </trkpt>
      <trkpt lat="45.28332" lon="6.2098">
        <ele>1219.8000488281</ele>
        <time>2013-03-02T06:34:16.000Z</time>
      </trkpt>
      <trkpt lat="45.28329" lon="6.20978">
        <ele>1220.1999511719</ele>
        <time>2013-03-02T06:34:19.000Z</time>
      </trkpt>
      <trkpt lat="45.28328" lon="6.20975">
        <ele>1220.5999755859</ele>
        <time>2013-03-02T06:34:23.000Z</time>
      </trkpt>
      <trkpt lat="45.28328" lon="6.20966">
        <ele>1221.8000488281</ele>
        <time>2013-03-02T06:34:30.000Z</time>
      </trkpt>
      <trkpt lat="45.28328" lon="6.2096">
        <ele>1222.8000488281</ele>
        <time>2013-03-02T06:34:35.000Z</time>
      </trkpt>
      <trkpt lat="45.28329" lon="6.20949">
        <ele>1224</ele>
        <time>2013-03-02T06:34:42.000Z</time>
      </trkpt>
      <trkpt lat="45.2833" lon="6.20939">
        <ele>1225.4000244141</ele>
        <time>2013-03-02T06:34:49.000Z</time>
      </trkpt>
      <trkpt lat="45.2833" lon="6.20931">
        <ele>1226.5999755859</ele>
        <time>2013-03-02T06:34:56.000Z</time>
      </trkpt>
      <trkpt lat="45.2833" lon="6.20927">
        <ele>1227.4000244141</ele>
        <time>2013-03-02T06:35:00.000Z</time>
      </trkpt>
      <trkpt lat="45.2833" lon="6.20923">
        <ele>1228.1999511719</ele>
        <time>2013-03-02T06:35:04.000Z</time>
      </trkpt>
      <trkpt lat="45.28328" lon="6.20915">
        <ele>1229.5999755859</ele>
        <time>2013-03-02T06:35:10.000Z</time>
      </trkpt>
      <trkpt lat="45.28328" lon="6.20906">
        <ele>1231</ele>
        <time>2013-03-02T06:35:17.000Z</time>
      </trkpt>
      <trkpt lat="45.2833" lon="6.20898">
        <ele>1232.1999511719</ele>
        <time>2013-03-02T06:35:24.000Z</time>
      </trkpt>
      <trkpt lat="45.28331" lon="6.20894">
        <ele>1232.8000488281</ele>
        <time>2013-03-02T06:35:29.000Z</time>
      </trkpt>
      <trkpt lat="45.28332" lon="6.2089">
        <ele>1233.5999755859</ele>
        <time>2013-03-02T06:35:34.000Z</time>
      </trkpt>
      <trkpt lat="45.28333" lon="6.20887">
        <ele>1234.1999511719</ele>
        <time>2013-03-02T06:35:38.000Z</time>
      </trkpt>
      <trkpt lat="45.28334" lon="6.20882">
        <ele>1235.5999755859</ele>
        <time>2013-03-02T06:35:43.000Z</time>
      </trkpt>
      <trkpt lat="45.28335" lon="6.20877">
        <ele>1236.8000488281</ele>
        <time>2013-03-02T06:35:48.000Z</time>
      </trkpt>
      <trkpt lat="45.28337" lon="6.20871">
        <ele>1238.1999511719</ele>
        <time>2013-03-02T06:35:55.000Z</time>
      </trkpt>
      <trkpt lat="45.28338" lon="6.2087">
        <ele>1239</ele>
        <time>2013-03-02T06:35:59.000Z</time>
      </trkpt>
      <trkpt lat="45.2834" lon="6.20867">
        <ele>1239.5999755859</ele>
        <time>2013-03-02T06:36:03.000Z</time>
      </trkpt>
      <trkpt lat="45.28343" lon="6.20865">
        <ele>1240.8000488281</ele>
        <time>2013-03-02T06:36:08.000Z</time>
      </trkpt>
      <trkpt lat="45.28347" lon="6.20863">
        <ele>1242.4000244141</ele>
        <time>2013-03-02T06:36:14.000Z</time>
      </trkpt>
      <trkpt lat="45.28347" lon="6.20857">
        <ele>1243.5999755859</ele>
        <time>2013-03-02T06:36:18.000Z</time>
      </trkpt>
      <trkpt lat="45.28346" lon="6.20849">
        <ele>1244.4000244141</ele>
        <time>2013-03-02T06:36:23.000Z</time>
      </trkpt>
      <trkpt lat="45.28342" lon="6.20836">
        <ele>1246</ele>
        <time>2013-03-02T06:36:31.000Z</time>
      </trkpt>
      <trkpt lat="45.28341" lon="6.20834">
        <ele>1246.4000244141</ele>
        <time>2013-03-02T06:36:32.000Z</time>
      </trkpt>
      <trkpt lat="45.28339" lon="6.20829">
        <ele>1247.5999755859</ele>
        <time>2013-03-02T06:36:39.000Z</time>
      </trkpt>
      <trkpt lat="45.2834" lon="6.20826">
        <ele>1248.1999511719</ele>
        <time>2013-03-02T06:36:43.000Z</time>
      </trkpt>
      <trkpt lat="45.28338" lon="6.20821">
        <ele>1249</ele>
        <time>2013-03-02T06:36:48.000Z</time>
      </trkpt>
      <trkpt lat="45.28337" lon="6.20819">
        <ele>1249.1999511719</ele>
        <time>2013-03-02T06:36:50.000Z</time>
      </trkpt>
      <trkpt lat="45.28335" lon="6.20809">
        <ele>1250.8000488281</ele>
        <time>2013-03-02T06:36:57.000Z</time>
      </trkpt>
      <trkpt lat="45.28334" lon="6.208">
        <ele>1252</ele>
        <time>2013-03-02T06:37:03.000Z</time>
      </trkpt>
      <trkpt lat="45.28332" lon="6.20792">
        <ele>1253.4000244141</ele>
        <time>2013-03-02T06:37:09.000Z</time>
      </trkpt>
      <trkpt lat="45.28331" lon="6.20784">
        <ele>1254.4000244141</ele>
        <time>2013-03-02T06:37:14.000Z</time>
      </trkpt>
      <trkpt lat="45.2833" lon="6.20777">
        <ele>1255.5999755859</ele>
        <time>2013-03-02T06:37:20.000Z</time>
      </trkpt>
      <trkpt lat="45.2833" lon="6.20772">
        <ele>1256.5999755859</ele>
        <time>2013-03-02T06:37:24.000Z</time>
      </trkpt>
      <trkpt lat="45.28329" lon="6.2077">
        <ele>1257</ele>
        <time>2013-03-02T06:37:25.000Z</time>
      </trkpt>
      <trkpt lat="45.28329" lon="6.20766">
        <ele>1257.8000488281</ele>
        <time>2013-03-02T06:37:28.000Z</time>
      </trkpt>
      <trkpt lat="45.28329" lon="6.20763">
        <ele>1258.4000244141</ele>
        <time>2013-03-02T06:37:31.000Z</time>
      </trkpt>
      <trkpt lat="45.28324" lon="6.20757">
        <ele>1259.8000488281</ele>
        <time>2013-03-02T06:37:38.000Z</time>
      </trkpt>
      <trkpt lat="45.28325" lon="6.20755">
        <ele>1261.4000244141</ele>
        <time>2013-03-02T06:37:44.000Z</time>
      </trkpt>
      <trkpt lat="45.28326" lon="6.20754">
        <ele>1261.8000488281</ele>
        <time>2013-03-02T06:37:45.000Z</time>
      </trkpt>
      <trkpt lat="45.28328" lon="6.20748">
        <ele>1263.1999511719</ele>
        <time>2013-03-02T06:37:51.000Z</time>
      </trkpt>
      <trkpt lat="45.28326" lon="6.20741">
        <ele>1265.5999755859</ele>
        <time>2013-03-02T06:37:58.000Z</time>
      </trkpt>
      <trkpt lat="45.28324" lon="6.20737">
        <ele>1266.4000244141</ele>
        <time>2013-03-02T06:38:02.000Z</time>
      </trkpt>
      <trkpt lat="45.28323" lon="6.20736">
        <ele>1266.5999755859</ele>
        <time>2013-03-02T06:38:03.000Z</time>
      </trkpt>
      <trkpt lat="45.28319" lon="6.20726">
        <ele>1268.4000244141</ele>
        <time>2013-03-02T06:38:10.000Z</time>
      </trkpt>
      <trkpt lat="45.28319" lon="6.20725">
        <ele>1268.5999755859</ele>
        <time>2013-03-02T06:38:11.000Z</time>
      </trkpt>
      <trkpt lat="45.2832" lon="6.20724">
        <ele>1269.1999511719</ele>
        <time>2013-03-02T06:38:14.000Z</time>
      </trkpt>
      <trkpt lat="45.28323" lon="6.20724">
        <ele>1270.5999755859</ele>
        <time>2013-03-02T06:38:19.000Z</time>
      </trkpt>
      <trkpt lat="45.28324" lon="6.20725">
        <ele>1271.4000244141</ele>
        <time>2013-03-02T06:38:22.000Z</time>
      </trkpt>
      <trkpt lat="45.28329" lon="6.2073">
        <ele>1272.4000244141</ele>
        <time>2013-03-02T06:38:29.000Z</time>
      </trkpt>
      <trkpt lat="45.2833" lon="6.20734">
        <ele>1273</ele>
        <time>2013-03-02T06:38:33.000Z</time>
      </trkpt>
      <trkpt lat="45.28331" lon="6.20735">
        <ele>1273.1999511719</ele>
        <time>2013-03-02T06:38:34.000Z</time>
      </trkpt>
      <trkpt lat="45.28332" lon="6.20736">
        <ele>1273.5999755859</ele>
        <time>2013-03-02T06:38:36.000Z</time>
      </trkpt>
      <trkpt lat="45.28338" lon="6.20733">
        <ele>1274.4000244141</ele>
        <time>2013-03-02T06:38:41.000Z</time>
      </trkpt>
      <trkpt lat="45.28342" lon="6.20727">
        <ele>1275.5999755859</ele>
        <time>2013-03-02T06:38:47.000Z</time>
      </trkpt>
      <trkpt lat="45.28348" lon="6.20723">
        <ele>1277.1999511719</ele>
        <time>2013-03-02T06:38:54.000Z</time>
      </trkpt>
      <trkpt lat="45.28351" lon="6.20719">
        <ele>1278.1999511719</ele>
        <time>2013-03-02T06:38:58.000Z</time>
      </trkpt>
      <trkpt lat="45.28352" lon="6.20712">
        <ele>1279.5999755859</ele>
        <time>2013-03-02T06:39:03.000Z</time>
      </trkpt>
      <trkpt lat="45.28351" lon="6.20709">
        <ele>1279.8000488281</ele>
        <time>2013-03-02T06:39:05.000Z</time>
      </trkpt>
      <trkpt lat="45.28346" lon="6.20698">
        <ele>1281.5999755859</ele>
        <time>2013-03-02T06:39:13.000Z</time>
      </trkpt>
      <trkpt lat="45.28344" lon="6.20693">
        <ele>1282.5999755859</ele>
        <time>2013-03-02T06:39:18.000Z</time>
      </trkpt>
      <trkpt lat="45.28341" lon="6.20688">
        <ele>1283.4000244141</ele>
        <time>2013-03-02T06:39:22.000Z</time>
      </trkpt>
      <trkpt lat="45.28336" lon="6.20683">
        <ele>1284</ele>
        <time>2013-03-02T06:39:28.000Z</time>
      </trkpt>
      <trkpt lat="45.28335" lon="6.20671">
        <ele>1285.4000244141</ele>
        <time>2013-03-02T06:39:36.000Z</time>
      </trkpt>
      <trkpt lat="45.28336" lon="6.20663">
        <ele>1286.4000244141</ele>
        <time>2013-03-02T06:39:42.000Z</time>
      </trkpt>
      <trkpt lat="45.28336" lon="6.20658">
        <ele>1287.5999755859</ele>
        <time>2013-03-02T06:39:47.000Z</time>
      </trkpt>
      <trkpt lat="45.28336" lon="6.20652">
        <ele>1288.1999511719</ele>
        <time>2013-03-02T06:39:51.000Z</time>
      </trkpt>
      <trkpt lat="45.28337" lon="6.20646">
        <ele>1289.4000244141</ele>
        <time>2013-03-02T06:39:57.000Z</time>
      </trkpt>
      <trkpt lat="45.28339" lon="6.20647">
        <ele>1290.8000488281</ele>
        <time>2013-03-02T06:40:03.000Z</time>
      </trkpt>
      <trkpt lat="45.2834" lon="6.20649">
        <ele>1291.1999511719</ele>
        <time>2013-03-02T06:40:05.000Z</time>
      </trkpt>
      <trkpt lat="45.28342" lon="6.20653">
        <ele>1292.1999511719</ele>
        <time>2013-03-02T06:40:11.000Z</time>
      </trkpt>
      <trkpt lat="45.28346" lon="6.20656">
        <ele>1293</ele>
        <time>2013-03-02T06:40:15.000Z</time>
      </trkpt>
      <trkpt lat="45.28351" lon="6.2065">
        <ele>1294.1999511719</ele>
        <time>2013-03-02T06:40:21.000Z</time>
      </trkpt>
      <trkpt lat="45.28356" lon="6.20641">
        <ele>1296.8000488281</ele>
        <time>2013-03-02T06:40:29.000Z</time>
      </trkpt>
      <trkpt lat="45.28357" lon="6.20639">
        <ele>1297.1999511719</ele>
        <time>2013-03-02T06:40:31.000Z</time>
      </trkpt>
      <trkpt lat="45.28357" lon="6.20634">
        <ele>1297.5999755859</ele>
        <time>2013-03-02T06:40:34.000Z</time>
      </trkpt>
      <trkpt lat="45.28356" lon="6.2063">
        <ele>1298.5999755859</ele>
        <time>2013-03-02T06:40:37.000Z</time>
      </trkpt>
      <trkpt lat="45.28355" lon="6.20625">
        <ele>1299.5999755859</ele>
        <time>2013-03-02T06:40:40.000Z</time>
      </trkpt>
      <trkpt lat="45.28357" lon="6.20619">
        <ele>1300.5999755859</ele>
        <time>2013-03-02T06:40:45.000Z</time>
      </trkpt>
      <trkpt lat="45.2836" lon="6.20614">
        <ele>1301.8000488281</ele>
        <time>2013-03-02T06:40:51.000Z</time>
      </trkpt>
      <trkpt lat="45.2836" lon="6.20613">
        <ele>1302.1999511719</ele>
        <time>2013-03-02T06:40:52.000Z</time>
      </trkpt>
      <trkpt lat="45.28359" lon="6.20605">
        <ele>1303.8000488281</ele>
        <time>2013-03-02T06:40:58.000Z</time>
      </trkpt>
      <trkpt lat="45.28359" lon="6.20603">
        <ele>1304.1999511719</ele>
        <time>2013-03-02T06:41:00.000Z</time>
      </trkpt>
      <trkpt lat="45.28354" lon="6.20594">
        <ele>1304.8000488281</ele>
        <time>2013-03-02T06:41:06.000Z</time>
      </trkpt>
      <trkpt lat="45.28352" lon="6.20593">
        <ele>1305</ele>
        <time>2013-03-02T06:41:09.000Z</time>
      </trkpt>
      <trkpt lat="45.28347" lon="6.20582">
        <ele>1305.4000244141</ele>
        <time>2013-03-02T06:41:16.000Z</time>
      </trkpt>
      <trkpt lat="45.28343" lon="6.20569">
        <ele>1305.4000244141</ele>
        <time>2013-03-02T06:41:22.000Z</time>
      </trkpt>
      <trkpt lat="45.2834" lon="6.20556">
        <ele>1306.1999511719</ele>
        <time>2013-03-02T06:41:29.000Z</time>
      </trkpt>
      <trkpt lat="45.28338" lon="6.20546">
        <ele>1307</ele>
        <time>2013-03-02T06:41:36.000Z</time>
      </trkpt>
      <trkpt lat="45.28338" lon="6.20537">
        <ele>1308.1999511719</ele>
        <time>2013-03-02T06:41:43.000Z</time>
      </trkpt>
      <trkpt lat="45.28337" lon="6.2053">
        <ele>1309</ele>
        <time>2013-03-02T06:41:48.000Z</time>
      </trkpt>
      <trkpt lat="45.28336" lon="6.20526">
        <ele>1309.1999511719</ele>
        <time>2013-03-02T06:41:51.000Z</time>
      </trkpt>
      <trkpt lat="45.28336" lon="6.20524">
        <ele>1309.5999755859</ele>
        <time>2013-03-02T06:41:53.000Z</time>
      </trkpt>
      <trkpt lat="45.28335" lon="6.20513">
        <ele>1311.1999511719</ele>
        <time>2013-03-02T06:42:01.000Z</time>
      </trkpt>
      <trkpt lat="45.28334" lon="6.20502">
        <ele>1312.5999755859</ele>
        <time>2013-03-02T06:42:08.000Z</time>
      </trkpt>
      <trkpt lat="45.28333" lon="6.20496">
        <ele>1313.4000244141</ele>
        <time>2013-03-02T06:42:12.000Z</time>
      </trkpt>
      <trkpt lat="45.28329" lon="6.20483">
        <ele>1314.8000488281</ele>
        <time>2013-03-02T06:42:20.000Z</time>
      </trkpt>
      <trkpt lat="45.28327" lon="6.20474">
        <ele>1316.1999511719</ele>
        <time>2013-03-02T06:42:26.000Z</time>
      </trkpt>
      <trkpt lat="45.28326" lon="6.20473">
        <ele>1316.1999511719</ele>
        <time>2013-03-02T06:42:27.000Z</time>
      </trkpt>
      <trkpt lat="45.28325" lon="6.20465">
        <ele>1317.4000244141</ele>
        <time>2013-03-02T06:42:33.000Z</time>
      </trkpt>
      <trkpt lat="45.28323" lon="6.20459">
        <ele>1318.4000244141</ele>
        <time>2013-03-02T06:42:38.000Z</time>
      </trkpt>
      <trkpt lat="45.28322" lon="6.2045">
        <ele>1319.4000244141</ele>
        <time>2013-03-02T06:42:44.000Z</time>
      </trkpt>
      <trkpt lat="45.28321" lon="6.20443">
        <ele>1320</ele>
        <time>2013-03-02T06:42:48.000Z</time>
      </trkpt>
      <trkpt lat="45.28317" lon="6.20431">
        <ele>1321</ele>
        <time>2013-03-02T06:42:56.000Z</time>
      </trkpt>
      <trkpt lat="45.28312" lon="6.20422">
        <ele>1322.1999511719</ele>
        <time>2013-03-02T06:43:03.000Z</time>
      </trkpt>
      <trkpt lat="45.28308" lon="6.20414">
        <ele>1323.1999511719</ele>
        <time>2013-03-02T06:43:09.000Z</time>
      </trkpt>
      <trkpt lat="45.28308" lon="6.20407">
        <ele>1324.1999511719</ele>
        <time>2013-03-02T06:43:14.000Z</time>
      </trkpt>
      <trkpt lat="45.28307" lon="6.204">
        <ele>1325.5999755859</ele>
        <time>2013-03-02T06:43:20.000Z</time>
      </trkpt>
      <trkpt lat="45.28307" lon="6.20398">
        <ele>1325.8000488281</ele>
        <time>2013-03-02T06:43:21.000Z</time>
      </trkpt>
      <trkpt lat="45.28312" lon="6.20389">
        <ele>1327.4000244141</ele>
        <time>2013-03-02T06:43:28.000Z</time>
      </trkpt>
      <trkpt lat="45.28313" lon="6.20389">
        <ele>1327.8000488281</ele>
        <time>2013-03-02T06:43:29.000Z</time>
      </trkpt>
      <trkpt lat="45.28313" lon="6.20384">
        <ele>1328.8000488281</ele>
        <time>2013-03-02T06:43:35.000Z</time>
      </trkpt>
      <trkpt lat="45.28318" lon="6.20375">
        <ele>1329.5999755859</ele>
        <time>2013-03-02T06:43:59.000Z</time>
      </trkpt>
      <trkpt lat="45.2832" lon="6.20371">
        <ele>1330.1999511719</ele>
        <time>2013-03-02T06:44:02.000Z</time>
      </trkpt>
      <trkpt lat="45.28319" lon="6.20368">
        <ele>1330.8000488281</ele>
        <time>2013-03-02T06:44:05.000Z</time>
      </trkpt>
      <trkpt lat="45.28313" lon="6.20362">
        <ele>1331</ele>
        <time>2013-03-02T06:44:10.000Z</time>
      </trkpt>
      <trkpt lat="45.28306" lon="6.20358">
        <ele>1330.8000488281</ele>
        <time>2013-03-02T06:44:17.000Z</time>
      </trkpt>
      <trkpt lat="45.28305" lon="6.20358">
        <ele>1331</ele>
        <time>2013-03-02T06:44:18.000Z</time>
      </trkpt>
      <trkpt lat="45.28299" lon="6.20359">
        <ele>1332.4000244141</ele>
        <time>2013-03-02T06:44:24.000Z</time>
      </trkpt>
      <trkpt lat="45.28292" lon="6.20358">
        <ele>1333.4000244141</ele>
        <time>2013-03-02T06:44:29.000Z</time>
      </trkpt>
      <trkpt lat="45.28284" lon="6.20354">
        <ele>1335.1999511719</ele>
        <time>2013-03-02T06:44:37.000Z</time>
      </trkpt>
      <trkpt lat="45.28283" lon="6.20344">
        <ele>1336.5999755859</ele>
        <time>2013-03-02T06:44:43.000Z</time>
      </trkpt>
      <trkpt lat="45.28283" lon="6.20335">
        <ele>1338</ele>
        <time>2013-03-02T06:44:50.000Z</time>
      </trkpt>
      <trkpt lat="45.28283" lon="6.20334">
        <ele>1338.1999511719</ele>
        <time>2013-03-02T06:44:51.000Z</time>
      </trkpt>
      <trkpt lat="45.28281" lon="6.20324">
        <ele>1338.8000488281</ele>
        <time>2013-03-02T06:44:57.000Z</time>
      </trkpt>
      <trkpt lat="45.28275" lon="6.20317">
        <ele>1339.4000244141</ele>
        <time>2013-03-02T06:45:04.000Z</time>
      </trkpt>
      <trkpt lat="45.28266" lon="6.20323">
        <ele>1339.5999755859</ele>
        <time>2013-03-02T06:45:11.000Z</time>
      </trkpt>
      <trkpt lat="45.28263" lon="6.20323">
        <ele>1339.8000488281</ele>
        <time>2013-03-02T06:45:13.000Z</time>
      </trkpt>
      <trkpt lat="45.2826" lon="6.20321">
        <ele>1340.5999755859</ele>
        <time>2013-03-02T06:45:17.000Z</time>
      </trkpt>
      <trkpt lat="45.28255" lon="6.20313">
        <ele>1341.8000488281</ele>
        <time>2013-03-02T06:45:24.000Z</time>
      </trkpt>
      <trkpt lat="45.28254" lon="6.20306">
        <ele>1342.5999755859</ele>
        <time>2013-03-02T06:45:29.000Z</time>
      </trkpt>
      <trkpt lat="45.28251" lon="6.20299">
        <ele>1343.5999755859</ele>
        <time>2013-03-02T06:45:34.000Z</time>
      </trkpt>
      <trkpt lat="45.28247" lon="6.20293">
        <ele>1344.8000488281</ele>
        <time>2013-03-02T06:45:40.000Z</time>
      </trkpt>
      <trkpt lat="45.28246" lon="6.20284">
        <ele>1346</ele>
        <time>2013-03-02T06:45:46.000Z</time>
      </trkpt>
      <trkpt lat="45.28244" lon="6.20278">
        <ele>1347.4000244141</ele>
        <time>2013-03-02T06:45:51.000Z</time>
      </trkpt>
      <trkpt lat="45.28244" lon="6.20272">
        <ele>1348.5999755859</ele>
        <time>2013-03-02T06:45:56.000Z</time>
      </trkpt>
      <trkpt lat="45.28241" lon="6.20265">
        <ele>1349.8000488281</ele>
        <time>2013-03-02T06:46:02.000Z</time>
      </trkpt>
      <trkpt lat="45.2824" lon="6.20263">
        <ele>1350.1999511719</ele>
        <time>2013-03-02T06:46:04.000Z</time>
      </trkpt>
      <trkpt lat="45.28238" lon="6.20256">
        <ele>1351.4000244141</ele>
        <time>2013-03-02T06:46:09.000Z</time>
      </trkpt>
      <trkpt lat="45.28234" lon="6.20249">
        <ele>1352.8000488281</ele>
        <time>2013-03-02T06:46:15.000Z</time>
      </trkpt>
      <trkpt lat="45.28233" lon="6.20239">
        <ele>1353.5999755859</ele>
        <time>2013-03-02T06:46:21.000Z</time>
      </trkpt>
      <trkpt lat="45.28231" lon="6.2023">
        <ele>1354.1999511719</ele>
        <time>2013-03-02T06:46:27.000Z</time>
      </trkpt>
      <trkpt lat="45.28228" lon="6.20221">
        <ele>1355.1999511719</ele>
        <time>2013-03-02T06:46:33.000Z</time>
      </trkpt>
      <trkpt lat="45.28222" lon="6.20211">
        <ele>1356</ele>
        <time>2013-03-02T06:46:40.000Z</time>
      </trkpt>
      <trkpt lat="45.2822" lon="6.20204">
        <ele>1356.8000488281</ele>
        <time>2013-03-02T06:46:46.000Z</time>
      </trkpt>
      <trkpt lat="45.28217" lon="6.20196">
        <ele>1357.8000488281</ele>
        <time>2013-03-02T06:46:52.000Z</time>
      </trkpt>
      <trkpt lat="45.28214" lon="6.2019">
        <ele>1359</ele>
        <time>2013-03-02T06:46:57.000Z</time>
      </trkpt>
      <trkpt lat="45.28212" lon="6.20184">
        <ele>1360.1999511719</ele>
        <time>2013-03-02T06:47:02.000Z</time>
      </trkpt>
      <trkpt lat="45.28208" lon="6.20173">
        <ele>1361.8000488281</ele>
        <time>2013-03-02T06:47:10.000Z</time>
      </trkpt>
      <trkpt lat="45.28207" lon="6.20168">
        <ele>1362.8000488281</ele>
        <time>2013-03-02T06:47:14.000Z</time>
      </trkpt>
      <trkpt lat="45.28204" lon="6.20159">
        <ele>1364.1999511719</ele>
        <time>2013-03-02T06:47:22.000Z</time>
      </trkpt>
      <trkpt lat="45.28201" lon="6.20152">
        <ele>1365.1999511719</ele>
        <time>2013-03-02T06:47:27.000Z</time>
      </trkpt>
      <trkpt lat="45.28198" lon="6.20147">
        <ele>1366</ele>
        <time>2013-03-02T06:47:32.000Z</time>
      </trkpt>
      <trkpt lat="45.28194" lon="6.20142">
        <ele>1367</ele>
        <time>2013-03-02T06:47:37.000Z</time>
      </trkpt>
      <trkpt lat="45.2819" lon="6.20136">
        <ele>1368</ele>
        <time>2013-03-02T06:47:43.000Z</time>
      </trkpt>
      <trkpt lat="45.28183" lon="6.20131">
        <ele>1369.5999755859</ele>
        <time>2013-03-02T06:47:50.000Z</time>
      </trkpt>
      <trkpt lat="45.28179" lon="6.20129">
        <ele>1370.4000244141</ele>
        <time>2013-03-02T06:47:54.000Z</time>
      </trkpt>
      <trkpt lat="45.28172" lon="6.20123">
        <ele>1372.1999511719</ele>
        <time>2013-03-02T06:48:01.000Z</time>
      </trkpt>
      <trkpt lat="45.28166" lon="6.20119">
        <ele>1373.1999511719</ele>
        <time>2013-03-02T06:48:07.000Z</time>
      </trkpt>
      <trkpt lat="45.28161" lon="6.20114">
        <ele>1374.5999755859</ele>
        <time>2013-03-02T06:48:14.000Z</time>
      </trkpt>
      <trkpt lat="45.28158" lon="6.20106">
        <ele>1375.8000488281</ele>
        <time>2013-03-02T06:48:20.000Z</time>
      </trkpt>
      <trkpt lat="45.28157" lon="6.20099">
        <ele>1377</ele>
        <time>2013-03-02T06:48:25.000Z</time>
      </trkpt>
      <trkpt lat="45.28155" lon="6.20091">
        <ele>1378.1999511719</ele>
        <time>2013-03-02T06:48:31.000Z</time>
      </trkpt>
      <trkpt lat="45.28152" lon="6.20088">
        <ele>1378.8000488281</ele>
        <time>2013-03-02T06:48:35.000Z</time>
      </trkpt>
      <trkpt lat="45.28149" lon="6.20081">
        <ele>1380.1999511719</ele>
        <time>2013-03-02T06:48:40.000Z</time>
      </trkpt>
      <trkpt lat="45.28146" lon="6.20075">
        <ele>1381.1999511719</ele>
        <time>2013-03-02T06:48:45.000Z</time>
      </trkpt>
      <trkpt lat="45.28144" lon="6.20068">
        <ele>1382.4000244141</ele>
        <time>2013-03-02T06:48:50.000Z</time>
      </trkpt>
      <trkpt lat="45.28138" lon="6.20062">
        <ele>1384.1999511719</ele>
        <time>2013-03-02T06:48:58.000Z</time>
      </trkpt>
      <trkpt lat="45.28135" lon="6.20058">
        <ele>1385</ele>
        <time>2013-03-02T06:49:03.000Z</time>
      </trkpt>
      <trkpt lat="45.2813" lon="6.20051">
        <ele>1386.5999755859</ele>
        <time>2013-03-02T06:49:11.000Z</time>
      </trkpt>
      <trkpt lat="45.28129" lon="6.20049">
        <ele>1387</ele>
        <time>2013-03-02T06:49:15.000Z</time>
      </trkpt>
      <trkpt lat="45.28123" lon="6.20041">
        <ele>1386.1999511719</ele>
        <time>2013-03-02T06:51:20.000Z</time>
      </trkpt>
      <trkpt lat="45.28116" lon="6.20035">
        <ele>1385.4000244141</ele>
        <time>2013-03-02T06:51:25.000Z</time>
      </trkpt>
      <trkpt lat="45.28108" lon="6.20025">
        <ele>1384.4000244141</ele>
        <time>2013-03-02T06:51:32.000Z</time>
      </trkpt>
      <trkpt lat="45.28099" lon="6.20013">
        <ele>1383.1999511719</ele>
        <time>2013-03-02T06:51:39.000Z</time>
      </trkpt>
      <trkpt lat="45.28092" lon="6.20003">
        <ele>1382.1999511719</ele>
        <time>2013-03-02T06:51:46.000Z</time>
      </trkpt>
      <trkpt lat="45.28085" lon="6.19993">
        <ele>1381.5999755859</ele>
        <time>2013-03-02T06:51:53.000Z</time>
      </trkpt>
      <trkpt lat="45.28078" lon="6.19984">
        <ele>1381</ele>
        <time>2013-03-02T06:51:59.000Z</time>
      </trkpt>
      <trkpt lat="45.28071" lon="6.19973">
        <ele>1379.8000488281</ele>
        <time>2013-03-02T06:52:06.000Z</time>
      </trkpt>
      <trkpt lat="45.28065" lon="6.19962">
        <ele>1379.1999511719</ele>
        <time>2013-03-02T06:52:13.000Z</time>
      </trkpt>
      <trkpt lat="45.2806" lon="6.19951">
        <ele>1380</ele>
        <time>2013-03-02T06:52:21.000Z</time>
      </trkpt>
      <trkpt lat="45.2806" lon="6.19942">
        <ele>1380.4000244141</ele>
        <time>2013-03-02T06:52:28.000Z</time>
      </trkpt>
      <trkpt lat="45.2806" lon="6.1994">
        <ele>1380.4000244141</ele>
        <time>2013-03-02T06:52:30.000Z</time>
      </trkpt>
      <trkpt lat="45.28057" lon="6.19934">
        <ele>1380</ele>
        <time>2013-03-02T06:52:34.000Z</time>
      </trkpt>
      <trkpt lat="45.28057" lon="6.19927">
        <ele>1379.8000488281</ele>
        <time>2013-03-02T06:52:39.000Z</time>
      </trkpt>
      <trkpt lat="45.2805" lon="6.19928">
        <ele>1380</ele>
        <time>2013-03-02T06:52:44.000Z</time>
      </trkpt>
      <trkpt lat="45.28041" lon="6.19927">
        <ele>1379.8000488281</ele>
        <time>2013-03-02T06:52:51.000Z</time>
      </trkpt>
      <trkpt lat="45.28041" lon="6.19925">
        <ele>1379</ele>
        <time>2013-03-02T06:52:57.000Z</time>
      </trkpt>
      <trkpt lat="45.28038" lon="6.1992">
        <ele>1378</ele>
        <time>2013-03-02T06:53:35.000Z</time>
      </trkpt>
      <trkpt lat="45.28031" lon="6.19907">
        <ele>1377</ele>
        <time>2013-03-02T06:53:40.000Z</time>
      </trkpt>
      <trkpt lat="45.28021" lon="6.19892">
        <ele>1374.1999511719</ele>
        <time>2013-03-02T06:53:47.000Z</time>
      </trkpt>
      <trkpt lat="45.28013" lon="6.19876">
        <ele>1371.8000488281</ele>
        <time>2013-03-02T06:53:54.000Z</time>
      </trkpt>
      <trkpt lat="45.28009" lon="6.19871">
        <ele>1370.8000488281</ele>
        <time>2013-03-02T06:53:58.000Z</time>
      </trkpt>
      <trkpt lat="45.28004" lon="6.19863">
        <ele>1370.1999511719</ele>
        <time>2013-03-02T06:54:04.000Z</time>
      </trkpt>
      <trkpt lat="45.28" lon="6.19856">
        <ele>1370</ele>
        <time>2013-03-02T06:54:08.000Z</time>
      </trkpt>
      <trkpt lat="45.27995" lon="6.19848">
        <ele>1370.8000488281</ele>
        <time>2013-03-02T06:54:14.000Z</time>
      </trkpt>
      <trkpt lat="45.27988" lon="6.19835">
        <ele>1371.5999755859</ele>
        <time>2013-03-02T06:54:22.000Z</time>
      </trkpt>
      <trkpt lat="45.27986" lon="6.1983">
        <ele>1372</ele>
        <time>2013-03-02T06:54:25.000Z</time>
      </trkpt>
      <trkpt lat="45.27984" lon="6.19824">
        <ele>1372.4000244141</ele>
        <time>2013-03-02T06:54:29.000Z</time>
      </trkpt>
      <trkpt lat="45.27983" lon="6.19821">
        <ele>1372.4000244141</ele>
        <time>2013-03-02T06:54:31.000Z</time>
      </trkpt>
      <trkpt lat="45.27983" lon="6.19815">
        <ele>1373</ele>
        <time>2013-03-02T06:54:35.000Z</time>
      </trkpt>
      <trkpt lat="45.27983" lon="6.19807">
        <ele>1373.5999755859</ele>
        <time>2013-03-02T06:54:39.000Z</time>
      </trkpt>
      <trkpt lat="45.27974" lon="6.19805">
        <ele>1374</ele>
        <time>2013-03-02T06:54:45.000Z</time>
      </trkpt>
      <trkpt lat="45.27967" lon="6.19808">
        <ele>1374.8000488281</ele>
        <time>2013-03-02T06:54:50.000Z</time>
      </trkpt>
      <trkpt lat="45.27961" lon="6.1981">
        <ele>1375.1999511719</ele>
        <time>2013-03-02T06:54:54.000Z</time>
      </trkpt>
      <trkpt lat="45.27952" lon="6.19808">
        <ele>1376</ele>
        <time>2013-03-02T06:55:00.000Z</time>
      </trkpt>
      <trkpt lat="45.2795" lon="6.19808">
        <ele>1376.1999511719</ele>
        <time>2013-03-02T06:55:01.000Z</time>
      </trkpt>
      <trkpt lat="45.27942" lon="6.19808">
        <ele>1377.4000244141</ele>
        <time>2013-03-02T06:55:08.000Z</time>
      </trkpt>
      <trkpt lat="45.27935" lon="6.19805">
        <ele>1378.5999755859</ele>
        <time>2013-03-02T06:55:14.000Z</time>
      </trkpt>
      <trkpt lat="45.27935" lon="6.19804">
        <ele>1378.5999755859</ele>
        <time>2013-03-02T06:55:15.000Z</time>
      </trkpt>
      <trkpt lat="45.27934" lon="6.19801">
        <ele>1379</ele>
        <time>2013-03-02T06:55:18.000Z</time>
      </trkpt>
      <trkpt lat="45.27934" lon="6.19796">
        <ele>1379.4000244141</ele>
        <time>2013-03-02T06:55:22.000Z</time>
      </trkpt>
      <trkpt lat="45.2793" lon="6.19789">
        <ele>1380.4000244141</ele>
        <time>2013-03-02T06:55:29.000Z</time>
      </trkpt>
      <trkpt lat="45.2793" lon="6.19785">
        <ele>1381.1999511719</ele>
        <time>2013-03-02T06:55:35.000Z</time>
      </trkpt>
      <trkpt lat="45.27931" lon="6.19778">
        <ele>1382</ele>
        <time>2013-03-02T06:55:39.000Z</time>
      </trkpt>
      <trkpt lat="45.27928" lon="6.19765">
        <ele>1382.5999755859</ele>
        <time>2013-03-02T06:55:46.000Z</time>
      </trkpt>
      <trkpt lat="45.27927" lon="6.19755">
        <ele>1383.4000244141</ele>
        <time>2013-03-02T06:55:52.000Z</time>
      </trkpt>
      <trkpt lat="45.27927" lon="6.19746">
        <ele>1384.4000244141</ele>
        <time>2013-03-02T06:55:57.000Z</time>
      </trkpt>
      <trkpt lat="45.27925" lon="6.19745">
        <ele>1384.5999755859</ele>
        <time>2013-03-02T06:55:58.000Z</time>
      </trkpt>
      <trkpt lat="45.27923" lon="6.19742">
        <ele>1385.4000244141</ele>
        <time>2013-03-02T06:56:01.000Z</time>
      </trkpt>
      <trkpt lat="45.27921" lon="6.19738">
        <ele>1386.4000244141</ele>
        <time>2013-03-02T06:56:05.000Z</time>
      </trkpt>
      <trkpt lat="45.27918" lon="6.19729">
        <ele>1388.1999511719</ele>
        <time>2013-03-02T06:56:12.000Z</time>
      </trkpt>
      <trkpt lat="45.27918" lon="6.19726">
        <ele>1388.8000488281</ele>
        <time>2013-03-02T06:56:14.000Z</time>
      </trkpt>
      <trkpt lat="45.27916" lon="6.19725">
        <ele>1389.4000244141</ele>
        <time>2013-03-02T06:56:16.000Z</time>
      </trkpt>
      <trkpt lat="45.27906" lon="6.1973">
        <ele>1391.4000244141</ele>
        <time>2013-03-02T06:56:23.000Z</time>
      </trkpt>
      <trkpt lat="45.27901" lon="6.1973">
        <ele>1392.5999755859</ele>
        <time>2013-03-02T06:56:27.000Z</time>
      </trkpt>
      <trkpt lat="45.27899" lon="6.19724">
        <ele>1393.8000488281</ele>
        <time>2013-03-02T06:56:32.000Z</time>
      </trkpt>
      <trkpt lat="45.27899" lon="6.19718">
        <ele>1394.1999511719</ele>
        <time>2013-03-02T06:56:35.000Z</time>
      </trkpt>
      <trkpt lat="45.27898" lon="6.19712">
        <ele>1395.4000244141</ele>
        <time>2013-03-02T06:56:40.000Z</time>
      </trkpt>
      <trkpt lat="45.27898" lon="6.19711">
        <ele>1395.5999755859</ele>
        <time>2013-03-02T06:56:41.000Z</time>
      </trkpt>
      <trkpt lat="45.27894" lon="6.19707">
        <ele>1397.1999511719</ele>
        <time>2013-03-02T06:56:46.000Z</time>
      </trkpt>
      <trkpt lat="45.27884" lon="6.19709">
        <ele>1398.4000244141</ele>
        <time>2013-03-02T06:56:53.000Z</time>
      </trkpt>
      <trkpt lat="45.27883" lon="6.19706">
        <ele>1399.4000244141</ele>
        <time>2013-03-02T06:56:56.000Z</time>
      </trkpt>
      <trkpt lat="45.27884" lon="6.19704">
        <ele>1399.8000488281</ele>
        <time>2013-03-02T06:56:58.000Z</time>
      </trkpt>
      <trkpt lat="45.27884" lon="6.197">
        <ele>1400.4000244141</ele>
        <time>2013-03-02T06:57:04.000Z</time>
      </trkpt>
      <trkpt lat="45.27884" lon="6.19699">
        <ele>1400.5999755859</ele>
        <time>2013-03-02T06:57:05.000Z</time>
      </trkpt>
      <trkpt lat="45.27884" lon="6.19689">
        <ele>1402.4000244141</ele>
        <time>2013-03-02T06:57:12.000Z</time>
      </trkpt>
      <trkpt lat="45.27883" lon="6.19685">
        <ele>1403.4000244141</ele>
        <time>2013-03-02T06:57:16.000Z</time>
      </trkpt>
      <trkpt lat="45.27884" lon="6.19676">
        <ele>1405.1999511719</ele>
        <time>2013-03-02T06:57:23.000Z</time>
      </trkpt>
      <trkpt lat="45.27884" lon="6.19674">
        <ele>1405.5999755859</ele>
        <time>2013-03-02T06:57:24.000Z</time>
      </trkpt>
      <trkpt lat="45.27878" lon="6.19673">
        <ele>1407.1999511719</ele>
        <time>2013-03-02T06:57:32.000Z</time>
      </trkpt>
      <trkpt lat="45.27875" lon="6.1967">
        <ele>1408.4000244141</ele>
        <time>2013-03-02T06:57:38.000Z</time>
      </trkpt>
      <trkpt lat="45.27874" lon="6.19669">
        <ele>1408.5999755859</ele>
        <time>2013-03-02T06:57:40.000Z</time>
      </trkpt>
      <trkpt lat="45.27872" lon="6.19665">
        <ele>1409.4000244141</ele>
        <time>2013-03-02T06:57:43.000Z</time>
      </trkpt>
      <trkpt lat="45.27869" lon="6.1966">
        <ele>1409.8000488281</ele>
        <time>2013-03-02T06:57:46.000Z</time>
      </trkpt>
      <trkpt lat="45.27867" lon="6.19657">
        <ele>1410.8000488281</ele>
        <time>2013-03-02T06:57:51.000Z</time>
      </trkpt>
      <trkpt lat="45.27863" lon="6.19649">
        <ele>1412.4000244141</ele>
        <time>2013-03-02T06:57:58.000Z</time>
      </trkpt>
      <trkpt lat="45.27859" lon="6.19642">
        <ele>1413.1999511719</ele>
        <time>2013-03-02T06:58:05.000Z</time>
      </trkpt>
      <trkpt lat="45.27858" lon="6.1964">
        <ele>1414.1999511719</ele>
        <time>2013-03-02T06:58:10.000Z</time>
      </trkpt>
      <trkpt lat="45.27852" lon="6.19637">
        <ele>1415.1999511719</ele>
        <time>2013-03-02T06:58:16.000Z</time>
      </trkpt>
      <trkpt lat="45.27847" lon="6.19631">
        <ele>1416.8000488281</ele>
        <time>2013-03-02T06:58:22.000Z</time>
      </trkpt>
      <trkpt lat="45.27844" lon="6.19633">
        <ele>1418</ele>
        <time>2013-03-02T06:58:27.000Z</time>
      </trkpt>
      <trkpt lat="45.27839" lon="6.19639">
        <ele>1419.1999511719</ele>
        <time>2013-03-02T06:58:32.000Z</time>
      </trkpt>
      <trkpt lat="45.27832" lon="6.19644">
        <ele>1421</ele>
        <time>2013-03-02T06:58:39.000Z</time>
      </trkpt>
      <trkpt lat="45.27828" lon="6.19645">
        <ele>1422.1999511719</ele>
        <time>2013-03-02T06:58:45.000Z</time>
      </trkpt>
      <trkpt lat="45.27826" lon="6.19648">
        <ele>1423</ele>
        <time>2013-03-02T06:58:51.000Z</time>
      </trkpt>
      <trkpt lat="45.27821" lon="6.19654">
        <ele>1423.1999511719</ele>
        <time>2013-03-02T06:58:58.000Z</time>
      </trkpt>
      <trkpt lat="45.27819" lon="6.19661">
        <ele>1424.5999755859</ele>
        <time>2013-03-02T06:59:05.000Z</time>
      </trkpt>
      <trkpt lat="45.27819" lon="6.19665">
        <ele>1425.5999755859</ele>
        <time>2013-03-02T06:59:12.000Z</time>
      </trkpt>
      <trkpt lat="45.27815" lon="6.19669">
        <ele>1427</ele>
        <time>2013-03-02T06:59:19.000Z</time>
      </trkpt>
      <trkpt lat="45.27812" lon="6.19675">
        <ele>1428.5999755859</ele>
        <time>2013-03-02T06:59:26.000Z</time>
      </trkpt>
      <trkpt lat="45.27808" lon="6.1968">
        <ele>1429.5999755859</ele>
        <time>2013-03-02T06:59:33.000Z</time>
      </trkpt>
      <trkpt lat="45.27804" lon="6.19683">
        <ele>1430.8000488281</ele>
        <time>2013-03-02T06:59:38.000Z</time>
      </trkpt>
      <trkpt lat="45.27804" lon="6.19685">
        <ele>1431.1999511719</ele>
        <time>2013-03-02T06:59:40.000Z</time>
      </trkpt>
      <trkpt lat="45.278" lon="6.19687">
        <ele>1432.8000488281</ele>
        <time>2013-03-02T06:59:45.000Z</time>
      </trkpt>
      <trkpt lat="45.27794" lon="6.19689">
        <ele>1434.4000244141</ele>
        <time>2013-03-02T06:59:52.000Z</time>
      </trkpt>
      <trkpt lat="45.27789" lon="6.19688">
        <ele>1434.8000488281</ele>
        <time>2013-03-02T06:59:58.000Z</time>
      </trkpt>
      <trkpt lat="45.27788" lon="6.19685">
        <ele>1435.1999511719</ele>
        <time>2013-03-02T07:00:01.000Z</time>
      </trkpt>
      <trkpt lat="45.27786" lon="6.19681">
        <ele>1435.8000488281</ele>
        <time>2013-03-02T07:00:05.000Z</time>
      </trkpt>
      <trkpt lat="45.27784" lon="6.19679">
        <ele>1436.4000244141</ele>
        <time>2013-03-02T07:00:07.000Z</time>
      </trkpt>
      <trkpt lat="45.27783" lon="6.19673">
        <ele>1437.5999755859</ele>
        <time>2013-03-02T07:00:14.000Z</time>
      </trkpt>
      <trkpt lat="45.27783" lon="6.19669">
        <ele>1438.1999511719</ele>
        <time>2013-03-02T07:00:18.000Z</time>
      </trkpt>
      <trkpt lat="45.27785" lon="6.19662">
        <ele>1439</ele>
        <time>2013-03-02T07:00:24.000Z</time>
      </trkpt>
      <trkpt lat="45.27784" lon="6.19661">
        <ele>1439.4000244141</ele>
        <time>2013-03-02T07:00:26.000Z</time>
      </trkpt>
      <trkpt lat="45.27775" lon="6.19674">
        <ele>1441.4000244141</ele>
        <time>2013-03-02T07:00:36.000Z</time>
      </trkpt>
      <trkpt lat="45.27773" lon="6.19678">
        <ele>1442.8000488281</ele>
        <time>2013-03-02T07:00:42.000Z</time>
      </trkpt>
      <trkpt lat="45.27773" lon="6.1968">
        <ele>1443.5999755859</ele>
        <time>2013-03-02T07:00:47.000Z</time>
      </trkpt>
      <trkpt lat="45.2777" lon="6.19691">
        <ele>1445</ele>
        <time>2013-03-02T07:00:53.000Z</time>
      </trkpt>
      <trkpt lat="45.27771" lon="6.197">
        <ele>1446.5999755859</ele>
        <time>2013-03-02T07:00:59.000Z</time>
      </trkpt>
      <trkpt lat="45.27769" lon="6.19708">
        <ele>1447.8000488281</ele>
        <time>2013-03-02T07:01:05.000Z</time>
      </trkpt>
      <trkpt lat="45.27768" lon="6.19715">
        <ele>1448.8000488281</ele>
        <time>2013-03-02T07:01:11.000Z</time>
      </trkpt>
      <trkpt lat="45.27768" lon="6.19723">
        <ele>1449.4000244141</ele>
        <time>2013-03-02T07:01:16.000Z</time>
      </trkpt>
      <trkpt lat="45.27769" lon="6.19726">
        <ele>1449.4000244141</ele>
        <time>2013-03-02T07:01:18.000Z</time>
      </trkpt>
      <trkpt lat="45.27768" lon="6.19734">
        <ele>1450.4000244141</ele>
        <time>2013-03-02T07:01:24.000Z</time>
      </trkpt>
      <trkpt lat="45.27769" lon="6.19739">
        <ele>1451.8000488281</ele>
        <time>2013-03-02T07:01:31.000Z</time>
      </trkpt>
      <trkpt lat="45.27768" lon="6.19745">
        <ele>1452.8000488281</ele>
        <time>2013-03-02T07:01:36.000Z</time>
      </trkpt>
      <trkpt lat="45.27768" lon="6.19752">
        <ele>1454</ele>
        <time>2013-03-02T07:01:42.000Z</time>
      </trkpt>
      <trkpt lat="45.27769" lon="6.19759">
        <ele>1454.8000488281</ele>
        <time>2013-03-02T07:01:48.000Z</time>
      </trkpt>
      <trkpt lat="45.2777" lon="6.1977">
        <ele>1456.4000244141</ele>
        <time>2013-03-02T07:01:55.000Z</time>
      </trkpt>
      <trkpt lat="45.27771" lon="6.19779">
        <ele>1457.4000244141</ele>
        <time>2013-03-02T07:02:01.000Z</time>
      </trkpt>
      <trkpt lat="45.27773" lon="6.19782">
        <ele>1458</ele>
        <time>2013-03-02T07:02:04.000Z</time>
      </trkpt>
      <trkpt lat="45.27774" lon="6.19789">
        <ele>1458.1999511719</ele>
        <time>2013-03-02T07:02:09.000Z</time>
      </trkpt>
      <trkpt lat="45.27778" lon="6.19795">
        <ele>1459</ele>
        <time>2013-03-02T07:02:15.000Z</time>
      </trkpt>
      <trkpt lat="45.27779" lon="6.19799">
        <ele>1459.5999755859</ele>
        <time>2013-03-02T07:02:18.000Z</time>
      </trkpt>
      <trkpt lat="45.2778" lon="6.19802">
        <ele>1460</ele>
        <time>2013-03-02T07:02:20.000Z</time>
      </trkpt>
      <trkpt lat="45.2778" lon="6.19806">
        <ele>1460.4000244141</ele>
        <time>2013-03-02T07:02:23.000Z</time>
      </trkpt>
      <trkpt lat="45.27777" lon="6.19814">
        <ele>1461.8000488281</ele>
        <time>2013-03-02T07:02:29.000Z</time>
      </trkpt>
      <trkpt lat="45.27776" lon="6.19821">
        <ele>1463</ele>
        <time>2013-03-02T07:02:34.000Z</time>
      </trkpt>
      <trkpt lat="45.27776" lon="6.1983">
        <ele>1464.8000488281</ele>
        <time>2013-03-02T07:02:41.000Z</time>
      </trkpt>
      <trkpt lat="45.27777" lon="6.19836">
        <ele>1465.5999755859</ele>
        <time>2013-03-02T07:02:46.000Z</time>
      </trkpt>
      <trkpt lat="45.2778" lon="6.19846">
        <ele>1466.5999755859</ele>
        <time>2013-03-02T07:02:53.000Z</time>
      </trkpt>
      <trkpt lat="45.27783" lon="6.1985">
        <ele>1466.8000488281</ele>
        <time>2013-03-02T07:02:57.000Z</time>
      </trkpt>
      <trkpt lat="45.27784" lon="6.19853">
        <ele>1467.1999511719</ele>
        <time>2013-03-02T07:02:59.000Z</time>
      </trkpt>
      <trkpt lat="45.27786" lon="6.1986">
        <ele>1468</ele>
        <time>2013-03-02T07:03:05.000Z</time>
      </trkpt>
      <trkpt lat="45.2779" lon="6.19861">
        <ele>1468.4000244141</ele>
        <time>2013-03-02T07:03:09.000Z</time>
      </trkpt>
      <trkpt lat="45.27789" lon="6.19867">
        <ele>1469.4000244141</ele>
        <time>2013-03-02T07:03:15.000Z</time>
      </trkpt>
      <trkpt lat="45.27787" lon="6.19878">
        <ele>1470.1999511719</ele>
        <time>2013-03-02T07:03:20.000Z</time>
      </trkpt>
      <trkpt lat="45.2779" lon="6.19887">
        <ele>1471.8000488281</ele>
        <time>2013-03-02T07:03:26.000Z</time>
      </trkpt>
      <trkpt lat="45.27797" lon="6.19896">
        <ele>1473.1999511719</ele>
        <time>2013-03-02T07:03:33.000Z</time>
      </trkpt>
      <trkpt lat="45.27801" lon="6.19904">
        <ele>1474</ele>
        <time>2013-03-02T07:03:40.000Z</time>
      </trkpt>
      <trkpt lat="45.27804" lon="6.19913">
        <ele>1475</ele>
        <time>2013-03-02T07:03:47.000Z</time>
      </trkpt>
      <trkpt lat="45.27804" lon="6.19918">
        <ele>1475.8000488281</ele>
        <time>2013-03-02T07:03:50.000Z</time>
      </trkpt>
      <trkpt lat="45.27806" lon="6.1992">
        <ele>1476.5999755859</ele>
        <time>2013-03-02T07:03:54.000Z</time>
      </trkpt>
      <trkpt lat="45.27807" lon="6.19927">
        <ele>1478</ele>
        <time>2013-03-02T07:03:59.000Z</time>
      </trkpt>
      <trkpt lat="45.27807" lon="6.19932">
        <ele>1478.5999755859</ele>
        <time>2013-03-02T07:04:02.000Z</time>
      </trkpt>
      <trkpt lat="45.2781" lon="6.1994">
        <ele>1480</ele>
        <time>2013-03-02T07:04:10.000Z</time>
      </trkpt>
      <trkpt lat="45.27809" lon="6.19945">
        <ele>1480.8000488281</ele>
        <time>2013-03-02T07:04:15.000Z</time>
      </trkpt>
      <trkpt lat="45.27809" lon="6.19947">
        <ele>1481.4000244141</ele>
        <time>2013-03-02T07:04:17.000Z</time>
      </trkpt>
      <trkpt lat="45.27809" lon="6.19956">
        <ele>1483</ele>
        <time>2013-03-02T07:04:25.000Z</time>
      </trkpt>
      <trkpt lat="45.2781" lon="6.19959">
        <ele>1483.8000488281</ele>
        <time>2013-03-02T07:04:31.000Z</time>
      </trkpt>
      <trkpt lat="45.27807" lon="6.1996">
        <ele>1485</ele>
        <time>2013-03-02T07:04:37.000Z</time>
      </trkpt>
      <trkpt lat="45.27807" lon="6.19967">
        <ele>1487</ele>
        <time>2013-03-02T07:04:44.000Z</time>
      </trkpt>
      <trkpt lat="45.27808" lon="6.19972">
        <ele>1488.1999511719</ele>
        <time>2013-03-02T07:04:49.000Z</time>
      </trkpt>
      <trkpt lat="45.27808" lon="6.19976">
        <ele>1489.4000244141</ele>
        <time>2013-03-02T07:04:54.000Z</time>
      </trkpt>
      <trkpt lat="45.27809" lon="6.19978">
        <ele>1489.8000488281</ele>
        <time>2013-03-02T07:04:55.000Z</time>
      </trkpt>
      <trkpt lat="45.27812" lon="6.19984">
        <ele>1491</ele>
        <time>2013-03-02T07:05:01.000Z</time>
      </trkpt>
      <trkpt lat="45.27815" lon="6.19985">
        <ele>1492</ele>
        <time>2013-03-02T07:05:10.000Z</time>
      </trkpt>
      <trkpt lat="45.27826" lon="6.19986">
        <ele>1492.1999511719</ele>
        <time>2013-03-02T07:05:33.000Z</time>
      </trkpt>
      <trkpt lat="45.27817" lon="6.19993">
        <ele>1492.1999511719</ele>
        <time>2013-03-02T07:05:48.000Z</time>
      </trkpt>
      <trkpt lat="45.27814" lon="6.1999">
        <ele>1492.4000244141</ele>
        <time>2013-03-02T07:05:55.000Z</time>
      </trkpt>
      <trkpt lat="45.2781" lon="6.19994">
        <ele>1492.5999755859</ele>
        <time>2013-03-02T07:06:16.000Z</time>
      </trkpt>
      <trkpt lat="45.27815" lon="6.19993">
        <ele>1492.5999755859</ele>
        <time>2013-03-02T07:06:24.000Z</time>
      </trkpt>
      <trkpt lat="45.27816" lon="6.19996">
        <ele>1493</ele>
        <time>2013-03-02T07:06:36.000Z</time>
      </trkpt>
      <trkpt lat="45.27816" lon="6.2">
        <ele>1493.4000244141</ele>
        <time>2013-03-02T07:06:41.000Z</time>
      </trkpt>
      <trkpt lat="45.27813" lon="6.20009">
        <ele>1493.5999755859</ele>
        <time>2013-03-02T07:06:47.000Z</time>
      </trkpt>
      <trkpt lat="45.27814" lon="6.20014">
        <ele>1494.1999511719</ele>
        <time>2013-03-02T07:06:52.000Z</time>
      </trkpt>
      <trkpt lat="45.27814" lon="6.20017">
        <ele>1494.5999755859</ele>
        <time>2013-03-02T07:06:54.000Z</time>
      </trkpt>
      <trkpt lat="45.27815" lon="6.20019">
        <ele>1495.4000244141</ele>
        <time>2013-03-02T07:06:56.000Z</time>
      </trkpt>
      <trkpt lat="45.27814" lon="6.20022">
        <ele>1496.4000244141</ele>
        <time>2013-03-02T07:07:02.000Z</time>
      </trkpt>
      <trkpt lat="45.27815" lon="6.2003">
        <ele>1497.4000244141</ele>
        <time>2013-03-02T07:07:08.000Z</time>
      </trkpt>
      <trkpt lat="45.2782" lon="6.20043">
        <ele>1498.4000244141</ele>
        <time>2013-03-02T07:07:15.000Z</time>
      </trkpt>
      <trkpt lat="45.2782" lon="6.20047">
        <ele>1498.8000488281</ele>
        <time>2013-03-02T07:07:21.000Z</time>
      </trkpt>
      <trkpt lat="45.27815" lon="6.20048">
        <ele>1499.4000244141</ele>
        <time>2013-03-02T07:07:26.000Z</time>
      </trkpt>
      <trkpt lat="45.27814" lon="6.20054">
        <ele>1500.8000488281</ele>
        <time>2013-03-02T07:07:31.000Z</time>
      </trkpt>
      <trkpt lat="45.27814" lon="6.20067">
        <ele>1502.1999511719</ele>
        <time>2013-03-02T07:07:38.000Z</time>
      </trkpt>
      <trkpt lat="45.27817" lon="6.20072">
        <ele>1502.8000488281</ele>
        <time>2013-03-02T07:07:42.000Z</time>
      </trkpt>
      <trkpt lat="45.27817" lon="6.20079">
        <ele>1504</ele>
        <time>2013-03-02T07:07:49.000Z</time>
      </trkpt>
      <trkpt lat="45.2782" lon="6.20081">
        <ele>1505</ele>
        <time>2013-03-02T07:07:53.000Z</time>
      </trkpt>
      <trkpt lat="45.27821" lon="6.2009">
        <ele>1506.1999511719</ele>
        <time>2013-03-02T07:08:00.000Z</time>
      </trkpt>
      <trkpt lat="45.27823" lon="6.20091">
        <ele>1506.4000244141</ele>
        <time>2013-03-02T07:08:01.000Z</time>
      </trkpt>
      <trkpt lat="45.27822" lon="6.20097">
        <ele>1507.8000488281</ele>
        <time>2013-03-02T07:08:08.000Z</time>
      </trkpt>
      <trkpt lat="45.27822" lon="6.20097">
        <ele>1508</ele>
        <time>2013-03-02T07:08:09.000Z</time>
      </trkpt>
      <trkpt lat="45.2782" lon="6.20103">
        <ele>1509.8000488281</ele>
        <time>2013-03-02T07:08:16.000Z</time>
      </trkpt>
      <trkpt lat="45.27824" lon="6.20111">
        <ele>1511.1999511719</ele>
        <time>2013-03-02T07:08:23.000Z</time>
      </trkpt>
      <trkpt lat="45.27824" lon="6.20112">
        <ele>1511.4000244141</ele>
        <time>2013-03-02T07:08:24.000Z</time>
      </trkpt>
      <trkpt lat="45.27822" lon="6.20117">
        <ele>1512</ele>
        <time>2013-03-02T07:08:28.000Z</time>
      </trkpt>
      <trkpt lat="45.27825" lon="6.20123">
        <ele>1514.4000244141</ele>
        <time>2013-03-02T07:08:36.000Z</time>
      </trkpt>
      <trkpt lat="45.27827" lon="6.20129">
        <ele>1515.4000244141</ele>
        <time>2013-03-02T07:08:41.000Z</time>
      </trkpt>
      <trkpt lat="45.27827" lon="6.20132">
        <ele>1516.4000244141</ele>
        <time>2013-03-02T07:08:46.000Z</time>
      </trkpt>
      <trkpt lat="45.27829" lon="6.20139">
        <ele>1517.5999755859</ele>
        <time>2013-03-02T07:08:52.000Z</time>
      </trkpt>
      <trkpt lat="45.2783" lon="6.20146">
        <ele>1519</ele>
        <time>2013-03-02T07:08:58.000Z</time>
      </trkpt>
      <trkpt lat="45.27832" lon="6.2015">
        <ele>1520.5999755859</ele>
        <time>2013-03-02T07:09:03.000Z</time>
      </trkpt>
      <trkpt lat="45.27833" lon="6.20159">
        <ele>1522.1999511719</ele>
        <time>2013-03-02T07:09:09.000Z</time>
      </trkpt>
      <trkpt lat="45.27836" lon="6.20164">
        <ele>1523.5999755859</ele>
        <time>2013-03-02T07:09:15.000Z</time>
      </trkpt>
      <trkpt lat="45.27838" lon="6.20168">
        <ele>1524.5999755859</ele>
        <time>2013-03-02T07:09:20.000Z</time>
      </trkpt>
      <trkpt lat="45.2784" lon="6.20175">
        <ele>1526.4000244141</ele>
        <time>2013-03-02T07:09:27.000Z</time>
      </trkpt>
      <trkpt lat="45.27843" lon="6.20181">
        <ele>1527.1999511719</ele>
        <time>2013-03-02T07:09:32.000Z</time>
      </trkpt>
      <trkpt lat="45.27846" lon="6.20185">
        <ele>1528.4000244141</ele>
        <time>2013-03-02T07:09:38.000Z</time>
      </trkpt>
      <trkpt lat="45.27849" lon="6.20186">
        <ele>1528.8000488281</ele>
        <time>2013-03-02T07:09:41.000Z</time>
      </trkpt>
      <trkpt lat="45.2785" lon="6.20194">
        <ele>1530.5999755859</ele>
        <time>2013-03-02T07:09:49.000Z</time>
      </trkpt>
      <trkpt lat="45.27851" lon="6.202">
        <ele>1532</ele>
        <time>2013-03-02T07:09:55.000Z</time>
      </trkpt>
      <trkpt lat="45.27851" lon="6.20201">
        <ele>1532.1999511719</ele>
        <time>2013-03-02T07:09:56.000Z</time>
      </trkpt>
      <trkpt lat="45.2785" lon="6.20204">
        <ele>1533.4000244141</ele>
        <time>2013-03-02T07:10:00.000Z</time>
      </trkpt>
      <trkpt lat="45.27846" lon="6.20209">
        <ele>1535</ele>
        <time>2013-03-02T07:10:07.000Z</time>
      </trkpt>
      <trkpt lat="45.27842" lon="6.20212">
        <ele>1536.5999755859</ele>
        <time>2013-03-02T07:10:14.000Z</time>
      </trkpt>
      <trkpt lat="45.2784" lon="6.20211">
        <ele>1537.8000488281</ele>
        <time>2013-03-02T07:10:19.000Z</time>
      </trkpt>
      <trkpt lat="45.27838" lon="6.2021">
        <ele>1538.4000244141</ele>
        <time>2013-03-02T07:10:22.000Z</time>
      </trkpt>
      <trkpt lat="45.27833" lon="6.20201">
        <ele>1539</ele>
        <time>2013-03-02T07:10:30.000Z</time>
      </trkpt>
      <trkpt lat="45.27833" lon="6.202">
        <ele>1539.1999511719</ele>
        <time>2013-03-02T07:10:31.000Z</time>
      </trkpt>
      <trkpt lat="45.27828" lon="6.20196">
        <ele>1539.8000488281</ele>
        <time>2013-03-02T07:10:38.000Z</time>
      </trkpt>
      <trkpt lat="45.27826" lon="6.20192">
        <ele>1540.4000244141</ele>
        <time>2013-03-02T07:11:05.000Z</time>
      </trkpt>
      <trkpt lat="45.2782" lon="6.20187">
        <ele>1541</ele>
        <time>2013-03-02T07:11:11.000Z</time>
      </trkpt>
      <trkpt lat="45.27811" lon="6.20178">
        <ele>1542.1999511719</ele>
        <time>2013-03-02T07:11:17.000Z</time>
      </trkpt>
      <trkpt lat="45.27804" lon="6.2017">
        <ele>1543</ele>
        <time>2013-03-02T07:11:23.000Z</time>
      </trkpt>
      <trkpt lat="45.27799" lon="6.20162">
        <ele>1543.4000244141</ele>
        <time>2013-03-02T07:11:28.000Z</time>
      </trkpt>
      <trkpt lat="45.27794" lon="6.20154">
        <ele>1543.8000488281</ele>
        <time>2013-03-02T07:11:34.000Z</time>
      </trkpt>
      <trkpt lat="45.27788" lon="6.20147">
        <ele>1544.8000488281</ele>
        <time>2013-03-02T07:11:40.000Z</time>
      </trkpt>
      <trkpt lat="45.27783" lon="6.20141">
        <ele>1545.5999755859</ele>
        <time>2013-03-02T07:11:46.000Z</time>
      </trkpt>
      <trkpt lat="45.27783" lon="6.20141">
        <ele>1546.1999511719</ele>
        <time>2013-03-02T07:11:51.000Z</time>
      </trkpt>
      <trkpt lat="45.27785" lon="6.20143">
        <ele>1546.4000244141</ele>
        <time>2013-03-02T07:11:56.000Z</time>
      </trkpt>
      <trkpt lat="45.27781" lon="6.20146">
        <ele>1545.8000488281</ele>
        <time>2013-03-02T07:14:20.000Z</time>
      </trkpt>
      <trkpt lat="45.27781" lon="6.20147">
        <ele>1545.8000488281</ele>
        <time>2013-03-02T07:14:28.000Z</time>
      </trkpt>
      <trkpt lat="45.2778" lon="6.20142">
        <ele>1545.5999755859</ele>
        <time>2013-03-02T07:14:52.000Z</time>
      </trkpt>
      <trkpt lat="45.2778" lon="6.20138">
        <ele>1545.8000488281</ele>
        <time>2013-03-02T07:16:41.000Z</time>
      </trkpt>
      <trkpt lat="45.2778" lon="6.20133">
        <ele>1546.4000244141</ele>
        <time>2013-03-02T07:16:45.000Z</time>
      </trkpt>
      <trkpt lat="45.27779" lon="6.20129">
        <ele>1546.4000244141</ele>
        <time>2013-03-02T07:16:47.000Z</time>
      </trkpt>
      <trkpt lat="45.27777" lon="6.20122">
        <ele>1546.8000488281</ele>
        <time>2013-03-02T07:16:51.000Z</time>
      </trkpt>
      <trkpt lat="45.27769" lon="6.20108">
        <ele>1547.4000244141</ele>
        <time>2013-03-02T07:17:00.000Z</time>
      </trkpt>
      <trkpt lat="45.27767" lon="6.20101">
        <ele>1547.8000488281</ele>
        <time>2013-03-02T07:17:04.000Z</time>
      </trkpt>
      <trkpt lat="45.27762" lon="6.20089">
        <ele>1549</ele>
        <time>2013-03-02T07:17:11.000Z</time>
      </trkpt>
      <trkpt lat="45.27754" lon="6.20076">
        <ele>1550</ele>
        <time>2013-03-02T07:17:19.000Z</time>
      </trkpt>
      <trkpt lat="45.27749" lon="6.20067">
        <ele>1550.8000488281</ele>
        <time>2013-03-02T07:17:25.000Z</time>
      </trkpt>
      <trkpt lat="45.27744" lon="6.20058">
        <ele>1551.5999755859</ele>
        <time>2013-03-02T07:17:31.000Z</time>
      </trkpt>
      <trkpt lat="45.27736" lon="6.20049">
        <ele>1552.5999755859</ele>
        <time>2013-03-02T07:17:37.000Z</time>
      </trkpt>
      <trkpt lat="45.27731" lon="6.20042">
        <ele>1553</ele>
        <time>2013-03-02T07:17:43.000Z</time>
      </trkpt>
      <trkpt lat="45.27725" lon="6.20034">
        <ele>1554.1999511719</ele>
        <time>2013-03-02T07:17:50.000Z</time>
      </trkpt>
      <trkpt lat="45.2772" lon="6.20028">
        <ele>1555</ele>
        <time>2013-03-02T07:17:55.000Z</time>
      </trkpt>
      <trkpt lat="45.27716" lon="6.20022">
        <ele>1556</ele>
        <time>2013-03-02T07:18:00.000Z</time>
      </trkpt>
      <trkpt lat="45.27708" lon="6.20009">
        <ele>1557</ele>
        <time>2013-03-02T07:18:08.000Z</time>
      </trkpt>
      <trkpt lat="45.27702" lon="6.2">
        <ele>1556.5999755859</ele>
        <time>2013-03-02T07:18:14.000Z</time>
      </trkpt>
      <trkpt lat="45.27698" lon="6.19987">
        <ele>1556.4000244141</ele>
        <time>2013-03-02T07:18:21.000Z</time>
      </trkpt>
      <trkpt lat="45.27693" lon="6.19974">
        <ele>1555.5999755859</ele>
        <time>2013-03-02T07:18:27.000Z</time>
      </trkpt>
      <trkpt lat="45.27687" lon="6.19962">
        <ele>1555</ele>
        <time>2013-03-02T07:18:33.000Z</time>
      </trkpt>
      <trkpt lat="45.27682" lon="6.19951">
        <ele>1554.8000488281</ele>
        <time>2013-03-02T07:18:39.000Z</time>
      </trkpt>
      <trkpt lat="45.27677" lon="6.19938">
        <ele>1555.1999511719</ele>
        <time>2013-03-02T07:18:46.000Z</time>
      </trkpt>
      <trkpt lat="45.27675" lon="6.19931">
        <ele>1555.4000244141</ele>
        <time>2013-03-02T07:18:50.000Z</time>
      </trkpt>
      <trkpt lat="45.27668" lon="6.19921">
        <ele>1555.8000488281</ele>
        <time>2013-03-02T07:18:57.000Z</time>
      </trkpt>
      <trkpt lat="45.27662" lon="6.19912">
        <ele>1556.8000488281</ele>
        <time>2013-03-02T07:19:04.000Z</time>
      </trkpt>
      <trkpt lat="45.27659" lon="6.19905">
        <ele>1557.1999511719</ele>
        <time>2013-03-02T07:19:08.000Z</time>
      </trkpt>
      <trkpt lat="45.27652" lon="6.19894">
        <ele>1557.5999755859</ele>
        <time>2013-03-02T07:19:15.000Z</time>
      </trkpt>
      <trkpt lat="45.27649" lon="6.1989">
        <ele>1558.1999511719</ele>
        <time>2013-03-02T07:19:18.000Z</time>
      </trkpt>
      <trkpt lat="45.27643" lon="6.1988">
        <ele>1559</ele>
        <time>2013-03-02T07:19:26.000Z</time>
      </trkpt>
      <trkpt lat="45.27635" lon="6.1987">
        <ele>1559.5999755859</ele>
        <time>2013-03-02T07:19:34.000Z</time>
      </trkpt>
      <trkpt lat="45.2763" lon="6.19864">
        <ele>1560</ele>
        <time>2013-03-02T07:19:40.000Z</time>
      </trkpt>
      <trkpt lat="45.27624" lon="6.19854">
        <ele>1561.4000244141</ele>
        <time>2013-03-02T07:19:49.000Z</time>
      </trkpt>
      <trkpt lat="45.27622" lon="6.19845">
        <ele>1562.4000244141</ele>
        <time>2013-03-02T07:19:56.000Z</time>
      </trkpt>
      <trkpt lat="45.27619" lon="6.19834">
        <ele>1563.5999755859</ele>
        <time>2013-03-02T07:20:04.000Z</time>
      </trkpt>
      <trkpt lat="45.27615" lon="6.19826">
        <ele>1564</ele>
        <time>2013-03-02T07:20:10.000Z</time>
      </trkpt>
      <trkpt lat="45.27613" lon="6.1982">
        <ele>1564.8000488281</ele>
        <time>2013-03-02T07:20:14.000Z</time>
      </trkpt>
      <trkpt lat="45.27606" lon="6.19811">
        <ele>1565.5999755859</ele>
        <time>2013-03-02T07:20:22.000Z</time>
      </trkpt>
      <trkpt lat="45.27603" lon="6.19801">
        <ele>1566.4000244141</ele>
        <time>2013-03-02T07:20:29.000Z</time>
      </trkpt>
      <trkpt lat="45.27602" lon="6.19795">
        <ele>1566.8000488281</ele>
        <time>2013-03-02T07:20:33.000Z</time>
      </trkpt>
      <trkpt lat="45.27601" lon="6.19792">
        <ele>1567</ele>
        <time>2013-03-02T07:20:35.000Z</time>
      </trkpt>
      <trkpt lat="45.27598" lon="6.19782">
        <ele>1568.1999511719</ele>
        <time>2013-03-02T07:20:42.000Z</time>
      </trkpt>
      <trkpt lat="45.27595" lon="6.19774">
        <ele>1569.1999511719</ele>
        <time>2013-03-02T07:20:49.000Z</time>
      </trkpt>
      <trkpt lat="45.27588" lon="6.19769">
        <ele>1570.4000244141</ele>
        <time>2013-03-02T07:20:55.000Z</time>
      </trkpt>
      <trkpt lat="45.27582" lon="6.19762">
        <ele>1570.8000488281</ele>
        <time>2013-03-02T07:21:01.000Z</time>
      </trkpt>
      <trkpt lat="45.27578" lon="6.19757">
        <ele>1571.8000488281</ele>
        <time>2013-03-02T07:21:07.000Z</time>
      </trkpt>
      <trkpt lat="45.27574" lon="6.19749">
        <ele>1572.5999755859</ele>
        <time>2013-03-02T07:21:13.000Z</time>
      </trkpt>
      <trkpt lat="45.27567" lon="6.19741">
        <ele>1573</ele>
        <time>2013-03-02T07:21:20.000Z</time>
      </trkpt>
      <trkpt lat="45.27561" lon="6.19735">
        <ele>1573.8000488281</ele>
        <time>2013-03-02T07:21:27.000Z</time>
      </trkpt>
      <trkpt lat="45.2756" lon="6.19733">
        <ele>1574.1999511719</ele>
        <time>2013-03-02T07:21:29.000Z</time>
      </trkpt>
      <trkpt lat="45.27552" lon="6.19729">
        <ele>1575</ele>
        <time>2013-03-02T07:21:35.000Z</time>
      </trkpt>
      <trkpt lat="45.2755" lon="6.19729">
        <ele>1575.1999511719</ele>
        <time>2013-03-02T07:21:37.000Z</time>
      </trkpt>
      <trkpt lat="45.27545" lon="6.19725">
        <ele>1577.1999511719</ele>
        <time>2013-03-02T07:21:44.000Z</time>
      </trkpt>
      <trkpt lat="45.27541" lon="6.19722">
        <ele>1578.4000244141</ele>
        <time>2013-03-02T07:21:48.000Z</time>
      </trkpt>
      <trkpt lat="45.27532" lon="6.19721">
        <ele>1579.5999755859</ele>
        <time>2013-03-02T07:21:54.000Z</time>
      </trkpt>
      <trkpt lat="45.27526" lon="6.19719">
        <ele>1581</ele>
        <time>2013-03-02T07:22:00.000Z</time>
      </trkpt>
      <trkpt lat="45.27519" lon="6.19717">
        <ele>1582.1999511719</ele>
        <time>2013-03-02T07:22:06.000Z</time>
      </trkpt>
      <trkpt lat="45.27514" lon="6.19717">
        <ele>1583.1999511719</ele>
        <time>2013-03-02T07:22:10.000Z</time>
      </trkpt>
      <trkpt lat="45.27508" lon="6.19717">
        <ele>1584.1999511719</ele>
        <time>2013-03-02T07:22:16.000Z</time>
      </trkpt>
      <trkpt lat="45.27506" lon="6.19718">
        <ele>1584.5999755859</ele>
        <time>2013-03-02T07:22:19.000Z</time>
      </trkpt>
      <trkpt lat="45.27504" lon="6.19717">
        <ele>1585.1999511719</ele>
        <time>2013-03-02T07:22:22.000Z</time>
      </trkpt>
      <trkpt lat="45.27502" lon="6.19712">
        <ele>1586.5999755859</ele>
        <time>2013-03-02T07:22:28.000Z</time>
      </trkpt>
      <trkpt lat="45.27497" lon="6.19712">
        <ele>1588</ele>
        <time>2013-03-02T07:22:34.000Z</time>
      </trkpt>
      <trkpt lat="45.27496" lon="6.1971">
        <ele>1588.4000244141</ele>
        <time>2013-03-02T07:22:37.000Z</time>
      </trkpt>
      <trkpt lat="45.27491" lon="6.19699">
        <ele>1589</ele>
        <time>2013-03-02T07:22:44.000Z</time>
      </trkpt>
      <trkpt lat="45.27489" lon="6.19696">
        <ele>1589.8000488281</ele>
        <time>2013-03-02T07:22:47.000Z</time>
      </trkpt>
      <trkpt lat="45.27487" lon="6.19691">
        <ele>1591.1999511719</ele>
        <time>2013-03-02T07:22:52.000Z</time>
      </trkpt>
      <trkpt lat="45.27486" lon="6.1969">
        <ele>1591.4000244141</ele>
        <time>2013-03-02T07:22:53.000Z</time>
      </trkpt>
      <trkpt lat="45.27483" lon="6.19688">
        <ele>1592</ele>
        <time>2013-03-02T07:22:56.000Z</time>
      </trkpt>
      <trkpt lat="45.27482" lon="6.19682">
        <ele>1593</ele>
        <time>2013-03-02T07:23:01.000Z</time>
      </trkpt>
      <trkpt lat="45.27485" lon="6.19671">
        <ele>1594.1999511719</ele>
        <time>2013-03-02T07:23:07.000Z</time>
      </trkpt>
      <trkpt lat="45.27485" lon="6.19669">
        <ele>1595.5999755859</ele>
        <time>2013-03-02T07:23:13.000Z</time>
      </trkpt>
      <trkpt lat="45.27481" lon="6.19671">
        <ele>1596.5999755859</ele>
        <time>2013-03-02T07:23:16.000Z</time>
      </trkpt>
      <trkpt lat="45.27475" lon="6.19675">
        <ele>1597.4000244141</ele>
        <time>2013-03-02T07:23:19.000Z</time>
      </trkpt>
      <trkpt lat="45.27466" lon="6.19681">
        <ele>1598.1999511719</ele>
        <time>2013-03-02T07:23:24.000Z</time>
      </trkpt>
      <trkpt lat="45.27466" lon="6.19683">
        <ele>1598.4000244141</ele>
        <time>2013-03-02T07:23:26.000Z</time>
      </trkpt>
      <trkpt lat="45.27467" lon="6.19675">
        <ele>1598.8000488281</ele>
        <time>2013-03-02T07:23:31.000Z</time>
      </trkpt>
      <trkpt lat="45.27466" lon="6.19668">
        <ele>1599</ele>
        <time>2013-03-02T07:23:34.000Z</time>
      </trkpt>
      <trkpt lat="45.27465" lon="6.19662">
        <ele>1599.5999755859</ele>
        <time>2013-03-02T07:23:37.000Z</time>
      </trkpt>
      <trkpt lat="45.27463" lon="6.19652">
        <ele>1600.8000488281</ele>
        <time>2013-03-02T07:23:43.000Z</time>
      </trkpt>
      <trkpt lat="45.2746" lon="6.19646">
        <ele>1601.8000488281</ele>
        <time>2013-03-02T07:23:47.000Z</time>
      </trkpt>
      <trkpt lat="45.27459" lon="6.19638">
        <ele>1603.1999511719</ele>
        <time>2013-03-02T07:23:53.000Z</time>
      </trkpt>
      <trkpt lat="45.27455" lon="6.19635">
        <ele>1604</ele>
        <time>2013-03-02T07:23:57.000Z</time>
      </trkpt>
      <trkpt lat="45.27449" lon="6.19634">
        <ele>1605.4000244141</ele>
        <time>2013-03-02T07:24:03.000Z</time>
      </trkpt>
      <trkpt lat="45.27448" lon="6.19634">
        <ele>1605.5999755859</ele>
        <time>2013-03-02T07:24:04.000Z</time>
      </trkpt>
      <trkpt lat="45.2745" lon="6.19628">
        <ele>1606.1999511719</ele>
        <time>2013-03-02T07:24:10.000Z</time>
      </trkpt>
      <trkpt lat="45.27449" lon="6.19624">
        <ele>1607.5999755859</ele>
        <time>2013-03-02T07:24:19.000Z</time>
      </trkpt>
      <trkpt lat="45.27446" lon="6.19621">
        <ele>1608.1999511719</ele>
        <time>2013-03-02T07:24:24.000Z</time>
      </trkpt>
      <trkpt lat="45.2744" lon="6.1962">
        <ele>1609.4000244141</ele>
        <time>2013-03-02T07:24:30.000Z</time>
      </trkpt>
      <trkpt lat="45.27439" lon="6.19613">
        <ele>1610.4000244141</ele>
        <time>2013-03-02T07:24:36.000Z</time>
      </trkpt>
      <trkpt lat="45.27439" lon="6.1961">
        <ele>1611.5999755859</ele>
        <time>2013-03-02T07:24:41.000Z</time>
      </trkpt>
      <trkpt lat="45.27441" lon="6.1961">
        <ele>1612</ele>
        <time>2013-03-02T07:24:43.000Z</time>
      </trkpt>
      <trkpt lat="45.27445" lon="6.19613">
        <ele>1613.1999511719</ele>
        <time>2013-03-02T07:24:48.000Z</time>
      </trkpt>
      <trkpt lat="45.27448" lon="6.19613">
        <ele>1614.1999511719</ele>
        <time>2013-03-02T07:24:53.000Z</time>
      </trkpt>
      <trkpt lat="45.27453" lon="6.19617">
        <ele>1615.1999511719</ele>
        <time>2013-03-02T07:24:58.000Z</time>
      </trkpt>
      <trkpt lat="45.27455" lon="6.19609">
        <ele>1615.8000488281</ele>
        <time>2013-03-02T07:25:01.000Z</time>
      </trkpt>
      <trkpt lat="45.27455" lon="6.19599">
        <ele>1617.1999511719</ele>
        <time>2013-03-02T07:25:06.000Z</time>
      </trkpt>
      <trkpt lat="45.27458" lon="6.19597">
        <ele>1617.8000488281</ele>
        <time>2013-03-02T07:25:09.000Z</time>
      </trkpt>
      <trkpt lat="45.27461" lon="6.19602">
        <ele>1619.1999511719</ele>
        <time>2013-03-02T07:25:16.000Z</time>
      </trkpt>
      <trkpt lat="45.27465" lon="6.196">
        <ele>1620.1999511719</ele>
        <time>2013-03-02T07:25:20.000Z</time>
      </trkpt>
      <trkpt lat="45.27469" lon="6.19593">
        <ele>1620.8000488281</ele>
        <time>2013-03-02T07:25:24.000Z</time>
      </trkpt>
      <trkpt lat="45.2747" lon="6.19585">
        <ele>1622</ele>
        <time>2013-03-02T07:25:29.000Z</time>
      </trkpt>
      <trkpt lat="45.2747" lon="6.19583">
        <ele>1622.1999511719</ele>
        <time>2013-03-02T07:25:30.000Z</time>
      </trkpt>
      <trkpt lat="45.27468" lon="6.19575">
        <ele>1623.4000244141</ele>
        <time>2013-03-02T07:25:35.000Z</time>
      </trkpt>
      <trkpt lat="45.27474" lon="6.19565">
        <ele>1624.4000244141</ele>
        <time>2013-03-02T07:25:41.000Z</time>
      </trkpt>
      <trkpt lat="45.27472" lon="6.19559">
        <ele>1625.5999755859</ele>
        <time>2013-03-02T07:25:45.000Z</time>
      </trkpt>
      <trkpt lat="45.27471" lon="6.19558">
        <ele>1625.8000488281</ele>
        <time>2013-03-02T07:25:46.000Z</time>
      </trkpt>
      <trkpt lat="45.27463" lon="6.19552">
        <ele>1627.1999511719</ele>
        <time>2013-03-02T07:25:53.000Z</time>
      </trkpt>
      <trkpt lat="45.2746" lon="6.19549">
        <ele>1628.1999511719</ele>
        <time>2013-03-02T07:25:59.000Z</time>
      </trkpt>
      <trkpt lat="45.27456" lon="6.19549">
        <ele>1629.4000244141</ele>
        <time>2013-03-02T07:26:04.000Z</time>
      </trkpt>
      <trkpt lat="45.27455" lon="6.19543">
        <ele>1631.4000244141</ele>
        <time>2013-03-02T07:26:12.000Z</time>
      </trkpt>
      <trkpt lat="45.27451" lon="6.1954">
        <ele>1632.4000244141</ele>
        <time>2013-03-02T07:26:17.000Z</time>
      </trkpt>
      <trkpt lat="45.27448" lon="6.19538">
        <ele>1633.5999755859</ele>
        <time>2013-03-02T07:26:23.000Z</time>
      </trkpt>
      <trkpt lat="45.27447" lon="6.19536">
        <ele>1634.5999755859</ele>
        <time>2013-03-02T07:26:27.000Z</time>
      </trkpt>
      <trkpt lat="45.27446" lon="6.19536">
        <ele>1635.1999511719</ele>
        <time>2013-03-02T07:26:30.000Z</time>
      </trkpt>
      <trkpt lat="45.2744" lon="6.19531">
        <ele>1637</ele>
        <time>2013-03-02T07:26:37.000Z</time>
      </trkpt>
      <trkpt lat="45.27438" lon="6.19528">
        <ele>1638.5999755859</ele>
        <time>2013-03-02T07:26:43.000Z</time>
      </trkpt>
      <trkpt lat="45.27436" lon="6.19524">
        <ele>1640</ele>
        <time>2013-03-02T07:26:49.000Z</time>
      </trkpt>
      <trkpt lat="45.27428" lon="6.19522">
        <ele>1640.8000488281</ele>
        <time>2013-03-02T07:26:54.000Z</time>
      </trkpt>
      <trkpt lat="45.27426" lon="6.19522">
        <ele>1641</ele>
        <time>2013-03-02T07:26:55.000Z</time>
      </trkpt>
      <trkpt lat="45.27423" lon="6.19518">
        <ele>1642</ele>
        <time>2013-03-02T07:27:01.000Z</time>
      </trkpt>
      <trkpt lat="45.2742" lon="6.19518">
        <ele>1643.5999755859</ele>
        <time>2013-03-02T07:27:06.000Z</time>
      </trkpt>
      <trkpt lat="45.2742" lon="6.19515">
        <ele>1645</ele>
        <time>2013-03-02T07:27:11.000Z</time>
      </trkpt>
      <trkpt lat="45.2742" lon="6.19514">
        <ele>1645.1999511719</ele>
        <time>2013-03-02T07:27:12.000Z</time>
      </trkpt>
      <trkpt lat="45.27418" lon="6.19511">
        <ele>1646.5999755859</ele>
        <time>2013-03-02T07:27:20.000Z</time>
      </trkpt>
      <trkpt lat="45.27419" lon="6.1951">
        <ele>1647.5999755859</ele>
        <time>2013-03-02T07:27:24.000Z</time>
      </trkpt>
      <trkpt lat="45.27424" lon="6.19503">
        <ele>1649.1999511719</ele>
        <time>2013-03-02T07:27:30.000Z</time>
      </trkpt>
      <trkpt lat="45.27425" lon="6.19501">
        <ele>1649.5999755859</ele>
        <time>2013-03-02T07:27:32.000Z</time>
      </trkpt>
      <trkpt lat="45.27423" lon="6.19499">
        <ele>1650</ele>
        <time>2013-03-02T07:27:34.000Z</time>
      </trkpt>
      <trkpt lat="45.27416" lon="6.19498">
        <ele>1651.1999511719</ele>
        <time>2013-03-02T07:27:39.000Z</time>
      </trkpt>
      <trkpt lat="45.27411" lon="6.19496">
        <ele>1651.8000488281</ele>
        <time>2013-03-02T07:27:45.000Z</time>
      </trkpt>
      <trkpt lat="45.27411" lon="6.19491">
        <ele>1652.8000488281</ele>
        <time>2013-03-02T07:27:50.000Z</time>
      </trkpt>
      <trkpt lat="45.2741" lon="6.19488">
        <ele>1654.1999511719</ele>
        <time>2013-03-02T07:27:56.000Z</time>
      </trkpt>
      <trkpt lat="45.27409" lon="6.19486">
        <ele>1655</ele>
        <time>2013-03-02T07:27:58.000Z</time>
      </trkpt>
      <trkpt lat="45.27408" lon="6.19481">
        <ele>1655.5999755859</ele>
        <time>2013-03-02T07:28:01.000Z</time>
      </trkpt>
      <trkpt lat="45.27404" lon="6.1947">
        <ele>1657.4000244141</ele>
        <time>2013-03-02T07:28:09.000Z</time>
      </trkpt>
      <trkpt lat="45.27404" lon="6.19465">
        <ele>1657.8000488281</ele>
        <time>2013-03-02T07:28:13.000Z</time>
      </trkpt>
      <trkpt lat="45.27406" lon="6.19458">
        <ele>1659</ele>
        <time>2013-03-02T07:28:18.000Z</time>
      </trkpt>
      <trkpt lat="45.27403" lon="6.19455">
        <ele>1660.5999755859</ele>
        <time>2013-03-02T07:28:23.000Z</time>
      </trkpt>
      <trkpt lat="45.27401" lon="6.19448">
        <ele>1661.4000244141</ele>
        <time>2013-03-02T07:28:29.000Z</time>
      </trkpt>
      <trkpt lat="45.274" lon="6.19444">
        <ele>1661.5999755859</ele>
        <time>2013-03-02T07:28:34.000Z</time>
      </trkpt>
      <trkpt lat="45.27399" lon="6.19439">
        <ele>1662.8000488281</ele>
        <time>2013-03-02T07:28:39.000Z</time>
      </trkpt>
      <trkpt lat="45.27397" lon="6.19437">
        <ele>1663.5999755859</ele>
        <time>2013-03-02T07:28:42.000Z</time>
      </trkpt>
      <trkpt lat="45.27393" lon="6.19433">
        <ele>1664.8000488281</ele>
        <time>2013-03-02T07:28:47.000Z</time>
      </trkpt>
      <trkpt lat="45.27389" lon="6.19429">
        <ele>1668.4000244141</ele>
        <time>2013-03-02T07:29:03.000Z</time>
      </trkpt>
      <trkpt lat="45.27384" lon="6.1943">
        <ele>1669.1999511719</ele>
        <time>2013-03-02T07:29:08.000Z</time>
      </trkpt>
      <trkpt lat="45.2738" lon="6.19418">
        <ele>1670.1999511719</ele>
        <time>2013-03-02T07:29:13.000Z</time>
      </trkpt>
      <trkpt lat="45.27376" lon="6.19417">
        <ele>1672</ele>
        <time>2013-03-02T07:29:19.000Z</time>
      </trkpt>
      <trkpt lat="45.27367" lon="6.19413">
        <ele>1673.4000244141</ele>
        <time>2013-03-02T07:29:26.000Z</time>
      </trkpt>
      <trkpt lat="45.27366" lon="6.1941">
        <ele>1674.5999755859</ele>
        <time>2013-03-02T07:29:30.000Z</time>
      </trkpt>
      <trkpt lat="45.27367" lon="6.194">
        <ele>1677.4000244141</ele>
        <time>2013-03-02T07:29:41.000Z</time>
      </trkpt>
      <trkpt lat="45.27364" lon="6.19393">
        <ele>1679.4000244141</ele>
        <time>2013-03-02T07:29:48.000Z</time>
      </trkpt>
      <trkpt lat="45.27356" lon="6.1939">
        <ele>1681.4000244141</ele>
        <time>2013-03-02T07:29:58.000Z</time>
      </trkpt>
      <trkpt lat="45.27353" lon="6.19387">
        <ele>1684.4000244141</ele>
        <time>2013-03-02T07:30:15.000Z</time>
      </trkpt>
      <trkpt lat="45.27348" lon="6.19391">
        <ele>1684.5999755859</ele>
        <time>2013-03-02T07:30:19.000Z</time>
      </trkpt>
      <trkpt lat="45.27341" lon="6.19392">
        <ele>1686</ele>
        <time>2013-03-02T07:30:26.000Z</time>
      </trkpt>
      <trkpt lat="45.27334" lon="6.19376">
        <ele>1690</ele>
        <time>2013-03-02T07:30:51.000Z</time>
      </trkpt>
      <trkpt lat="45.27332" lon="6.19368">
        <ele>1691</ele>
        <time>2013-03-02T07:30:56.000Z</time>
      </trkpt>
      <trkpt lat="45.27326" lon="6.19366">
        <ele>1692.8000488281</ele>
        <time>2013-03-02T07:31:03.000Z</time>
      </trkpt>
      <trkpt lat="45.27324" lon="6.19365">
        <ele>1693</ele>
        <time>2013-03-02T07:31:04.000Z</time>
      </trkpt>
      <trkpt lat="45.2732" lon="6.19365">
        <ele>1693.4000244141</ele>
        <time>2013-03-02T07:31:07.000Z</time>
      </trkpt>
      <trkpt lat="45.27318" lon="6.1936">
        <ele>1695</ele>
        <time>2013-03-02T07:31:13.000Z</time>
      </trkpt>
      <trkpt lat="45.27317" lon="6.19355">
        <ele>1695.4000244141</ele>
        <time>2013-03-02T07:31:16.000Z</time>
      </trkpt>
      <trkpt lat="45.27317" lon="6.19353">
        <ele>1695.8000488281</ele>
        <time>2013-03-02T07:31:18.000Z</time>
      </trkpt>
      <trkpt lat="45.27314" lon="6.1935">
        <ele>1696.4000244141</ele>
        <time>2013-03-02T07:31:23.000Z</time>
      </trkpt>
      <trkpt lat="45.27312" lon="6.19345">
        <ele>1697.4000244141</ele>
        <time>2013-03-02T07:31:28.000Z</time>
      </trkpt>
      <trkpt lat="45.2731" lon="6.19348">
        <ele>1699</ele>
        <time>2013-03-02T07:31:37.000Z</time>
      </trkpt>
      <trkpt lat="45.27313" lon="6.19351">
        <ele>1699.5999755859</ele>
        <time>2013-03-02T07:31:43.000Z</time>
      </trkpt>
      <trkpt lat="45.27318" lon="6.19355">
        <ele>1701.5999755859</ele>
        <time>2013-03-02T07:31:54.000Z</time>
      </trkpt>
      <trkpt lat="45.27322" lon="6.1936">
        <ele>1703</ele>
        <time>2013-03-02T07:32:02.000Z</time>
      </trkpt>
      <trkpt lat="45.27327" lon="6.19359">
        <ele>1703.8000488281</ele>
        <time>2013-03-02T07:32:10.000Z</time>
      </trkpt>
      <trkpt lat="45.27327" lon="6.19366">
        <ele>1703.8000488281</ele>
        <time>2013-03-02T07:32:12.000Z</time>
      </trkpt>
      <trkpt lat="45.27328" lon="6.19369">
        <ele>1704</ele>
        <time>2013-03-02T07:32:20.000Z</time>
      </trkpt>
      <trkpt lat="45.27328" lon="6.19365">
        <ele>1704.1999511719</ele>
        <time>2013-03-02T07:32:22.000Z</time>
      </trkpt>
      <trkpt lat="45.27333" lon="6.19358">
        <ele>1705.1999511719</ele>
        <time>2013-03-02T07:32:29.000Z</time>
      </trkpt>
      <trkpt lat="45.27342" lon="6.19356">
        <ele>1707.8000488281</ele>
        <time>2013-03-02T07:32:40.000Z</time>
      </trkpt>
      <trkpt lat="45.27343" lon="6.19355">
        <ele>1708</ele>
        <time>2013-03-02T07:32:41.000Z</time>
      </trkpt>
      <trkpt lat="45.27346" lon="6.19355">
        <ele>1708.5999755859</ele>
        <time>2013-03-02T07:32:44.000Z</time>
      </trkpt>
      <trkpt lat="45.27349" lon="6.19355">
        <ele>1709.5999755859</ele>
        <time>2013-03-02T07:32:48.000Z</time>
      </trkpt>
      <trkpt lat="45.27353" lon="6.19359">
        <ele>1711.1999511719</ele>
        <time>2013-03-02T07:32:55.000Z</time>
      </trkpt>
      <trkpt lat="45.27359" lon="6.19352">
        <ele>1713.4000244141</ele>
        <time>2013-03-02T07:33:04.000Z</time>
      </trkpt>
      <trkpt lat="45.27361" lon="6.19352">
        <ele>1714.1999511719</ele>
        <time>2013-03-02T07:33:07.000Z</time>
      </trkpt>
      <trkpt lat="45.27361" lon="6.19345">
        <ele>1715.4000244141</ele>
        <time>2013-03-02T07:33:14.000Z</time>
      </trkpt>
      <trkpt lat="45.27358" lon="6.19341">
        <ele>1715.5999755859</ele>
        <time>2013-03-02T07:33:17.000Z</time>
      </trkpt>
      <trkpt lat="45.27357" lon="6.19336">
        <ele>1716.1999511719</ele>
        <time>2013-03-02T07:33:22.000Z</time>
      </trkpt>
      <trkpt lat="45.27356" lon="6.19334">
        <ele>1716.4000244141</ele>
        <time>2013-03-02T07:33:23.000Z</time>
      </trkpt>
      <trkpt lat="45.27354" lon="6.19329">
        <ele>1718.1999511719</ele>
        <time>2013-03-02T07:33:30.000Z</time>
      </trkpt>
      <trkpt lat="45.2735" lon="6.19326">
        <ele>1719.1999511719</ele>
        <time>2013-03-02T07:33:37.000Z</time>
      </trkpt>
      <trkpt lat="45.27348" lon="6.19324">
        <ele>1719.8000488281</ele>
        <time>2013-03-02T07:33:41.000Z</time>
      </trkpt>
      <trkpt lat="45.27346" lon="6.19322">
        <ele>1720.4000244141</ele>
        <time>2013-03-02T07:33:43.000Z</time>
      </trkpt>
      <trkpt lat="45.27345" lon="6.19317">
        <ele>1721.5999755859</ele>
        <time>2013-03-02T07:33:48.000Z</time>
      </trkpt>
      <trkpt lat="45.27344" lon="6.19315">
        <ele>1722</ele>
        <time>2013-03-02T07:33:50.000Z</time>
      </trkpt>
      <trkpt lat="45.27341" lon="6.19313">
        <ele>1723.1999511719</ele>
        <time>2013-03-02T07:33:55.000Z</time>
      </trkpt>
      <trkpt lat="45.2734" lon="6.19312">
        <ele>1723.4000244141</ele>
        <time>2013-03-02T07:33:57.000Z</time>
      </trkpt>
      <trkpt lat="45.27339" lon="6.19308">
        <ele>1724.4000244141</ele>
        <time>2013-03-02T07:34:02.000Z</time>
      </trkpt>
      <trkpt lat="45.27341" lon="6.19303">
        <ele>1726.8000488281</ele>
        <time>2013-03-02T07:34:14.000Z</time>
      </trkpt>
      <trkpt lat="45.27341" lon="6.19296">
        <ele>1728</ele>
        <time>2013-03-02T07:34:19.000Z</time>
      </trkpt>
      <trkpt lat="45.27341" lon="6.19294">
        <ele>1728</ele>
        <time>2013-03-02T07:34:20.000Z</time>
      </trkpt>
      <trkpt lat="45.27341" lon="6.19288">
        <ele>1729.5999755859</ele>
        <time>2013-03-02T07:34:25.000Z</time>
      </trkpt>
      <trkpt lat="45.27342" lon="6.19285">
        <ele>1730.4000244141</ele>
        <time>2013-03-02T07:34:28.000Z</time>
      </trkpt>
      <trkpt lat="45.27338" lon="6.19281">
        <ele>1731.4000244141</ele>
        <time>2013-03-02T07:34:34.000Z</time>
      </trkpt>
      <trkpt lat="45.27339" lon="6.19275">
        <ele>1733.1999511719</ele>
        <time>2013-03-02T07:34:41.000Z</time>
      </trkpt>
      <trkpt lat="45.27343" lon="6.19271">
        <ele>1734.1999511719</ele>
        <time>2013-03-02T07:34:48.000Z</time>
      </trkpt>
      <trkpt lat="45.27344" lon="6.19266">
        <ele>1735</ele>
        <time>2013-03-02T07:34:52.000Z</time>
      </trkpt>
      <trkpt lat="45.27345" lon="6.19259">
        <ele>1735.8000488281</ele>
        <time>2013-03-02T07:34:57.000Z</time>
      </trkpt>
      <trkpt lat="45.27346" lon="6.19249">
        <ele>1737.8000488281</ele>
        <time>2013-03-02T07:35:05.000Z</time>
      </trkpt>
      <trkpt lat="45.27345" lon="6.1924">
        <ele>1739.4000244141</ele>
        <time>2013-03-02T07:35:11.000Z</time>
      </trkpt>
      <trkpt lat="45.27345" lon="6.19239">
        <ele>1739.5999755859</ele>
        <time>2013-03-02T07:35:12.000Z</time>
      </trkpt>
      <trkpt lat="45.27346" lon="6.19235">
        <ele>1740.1999511719</ele>
        <time>2013-03-02T07:35:14.000Z</time>
      </trkpt>
      <trkpt lat="45.27345" lon="6.1923">
        <ele>1741.4000244141</ele>
        <time>2013-03-02T07:35:19.000Z</time>
      </trkpt>
      <trkpt lat="45.27344" lon="6.19229">
        <ele>1741.8000488281</ele>
        <time>2013-03-02T07:35:20.000Z</time>
      </trkpt>
      <trkpt lat="45.27339" lon="6.19226">
        <ele>1742.5999755859</ele>
        <time>2013-03-02T07:35:25.000Z</time>
      </trkpt>
      <trkpt lat="45.27335" lon="6.19223">
        <ele>1743.4000244141</ele>
        <time>2013-03-02T07:35:29.000Z</time>
      </trkpt>
      <trkpt lat="45.27332" lon="6.19221">
        <ele>1744</ele>
        <time>2013-03-02T07:35:32.000Z</time>
      </trkpt>
      <trkpt lat="45.2733" lon="6.19216">
        <ele>1744.5999755859</ele>
        <time>2013-03-02T07:35:36.000Z</time>
      </trkpt>
      <trkpt lat="45.27324" lon="6.19212">
        <ele>1745.4000244141</ele>
        <time>2013-03-02T07:35:42.000Z</time>
      </trkpt>
      <trkpt lat="45.27324" lon="6.19212">
        <ele>1745.8000488281</ele>
        <time>2013-03-02T07:35:44.000Z</time>
      </trkpt>
      <trkpt lat="45.2732" lon="6.19209">
        <ele>1746.5999755859</ele>
        <time>2013-03-02T07:35:49.000Z</time>
      </trkpt>
      <trkpt lat="45.27317" lon="6.19205">
        <ele>1748</ele>
        <time>2013-03-02T07:35:54.000Z</time>
      </trkpt>
      <trkpt lat="45.27315" lon="6.19203">
        <ele>1749</ele>
        <time>2013-03-02T07:35:58.000Z</time>
      </trkpt>
      <trkpt lat="45.27308" lon="6.19203">
        <ele>1750.1999511719</ele>
        <time>2013-03-02T07:36:04.000Z</time>
      </trkpt>
      <trkpt lat="45.27304" lon="6.19203">
        <ele>1751.1999511719</ele>
        <time>2013-03-02T07:36:08.000Z</time>
      </trkpt>
      <trkpt lat="45.273" lon="6.19201">
        <ele>1751.8000488281</ele>
        <time>2013-03-02T07:36:12.000Z</time>
      </trkpt>
      <trkpt lat="45.27298" lon="6.19199">
        <ele>1752.5999755859</ele>
        <time>2013-03-02T07:36:15.000Z</time>
      </trkpt>
      <trkpt lat="45.27297" lon="6.19196">
        <ele>1753.4000244141</ele>
        <time>2013-03-02T07:36:18.000Z</time>
      </trkpt>
      <trkpt lat="45.27297" lon="6.19191">
        <ele>1754.5999755859</ele>
        <time>2013-03-02T07:36:23.000Z</time>
      </trkpt>
      <trkpt lat="45.27297" lon="6.19185">
        <ele>1755.8000488281</ele>
        <time>2013-03-02T07:36:28.000Z</time>
      </trkpt>
      <trkpt lat="45.27296" lon="6.19184">
        <ele>1756</ele>
        <time>2013-03-02T07:36:29.000Z</time>
      </trkpt>
      <trkpt lat="45.27292" lon="6.19181">
        <ele>1757.4000244141</ele>
        <time>2013-03-02T07:36:35.000Z</time>
      </trkpt>
      <trkpt lat="45.27289" lon="6.1918">
        <ele>1758.4000244141</ele>
        <time>2013-03-02T07:36:39.000Z</time>
      </trkpt>
      <trkpt lat="45.27284" lon="6.19176">
        <ele>1759.4000244141</ele>
        <time>2013-03-02T07:36:44.000Z</time>
      </trkpt>
      <trkpt lat="45.2728" lon="6.19175">
        <ele>1760.1999511719</ele>
        <time>2013-03-02T07:36:48.000Z</time>
      </trkpt>
      <trkpt lat="45.27273" lon="6.19174">
        <ele>1761.4000244141</ele>
        <time>2013-03-02T07:36:55.000Z</time>
      </trkpt>
      <trkpt lat="45.27269" lon="6.19172">
        <ele>1762</ele>
        <time>2013-03-02T07:37:00.000Z</time>
      </trkpt>
      <trkpt lat="45.27265" lon="6.19171">
        <ele>1762.5999755859</ele>
        <time>2013-03-02T07:37:05.000Z</time>
      </trkpt>
      <trkpt lat="45.27257" lon="6.19169">
        <ele>1763.8000488281</ele>
        <time>2013-03-02T07:37:12.000Z</time>
      </trkpt>
      <trkpt lat="45.27253" lon="6.19168">
        <ele>1765.1999511719</ele>
        <time>2013-03-02T07:37:18.000Z</time>
      </trkpt>
      <trkpt lat="45.27247" lon="6.19167">
        <ele>1766.5999755859</ele>
        <time>2013-03-02T07:37:24.000Z</time>
      </trkpt>
      <trkpt lat="45.27243" lon="6.19168">
        <ele>1767.5999755859</ele>
        <time>2013-03-02T07:37:29.000Z</time>
      </trkpt>
      <trkpt lat="45.27236" lon="6.19172">
        <ele>1769</ele>
        <time>2013-03-02T07:37:36.000Z</time>
      </trkpt>
      <trkpt lat="45.2723" lon="6.19174">
        <ele>1770.4000244141</ele>
        <time>2013-03-02T07:37:43.000Z</time>
      </trkpt>
      <trkpt lat="45.27228" lon="6.19173">
        <ele>1771</ele>
        <time>2013-03-02T07:37:45.000Z</time>
      </trkpt>
      <trkpt lat="45.27229" lon="6.19169">
        <ele>1771.8000488281</ele>
        <time>2013-03-02T07:37:48.000Z</time>
      </trkpt>
      <trkpt lat="45.27228" lon="6.19164">
        <ele>1772.5999755859</ele>
        <time>2013-03-02T07:37:53.000Z</time>
      </trkpt>
      <trkpt lat="45.27228" lon="6.1916">
        <ele>1773.1999511719</ele>
        <time>2013-03-02T07:37:57.000Z</time>
      </trkpt>
      <trkpt lat="45.27228" lon="6.19156">
        <ele>1774</ele>
        <time>2013-03-02T07:38:00.000Z</time>
      </trkpt>
      <trkpt lat="45.27226" lon="6.19148">
        <ele>1775.5999755859</ele>
        <time>2013-03-02T07:38:06.000Z</time>
      </trkpt>
      <trkpt lat="45.27225" lon="6.19144">
        <ele>1776.8000488281</ele>
        <time>2013-03-02T07:38:10.000Z</time>
      </trkpt>
      <trkpt lat="45.27223" lon="6.1914">
        <ele>1778</ele>
        <time>2013-03-02T07:38:15.000Z</time>
      </trkpt>
      <trkpt lat="45.27221" lon="6.19136">
        <ele>1778.8000488281</ele>
        <time>2013-03-02T07:38:19.000Z</time>
      </trkpt>
      <trkpt lat="45.27218" lon="6.19132">
        <ele>1780.1999511719</ele>
        <time>2013-03-02T07:38:24.000Z</time>
      </trkpt>
      <trkpt lat="45.27216" lon="6.19129">
        <ele>1780.8000488281</ele>
        <time>2013-03-02T07:38:28.000Z</time>
      </trkpt>
      <trkpt lat="45.27213" lon="6.19125">
        <ele>1781.8000488281</ele>
        <time>2013-03-02T07:38:34.000Z</time>
      </trkpt>
      <trkpt lat="45.2721" lon="6.19122">
        <ele>1782.8000488281</ele>
        <time>2013-03-02T07:38:39.000Z</time>
      </trkpt>
      <trkpt lat="45.27207" lon="6.19115">
        <ele>1784.1999511719</ele>
        <time>2013-03-02T07:38:46.000Z</time>
      </trkpt>
      <trkpt lat="45.27204" lon="6.19109">
        <ele>1785.1999511719</ele>
        <time>2013-03-02T07:38:52.000Z</time>
      </trkpt>
      <trkpt lat="45.27203" lon="6.19106">
        <ele>1786</ele>
        <time>2013-03-02T07:38:56.000Z</time>
      </trkpt>
      <trkpt lat="45.27199" lon="6.19098">
        <ele>1787.1999511719</ele>
        <time>2013-03-02T07:39:03.000Z</time>
      </trkpt>
      <trkpt lat="45.27196" lon="6.1909">
        <ele>1788.4000244141</ele>
        <time>2013-03-02T07:39:09.000Z</time>
      </trkpt>
      <trkpt lat="45.27193" lon="6.19084">
        <ele>1789.8000488281</ele>
        <time>2013-03-02T07:39:14.000Z</time>
      </trkpt>
      <trkpt lat="45.27191" lon="6.19077">
        <ele>1790.8000488281</ele>
        <time>2013-03-02T07:39:20.000Z</time>
      </trkpt>
      <trkpt lat="45.27189" lon="6.19068">
        <ele>1792.4000244141</ele>
        <time>2013-03-02T07:39:27.000Z</time>
      </trkpt>
      <trkpt lat="45.27188" lon="6.19062">
        <ele>1793.4000244141</ele>
        <time>2013-03-02T07:39:32.000Z</time>
      </trkpt>
      <trkpt lat="45.27186" lon="6.19055">
        <ele>1794.4000244141</ele>
        <time>2013-03-02T07:39:38.000Z</time>
      </trkpt>
      <trkpt lat="45.27185" lon="6.19047">
        <ele>1795.8000488281</ele>
        <time>2013-03-02T07:39:44.000Z</time>
      </trkpt>
      <trkpt lat="45.27183" lon="6.19042">
        <ele>1797.1999511719</ele>
        <time>2013-03-02T07:39:49.000Z</time>
      </trkpt>
      <trkpt lat="45.27182" lon="6.19036">
        <ele>1798.4000244141</ele>
        <time>2013-03-02T07:39:55.000Z</time>
      </trkpt>
      <trkpt lat="45.2718" lon="6.19027">
        <ele>1799.5999755859</ele>
        <time>2013-03-02T07:40:02.000Z</time>
      </trkpt>
      <trkpt lat="45.27179" lon="6.19023">
        <ele>1801</ele>
        <time>2013-03-02T07:40:07.000Z</time>
      </trkpt>
      <trkpt lat="45.27177" lon="6.19018">
        <ele>1801.8000488281</ele>
        <time>2013-03-02T07:40:11.000Z</time>
      </trkpt>
      <trkpt lat="45.27176" lon="6.19011">
        <ele>1803.1999511719</ele>
        <time>2013-03-02T07:40:17.000Z</time>
      </trkpt>
      <trkpt lat="45.27174" lon="6.19003">
        <ele>1804.5999755859</ele>
        <time>2013-03-02T07:40:24.000Z</time>
      </trkpt>
      <trkpt lat="45.27173" lon="6.18996">
        <ele>1805.8000488281</ele>
        <time>2013-03-02T07:40:30.000Z</time>
      </trkpt>
      <trkpt lat="45.27172" lon="6.18989">
        <ele>1807</ele>
        <time>2013-03-02T07:40:35.000Z</time>
      </trkpt>
      <trkpt lat="45.2717" lon="6.18984">
        <ele>1808</ele>
        <time>2013-03-02T07:40:39.000Z</time>
      </trkpt>
      <trkpt lat="45.27169" lon="6.18978">
        <ele>1808.8000488281</ele>
        <time>2013-03-02T07:40:44.000Z</time>
      </trkpt>
      <trkpt lat="45.27166" lon="6.18972">
        <ele>1810</ele>
        <time>2013-03-02T07:40:50.000Z</time>
      </trkpt>
      <trkpt lat="45.27165" lon="6.18967">
        <ele>1811.4000244141</ele>
        <time>2013-03-02T07:40:55.000Z</time>
      </trkpt>
      <trkpt lat="45.27163" lon="6.18963">
        <ele>1812.4000244141</ele>
        <time>2013-03-02T07:41:00.000Z</time>
      </trkpt>
      <trkpt lat="45.27161" lon="6.18958">
        <ele>1813.8000488281</ele>
        <time>2013-03-02T07:41:06.000Z</time>
      </trkpt>
      <trkpt lat="45.27158" lon="6.18952">
        <ele>1814.5999755859</ele>
        <time>2013-03-02T07:41:12.000Z</time>
      </trkpt>
      <trkpt lat="45.27158" lon="6.18951">
        <ele>1814.8000488281</ele>
        <time>2013-03-02T07:41:13.000Z</time>
      </trkpt>
      <trkpt lat="45.27158" lon="6.18941">
        <ele>1815.4000244141</ele>
        <time>2013-03-02T07:41:20.000Z</time>
      </trkpt>
      <trkpt lat="45.27157" lon="6.18935">
        <ele>1816.1999511719</ele>
        <time>2013-03-02T07:41:25.000Z</time>
      </trkpt>
      <trkpt lat="45.27157" lon="6.18929">
        <ele>1817.8000488281</ele>
        <time>2013-03-02T07:41:31.000Z</time>
      </trkpt>
      <trkpt lat="45.27155" lon="6.18923">
        <ele>1819.5999755859</ele>
        <time>2013-03-02T07:41:38.000Z</time>
      </trkpt>
      <trkpt lat="45.27154" lon="6.1892">
        <ele>1820.5999755859</ele>
        <time>2013-03-02T07:41:42.000Z</time>
      </trkpt>
      <trkpt lat="45.27153" lon="6.18915">
        <ele>1822</ele>
        <time>2013-03-02T07:41:47.000Z</time>
      </trkpt>
      <trkpt lat="45.27152" lon="6.18912">
        <ele>1823.4000244141</ele>
        <time>2013-03-02T07:41:52.000Z</time>
      </trkpt>
      <trkpt lat="45.27151" lon="6.18906">
        <ele>1825.1999511719</ele>
        <time>2013-03-02T07:41:58.000Z</time>
      </trkpt>
      <trkpt lat="45.2715" lon="6.18902">
        <ele>1826.1999511719</ele>
        <time>2013-03-02T07:42:02.000Z</time>
      </trkpt>
      <trkpt lat="45.27147" lon="6.18895">
        <ele>1827.4000244141</ele>
        <time>2013-03-02T07:42:09.000Z</time>
      </trkpt>
      <trkpt lat="45.27144" lon="6.18891">
        <ele>1828.4000244141</ele>
        <time>2013-03-02T07:42:14.000Z</time>
      </trkpt>
      <trkpt lat="45.27141" lon="6.18885">
        <ele>1829</ele>
        <time>2013-03-02T07:42:20.000Z</time>
      </trkpt>
      <trkpt lat="45.27138" lon="6.18877">
        <ele>1829.5999755859</ele>
        <time>2013-03-02T07:42:26.000Z</time>
      </trkpt>
      <trkpt lat="45.27137" lon="6.18869">
        <ele>1830.4000244141</ele>
        <time>2013-03-02T07:42:32.000Z</time>
      </trkpt>
      <trkpt lat="45.27135" lon="6.18859">
        <ele>1831</ele>
        <time>2013-03-02T07:42:38.000Z</time>
      </trkpt>
      <trkpt lat="45.27133" lon="6.18849">
        <ele>1831.5999755859</ele>
        <time>2013-03-02T07:42:45.000Z</time>
      </trkpt>
      <trkpt lat="45.27133" lon="6.18837">
        <ele>1832.1999511719</ele>
        <time>2013-03-02T07:42:52.000Z</time>
      </trkpt>
      <trkpt lat="45.27133" lon="6.18832">
        <ele>1832.4000244141</ele>
        <time>2013-03-02T07:42:58.000Z</time>
      </trkpt>
      <trkpt lat="45.27131" lon="6.18823">
        <ele>1832.4000244141</ele>
        <time>2013-03-02T07:43:08.000Z</time>
      </trkpt>
      <trkpt lat="45.27131" lon="6.18821">
        <ele>1832.4000244141</ele>
        <time>2013-03-02T07:43:09.000Z</time>
      </trkpt>
      <trkpt lat="45.27125" lon="6.18806">
        <ele>1832.8000488281</ele>
        <time>2013-03-02T07:43:18.000Z</time>
      </trkpt>
      <trkpt lat="45.27123" lon="6.18801">
        <ele>1833.1999511719</ele>
        <time>2013-03-02T07:43:21.000Z</time>
      </trkpt>
      <trkpt lat="45.27117" lon="6.18789">
        <ele>1834</ele>
        <time>2013-03-02T07:43:29.000Z</time>
      </trkpt>
      <trkpt lat="45.27114" lon="6.1878">
        <ele>1834.5999755859</ele>
        <time>2013-03-02T07:43:35.000Z</time>
      </trkpt>
      <trkpt lat="45.2711" lon="6.18773">
        <ele>1835.1999511719</ele>
        <time>2013-03-02T07:43:41.000Z</time>
      </trkpt>
      <trkpt lat="45.27107" lon="6.1876">
        <ele>1836</ele>
        <time>2013-03-02T07:43:48.000Z</time>
      </trkpt>
      <trkpt lat="45.27104" lon="6.1875">
        <ele>1836</ele>
        <time>2013-03-02T07:43:54.000Z</time>
      </trkpt>
      <trkpt lat="45.271" lon="6.18741">
        <ele>1836.5999755859</ele>
        <time>2013-03-02T07:44:00.000Z</time>
      </trkpt>
      <trkpt lat="45.27097" lon="6.18734">
        <ele>1837.1999511719</ele>
        <time>2013-03-02T07:44:05.000Z</time>
      </trkpt>
      <trkpt lat="45.27091" lon="6.18724">
        <ele>1837.8000488281</ele>
        <time>2013-03-02T07:44:13.000Z</time>
      </trkpt>
      <trkpt lat="45.27086" lon="6.18717">
        <ele>1838.1999511719</ele>
        <time>2013-03-02T07:44:20.000Z</time>
      </trkpt>
      <trkpt lat="45.27082" lon="6.18709">
        <ele>1838.5999755859</ele>
        <time>2013-03-02T07:44:26.000Z</time>
      </trkpt>
      <trkpt lat="45.27079" lon="6.18702">
        <ele>1839.5999755859</ele>
        <time>2013-03-02T07:44:32.000Z</time>
      </trkpt>
      <trkpt lat="45.27075" lon="6.18693">
        <ele>1840.1999511719</ele>
        <time>2013-03-02T07:44:39.000Z</time>
      </trkpt>
      <trkpt lat="45.27072" lon="6.18687">
        <ele>1841</ele>
        <time>2013-03-02T07:44:45.000Z</time>
      </trkpt>
      <trkpt lat="45.2707" lon="6.18682">
        <ele>1841.5999755859</ele>
        <time>2013-03-02T07:44:49.000Z</time>
      </trkpt>
      <trkpt lat="45.27067" lon="6.18675">
        <ele>1842.1999511719</ele>
        <time>2013-03-02T07:44:55.000Z</time>
      </trkpt>
      <trkpt lat="45.27064" lon="6.18664">
        <ele>1842.8000488281</ele>
        <time>2013-03-02T07:45:01.000Z</time>
      </trkpt>
      <trkpt lat="45.2706" lon="6.18656">
        <ele>1842.8000488281</ele>
        <time>2013-03-02T07:45:07.000Z</time>
      </trkpt>
      <trkpt lat="45.27054" lon="6.18648">
        <ele>1842.8000488281</ele>
        <time>2013-03-02T07:45:13.000Z</time>
      </trkpt>
      <trkpt lat="45.27051" lon="6.18641">
        <ele>1843</ele>
        <time>2013-03-02T07:45:19.000Z</time>
      </trkpt>
      <trkpt lat="45.27048" lon="6.18632">
        <ele>1843.1999511719</ele>
        <time>2013-03-02T07:45:25.000Z</time>
      </trkpt>
      <trkpt lat="45.27042" lon="6.18619">
        <ele>1843.5999755859</ele>
        <time>2013-03-02T07:45:33.000Z</time>
      </trkpt>
      <trkpt lat="45.27039" lon="6.18611">
        <ele>1843.8000488281</ele>
        <time>2013-03-02T07:45:39.000Z</time>
      </trkpt>
      <trkpt lat="45.27034" lon="6.18603">
        <ele>1844.4000244141</ele>
        <time>2013-03-02T07:45:45.000Z</time>
      </trkpt>
      <trkpt lat="45.27028" lon="6.18592">
        <ele>1844.8000488281</ele>
        <time>2013-03-02T07:45:53.000Z</time>
      </trkpt>
      <trkpt lat="45.27024" lon="6.18583">
        <ele>1845.5999755859</ele>
        <time>2013-03-02T07:45:59.000Z</time>
      </trkpt>
      <trkpt lat="45.27023" lon="6.18582">
        <ele>1845.5999755859</ele>
        <time>2013-03-02T07:46:00.000Z</time>
      </trkpt>
      <trkpt lat="45.27019" lon="6.18574">
        <ele>1846.8000488281</ele>
        <time>2013-03-02T07:46:07.000Z</time>
      </trkpt>
      <trkpt lat="45.27015" lon="6.18569">
        <ele>1847.5999755859</ele>
        <time>2013-03-02T07:46:12.000Z</time>
      </trkpt>
      <trkpt lat="45.27011" lon="6.18562">
        <ele>1848.5999755859</ele>
        <time>2013-03-02T07:46:18.000Z</time>
      </trkpt>
      <trkpt lat="45.27011" lon="6.18561">
        <ele>1848.5999755859</ele>
        <time>2013-03-02T07:46:19.000Z</time>
      </trkpt>
      <trkpt lat="45.27008" lon="6.18553">
        <ele>1849.4000244141</ele>
        <time>2013-03-02T07:46:25.000Z</time>
      </trkpt>
      <trkpt lat="45.27006" lon="6.18547">
        <ele>1850.4000244141</ele>
        <time>2013-03-02T07:46:30.000Z</time>
      </trkpt>
      <trkpt lat="45.27004" lon="6.18543">
        <ele>1851.1999511719</ele>
        <time>2013-03-02T07:46:35.000Z</time>
      </trkpt>
      <trkpt lat="45.27002" lon="6.18539">
        <ele>1851.5999755859</ele>
        <time>2013-03-02T07:46:39.000Z</time>
      </trkpt>
      <trkpt lat="45.27" lon="6.18534">
        <ele>1852.1999511719</ele>
        <time>2013-03-02T07:46:45.000Z</time>
      </trkpt>
      <trkpt lat="45.26999" lon="6.18529">
        <ele>1852.5999755859</ele>
        <time>2013-03-02T07:46:52.000Z</time>
      </trkpt>
      <trkpt lat="45.26996" lon="6.1852">
        <ele>1853.5999755859</ele>
        <time>2013-03-02T07:47:00.000Z</time>
      </trkpt>
      <trkpt lat="45.26994" lon="6.18511">
        <ele>1854.5999755859</ele>
        <time>2013-03-02T07:47:07.000Z</time>
      </trkpt>
      <trkpt lat="45.26991" lon="6.18501">
        <ele>1855.4000244141</ele>
        <time>2013-03-02T07:47:14.000Z</time>
      </trkpt>
      <trkpt lat="45.26989" lon="6.18492">
        <ele>1856.4000244141</ele>
        <time>2013-03-02T07:47:20.000Z</time>
      </trkpt>
      <trkpt lat="45.26986" lon="6.18484">
        <ele>1857.1999511719</ele>
        <time>2013-03-02T07:47:25.000Z</time>
      </trkpt>
      <trkpt lat="45.26981" lon="6.18478">
        <ele>1858.1999511719</ele>
        <time>2013-03-02T07:47:30.000Z</time>
      </trkpt>
      <trkpt lat="45.26978" lon="6.1847">
        <ele>1859</ele>
        <time>2013-03-02T07:47:36.000Z</time>
      </trkpt>
      <trkpt lat="45.26977" lon="6.18459">
        <ele>1860</ele>
        <time>2013-03-02T07:47:43.000Z</time>
      </trkpt>
      <trkpt lat="45.26976" lon="6.18453">
        <ele>1860.4000244141</ele>
        <time>2013-03-02T07:47:46.000Z</time>
      </trkpt>
      <trkpt lat="45.26974" lon="6.18444">
        <ele>1861.1999511719</ele>
        <time>2013-03-02T07:47:52.000Z</time>
      </trkpt>
      <trkpt lat="45.26973" lon="6.18438">
        <ele>1862</ele>
        <time>2013-03-02T07:47:56.000Z</time>
      </trkpt>
      <trkpt lat="45.26972" lon="6.18432">
        <ele>1862.5999755859</ele>
        <time>2013-03-02T07:48:00.000Z</time>
      </trkpt>
      <trkpt lat="45.2697" lon="6.18426">
        <ele>1863.8000488281</ele>
        <time>2013-03-02T07:48:05.000Z</time>
      </trkpt>
      <trkpt lat="45.2697" lon="6.18423">
        <ele>1864</ele>
        <time>2013-03-02T07:48:07.000Z</time>
      </trkpt>
      <trkpt lat="45.26968" lon="6.18415">
        <ele>1864.8000488281</ele>
        <time>2013-03-02T07:48:13.000Z</time>
      </trkpt>
      <trkpt lat="45.26967" lon="6.18411">
        <ele>1865.4000244141</ele>
        <time>2013-03-02T07:48:17.000Z</time>
      </trkpt>
      <trkpt lat="45.26966" lon="6.18405">
        <ele>1866.1999511719</ele>
        <time>2013-03-02T07:48:21.000Z</time>
      </trkpt>
      <trkpt lat="45.26966" lon="6.18399">
        <ele>1866.8000488281</ele>
        <time>2013-03-02T07:48:25.000Z</time>
      </trkpt>
      <trkpt lat="45.26965" lon="6.18392">
        <ele>1867.4000244141</ele>
        <time>2013-03-02T07:48:29.000Z</time>
      </trkpt>
      <trkpt lat="45.26965" lon="6.1839">
        <ele>1867.5999755859</ele>
        <time>2013-03-02T07:48:31.000Z</time>
      </trkpt>
      <trkpt lat="45.26963" lon="6.18381">
        <ele>1868.8000488281</ele>
        <time>2013-03-02T07:48:38.000Z</time>
      </trkpt>
      <trkpt lat="45.26963" lon="6.18376">
        <ele>1869.5999755859</ele>
        <time>2013-03-02T07:48:42.000Z</time>
      </trkpt>
      <trkpt lat="45.26962" lon="6.18372">
        <ele>1870</ele>
        <time>2013-03-02T07:48:45.000Z</time>
      </trkpt>
      <trkpt lat="45.26961" lon="6.18368">
        <ele>1871</ele>
        <time>2013-03-02T07:48:49.000Z</time>
      </trkpt>
      <trkpt lat="45.26958" lon="6.18364">
        <ele>1871.5999755859</ele>
        <time>2013-03-02T07:48:53.000Z</time>
      </trkpt>
      <trkpt lat="45.26959" lon="6.18357">
        <ele>1872.1999511719</ele>
        <time>2013-03-02T07:48:57.000Z</time>
      </trkpt>
      <trkpt lat="45.26958" lon="6.18352">
        <ele>1873</ele>
        <time>2013-03-02T07:49:01.000Z</time>
      </trkpt>
      <trkpt lat="45.26958" lon="6.18345">
        <ele>1874</ele>
        <time>2013-03-02T07:49:07.000Z</time>
      </trkpt>
      <trkpt lat="45.26958" lon="6.18338">
        <ele>1874.8000488281</ele>
        <time>2013-03-02T07:49:12.000Z</time>
      </trkpt>
      <trkpt lat="45.26958" lon="6.18334">
        <ele>1875.4000244141</ele>
        <time>2013-03-02T07:49:16.000Z</time>
      </trkpt>
      <trkpt lat="45.26958" lon="6.18329">
        <ele>1876.1999511719</ele>
        <time>2013-03-02T07:49:20.000Z</time>
      </trkpt>
      <trkpt lat="45.26958" lon="6.18326">
        <ele>1877</ele>
        <time>2013-03-02T07:49:23.000Z</time>
      </trkpt>
      <trkpt lat="45.26957" lon="6.18323">
        <ele>1877.8000488281</ele>
        <time>2013-03-02T07:49:26.000Z</time>
      </trkpt>
      <trkpt lat="45.26956" lon="6.18317">
        <ele>1878.8000488281</ele>
        <time>2013-03-02T07:49:30.000Z</time>
      </trkpt>
      <trkpt lat="45.26956" lon="6.18311">
        <ele>1879.5999755859</ele>
        <time>2013-03-02T07:49:34.000Z</time>
      </trkpt>
      <trkpt lat="45.26954" lon="6.18306">
        <ele>1880.4000244141</ele>
        <time>2013-03-02T07:49:38.000Z</time>
      </trkpt>
      <trkpt lat="45.26954" lon="6.183">
        <ele>1881</ele>
        <time>2013-03-02T07:49:42.000Z</time>
      </trkpt>
      <trkpt lat="45.26954" lon="6.18295">
        <ele>1881.5999755859</ele>
        <time>2013-03-02T07:49:46.000Z</time>
      </trkpt>
      <trkpt lat="45.26956" lon="6.1829">
        <ele>1882.4000244141</ele>
        <time>2013-03-02T07:49:50.000Z</time>
      </trkpt>
      <trkpt lat="45.26955" lon="6.18286">
        <ele>1883</ele>
        <time>2013-03-02T07:49:54.000Z</time>
      </trkpt>
      <trkpt lat="45.26954" lon="6.18279">
        <ele>1884.1999511719</ele>
        <time>2013-03-02T07:49:59.000Z</time>
      </trkpt>
      <trkpt lat="45.26954" lon="6.18274">
        <ele>1885</ele>
        <time>2013-03-02T07:50:03.000Z</time>
      </trkpt>
      <trkpt lat="45.26954" lon="6.18271">
        <ele>1885.1999511719</ele>
        <time>2013-03-02T07:50:06.000Z</time>
      </trkpt>
      <trkpt lat="45.26954" lon="6.18261">
        <ele>1886.1999511719</ele>
        <time>2013-03-02T07:50:11.000Z</time>
      </trkpt>
      <trkpt lat="45.26956" lon="6.18255">
        <ele>1886.8000488281</ele>
        <time>2013-03-02T07:50:15.000Z</time>
      </trkpt>
      <trkpt lat="45.26954" lon="6.18251">
        <ele>1887.4000244141</ele>
        <time>2013-03-02T07:50:20.000Z</time>
      </trkpt>
      <trkpt lat="45.26954" lon="6.18247">
        <ele>1888.4000244141</ele>
        <time>2013-03-02T07:50:24.000Z</time>
      </trkpt>
      <trkpt lat="45.26953" lon="6.18242">
        <ele>1889.1999511719</ele>
        <time>2013-03-02T07:50:28.000Z</time>
      </trkpt>
      <trkpt lat="45.26954" lon="6.18237">
        <ele>1889.5999755859</ele>
        <time>2013-03-02T07:50:31.000Z</time>
      </trkpt>
      <trkpt lat="45.26955" lon="6.1823">
        <ele>1890.4000244141</ele>
        <time>2013-03-02T07:50:36.000Z</time>
      </trkpt>
      <trkpt lat="45.26955" lon="6.18226">
        <ele>1891</ele>
        <time>2013-03-02T07:50:40.000Z</time>
      </trkpt>
      <trkpt lat="45.26955" lon="6.18222">
        <ele>1892</ele>
        <time>2013-03-02T07:50:44.000Z</time>
      </trkpt>
      <trkpt lat="45.26953" lon="6.18217">
        <ele>1892.8000488281</ele>
        <time>2013-03-02T07:50:48.000Z</time>
      </trkpt>
      <trkpt lat="45.26951" lon="6.18211">
        <ele>1893.5999755859</ele>
        <time>2013-03-02T07:50:52.000Z</time>
      </trkpt>
      <trkpt lat="45.26949" lon="6.18207">
        <ele>1894.4000244141</ele>
        <time>2013-03-02T07:50:56.000Z</time>
      </trkpt>
      <trkpt lat="45.26947" lon="6.18204">
        <ele>1895</ele>
        <time>2013-03-02T07:51:00.000Z</time>
      </trkpt>
      <trkpt lat="45.26946" lon="6.18202">
        <ele>1896</ele>
        <time>2013-03-02T07:51:04.000Z</time>
      </trkpt>
      <trkpt lat="45.26945" lon="6.182">
        <ele>1896.4000244141</ele>
        <time>2013-03-02T07:51:06.000Z</time>
      </trkpt>
      <trkpt lat="45.26948" lon="6.18193">
        <ele>1898</ele>
        <time>2013-03-02T07:51:12.000Z</time>
      </trkpt>
      <trkpt lat="45.26948" lon="6.18189">
        <ele>1899</ele>
        <time>2013-03-02T07:51:16.000Z</time>
      </trkpt>
      <trkpt lat="45.2695" lon="6.18181">
        <ele>1900.4000244141</ele>
        <time>2013-03-02T07:51:23.000Z</time>
      </trkpt>
      <trkpt lat="45.2695" lon="6.18181">
        <ele>1901.5999755859</ele>
        <time>2013-03-02T07:51:29.000Z</time>
      </trkpt>
      <trkpt lat="45.26945" lon="6.18175">
        <ele>1902.4000244141</ele>
        <time>2013-03-02T07:51:36.000Z</time>
      </trkpt>
      <trkpt lat="45.26942" lon="6.18169">
        <ele>1903.5999755859</ele>
        <time>2013-03-02T07:51:40.000Z</time>
      </trkpt>
      <trkpt lat="45.26941" lon="6.18166">
        <ele>1905.5999755859</ele>
        <time>2013-03-02T07:51:46.000Z</time>
      </trkpt>
      <trkpt lat="45.26936" lon="6.18158">
        <ele>1908</ele>
        <time>2013-03-02T07:51:56.000Z</time>
      </trkpt>
      <trkpt lat="45.26935" lon="6.18155">
        <ele>1908.8000488281</ele>
        <time>2013-03-02T07:51:59.000Z</time>
      </trkpt>
      <trkpt lat="45.26937" lon="6.18149">
        <ele>1910.1999511719</ele>
        <time>2013-03-02T07:52:04.000Z</time>
      </trkpt>
      <trkpt lat="45.26936" lon="6.18145">
        <ele>1911.5999755859</ele>
        <time>2013-03-02T07:52:10.000Z</time>
      </trkpt>
      <trkpt lat="45.26936" lon="6.18141">
        <ele>1912.8000488281</ele>
        <time>2013-03-02T07:52:15.000Z</time>
      </trkpt>
      <trkpt lat="45.26938" lon="6.1814">
        <ele>1913.4000244141</ele>
        <time>2013-03-02T07:52:18.000Z</time>
      </trkpt>
      <trkpt lat="45.2694" lon="6.18138">
        <ele>1914.5999755859</ele>
        <time>2013-03-02T07:52:23.000Z</time>
      </trkpt>
      <trkpt lat="45.26939" lon="6.18136">
        <ele>1915.4000244141</ele>
        <time>2013-03-02T07:52:26.000Z</time>
      </trkpt>
      <trkpt lat="45.26935" lon="6.18129">
        <ele>1917</ele>
        <time>2013-03-02T07:52:32.000Z</time>
      </trkpt>
      <trkpt lat="45.26932" lon="6.18126">
        <ele>1918.1999511719</ele>
        <time>2013-03-02T07:52:37.000Z</time>
      </trkpt>
      <trkpt lat="45.2693" lon="6.18123">
        <ele>1918.8000488281</ele>
        <time>2013-03-02T07:52:41.000Z</time>
      </trkpt>
      <trkpt lat="45.26924" lon="6.18118">
        <ele>1920.4000244141</ele>
        <time>2013-03-02T07:52:49.000Z</time>
      </trkpt>
      <trkpt lat="45.26921" lon="6.18116">
        <ele>1921.4000244141</ele>
        <time>2013-03-02T07:52:53.000Z</time>
      </trkpt>
      <trkpt lat="45.26916" lon="6.18116">
        <ele>1922.4000244141</ele>
        <time>2013-03-02T07:53:02.000Z</time>
      </trkpt>
      <trkpt lat="45.26911" lon="6.18114">
        <ele>1923</ele>
        <time>2013-03-02T07:53:07.000Z</time>
      </trkpt>
      <trkpt lat="45.26906" lon="6.18111">
        <ele>1924.1999511719</ele>
        <time>2013-03-02T07:53:13.000Z</time>
      </trkpt>
      <trkpt lat="45.26905" lon="6.18111">
        <ele>1925</ele>
        <time>2013-03-02T07:53:17.000Z</time>
      </trkpt>
      <trkpt lat="45.26904" lon="6.18115">
        <ele>1926.4000244141</ele>
        <time>2013-03-02T07:53:26.000Z</time>
      </trkpt>
      <trkpt lat="45.26905" lon="6.18115">
        <ele>1926.5999755859</ele>
        <time>2013-03-02T07:53:31.000Z</time>
      </trkpt>
      <trkpt lat="45.26909" lon="6.18109">
        <ele>1927.5999755859</ele>
        <time>2013-03-02T07:53:37.000Z</time>
      </trkpt>
      <trkpt lat="45.26913" lon="6.18109">
        <ele>1928.5999755859</ele>
        <time>2013-03-02T07:53:41.000Z</time>
      </trkpt>
      <trkpt lat="45.26916" lon="6.18108">
        <ele>1930.4000244141</ele>
        <time>2013-03-02T07:53:48.000Z</time>
      </trkpt>
      <trkpt lat="45.26915" lon="6.18109">
        <ele>1930.5999755859</ele>
        <time>2013-03-02T07:53:54.000Z</time>
      </trkpt>
      <trkpt lat="45.26915" lon="6.18109">
        <ele>1929.5999755859</ele>
        <time>2013-03-02T07:54:03.000Z</time>
      </trkpt>
      <trkpt lat="45.26915" lon="6.18106">
        <ele>1930</ele>
        <time>2013-03-02T07:54:10.000Z</time>
      </trkpt>
      <trkpt lat="45.26914" lon="6.18102">
        <ele>1930.8000488281</ele>
        <time>2013-03-02T07:54:16.000Z</time>
      </trkpt>
      <trkpt lat="45.2691" lon="6.18097">
        <ele>1931.8000488281</ele>
        <time>2013-03-02T07:54:21.000Z</time>
      </trkpt>
      <trkpt lat="45.26906" lon="6.18094">
        <ele>1932.4000244141</ele>
        <time>2013-03-02T07:54:25.000Z</time>
      </trkpt>
      <trkpt lat="45.26904" lon="6.18091">
        <ele>1933</ele>
        <time>2013-03-02T07:54:29.000Z</time>
      </trkpt>
      <trkpt lat="45.269" lon="6.18087">
        <ele>1934.1999511719</ele>
        <time>2013-03-02T07:54:34.000Z</time>
      </trkpt>
      <trkpt lat="45.26897" lon="6.18086">
        <ele>1935</ele>
        <time>2013-03-02T07:54:37.000Z</time>
      </trkpt>
      <trkpt lat="45.26898" lon="6.18083">
        <ele>1936</ele>
        <time>2013-03-02T07:54:42.000Z</time>
      </trkpt>
      <trkpt lat="45.26899" lon="6.1808">
        <ele>1937</ele>
        <time>2013-03-02T07:54:47.000Z</time>
      </trkpt>
      <trkpt lat="45.26901" lon="6.18077">
        <ele>1938</ele>
        <time>2013-03-02T07:54:52.000Z</time>
      </trkpt>
      <trkpt lat="45.26904" lon="6.18074">
        <ele>1938.8000488281</ele>
        <time>2013-03-02T07:54:57.000Z</time>
      </trkpt>
      <trkpt lat="45.26906" lon="6.1807">
        <ele>1940</ele>
        <time>2013-03-02T07:55:01.000Z</time>
      </trkpt>
      <trkpt lat="45.26907" lon="6.18067">
        <ele>1941</ele>
        <time>2013-03-02T07:55:05.000Z</time>
      </trkpt>
      <trkpt lat="45.26909" lon="6.18062">
        <ele>1942</ele>
        <time>2013-03-02T07:55:10.000Z</time>
      </trkpt>
      <trkpt lat="45.26911" lon="6.18058">
        <ele>1942.8000488281</ele>
        <time>2013-03-02T07:55:14.000Z</time>
      </trkpt>
      <trkpt lat="45.26913" lon="6.18055">
        <ele>1944</ele>
        <time>2013-03-02T07:55:20.000Z</time>
      </trkpt>
      <trkpt lat="45.26914" lon="6.18053">
        <ele>1944.8000488281</ele>
        <time>2013-03-02T07:55:24.000Z</time>
      </trkpt>
      <trkpt lat="45.26916" lon="6.18049">
        <ele>1945.4000244141</ele>
        <time>2013-03-02T07:55:28.000Z</time>
      </trkpt>
      <trkpt lat="45.26918" lon="6.18043">
        <ele>1945.8000488281</ele>
        <time>2013-03-02T07:55:32.000Z</time>
      </trkpt>
      <trkpt lat="45.26919" lon="6.18038">
        <ele>1946.4000244141</ele>
        <time>2013-03-02T07:55:36.000Z</time>
      </trkpt>
      <trkpt lat="45.2692" lon="6.18031">
        <ele>1946.8000488281</ele>
        <time>2013-03-02T07:55:40.000Z</time>
      </trkpt>
      <trkpt lat="45.2692" lon="6.18029">
        <ele>1947.1999511719</ele>
        <time>2013-03-02T07:55:41.000Z</time>
      </trkpt>
      <trkpt lat="45.2692" lon="6.18021">
        <ele>1948</ele>
        <time>2013-03-02T07:55:47.000Z</time>
      </trkpt>
      <trkpt lat="45.2692" lon="6.18016">
        <ele>1949</ele>
        <time>2013-03-02T07:55:51.000Z</time>
      </trkpt>
      <trkpt lat="45.26919" lon="6.18011">
        <ele>1950</ele>
        <time>2013-03-02T07:55:55.000Z</time>
      </trkpt>
      <trkpt lat="45.26919" lon="6.1801">
        <ele>1950.1999511719</ele>
        <time>2013-03-02T07:55:56.000Z</time>
      </trkpt>
      <trkpt lat="45.2692" lon="6.18005">
        <ele>1951.1999511719</ele>
        <time>2013-03-02T07:56:01.000Z</time>
      </trkpt>
      <trkpt lat="45.2692" lon="6.18002">
        <ele>1951.8000488281</ele>
        <time>2013-03-02T07:56:04.000Z</time>
      </trkpt>
      <trkpt lat="45.26921" lon="6.17994">
        <ele>1953.1999511719</ele>
        <time>2013-03-02T07:56:09.000Z</time>
      </trkpt>
      <trkpt lat="45.26923" lon="6.17988">
        <ele>1954</ele>
        <time>2013-03-02T07:56:13.000Z</time>
      </trkpt>
      <trkpt lat="45.26923" lon="6.17984">
        <ele>1954.5999755859</ele>
        <time>2013-03-02T07:56:17.000Z</time>
      </trkpt>
      <trkpt lat="45.26923" lon="6.17976">
        <ele>1955.5999755859</ele>
        <time>2013-03-02T07:56:23.000Z</time>
      </trkpt>
      <trkpt lat="45.26922" lon="6.17972">
        <ele>1956</ele>
        <time>2013-03-02T07:56:27.000Z</time>
      </trkpt>
      <trkpt lat="45.26923" lon="6.1797">
        <ele>1956.4000244141</ele>
        <time>2013-03-02T07:56:29.000Z</time>
      </trkpt>
      <trkpt lat="45.26922" lon="6.17962">
        <ele>1957</ele>
        <time>2013-03-02T07:56:34.000Z</time>
      </trkpt>
      <trkpt lat="45.26922" lon="6.17952">
        <ele>1957.8000488281</ele>
        <time>2013-03-02T07:56:40.000Z</time>
      </trkpt>
      <trkpt lat="45.26923" lon="6.17947">
        <ele>1958.5999755859</ele>
        <time>2013-03-02T07:56:44.000Z</time>
      </trkpt>
      <trkpt lat="45.26923" lon="6.17941">
        <ele>1959.5999755859</ele>
        <time>2013-03-02T07:56:49.000Z</time>
      </trkpt>
      <trkpt lat="45.26924" lon="6.17935">
        <ele>1961</ele>
        <time>2013-03-02T07:56:55.000Z</time>
      </trkpt>
      <trkpt lat="45.26924" lon="6.1793">
        <ele>1962</ele>
        <time>2013-03-02T07:57:00.000Z</time>
      </trkpt>
      <trkpt lat="45.26924" lon="6.17928">
        <ele>1962.5999755859</ele>
        <time>2013-03-02T07:57:02.000Z</time>
      </trkpt>
      <trkpt lat="45.26924" lon="6.17922">
        <ele>1964</ele>
        <time>2013-03-02T07:57:07.000Z</time>
      </trkpt>
      <trkpt lat="45.26924" lon="6.17918">
        <ele>1965</ele>
        <time>2013-03-02T07:57:12.000Z</time>
      </trkpt>
      <trkpt lat="45.26925" lon="6.17913">
        <ele>1965.5999755859</ele>
        <time>2013-03-02T07:57:16.000Z</time>
      </trkpt>
      <trkpt lat="45.26928" lon="6.17905">
        <ele>1966.8000488281</ele>
        <time>2013-03-02T07:57:22.000Z</time>
      </trkpt>
      <trkpt lat="45.26929" lon="6.179">
        <ele>1967.8000488281</ele>
        <time>2013-03-02T07:57:27.000Z</time>
      </trkpt>
      <trkpt lat="45.26928" lon="6.17894">
        <ele>1968.8000488281</ele>
        <time>2013-03-02T07:57:32.000Z</time>
      </trkpt>
      <trkpt lat="45.26927" lon="6.17887">
        <ele>1970.1999511719</ele>
        <time>2013-03-02T07:57:38.000Z</time>
      </trkpt>
      <trkpt lat="45.26925" lon="6.17882">
        <ele>1971.1999511719</ele>
        <time>2013-03-02T07:57:43.000Z</time>
      </trkpt>
      <trkpt lat="45.26928" lon="6.17876">
        <ele>1972.1999511719</ele>
        <time>2013-03-02T07:57:47.000Z</time>
      </trkpt>
      <trkpt lat="45.26926" lon="6.17871">
        <ele>1973.1999511719</ele>
        <time>2013-03-02T07:57:51.000Z</time>
      </trkpt>
      <trkpt lat="45.26927" lon="6.17867">
        <ele>1973.8000488281</ele>
        <time>2013-03-02T07:57:55.000Z</time>
      </trkpt>
      <trkpt lat="45.26928" lon="6.17864">
        <ele>1974.8000488281</ele>
        <time>2013-03-02T07:57:59.000Z</time>
      </trkpt>
      <trkpt lat="45.2693" lon="6.1786">
        <ele>1976</ele>
        <time>2013-03-02T07:58:04.000Z</time>
      </trkpt>
      <trkpt lat="45.2693" lon="6.17855">
        <ele>1977</ele>
        <time>2013-03-02T07:58:09.000Z</time>
      </trkpt>
      <trkpt lat="45.2693" lon="6.1785">
        <ele>1978</ele>
        <time>2013-03-02T07:58:13.000Z</time>
      </trkpt>
      <trkpt lat="45.2693" lon="6.17845">
        <ele>1978.8000488281</ele>
        <time>2013-03-02T07:58:17.000Z</time>
      </trkpt>
      <trkpt lat="45.2693" lon="6.17842">
        <ele>1979.8000488281</ele>
        <time>2013-03-02T07:58:21.000Z</time>
      </trkpt>
      <trkpt lat="45.26928" lon="6.17838">
        <ele>1980.5999755859</ele>
        <time>2013-03-02T07:58:26.000Z</time>
      </trkpt>
      <trkpt lat="45.26929" lon="6.17833">
        <ele>1981.8000488281</ele>
        <time>2013-03-02T07:58:30.000Z</time>
      </trkpt>
      <trkpt lat="45.26928" lon="6.17826">
        <ele>1982.8000488281</ele>
        <time>2013-03-02T07:58:35.000Z</time>
      </trkpt>
      <trkpt lat="45.26928" lon="6.17821">
        <ele>1983.5999755859</ele>
        <time>2013-03-02T07:58:39.000Z</time>
      </trkpt>
      <trkpt lat="45.26928" lon="6.17818">
        <ele>1984.8000488281</ele>
        <time>2013-03-02T07:58:43.000Z</time>
      </trkpt>
      <trkpt lat="45.26928" lon="6.17812">
        <ele>1985.8000488281</ele>
        <time>2013-03-02T07:58:47.000Z</time>
      </trkpt>
      <trkpt lat="45.26929" lon="6.17808">
        <ele>1986.5999755859</ele>
        <time>2013-03-02T07:58:51.000Z</time>
      </trkpt>
      <trkpt lat="45.26931" lon="6.17802">
        <ele>1987.1999511719</ele>
        <time>2013-03-02T07:58:55.000Z</time>
      </trkpt>
      <trkpt lat="45.26931" lon="6.17801">
        <ele>1987.5999755859</ele>
        <time>2013-03-02T07:58:56.000Z</time>
      </trkpt>
      <trkpt lat="45.26932" lon="6.17795">
        <ele>1988.5999755859</ele>
        <time>2013-03-02T07:59:02.000Z</time>
      </trkpt>
      <trkpt lat="45.26931" lon="6.17789">
        <ele>1989.8000488281</ele>
        <time>2013-03-02T07:59:07.000Z</time>
      </trkpt>
      <trkpt lat="45.2693" lon="6.17781">
        <ele>1990.8000488281</ele>
        <time>2013-03-02T07:59:12.000Z</time>
      </trkpt>
      <trkpt lat="45.26929" lon="6.17776">
        <ele>1992</ele>
        <time>2013-03-02T07:59:16.000Z</time>
      </trkpt>
      <trkpt lat="45.26929" lon="6.17772">
        <ele>1993</ele>
        <time>2013-03-02T07:59:20.000Z</time>
      </trkpt>
      <trkpt lat="45.26929" lon="6.17766">
        <ele>1993.8000488281</ele>
        <time>2013-03-02T07:59:25.000Z</time>
      </trkpt>
      <trkpt lat="45.2693" lon="6.17762">
        <ele>1994.5999755859</ele>
        <time>2013-03-02T07:59:29.000Z</time>
      </trkpt>
      <trkpt lat="45.2693" lon="6.17756">
        <ele>1995.5999755859</ele>
        <time>2013-03-02T07:59:33.000Z</time>
      </trkpt>
      <trkpt lat="45.26932" lon="6.17752">
        <ele>1996.4000244141</ele>
        <time>2013-03-02T07:59:38.000Z</time>
      </trkpt>
      <trkpt lat="45.26933" lon="6.17748">
        <ele>1997.4000244141</ele>
        <time>2013-03-02T07:59:42.000Z</time>
      </trkpt>
      <trkpt lat="45.26933" lon="6.17744">
        <ele>1998.4000244141</ele>
        <time>2013-03-02T07:59:46.000Z</time>
      </trkpt>
      <trkpt lat="45.26935" lon="6.17741">
        <ele>1999.4000244141</ele>
        <time>2013-03-02T07:59:51.000Z</time>
      </trkpt>
      <trkpt lat="45.26936" lon="6.17738">
        <ele>2000.4000244141</ele>
        <time>2013-03-02T07:59:55.000Z</time>
      </trkpt>
      <trkpt lat="45.26937" lon="6.1773">
        <ele>2002</ele>
        <time>2013-03-02T08:00:03.000Z</time>
      </trkpt>
      <trkpt lat="45.26937" lon="6.17724">
        <ele>2003.4000244141</ele>
        <time>2013-03-02T08:00:09.000Z</time>
      </trkpt>
      <trkpt lat="45.26936" lon="6.17719">
        <ele>2004.4000244141</ele>
        <time>2013-03-02T08:00:13.000Z</time>
      </trkpt>
      <trkpt lat="45.26936" lon="6.17716">
        <ele>2005.1999511719</ele>
        <time>2013-03-02T08:00:17.000Z</time>
      </trkpt>
      <trkpt lat="45.26935" lon="6.1771">
        <ele>2006</ele>
        <time>2013-03-02T08:00:21.000Z</time>
      </trkpt>
      <trkpt lat="45.26933" lon="6.17705">
        <ele>2006.8000488281</ele>
        <time>2013-03-02T08:00:25.000Z</time>
      </trkpt>
      <trkpt lat="45.26932" lon="6.17701">
        <ele>2007.5999755859</ele>
        <time>2013-03-02T08:00:29.000Z</time>
      </trkpt>
      <trkpt lat="45.26933" lon="6.177">
        <ele>2008.8000488281</ele>
        <time>2013-03-02T08:00:34.000Z</time>
      </trkpt>
      <trkpt lat="45.26938" lon="6.17702">
        <ele>2010</ele>
        <time>2013-03-02T08:00:40.000Z</time>
      </trkpt>
      <trkpt lat="45.26944" lon="6.17708">
        <ele>2011.4000244141</ele>
        <time>2013-03-02T08:00:47.000Z</time>
      </trkpt>
      <trkpt lat="45.26947" lon="6.17707">
        <ele>2012.4000244141</ele>
        <time>2013-03-02T08:00:52.000Z</time>
      </trkpt>
      <trkpt lat="45.26952" lon="6.17707">
        <ele>2013.5999755859</ele>
        <time>2013-03-02T08:00:57.000Z</time>
      </trkpt>
      <trkpt lat="45.26956" lon="6.17708">
        <ele>2014.8000488281</ele>
        <time>2013-03-02T08:01:03.000Z</time>
      </trkpt>
      <trkpt lat="45.26959" lon="6.17712">
        <ele>2015.5999755859</ele>
        <time>2013-03-02T08:01:07.000Z</time>
      </trkpt>
      <trkpt lat="45.26958" lon="6.17711">
        <ele>2016.8000488281</ele>
        <time>2013-03-02T08:01:14.000Z</time>
      </trkpt>
      <trkpt lat="45.26958" lon="6.17709">
        <ele>2016.8000488281</ele>
        <time>2013-03-02T08:01:23.000Z</time>
      </trkpt>
      <trkpt lat="45.26961" lon="6.17706">
        <ele>2016.4000244141</ele>
        <time>2013-03-02T08:02:25.000Z</time>
      </trkpt>
      <trkpt lat="45.26962" lon="6.17696">
        <ele>2018.5999755859</ele>
        <time>2013-03-02T08:06:42.000Z</time>
      </trkpt>
      <trkpt lat="45.2696" lon="6.17687">
        <ele>2019.4000244141</ele>
        <time>2013-03-02T08:06:49.000Z</time>
      </trkpt>
      <trkpt lat="45.26959" lon="6.17681">
        <ele>2020.5999755859</ele>
        <time>2013-03-02T08:06:54.000Z</time>
      </trkpt>
      <trkpt lat="45.26958" lon="6.17676">
        <ele>2021.8000488281</ele>
        <time>2013-03-02T08:07:00.000Z</time>
      </trkpt>
      <trkpt lat="45.26958" lon="6.17671">
        <ele>2022.8000488281</ele>
        <time>2013-03-02T08:07:04.000Z</time>
      </trkpt>
      <trkpt lat="45.26957" lon="6.17667">
        <ele>2023.8000488281</ele>
        <time>2013-03-02T08:07:08.000Z</time>
      </trkpt>
      <trkpt lat="45.26955" lon="6.17663">
        <ele>2024.5999755859</ele>
        <time>2013-03-02T08:07:12.000Z</time>
      </trkpt>
      <trkpt lat="45.26953" lon="6.17661">
        <ele>2025.8000488281</ele>
        <time>2013-03-02T08:07:17.000Z</time>
      </trkpt>
      <trkpt lat="45.26953" lon="6.17655">
        <ele>2027.1999511719</ele>
        <time>2013-03-02T08:07:23.000Z</time>
      </trkpt>
      <trkpt lat="45.26954" lon="6.17652">
        <ele>2027.8000488281</ele>
        <time>2013-03-02T08:07:27.000Z</time>
      </trkpt>
      <trkpt lat="45.26952" lon="6.17644">
        <ele>2028.8000488281</ele>
        <time>2013-03-02T08:07:33.000Z</time>
      </trkpt>
      <trkpt lat="45.26951" lon="6.1764">
        <ele>2029.5999755859</ele>
        <time>2013-03-02T08:07:37.000Z</time>
      </trkpt>
      <trkpt lat="45.26948" lon="6.17637">
        <ele>2030.4000244141</ele>
        <time>2013-03-02T08:07:41.000Z</time>
      </trkpt>
      <trkpt lat="45.26947" lon="6.17634">
        <ele>2031.1999511719</ele>
        <time>2013-03-02T08:07:44.000Z</time>
      </trkpt>
      <trkpt lat="45.26947" lon="6.1763">
        <ele>2032.5999755859</ele>
        <time>2013-03-02T08:07:50.000Z</time>
      </trkpt>
      <trkpt lat="45.2695" lon="6.17629">
        <ele>2033.8000488281</ele>
        <time>2013-03-02T08:07:55.000Z</time>
      </trkpt>
      <trkpt lat="45.26955" lon="6.17628">
        <ele>2035.5999755859</ele>
        <time>2013-03-02T08:08:02.000Z</time>
      </trkpt>
      <trkpt lat="45.26957" lon="6.17628">
        <ele>2036.5999755859</ele>
        <time>2013-03-02T08:08:06.000Z</time>
      </trkpt>
      <trkpt lat="45.2696" lon="6.17628">
        <ele>2038.4000244141</ele>
        <time>2013-03-02T08:08:12.000Z</time>
      </trkpt>
      <trkpt lat="45.26963" lon="6.17627">
        <ele>2039.4000244141</ele>
        <time>2013-03-02T08:08:18.000Z</time>
      </trkpt>
      <trkpt lat="45.26965" lon="6.17626">
        <ele>2040.8000488281</ele>
        <time>2013-03-02T08:08:23.000Z</time>
      </trkpt>
      <trkpt lat="45.26968" lon="6.17625">
        <ele>2041.8000488281</ele>
        <time>2013-03-02T08:08:27.000Z</time>
      </trkpt>
      <trkpt lat="45.26969" lon="6.17623">
        <ele>2043</ele>
        <time>2013-03-02T08:08:31.000Z</time>
      </trkpt>
      <trkpt lat="45.26972" lon="6.17622">
        <ele>2044.5999755859</ele>
        <time>2013-03-02T08:08:36.000Z</time>
      </trkpt>
      <trkpt lat="45.26973" lon="6.17622">
        <ele>2045.4000244141</ele>
        <time>2013-03-02T08:08:41.000Z</time>
      </trkpt>
      <trkpt lat="45.26974" lon="6.17624">
        <ele>2046.5999755859</ele>
        <time>2013-03-02T08:08:45.000Z</time>
      </trkpt>
      <trkpt lat="45.26977" lon="6.1762">
        <ele>2048.3999023438</ele>
        <time>2013-03-02T08:08:52.000Z</time>
      </trkpt>
      <trkpt lat="45.26981" lon="6.17617">
        <ele>2049.8000488281</ele>
        <time>2013-03-02T08:08:58.000Z</time>
      </trkpt>
      <trkpt lat="45.26986" lon="6.17615">
        <ele>2051.1999511719</ele>
        <time>2013-03-02T08:09:05.000Z</time>
      </trkpt>
      <trkpt lat="45.26989" lon="6.17615">
        <ele>2052.1999511719</ele>
        <time>2013-03-02T08:09:11.000Z</time>
      </trkpt>
      <trkpt lat="45.26992" lon="6.17613">
        <ele>2053.3999023438</ele>
        <time>2013-03-02T08:09:15.000Z</time>
      </trkpt>
      <trkpt lat="45.26996" lon="6.17614">
        <ele>2055.1999511719</ele>
        <time>2013-03-02T08:09:22.000Z</time>
      </trkpt>
      <trkpt lat="45.26996" lon="6.17606">
        <ele>2057</ele>
        <time>2013-03-02T08:09:30.000Z</time>
      </trkpt>
      <trkpt lat="45.26996" lon="6.176">
        <ele>2057.6000976562</ele>
        <time>2013-03-02T08:09:34.000Z</time>
      </trkpt>
      <trkpt lat="45.26997" lon="6.17594">
        <ele>2058.6000976562</ele>
        <time>2013-03-02T08:09:38.000Z</time>
      </trkpt>
      <trkpt lat="45.26993" lon="6.1759">
        <ele>2059.6000976562</ele>
        <time>2013-03-02T08:09:43.000Z</time>
      </trkpt>
      <trkpt lat="45.26992" lon="6.17586">
        <ele>2060.1999511719</ele>
        <time>2013-03-02T08:09:47.000Z</time>
      </trkpt>
      <trkpt lat="45.26991" lon="6.17583">
        <ele>2060.8000488281</ele>
        <time>2013-03-02T08:09:50.000Z</time>
      </trkpt>
      <trkpt lat="45.26989" lon="6.17577">
        <ele>2062.1999511719</ele>
        <time>2013-03-02T08:09:55.000Z</time>
      </trkpt>
      <trkpt lat="45.26988" lon="6.17574">
        <ele>2062.8000488281</ele>
        <time>2013-03-02T08:09:58.000Z</time>
      </trkpt>
      <trkpt lat="45.26988" lon="6.17572">
        <ele>2063.3999023438</ele>
        <time>2013-03-02T08:10:02.000Z</time>
      </trkpt>
      <trkpt lat="45.2699" lon="6.17575">
        <ele>2064.1999511719</ele>
        <time>2013-03-02T08:10:07.000Z</time>
      </trkpt>
      <trkpt lat="45.26994" lon="6.17577">
        <ele>2065.3999023438</ele>
        <time>2013-03-02T08:10:14.000Z</time>
      </trkpt>
      <trkpt lat="45.26997" lon="6.17579">
        <ele>2066.6000976562</ele>
        <time>2013-03-02T08:10:19.000Z</time>
      </trkpt>
      <trkpt lat="45.26998" lon="6.17579">
        <ele>2066.8000488281</ele>
        <time>2013-03-02T08:10:21.000Z</time>
      </trkpt>
      <trkpt lat="45.26995" lon="6.17572">
        <ele>2068</ele>
        <time>2013-03-02T08:10:27.000Z</time>
      </trkpt>
      <trkpt lat="45.26994" lon="6.17565">
        <ele>2069</ele>
        <time>2013-03-02T08:10:32.000Z</time>
      </trkpt>
      <trkpt lat="45.26993" lon="6.17561">
        <ele>2070</ele>
        <time>2013-03-02T08:10:36.000Z</time>
      </trkpt>
      <trkpt lat="45.26992" lon="6.17553">
        <ele>2070.8000488281</ele>
        <time>2013-03-02T08:10:41.000Z</time>
      </trkpt>
      <trkpt lat="45.2699" lon="6.1755">
        <ele>2071.6000976562</ele>
        <time>2013-03-02T08:10:45.000Z</time>
      </trkpt>
      <trkpt lat="45.2699" lon="6.17545">
        <ele>2072.8000488281</ele>
        <time>2013-03-02T08:10:52.000Z</time>
      </trkpt>
      <trkpt lat="45.26991" lon="6.17545">
        <ele>2073</ele>
        <time>2013-03-02T08:10:53.000Z</time>
      </trkpt>
      <trkpt lat="45.26993" lon="6.17546">
        <ele>2073.3999023438</ele>
        <time>2013-03-02T08:10:55.000Z</time>
      </trkpt>
      <trkpt lat="45.26998" lon="6.17548">
        <ele>2074.8000488281</ele>
        <time>2013-03-02T08:11:03.000Z</time>
      </trkpt>
      <trkpt lat="45.27001" lon="6.17549">
        <ele>2076</ele>
        <time>2013-03-02T08:11:08.000Z</time>
      </trkpt>
      <trkpt lat="45.27002" lon="6.1755">
        <ele>2077</ele>
        <time>2013-03-02T08:11:12.000Z</time>
      </trkpt>
      <trkpt lat="45.27002" lon="6.17542">
        <ele>2078</ele>
        <time>2013-03-02T08:11:17.000Z</time>
      </trkpt>
      <trkpt lat="45.27" lon="6.17535">
        <ele>2078.8000488281</ele>
        <time>2013-03-02T08:11:22.000Z</time>
      </trkpt>
      <trkpt lat="45.27" lon="6.17533">
        <ele>2079.3999023438</ele>
        <time>2013-03-02T08:11:24.000Z</time>
      </trkpt>
      <trkpt lat="45.26998" lon="6.17523">
        <ele>2080.6000976562</ele>
        <time>2013-03-02T08:11:31.000Z</time>
      </trkpt>
      <trkpt lat="45.26997" lon="6.17519">
        <ele>2081.3999023438</ele>
        <time>2013-03-02T08:11:35.000Z</time>
      </trkpt>
      <trkpt lat="45.26995" lon="6.17515">
        <ele>2082.1999511719</ele>
        <time>2013-03-02T08:11:39.000Z</time>
      </trkpt>
      <trkpt lat="45.26991" lon="6.17511">
        <ele>2083.6000976562</ele>
        <time>2013-03-02T08:11:45.000Z</time>
      </trkpt>
      <trkpt lat="45.26989" lon="6.17507">
        <ele>2084.8000488281</ele>
        <time>2013-03-02T08:11:50.000Z</time>
      </trkpt>
      <trkpt lat="45.26986" lon="6.17502">
        <ele>2085.8000488281</ele>
        <time>2013-03-02T08:11:55.000Z</time>
      </trkpt>
      <trkpt lat="45.26983" lon="6.17499">
        <ele>2086.6000976562</ele>
        <time>2013-03-02T08:11:59.000Z</time>
      </trkpt>
      <trkpt lat="45.26979" lon="6.17493">
        <ele>2087.6000976562</ele>
        <time>2013-03-02T08:12:05.000Z</time>
      </trkpt>
      <trkpt lat="45.26976" lon="6.17487">
        <ele>2088.8000488281</ele>
        <time>2013-03-02T08:12:11.000Z</time>
      </trkpt>
      <trkpt lat="45.26974" lon="6.17479">
        <ele>2090</ele>
        <time>2013-03-02T08:12:18.000Z</time>
      </trkpt>
      <trkpt lat="45.26971" lon="6.17473">
        <ele>2091.1999511719</ele>
        <time>2013-03-02T08:12:25.000Z</time>
      </trkpt>
      <trkpt lat="45.26971" lon="6.17468">
        <ele>2092</ele>
        <time>2013-03-02T08:12:31.000Z</time>
      </trkpt>
      <trkpt lat="45.26971" lon="6.17466">
        <ele>2092.6000976562</ele>
        <time>2013-03-02T08:12:33.000Z</time>
      </trkpt>
      <trkpt lat="45.26972" lon="6.1746">
        <ele>2094</ele>
        <time>2013-03-02T08:12:39.000Z</time>
      </trkpt>
      <trkpt lat="45.26974" lon="6.17449">
        <ele>2096</ele>
        <time>2013-03-02T08:12:48.000Z</time>
      </trkpt>
      <trkpt lat="45.26975" lon="6.17442">
        <ele>2097.1999511719</ele>
        <time>2013-03-02T08:12:55.000Z</time>
      </trkpt>
      <trkpt lat="45.26973" lon="6.17433">
        <ele>2099</ele>
        <time>2013-03-02T08:13:02.000Z</time>
      </trkpt>
      <trkpt lat="45.26974" lon="6.17426">
        <ele>2100.8000488281</ele>
        <time>2013-03-02T08:13:09.000Z</time>
      </trkpt>
      <trkpt lat="45.26975" lon="6.17421">
        <ele>2101.8000488281</ele>
        <time>2013-03-02T08:13:14.000Z</time>
      </trkpt>
      <trkpt lat="45.26975" lon="6.17416">
        <ele>2102.8000488281</ele>
        <time>2013-03-02T08:13:20.000Z</time>
      </trkpt>
      <trkpt lat="45.26975" lon="6.1741">
        <ele>2104.1999511719</ele>
        <time>2013-03-02T08:13:25.000Z</time>
      </trkpt>
      <trkpt lat="45.26975" lon="6.17404">
        <ele>2105</ele>
        <time>2013-03-02T08:13:30.000Z</time>
      </trkpt>
      <trkpt lat="45.26976" lon="6.17398">
        <ele>2106</ele>
        <time>2013-03-02T08:13:35.000Z</time>
      </trkpt>
      <trkpt lat="45.26978" lon="6.17387">
        <ele>2107</ele>
        <time>2013-03-02T08:13:43.000Z</time>
      </trkpt>
      <trkpt lat="45.2698" lon="6.1738">
        <ele>2108.1999511719</ele>
        <time>2013-03-02T08:13:49.000Z</time>
      </trkpt>
      <trkpt lat="45.26982" lon="6.1737">
        <ele>2109.3999023438</ele>
        <time>2013-03-02T08:13:56.000Z</time>
      </trkpt>
      <trkpt lat="45.26983" lon="6.17363">
        <ele>2110.3999023438</ele>
        <time>2013-03-02T08:14:02.000Z</time>
      </trkpt>
      <trkpt lat="45.26984" lon="6.17354">
        <ele>2111.8000488281</ele>
        <time>2013-03-02T08:14:09.000Z</time>
      </trkpt>
      <trkpt lat="45.26987" lon="6.17347">
        <ele>2113</ele>
        <time>2013-03-02T08:14:16.000Z</time>
      </trkpt>
      <trkpt lat="45.26989" lon="6.1734">
        <ele>2114.6000976562</ele>
        <time>2013-03-02T08:14:23.000Z</time>
      </trkpt>
      <trkpt lat="45.26991" lon="6.17334">
        <ele>2115.6000976562</ele>
        <time>2013-03-02T08:14:28.000Z</time>
      </trkpt>
      <trkpt lat="45.26992" lon="6.17326">
        <ele>2116.6000976562</ele>
        <time>2013-03-02T08:14:35.000Z</time>
      </trkpt>
      <trkpt lat="45.26993" lon="6.1732">
        <ele>2118</ele>
        <time>2013-03-02T08:14:41.000Z</time>
      </trkpt>
      <trkpt lat="45.26994" lon="6.17313">
        <ele>2119.1999511719</ele>
        <time>2013-03-02T08:14:47.000Z</time>
      </trkpt>
      <trkpt lat="45.26994" lon="6.17305">
        <ele>2120.6000976562</ele>
        <time>2013-03-02T08:14:54.000Z</time>
      </trkpt>
      <trkpt lat="45.26994" lon="6.17299">
        <ele>2121.6000976562</ele>
        <time>2013-03-02T08:14:59.000Z</time>
      </trkpt>
      <trkpt lat="45.26995" lon="6.17296">
        <ele>2121.8000488281</ele>
        <time>2013-03-02T08:15:02.000Z</time>
      </trkpt>
      <trkpt lat="45.26996" lon="6.17286">
        <ele>2124</ele>
        <time>2013-03-02T08:15:10.000Z</time>
      </trkpt>
      <trkpt lat="45.26997" lon="6.1728">
        <ele>2125</ele>
        <time>2013-03-02T08:15:16.000Z</time>
      </trkpt>
      <trkpt lat="45.26997" lon="6.17273">
        <ele>2126.1999511719</ele>
        <time>2013-03-02T08:15:22.000Z</time>
      </trkpt>
      <trkpt lat="45.26998" lon="6.17266">
        <ele>2127.6000976562</ele>
        <time>2013-03-02T08:15:28.000Z</time>
      </trkpt>
      <trkpt lat="45.26995" lon="6.17256">
        <ele>2128.3999023438</ele>
        <time>2013-03-02T08:15:34.000Z</time>
      </trkpt>
      <trkpt lat="45.26996" lon="6.17252">
        <ele>2129.1999511719</ele>
        <time>2013-03-02T08:15:39.000Z</time>
      </trkpt>
      <trkpt lat="45.26997" lon="6.17246">
        <ele>2130.1999511719</ele>
        <time>2013-03-02T08:15:49.000Z</time>
      </trkpt>
      <trkpt lat="45.26996" lon="6.17238">
        <ele>2131.3999023438</ele>
        <time>2013-03-02T08:15:56.000Z</time>
      </trkpt>
      <trkpt lat="45.26993" lon="6.17233">
        <ele>2132.6000976562</ele>
        <time>2013-03-02T08:16:01.000Z</time>
      </trkpt>
      <trkpt lat="45.26995" lon="6.1723">
        <ele>2133.6000976562</ele>
        <time>2013-03-02T08:16:05.000Z</time>
      </trkpt>
      <trkpt lat="45.26996" lon="6.1723">
        <ele>2134.1999511719</ele>
        <time>2013-03-02T08:16:07.000Z</time>
      </trkpt>
      <trkpt lat="45.26999" lon="6.17229">
        <ele>2135.8000488281</ele>
        <time>2013-03-02T08:16:13.000Z</time>
      </trkpt>
      <trkpt lat="45.27001" lon="6.17229">
        <ele>2136.6000976562</ele>
        <time>2013-03-02T08:16:18.000Z</time>
      </trkpt>
      <trkpt lat="45.27006" lon="6.1723">
        <ele>2138.1999511719</ele>
        <time>2013-03-02T08:16:24.000Z</time>
      </trkpt>
      <trkpt lat="45.27007" lon="6.17228">
        <ele>2138.8000488281</ele>
        <time>2013-03-02T08:16:27.000Z</time>
      </trkpt>
      <trkpt lat="45.27008" lon="6.17222">
        <ele>2140.1999511719</ele>
        <time>2013-03-02T08:16:34.000Z</time>
      </trkpt>
      <trkpt lat="45.2701" lon="6.17215">
        <ele>2141.6000976562</ele>
        <time>2013-03-02T08:16:41.000Z</time>
      </trkpt>
      <trkpt lat="45.27011" lon="6.1721">
        <ele>2143</ele>
        <time>2013-03-02T08:16:47.000Z</time>
      </trkpt>
      <trkpt lat="45.27012" lon="6.17206">
        <ele>2143.8000488281</ele>
        <time>2013-03-02T08:16:51.000Z</time>
      </trkpt>
      <trkpt lat="45.27012" lon="6.17202">
        <ele>2145</ele>
        <time>2013-03-02T08:16:56.000Z</time>
      </trkpt>
      <trkpt lat="45.27011" lon="6.17196">
        <ele>2146.6000976562</ele>
        <time>2013-03-02T08:17:02.000Z</time>
      </trkpt>
      <trkpt lat="45.27011" lon="6.17191">
        <ele>2147.8000488281</ele>
        <time>2013-03-02T08:17:08.000Z</time>
      </trkpt>
      <trkpt lat="45.27013" lon="6.17187">
        <ele>2148.8000488281</ele>
        <time>2013-03-02T08:17:12.000Z</time>
      </trkpt>
      <trkpt lat="45.27015" lon="6.17182">
        <ele>2150.1999511719</ele>
        <time>2013-03-02T08:17:18.000Z</time>
      </trkpt>
      <trkpt lat="45.27017" lon="6.17178">
        <ele>2151.6000976562</ele>
        <time>2013-03-02T08:17:23.000Z</time>
      </trkpt>
      <trkpt lat="45.27018" lon="6.17172">
        <ele>2153.1999511719</ele>
        <time>2013-03-02T08:17:30.000Z</time>
      </trkpt>
      <trkpt lat="45.27018" lon="6.17171">
        <ele>2153.1999511719</ele>
        <time>2013-03-02T08:17:31.000Z</time>
      </trkpt>
      <trkpt lat="45.27019" lon="6.17164">
        <ele>2155</ele>
        <time>2013-03-02T08:17:38.000Z</time>
      </trkpt>
      <trkpt lat="45.2702" lon="6.17159">
        <ele>2156.1999511719</ele>
        <time>2013-03-02T08:17:43.000Z</time>
      </trkpt>
      <trkpt lat="45.27022" lon="6.17153">
        <ele>2157.1999511719</ele>
        <time>2013-03-02T08:17:49.000Z</time>
      </trkpt>
      <trkpt lat="45.27022" lon="6.17146">
        <ele>2158.3999023438</ele>
        <time>2013-03-02T08:17:55.000Z</time>
      </trkpt>
      <trkpt lat="45.27022" lon="6.17139">
        <ele>2159.3999023438</ele>
        <time>2013-03-02T08:18:02.000Z</time>
      </trkpt>
      <trkpt lat="45.27023" lon="6.17133">
        <ele>2160.6000976562</ele>
        <time>2013-03-02T08:18:08.000Z</time>
      </trkpt>
      <trkpt lat="45.27024" lon="6.17125">
        <ele>2161.6000976562</ele>
        <time>2013-03-02T08:18:15.000Z</time>
      </trkpt>
      <trkpt lat="45.27024" lon="6.17118">
        <ele>2162.8000488281</ele>
        <time>2013-03-02T08:18:21.000Z</time>
      </trkpt>
      <trkpt lat="45.27024" lon="6.17113">
        <ele>2164</ele>
        <time>2013-03-02T08:18:26.000Z</time>
      </trkpt>
      <trkpt lat="45.27022" lon="6.17105">
        <ele>2165.6000976562</ele>
        <time>2013-03-02T08:18:33.000Z</time>
      </trkpt>
      <trkpt lat="45.27022" lon="6.17104">
        <ele>2165.8000488281</ele>
        <time>2013-03-02T08:18:34.000Z</time>
      </trkpt>
      <trkpt lat="45.2702" lon="6.17097">
        <ele>2167.1999511719</ele>
        <time>2013-03-02T08:18:41.000Z</time>
      </trkpt>
      <trkpt lat="45.27019" lon="6.17093">
        <ele>2168</ele>
        <time>2013-03-02T08:18:45.000Z</time>
      </trkpt>
      <trkpt lat="45.27016" lon="6.17087">
        <ele>2168.6000976562</ele>
        <time>2013-03-02T08:18:50.000Z</time>
      </trkpt>
      <trkpt lat="45.27015" lon="6.1708">
        <ele>2170</ele>
        <time>2013-03-02T08:18:57.000Z</time>
      </trkpt>
      <trkpt lat="45.27014" lon="6.17073">
        <ele>2171.8000488281</ele>
        <time>2013-03-02T08:19:04.000Z</time>
      </trkpt>
      <trkpt lat="45.27015" lon="6.17069">
        <ele>2173.1999511719</ele>
        <time>2013-03-02T08:19:09.000Z</time>
      </trkpt>
      <trkpt lat="45.2702" lon="6.17066">
        <ele>2174.3999023438</ele>
        <time>2013-03-02T08:19:17.000Z</time>
      </trkpt>
      <trkpt lat="45.27024" lon="6.17065">
        <ele>2175.1999511719</ele>
        <time>2013-03-02T08:19:21.000Z</time>
      </trkpt>
      <trkpt lat="45.27027" lon="6.17064">
        <ele>2176.1999511719</ele>
        <time>2013-03-02T08:19:25.000Z</time>
      </trkpt>
      <trkpt lat="45.27029" lon="6.17064">
        <ele>2177.3999023438</ele>
        <time>2013-03-02T08:19:30.000Z</time>
      </trkpt>
      <trkpt lat="45.27034" lon="6.17066">
        <ele>2179</ele>
        <time>2013-03-02T08:19:37.000Z</time>
      </trkpt>
      <trkpt lat="45.27034" lon="6.17065">
        <ele>2179.3999023438</ele>
        <time>2013-03-02T08:19:40.000Z</time>
      </trkpt>
      <trkpt lat="45.27032" lon="6.17055">
        <ele>2180.8000488281</ele>
        <time>2013-03-02T08:19:48.000Z</time>
      </trkpt>
      <trkpt lat="45.2703" lon="6.17047">
        <ele>2181.8000488281</ele>
        <time>2013-03-02T08:19:54.000Z</time>
      </trkpt>
      <trkpt lat="45.27028" lon="6.17039">
        <ele>2183.3999023438</ele>
        <time>2013-03-02T08:20:01.000Z</time>
      </trkpt>
      <trkpt lat="45.27024" lon="6.17031">
        <ele>2184.3999023438</ele>
        <time>2013-03-02T08:20:07.000Z</time>
      </trkpt>
      <trkpt lat="45.2702" lon="6.17025">
        <ele>2185.3999023438</ele>
        <time>2013-03-02T08:20:13.000Z</time>
      </trkpt>
      <trkpt lat="45.2702" lon="6.17024">
        <ele>2185.8000488281</ele>
        <time>2013-03-02T08:20:15.000Z</time>
      </trkpt>
      <trkpt lat="45.27021" lon="6.17023">
        <ele>2186.8000488281</ele>
        <time>2013-03-02T08:20:22.000Z</time>
      </trkpt>
      <trkpt lat="45.27024" lon="6.17021">
        <ele>2187.3999023438</ele>
        <time>2013-03-02T08:20:28.000Z</time>
      </trkpt>
      <trkpt lat="45.27026" lon="6.17019">
        <ele>2188.1999511719</ele>
        <time>2013-03-02T08:20:33.000Z</time>
      </trkpt>
      <trkpt lat="45.27031" lon="6.17019">
        <ele>2189.1999511719</ele>
        <time>2013-03-02T08:20:44.000Z</time>
      </trkpt>
      <trkpt lat="45.2703" lon="6.17019">
        <ele>2189.8000488281</ele>
        <time>2013-03-02T08:20:54.000Z</time>
      </trkpt>
      <trkpt lat="45.27037" lon="6.17016">
        <ele>2191.8000488281</ele>
        <time>2013-03-02T08:21:02.000Z</time>
      </trkpt>
      <trkpt lat="45.27039" lon="6.17016">
        <ele>2192.3999023438</ele>
        <time>2013-03-02T08:21:05.000Z</time>
      </trkpt>
      <trkpt lat="45.27037" lon="6.17018">
        <ele>2191.8000488281</ele>
        <time>2013-03-02T08:21:11.000Z</time>
      </trkpt>
      <trkpt lat="45.27035" lon="6.17019">
        <ele>2190.6000976562</ele>
        <time>2013-03-02T08:21:36.000Z</time>
      </trkpt>
      <trkpt lat="45.27035" lon="6.17019">
        <ele>2190.6000976562</ele>
        <time>2013-03-02T08:21:40.000Z</time>
      </trkpt>
      <trkpt lat="45.27037" lon="6.17016">
        <ele>2191</ele>
        <time>2013-03-02T08:21:45.000Z</time>
      </trkpt>
      <trkpt lat="45.27038" lon="6.17014">
        <ele>2192.1999511719</ele>
        <time>2013-03-02T08:21:50.000Z</time>
      </trkpt>
      <trkpt lat="45.27035" lon="6.17006">
        <ele>2193.8000488281</ele>
        <time>2013-03-02T08:21:58.000Z</time>
      </trkpt>
      <trkpt lat="45.27033" lon="6.17">
        <ele>2195</ele>
        <time>2013-03-02T08:22:05.000Z</time>
      </trkpt>
      <trkpt lat="45.27029" lon="6.16993">
        <ele>2196.3999023438</ele>
        <time>2013-03-02T08:22:12.000Z</time>
      </trkpt>
      <trkpt lat="45.27027" lon="6.16989">
        <ele>2197.3999023438</ele>
        <time>2013-03-02T08:22:17.000Z</time>
      </trkpt>
      <trkpt lat="45.27023" lon="6.16983">
        <ele>2198.3999023438</ele>
        <time>2013-03-02T08:22:24.000Z</time>
      </trkpt>
      <trkpt lat="45.27021" lon="6.16981">
        <ele>2199</ele>
        <time>2013-03-02T08:22:28.000Z</time>
      </trkpt>
      <trkpt lat="45.27018" lon="6.16977">
        <ele>2200.1999511719</ele>
        <time>2013-03-02T08:22:33.000Z</time>
      </trkpt>
      <trkpt lat="45.27015" lon="6.16975">
        <ele>2201</ele>
        <time>2013-03-02T08:22:38.000Z</time>
      </trkpt>
      <trkpt lat="45.27013" lon="6.16972">
        <ele>2202</ele>
        <time>2013-03-02T08:22:43.000Z</time>
      </trkpt>
      <trkpt lat="45.2701" lon="6.16969">
        <ele>2203.1999511719</ele>
        <time>2013-03-02T08:22:49.000Z</time>
      </trkpt>
      <trkpt lat="45.27007" lon="6.16968">
        <ele>2204.1999511719</ele>
        <time>2013-03-02T08:22:54.000Z</time>
      </trkpt>
      <trkpt lat="45.27003" lon="6.16966">
        <ele>2205.3999023438</ele>
        <time>2013-03-02T08:23:00.000Z</time>
      </trkpt>
      <trkpt lat="45.26999" lon="6.16968">
        <ele>2206.3999023438</ele>
        <time>2013-03-02T08:23:06.000Z</time>
      </trkpt>
      <trkpt lat="45.26994" lon="6.16973">
        <ele>2208.1999511719</ele>
        <time>2013-03-02T08:23:13.000Z</time>
      </trkpt>
      <trkpt lat="45.26994" lon="6.16973">
        <ele>2208.3999023438</ele>
        <time>2013-03-02T08:23:14.000Z</time>
      </trkpt>
      <trkpt lat="45.26991" lon="6.16975">
        <ele>2209.8000488281</ele>
        <time>2013-03-02T08:23:22.000Z</time>
      </trkpt>
      <trkpt lat="45.26992" lon="6.1697">
        <ele>2210.3999023438</ele>
        <time>2013-03-02T08:23:30.000Z</time>
      </trkpt>
      <trkpt lat="45.26991" lon="6.16966">
        <ele>2211.3999023438</ele>
        <time>2013-03-02T08:23:35.000Z</time>
      </trkpt>
      <trkpt lat="45.26992" lon="6.16962">
        <ele>2212.6000976562</ele>
        <time>2013-03-02T08:23:40.000Z</time>
      </trkpt>
      <trkpt lat="45.26993" lon="6.16961">
        <ele>2213.1999511719</ele>
        <time>2013-03-02T08:23:42.000Z</time>
      </trkpt>
      <trkpt lat="45.26993" lon="6.16957">
        <ele>2214</ele>
        <time>2013-03-02T08:23:47.000Z</time>
      </trkpt>
      <trkpt lat="45.26993" lon="6.16952">
        <ele>2214.8000488281</ele>
        <time>2013-03-02T08:23:53.000Z</time>
      </trkpt>
      <trkpt lat="45.26994" lon="6.16951">
        <ele>2215</ele>
        <time>2013-03-02T08:23:54.000Z</time>
      </trkpt>
      <trkpt lat="45.26995" lon="6.16946">
        <ele>2216.1999511719</ele>
        <time>2013-03-02T08:24:00.000Z</time>
      </trkpt>
      <trkpt lat="45.26996" lon="6.16946">
        <ele>2216.6000976562</ele>
        <time>2013-03-02T08:24:02.000Z</time>
      </trkpt>
      <trkpt lat="45.27" lon="6.16942">
        <ele>2218.1999511719</ele>
        <time>2013-03-02T08:24:10.000Z</time>
      </trkpt>
      <trkpt lat="45.27001" lon="6.16941">
        <ele>2219</ele>
        <time>2013-03-02T08:24:14.000Z</time>
      </trkpt>
      <trkpt lat="45.27004" lon="6.16939">
        <ele>2220.1999511719</ele>
        <time>2013-03-02T08:24:21.000Z</time>
      </trkpt>
      <trkpt lat="45.27008" lon="6.16934">
        <ele>2222</ele>
        <time>2013-03-02T08:24:29.000Z</time>
      </trkpt>
      <trkpt lat="45.2701" lon="6.1693">
        <ele>2223.1999511719</ele>
        <time>2013-03-02T08:24:35.000Z</time>
      </trkpt>
      <trkpt lat="45.27012" lon="6.16926">
        <ele>2224.1999511719</ele>
        <time>2013-03-02T08:24:40.000Z</time>
      </trkpt>
      <trkpt lat="45.27014" lon="6.16923">
        <ele>2224.8000488281</ele>
        <time>2013-03-02T08:24:46.000Z</time>
      </trkpt>
      <trkpt lat="45.27014" lon="6.16919">
        <ele>2225.1999511719</ele>
        <time>2013-03-02T08:24:51.000Z</time>
      </trkpt>
      <trkpt lat="45.27017" lon="6.16915">
        <ele>2226.8000488281</ele>
        <time>2013-03-02T08:24:57.000Z</time>
      </trkpt>
      <trkpt lat="45.27019" lon="6.1691">
        <ele>2227.8000488281</ele>
        <time>2013-03-02T08:25:02.000Z</time>
      </trkpt>
      <trkpt lat="45.27022" lon="6.16907">
        <ele>2229</ele>
        <time>2013-03-02T08:25:09.000Z</time>
      </trkpt>
      <trkpt lat="45.27025" lon="6.16904">
        <ele>2230.6000976562</ele>
        <time>2013-03-02T08:25:16.000Z</time>
      </trkpt>
      <trkpt lat="45.2702" lon="6.16901">
        <ele>2231.1999511719</ele>
        <time>2013-03-02T08:25:21.000Z</time>
      </trkpt>
      <trkpt lat="45.27016" lon="6.16899">
        <ele>2231.8000488281</ele>
        <time>2013-03-02T08:25:26.000Z</time>
      </trkpt>
      <trkpt lat="45.27009" lon="6.16898">
        <ele>2233</ele>
        <time>2013-03-02T08:25:34.000Z</time>
      </trkpt>
      <trkpt lat="45.27005" lon="6.16898">
        <ele>2234.3999023438</ele>
        <time>2013-03-02T08:25:40.000Z</time>
      </trkpt>
      <trkpt lat="45.27001" lon="6.16899">
        <ele>2235.8000488281</ele>
        <time>2013-03-02T08:25:46.000Z</time>
      </trkpt>
      <trkpt lat="45.26998" lon="6.16899">
        <ele>2236.6000976562</ele>
        <time>2013-03-02T08:25:51.000Z</time>
      </trkpt>
      <trkpt lat="45.26996" lon="6.16898">
        <ele>2237</ele>
        <time>2013-03-02T08:25:53.000Z</time>
      </trkpt>
      <trkpt lat="45.26992" lon="6.16894">
        <ele>2238.3999023438</ele>
        <time>2013-03-02T08:26:00.000Z</time>
      </trkpt>
      <trkpt lat="45.26989" lon="6.16891">
        <ele>2239.6000976562</ele>
        <time>2013-03-02T08:26:05.000Z</time>
      </trkpt>
      <trkpt lat="45.26988" lon="6.1689">
        <ele>2240.8000488281</ele>
        <time>2013-03-02T08:26:10.000Z</time>
      </trkpt>
      <trkpt lat="45.26985" lon="6.16887">
        <ele>2241.3999023438</ele>
        <time>2013-03-02T08:26:14.000Z</time>
      </trkpt>
      <trkpt lat="45.26985" lon="6.16886">
        <ele>2241.3999023438</ele>
        <time>2013-03-02T08:26:15.000Z</time>
      </trkpt>
      <trkpt lat="45.26981" lon="6.16886">
        <ele>2241.8000488281</ele>
        <time>2013-03-02T08:26:20.000Z</time>
      </trkpt>
      <trkpt lat="45.26976" lon="6.16884">
        <ele>2242.1999511719</ele>
        <time>2013-03-02T08:26:26.000Z</time>
      </trkpt>
      <trkpt lat="45.26971" lon="6.16882">
        <ele>2242.6000976562</ele>
        <time>2013-03-02T08:26:33.000Z</time>
      </trkpt>
      <trkpt lat="45.26965" lon="6.1688">
        <ele>2243</ele>
        <time>2013-03-02T08:26:39.000Z</time>
      </trkpt>
      <trkpt lat="45.26959" lon="6.1688">
        <ele>2243.1999511719</ele>
        <time>2013-03-02T08:26:45.000Z</time>
      </trkpt>
      <trkpt lat="45.26952" lon="6.16881">
        <ele>2243.8000488281</ele>
        <time>2013-03-02T08:26:52.000Z</time>
      </trkpt>
      <trkpt lat="45.26951" lon="6.16882">
        <ele>2244</ele>
        <time>2013-03-02T08:26:54.000Z</time>
      </trkpt>
      <trkpt lat="45.26947" lon="6.16891">
        <ele>2244.8000488281</ele>
        <time>2013-03-02T08:27:01.000Z</time>
      </trkpt>
      <trkpt lat="45.26945" lon="6.16896">
        <ele>2245.3999023438</ele>
        <time>2013-03-02T08:27:05.000Z</time>
      </trkpt>
      <trkpt lat="45.26944" lon="6.16906">
        <ele>2246.8000488281</ele>
        <time>2013-03-02T08:27:13.000Z</time>
      </trkpt>
      <trkpt lat="45.26943" lon="6.16911">
        <ele>2247.6000976562</ele>
        <time>2013-03-02T08:27:18.000Z</time>
      </trkpt>
      <trkpt lat="45.26941" lon="6.1692">
        <ele>2249</ele>
        <time>2013-03-02T08:27:25.000Z</time>
      </trkpt>
      <trkpt lat="45.26938" lon="6.16929">
        <ele>2249.6000976562</ele>
        <time>2013-03-02T08:27:32.000Z</time>
      </trkpt>
      <trkpt lat="45.26935" lon="6.16933">
        <ele>2249.8000488281</ele>
        <time>2013-03-02T08:27:37.000Z</time>
      </trkpt>
      <trkpt lat="45.26932" lon="6.16935">
        <ele>2250.8000488281</ele>
        <time>2013-03-02T08:27:43.000Z</time>
      </trkpt>
      <trkpt lat="45.26929" lon="6.16937">
        <ele>2252</ele>
        <time>2013-03-02T08:27:48.000Z</time>
      </trkpt>
      <trkpt lat="45.26925" lon="6.16938">
        <ele>2253.1999511719</ele>
        <time>2013-03-02T08:27:54.000Z</time>
      </trkpt>
      <trkpt lat="45.26919" lon="6.16937">
        <ele>2253.8000488281</ele>
        <time>2013-03-02T08:28:01.000Z</time>
      </trkpt>
      <trkpt lat="45.26915" lon="6.16938">
        <ele>2254</ele>
        <time>2013-03-02T08:28:06.000Z</time>
      </trkpt>
      <trkpt lat="45.26908" lon="6.16937">
        <ele>2254.6000976562</ele>
        <time>2013-03-02T08:28:13.000Z</time>
      </trkpt>
      <trkpt lat="45.26903" lon="6.16937">
        <ele>2255.3999023438</ele>
        <time>2013-03-02T08:28:19.000Z</time>
      </trkpt>
      <trkpt lat="45.26899" lon="6.16936">
        <ele>2256.6000976562</ele>
        <time>2013-03-02T08:28:25.000Z</time>
      </trkpt>
      <trkpt lat="45.26896" lon="6.16934">
        <ele>2257.6000976562</ele>
        <time>2013-03-02T08:28:30.000Z</time>
      </trkpt>
      <trkpt lat="45.26891" lon="6.16935">
        <ele>2259.1999511719</ele>
        <time>2013-03-02T08:28:37.000Z</time>
      </trkpt>
      <trkpt lat="45.26885" lon="6.16936">
        <ele>2260.8000488281</ele>
        <time>2013-03-02T08:28:45.000Z</time>
      </trkpt>
      <trkpt lat="45.26882" lon="6.16937">
        <ele>2262.1999511719</ele>
        <time>2013-03-02T08:28:51.000Z</time>
      </trkpt>
      <trkpt lat="45.26877" lon="6.16938">
        <ele>2263.6000976562</ele>
        <time>2013-03-02T08:28:58.000Z</time>
      </trkpt>
      <trkpt lat="45.26877" lon="6.16938">
        <ele>2263.8000488281</ele>
        <time>2013-03-02T08:28:59.000Z</time>
      </trkpt>
      <trkpt lat="45.26872" lon="6.16943">
        <ele>2265.8000488281</ele>
        <time>2013-03-02T08:29:08.000Z</time>
      </trkpt>
      <trkpt lat="45.26868" lon="6.16945">
        <ele>2267</ele>
        <time>2013-03-02T08:29:14.000Z</time>
      </trkpt>
      <trkpt lat="45.26867" lon="6.16946">
        <ele>2268.3999023438</ele>
        <time>2013-03-02T08:29:19.000Z</time>
      </trkpt>
      <trkpt lat="45.26867" lon="6.1694">
        <ele>2269.3999023438</ele>
        <time>2013-03-02T08:29:27.000Z</time>
      </trkpt>
      <trkpt lat="45.26866" lon="6.16933">
        <ele>2270.1999511719</ele>
        <time>2013-03-02T08:29:32.000Z</time>
      </trkpt>
      <trkpt lat="45.26868" lon="6.16929">
        <ele>2271.6000976562</ele>
        <time>2013-03-02T08:29:39.000Z</time>
      </trkpt>
      <trkpt lat="45.26869" lon="6.16926">
        <ele>2272.6000976562</ele>
        <time>2013-03-02T08:29:44.000Z</time>
      </trkpt>
      <trkpt lat="45.26869" lon="6.16921">
        <ele>2273.8000488281</ele>
        <time>2013-03-02T08:29:51.000Z</time>
      </trkpt>
      <trkpt lat="45.2687" lon="6.16918">
        <ele>2274.6000976562</ele>
        <time>2013-03-02T08:29:55.000Z</time>
      </trkpt>
      <trkpt lat="45.2687" lon="6.16912">
        <ele>2276.1999511719</ele>
        <time>2013-03-02T08:30:02.000Z</time>
      </trkpt>
      <trkpt lat="45.2687" lon="6.16908">
        <ele>2277</ele>
        <time>2013-03-02T08:30:06.000Z</time>
      </trkpt>
      <trkpt lat="45.2687" lon="6.16903">
        <ele>2278.1999511719</ele>
        <time>2013-03-02T08:30:13.000Z</time>
      </trkpt>
      <trkpt lat="45.2687" lon="6.16899">
        <ele>2279.1999511719</ele>
        <time>2013-03-02T08:30:18.000Z</time>
      </trkpt>
      <trkpt lat="45.26869" lon="6.16898">
        <ele>2279.3999023438</ele>
        <time>2013-03-02T08:30:19.000Z</time>
      </trkpt>
      <trkpt lat="45.26867" lon="6.16898">
        <ele>2279.6000976562</ele>
        <time>2013-03-02T08:30:21.000Z</time>
      </trkpt>
      <trkpt lat="45.26862" lon="6.16902">
        <ele>2280.3999023438</ele>
        <time>2013-03-02T08:30:28.000Z</time>
      </trkpt>
      <trkpt lat="45.26859" lon="6.16905">
        <ele>2281.6000976562</ele>
        <time>2013-03-02T08:30:33.000Z</time>
      </trkpt>
      <trkpt lat="45.26856" lon="6.1691">
        <ele>2282.8000488281</ele>
        <time>2013-03-02T08:30:39.000Z</time>
      </trkpt>
      <trkpt lat="45.26853" lon="6.16917">
        <ele>2284.3999023438</ele>
        <time>2013-03-02T08:30:46.000Z</time>
      </trkpt>
      <trkpt lat="45.26851" lon="6.16921">
        <ele>2285.3999023438</ele>
        <time>2013-03-02T08:30:51.000Z</time>
      </trkpt>
      <trkpt lat="45.26847" lon="6.16925">
        <ele>2286.8000488281</ele>
        <time>2013-03-02T08:30:58.000Z</time>
      </trkpt>
      <trkpt lat="45.26844" lon="6.16929">
        <ele>2288.1999511719</ele>
        <time>2013-03-02T08:31:05.000Z</time>
      </trkpt>
      <trkpt lat="45.2684" lon="6.16931">
        <ele>2289.8000488281</ele>
        <time>2013-03-02T08:31:11.000Z</time>
      </trkpt>
      <trkpt lat="45.26837" lon="6.16933">
        <ele>2291</ele>
        <time>2013-03-02T08:31:17.000Z</time>
      </trkpt>
      <trkpt lat="45.26833" lon="6.16935">
        <ele>2292.1999511719</ele>
        <time>2013-03-02T08:31:23.000Z</time>
      </trkpt>
      <trkpt lat="45.26832" lon="6.16934">
        <ele>2293.1999511719</ele>
        <time>2013-03-02T08:31:31.000Z</time>
      </trkpt>
      <trkpt lat="45.26833" lon="6.16931">
        <ele>2293.8000488281</ele>
        <time>2013-03-02T08:31:35.000Z</time>
      </trkpt>
      <trkpt lat="45.26833" lon="6.16929">
        <ele>2294.1999511719</ele>
        <time>2013-03-02T08:31:37.000Z</time>
      </trkpt>
      <trkpt lat="45.26834" lon="6.16923">
        <ele>2295.6000976562</ele>
        <time>2013-03-02T08:31:44.000Z</time>
      </trkpt>
      <trkpt lat="45.26836" lon="6.16918">
        <ele>2296.8000488281</ele>
        <time>2013-03-02T08:31:50.000Z</time>
      </trkpt>
      <trkpt lat="45.26837" lon="6.16913">
        <ele>2297.8000488281</ele>
        <time>2013-03-02T08:31:56.000Z</time>
      </trkpt>
      <trkpt lat="45.26837" lon="6.1691">
        <ele>2298.6000976562</ele>
        <time>2013-03-02T08:32:00.000Z</time>
      </trkpt>
      <trkpt lat="45.26837" lon="6.16906">
        <ele>2299.8000488281</ele>
        <time>2013-03-02T08:32:05.000Z</time>
      </trkpt>
      <trkpt lat="45.26837" lon="6.16903">
        <ele>2301</ele>
        <time>2013-03-02T08:32:10.000Z</time>
      </trkpt>
      <trkpt lat="45.26837" lon="6.16899">
        <ele>2302</ele>
        <time>2013-03-02T08:32:14.000Z</time>
      </trkpt>
      <trkpt lat="45.26836" lon="6.16891">
        <ele>2303.1999511719</ele>
        <time>2013-03-02T08:32:21.000Z</time>
      </trkpt>
      <trkpt lat="45.26837" lon="6.16888">
        <ele>2304</ele>
        <time>2013-03-02T08:32:26.000Z</time>
      </trkpt>
      <trkpt lat="45.26838" lon="6.16883">
        <ele>2305.1999511719</ele>
        <time>2013-03-02T08:32:32.000Z</time>
      </trkpt>
      <trkpt lat="45.26839" lon="6.1688">
        <ele>2305.8000488281</ele>
        <time>2013-03-02T08:32:36.000Z</time>
      </trkpt>
      <trkpt lat="45.26837" lon="6.16879">
        <ele>2306.3999023438</ele>
        <time>2013-03-02T08:32:43.000Z</time>
      </trkpt>
      <trkpt lat="45.26831" lon="6.16882">
        <ele>2307.6000976562</ele>
        <time>2013-03-02T08:32:51.000Z</time>
      </trkpt>
      <trkpt lat="45.26828" lon="6.16883">
        <ele>2308.6000976562</ele>
        <time>2013-03-02T08:32:56.000Z</time>
      </trkpt>
      <trkpt lat="45.26825" lon="6.16884">
        <ele>2309.3999023438</ele>
        <time>2013-03-02T08:33:00.000Z</time>
      </trkpt>
      <trkpt lat="45.26822" lon="6.16886">
        <ele>2310.8000488281</ele>
        <time>2013-03-02T08:33:06.000Z</time>
      </trkpt>
      <trkpt lat="45.26817" lon="6.16888">
        <ele>2311.8000488281</ele>
        <time>2013-03-02T08:33:13.000Z</time>
      </trkpt>
      <trkpt lat="45.26813" lon="6.1689">
        <ele>2312.8000488281</ele>
        <time>2013-03-02T08:33:18.000Z</time>
      </trkpt>
      <trkpt lat="45.26809" lon="6.16893">
        <ele>2314.8000488281</ele>
        <time>2013-03-02T08:33:26.000Z</time>
      </trkpt>
      <trkpt lat="45.26805" lon="6.16895">
        <ele>2316</ele>
        <time>2013-03-02T08:33:32.000Z</time>
      </trkpt>
      <trkpt lat="45.268" lon="6.16897">
        <ele>2317.1999511719</ele>
        <time>2013-03-02T08:33:39.000Z</time>
      </trkpt>
      <trkpt lat="45.26797" lon="6.16899">
        <ele>2318.6000976562</ele>
        <time>2013-03-02T08:33:44.000Z</time>
      </trkpt>
      <trkpt lat="45.26794" lon="6.169">
        <ele>2319.6000976562</ele>
        <time>2013-03-02T08:33:49.000Z</time>
      </trkpt>
      <trkpt lat="45.26792" lon="6.16899">
        <ele>2320.8000488281</ele>
        <time>2013-03-02T08:33:56.000Z</time>
      </trkpt>
      <trkpt lat="45.26793" lon="6.16894">
        <ele>2321.3999023438</ele>
        <time>2013-03-02T08:34:01.000Z</time>
      </trkpt>
      <trkpt lat="45.26796" lon="6.16888">
        <ele>2323</ele>
        <time>2013-03-02T08:34:09.000Z</time>
      </trkpt>
      <trkpt lat="45.26797" lon="6.16883">
        <ele>2324.1999511719</ele>
        <time>2013-03-02T08:34:15.000Z</time>
      </trkpt>
      <trkpt lat="45.26798" lon="6.16877">
        <ele>2325.8000488281</ele>
        <time>2013-03-02T08:34:22.000Z</time>
      </trkpt>
      <trkpt lat="45.26799" lon="6.16874">
        <ele>2326.8000488281</ele>
        <time>2013-03-02T08:34:27.000Z</time>
      </trkpt>
      <trkpt lat="45.26799" lon="6.16873">
        <ele>2327.1999511719</ele>
        <time>2013-03-02T08:34:38.000Z</time>
      </trkpt>
      <trkpt lat="45.26798" lon="6.16867">
        <ele>2327.6000976562</ele>
        <time>2013-03-02T08:35:02.000Z</time>
      </trkpt>
      <trkpt lat="45.26799" lon="6.16862">
        <ele>2329</ele>
        <time>2013-03-02T08:35:09.000Z</time>
      </trkpt>
      <trkpt lat="45.26797" lon="6.16861">
        <ele>2329.8000488281</ele>
        <time>2013-03-02T08:35:14.000Z</time>
      </trkpt>
      <trkpt lat="45.26795" lon="6.16862">
        <ele>2330.3999023438</ele>
        <time>2013-03-02T08:35:18.000Z</time>
      </trkpt>
      <trkpt lat="45.2679" lon="6.16865">
        <ele>2331.6000976562</ele>
        <time>2013-03-02T08:35:25.000Z</time>
      </trkpt>
      <trkpt lat="45.26785" lon="6.16868">
        <ele>2333</ele>
        <time>2013-03-02T08:35:32.000Z</time>
      </trkpt>
      <trkpt lat="45.2678" lon="6.16871">
        <ele>2334</ele>
        <time>2013-03-02T08:35:39.000Z</time>
      </trkpt>
      <trkpt lat="45.26776" lon="6.16875">
        <ele>2335.6000976562</ele>
        <time>2013-03-02T08:35:47.000Z</time>
      </trkpt>
      <trkpt lat="45.26773" lon="6.16879">
        <ele>2337.1999511719</ele>
        <time>2013-03-02T08:35:53.000Z</time>
      </trkpt>
      <trkpt lat="45.2677" lon="6.16884">
        <ele>2338.1999511719</ele>
        <time>2013-03-02T08:35:59.000Z</time>
      </trkpt>
      <trkpt lat="45.26769" lon="6.16885">
        <ele>2339.3999023438</ele>
        <time>2013-03-02T08:36:07.000Z</time>
      </trkpt>
      <trkpt lat="45.2677" lon="6.1688">
        <ele>2340.1999511719</ele>
        <time>2013-03-02T08:36:12.000Z</time>
      </trkpt>
      <trkpt lat="45.2677" lon="6.16873">
        <ele>2341.6000976562</ele>
        <time>2013-03-02T08:36:19.000Z</time>
      </trkpt>
      <trkpt lat="45.2677" lon="6.16867">
        <ele>2343</ele>
        <time>2013-03-02T08:36:26.000Z</time>
      </trkpt>
      <trkpt lat="45.2677" lon="6.16861">
        <ele>2344.3999023438</ele>
        <time>2013-03-02T08:36:33.000Z</time>
      </trkpt>
      <trkpt lat="45.26771" lon="6.16855">
        <ele>2345.3999023438</ele>
        <time>2013-03-02T08:36:39.000Z</time>
      </trkpt>
      <trkpt lat="45.26771" lon="6.1685">
        <ele>2346.8000488281</ele>
        <time>2013-03-02T08:36:46.000Z</time>
      </trkpt>
      <trkpt lat="45.26772" lon="6.16845">
        <ele>2348.3999023438</ele>
        <time>2013-03-02T08:36:53.000Z</time>
      </trkpt>
      <trkpt lat="45.26772" lon="6.16844">
        <ele>2348.8000488281</ele>
        <time>2013-03-02T08:36:55.000Z</time>
      </trkpt>
      <trkpt lat="45.26772" lon="6.16836">
        <ele>2350</ele>
        <time>2013-03-02T08:37:02.000Z</time>
      </trkpt>
      <trkpt lat="45.26772" lon="6.16831">
        <ele>2351.1999511719</ele>
        <time>2013-03-02T08:37:08.000Z</time>
      </trkpt>
      <trkpt lat="45.26773" lon="6.16827">
        <ele>2352.3999023438</ele>
        <time>2013-03-02T08:37:14.000Z</time>
      </trkpt>
      <trkpt lat="45.26773" lon="6.16822">
        <ele>2353.6000976562</ele>
        <time>2013-03-02T08:37:20.000Z</time>
      </trkpt>
      <trkpt lat="45.2677" lon="6.16819">
        <ele>2354.6000976562</ele>
        <time>2013-03-02T08:37:26.000Z</time>
      </trkpt>
      <trkpt lat="45.26765" lon="6.16819">
        <ele>2355.8000488281</ele>
        <time>2013-03-02T08:37:33.000Z</time>
      </trkpt>
      <trkpt lat="45.26761" lon="6.16819">
        <ele>2357</ele>
        <time>2013-03-02T08:37:39.000Z</time>
      </trkpt>
      <trkpt lat="45.26758" lon="6.16819">
        <ele>2357.8000488281</ele>
        <time>2013-03-02T08:37:43.000Z</time>
      </trkpt>
      <trkpt lat="45.26753" lon="6.1682">
        <ele>2359</ele>
        <time>2013-03-02T08:37:50.000Z</time>
      </trkpt>
      <trkpt lat="45.26749" lon="6.16822">
        <ele>2360.1999511719</ele>
        <time>2013-03-02T08:37:56.000Z</time>
      </trkpt>
      <trkpt lat="45.26747" lon="6.16824">
        <ele>2361</ele>
        <time>2013-03-02T08:38:00.000Z</time>
      </trkpt>
      <trkpt lat="45.26746" lon="6.16825">
        <ele>2361.1999511719</ele>
        <time>2013-03-02T08:38:02.000Z</time>
      </trkpt>
      <trkpt lat="45.26743" lon="6.1683">
        <ele>2362.6000976562</ele>
        <time>2013-03-02T08:38:09.000Z</time>
      </trkpt>
      <trkpt lat="45.26739" lon="6.16835">
        <ele>2363.6000976562</ele>
        <time>2013-03-02T08:38:16.000Z</time>
      </trkpt>
      <trkpt lat="45.26738" lon="6.16836">
        <ele>2365</ele>
        <time>2013-03-02T08:38:23.000Z</time>
      </trkpt>
      <trkpt lat="45.26738" lon="6.16835">
        <ele>2365.1999511719</ele>
        <time>2013-03-02T08:38:25.000Z</time>
      </trkpt>
      <trkpt lat="45.26738" lon="6.16831">
        <ele>2366.1999511719</ele>
        <time>2013-03-02T08:38:30.000Z</time>
      </trkpt>
      <trkpt lat="45.26737" lon="6.16827">
        <ele>2366.8000488281</ele>
        <time>2013-03-02T08:38:34.000Z</time>
      </trkpt>
      <trkpt lat="45.26736" lon="6.16823">
        <ele>2367.1999511719</ele>
        <time>2013-03-02T08:38:39.000Z</time>
      </trkpt>
      <trkpt lat="45.26733" lon="6.16818">
        <ele>2368.6000976562</ele>
        <time>2013-03-02T08:38:44.000Z</time>
      </trkpt>
      <trkpt lat="45.26732" lon="6.16812">
        <ele>2369.8000488281</ele>
        <time>2013-03-02T08:38:49.000Z</time>
      </trkpt>
      <trkpt lat="45.2673" lon="6.16808">
        <ele>2370.6000976562</ele>
        <time>2013-03-02T08:38:54.000Z</time>
      </trkpt>
      <trkpt lat="45.26729" lon="6.16802">
        <ele>2371.8000488281</ele>
        <time>2013-03-02T08:39:00.000Z</time>
      </trkpt>
      <trkpt lat="45.26727" lon="6.16796">
        <ele>2372.8000488281</ele>
        <time>2013-03-02T08:39:06.000Z</time>
      </trkpt>
      <trkpt lat="45.26725" lon="6.16792">
        <ele>2374.1999511719</ele>
        <time>2013-03-02T08:39:12.000Z</time>
      </trkpt>
      <trkpt lat="45.26722" lon="6.16785">
        <ele>2375.6000976562</ele>
        <time>2013-03-02T08:39:18.000Z</time>
      </trkpt>
      <trkpt lat="45.26721" lon="6.16783">
        <ele>2376.1999511719</ele>
        <time>2013-03-02T08:39:20.000Z</time>
      </trkpt>
      <trkpt lat="45.26719" lon="6.16781">
        <ele>2376.8000488281</ele>
        <time>2013-03-02T08:39:22.000Z</time>
      </trkpt>
      <trkpt lat="45.26714" lon="6.16782">
        <ele>2377.8000488281</ele>
        <time>2013-03-02T08:39:28.000Z</time>
      </trkpt>
      <trkpt lat="45.2671" lon="6.16786">
        <ele>2379.1999511719</ele>
        <time>2013-03-02T08:39:34.000Z</time>
      </trkpt>
      <trkpt lat="45.26709" lon="6.16788">
        <ele>2380.3999023438</ele>
        <time>2013-03-02T08:39:40.000Z</time>
      </trkpt>
      <trkpt lat="45.26708" lon="6.16792">
        <ele>2380.6000976562</ele>
        <time>2013-03-02T08:39:43.000Z</time>
      </trkpt>
      <trkpt lat="45.26706" lon="6.16802">
        <ele>2381.3999023438</ele>
        <time>2013-03-02T08:39:50.000Z</time>
      </trkpt>
      <trkpt lat="45.26705" lon="6.16809">
        <ele>2382</ele>
        <time>2013-03-02T08:39:55.000Z</time>
      </trkpt>
      <trkpt lat="45.26703" lon="6.16816">
        <ele>2382.8000488281</ele>
        <time>2013-03-02T08:40:01.000Z</time>
      </trkpt>
      <trkpt lat="45.26702" lon="6.16822">
        <ele>2383.6000976562</ele>
        <time>2013-03-02T08:40:06.000Z</time>
      </trkpt>
      <trkpt lat="45.26701" lon="6.16828">
        <ele>2384.8000488281</ele>
        <time>2013-03-02T08:40:12.000Z</time>
      </trkpt>
      <trkpt lat="45.267" lon="6.16834">
        <ele>2385.8000488281</ele>
        <time>2013-03-02T08:40:17.000Z</time>
      </trkpt>
      <trkpt lat="45.26699" lon="6.16841">
        <ele>2387</ele>
        <time>2013-03-02T08:40:24.000Z</time>
      </trkpt>
      <trkpt lat="45.26698" lon="6.16847">
        <ele>2388.1999511719</ele>
        <time>2013-03-02T08:40:30.000Z</time>
      </trkpt>
      <trkpt lat="45.26697" lon="6.1685">
        <ele>2389.1999511719</ele>
        <time>2013-03-02T08:40:35.000Z</time>
      </trkpt>
      <trkpt lat="45.26696" lon="6.16852">
        <ele>2390.3999023438</ele>
        <time>2013-03-02T08:40:42.000Z</time>
      </trkpt>
      <trkpt lat="45.26696" lon="6.1685">
        <ele>2390.6000976562</ele>
        <time>2013-03-02T08:40:44.000Z</time>
      </trkpt>
      <trkpt lat="45.26696" lon="6.16847">
        <ele>2391.1999511719</ele>
        <time>2013-03-02T08:40:52.000Z</time>
      </trkpt>
      <trkpt lat="45.26695" lon="6.16843">
        <ele>2391.3999023438</ele>
        <time>2013-03-02T08:41:02.000Z</time>
      </trkpt>
      <trkpt lat="45.26697" lon="6.16838">
        <ele>2391.3999023438</ele>
        <time>2013-03-02T08:41:42.000Z</time>
      </trkpt>
      <trkpt lat="45.26697" lon="6.16836">
        <ele>2391.8000488281</ele>
        <time>2013-03-02T08:41:44.000Z</time>
      </trkpt>
      <trkpt lat="45.26695" lon="6.16831">
        <ele>2393</ele>
        <time>2013-03-02T08:41:49.000Z</time>
      </trkpt>
      <trkpt lat="45.26694" lon="6.16831">
        <ele>2394</ele>
        <time>2013-03-02T08:41:54.000Z</time>
      </trkpt>
      <trkpt lat="45.26691" lon="6.1684">
        <ele>2395</ele>
        <time>2013-03-02T08:42:01.000Z</time>
      </trkpt>
      <trkpt lat="45.26688" lon="6.16848">
        <ele>2396.3999023438</ele>
        <time>2013-03-02T08:42:07.000Z</time>
      </trkpt>
      <trkpt lat="45.26686" lon="6.16854">
        <ele>2397.1999511719</ele>
        <time>2013-03-02T08:42:12.000Z</time>
      </trkpt>
      <trkpt lat="45.26684" lon="6.16861">
        <ele>2399</ele>
        <time>2013-03-02T08:42:20.000Z</time>
      </trkpt>
      <trkpt lat="45.26683" lon="6.16868">
        <ele>2400.1999511719</ele>
        <time>2013-03-02T08:42:27.000Z</time>
      </trkpt>
      <trkpt lat="45.26682" lon="6.16874">
        <ele>2401.6000976562</ele>
        <time>2013-03-02T08:42:34.000Z</time>
      </trkpt>
      <trkpt lat="45.26682" lon="6.1688">
        <ele>2403.1999511719</ele>
        <time>2013-03-02T08:42:41.000Z</time>
      </trkpt>
      <trkpt lat="45.26681" lon="6.16886">
        <ele>2404.6000976562</ele>
        <time>2013-03-02T08:42:47.000Z</time>
      </trkpt>
      <trkpt lat="45.26679" lon="6.1689">
        <ele>2406</ele>
        <time>2013-03-02T08:42:54.000Z</time>
      </trkpt>
      <trkpt lat="45.26676" lon="6.16889">
        <ele>2406.8000488281</ele>
        <time>2013-03-02T08:42:58.000Z</time>
      </trkpt>
      <trkpt lat="45.26675" lon="6.16888">
        <ele>2407.3999023438</ele>
        <time>2013-03-02T08:43:01.000Z</time>
      </trkpt>
      <trkpt lat="45.2667" lon="6.16883">
        <ele>2409.1999511719</ele>
        <time>2013-03-02T08:43:09.000Z</time>
      </trkpt>
      <trkpt lat="45.26667" lon="6.16879">
        <ele>2410.1999511719</ele>
        <time>2013-03-02T08:43:15.000Z</time>
      </trkpt>
      <trkpt lat="45.26664" lon="6.16877">
        <ele>2410.8000488281</ele>
        <time>2013-03-02T08:43:19.000Z</time>
      </trkpt>
      <trkpt lat="45.26661" lon="6.16873">
        <ele>2412</ele>
        <time>2013-03-02T08:43:26.000Z</time>
      </trkpt>
      <trkpt lat="45.26658" lon="6.1687">
        <ele>2413</ele>
        <time>2013-03-02T08:43:31.000Z</time>
      </trkpt>
      <trkpt lat="45.26655" lon="6.16867">
        <ele>2414</ele>
        <time>2013-03-02T08:43:36.000Z</time>
      </trkpt>
      <trkpt lat="45.26652" lon="6.16864">
        <ele>2415</ele>
        <time>2013-03-02T08:43:41.000Z</time>
      </trkpt>
      <trkpt lat="45.26649" lon="6.16861">
        <ele>2416</ele>
        <time>2013-03-02T08:43:46.000Z</time>
      </trkpt>
      <trkpt lat="45.26646" lon="6.16858">
        <ele>2417.3999023438</ele>
        <time>2013-03-02T08:43:52.000Z</time>
      </trkpt>
      <trkpt lat="45.26642" lon="6.16856">
        <ele>2418.8000488281</ele>
        <time>2013-03-02T08:43:58.000Z</time>
      </trkpt>
      <trkpt lat="45.26638" lon="6.16856">
        <ele>2420</ele>
        <time>2013-03-02T08:44:04.000Z</time>
      </trkpt>
      <trkpt lat="45.26635" lon="6.16857">
        <ele>2420.8000488281</ele>
        <time>2013-03-02T08:44:09.000Z</time>
      </trkpt>
      <trkpt lat="45.26631" lon="6.16857">
        <ele>2422.1999511719</ele>
        <time>2013-03-02T08:44:15.000Z</time>
      </trkpt>
      <trkpt lat="45.26625" lon="6.16855">
        <ele>2423.1999511719</ele>
        <time>2013-03-02T08:44:21.000Z</time>
      </trkpt>
      <trkpt lat="45.26622" lon="6.16854">
        <ele>2424.1999511719</ele>
        <time>2013-03-02T08:44:26.000Z</time>
      </trkpt>
      <trkpt lat="45.26621" lon="6.16852">
        <ele>2424.8000488281</ele>
        <time>2013-03-02T08:44:31.000Z</time>
      </trkpt>
      <trkpt lat="45.26624" lon="6.16847">
        <ele>2426.3999023438</ele>
        <time>2013-03-02T08:44:38.000Z</time>
      </trkpt>
      <trkpt lat="45.26625" lon="6.16844">
        <ele>2427.3999023438</ele>
        <time>2013-03-02T08:44:44.000Z</time>
      </trkpt>
      <trkpt lat="45.26623" lon="6.16844">
        <ele>2427.8000488281</ele>
        <time>2013-03-02T08:44:46.000Z</time>
      </trkpt>
      <trkpt lat="45.26617" lon="6.16844">
        <ele>2429</ele>
        <time>2013-03-02T08:44:52.000Z</time>
      </trkpt>
      <trkpt lat="45.26612" lon="6.16842">
        <ele>2429.8000488281</ele>
        <time>2013-03-02T08:44:58.000Z</time>
      </trkpt>
      <trkpt lat="45.26614" lon="6.16841">
        <ele>2430.6000976562</ele>
        <time>2013-03-02T08:45:03.000Z</time>
      </trkpt>
      <trkpt lat="45.26616" lon="6.1684">
        <ele>2431</ele>
        <time>2013-03-02T08:45:05.000Z</time>
      </trkpt>
      <trkpt lat="45.26621" lon="6.16834">
        <ele>2432.6000976562</ele>
        <time>2013-03-02T08:45:13.000Z</time>
      </trkpt>
      <trkpt lat="45.2662" lon="6.16832">
        <ele>2433.3999023438</ele>
        <time>2013-03-02T08:45:19.000Z</time>
      </trkpt>
      <trkpt lat="45.26617" lon="6.16833">
        <ele>2433.3999023438</ele>
        <time>2013-03-02T08:45:22.000Z</time>
      </trkpt>
      <trkpt lat="45.26609" lon="6.16833">
        <ele>2435</ele>
        <time>2013-03-02T08:45:30.000Z</time>
      </trkpt>
      <trkpt lat="45.26605" lon="6.16834">
        <ele>2435.6000976562</ele>
        <time>2013-03-02T08:45:35.000Z</time>
      </trkpt>
      <trkpt lat="45.26603" lon="6.16831">
        <ele>2436.8000488281</ele>
        <time>2013-03-02T08:45:42.000Z</time>
      </trkpt>
      <trkpt lat="45.26605" lon="6.16829">
        <ele>2437.1999511719</ele>
        <time>2013-03-02T08:45:45.000Z</time>
      </trkpt>
      <trkpt lat="45.26608" lon="6.16827">
        <ele>2437.3999023438</ele>
        <time>2013-03-02T08:45:48.000Z</time>
      </trkpt>
      <trkpt lat="45.26612" lon="6.16822">
        <ele>2439</ele>
        <time>2013-03-02T08:45:56.000Z</time>
      </trkpt>
      <trkpt lat="45.26614" lon="6.16819">
        <ele>2439.8000488281</ele>
        <time>2013-03-02T08:46:00.000Z</time>
      </trkpt>
      <trkpt lat="45.26614" lon="6.16816">
        <ele>2440.6000976562</ele>
        <time>2013-03-02T08:46:05.000Z</time>
      </trkpt>
      <trkpt lat="45.26611" lon="6.16816">
        <ele>2441.3999023438</ele>
        <time>2013-03-02T08:46:09.000Z</time>
      </trkpt>
      <trkpt lat="45.26606" lon="6.16817">
        <ele>2442.1999511719</ele>
        <time>2013-03-02T08:46:16.000Z</time>
      </trkpt>
      <trkpt lat="45.26603" lon="6.16818">
        <ele>2443.1999511719</ele>
        <time>2013-03-02T08:46:21.000Z</time>
      </trkpt>
      <trkpt lat="45.26598" lon="6.1682">
        <ele>2444.6000976562</ele>
        <time>2013-03-02T08:46:28.000Z</time>
      </trkpt>
      <trkpt lat="45.26598" lon="6.16817">
        <ele>2445.1999511719</ele>
        <time>2013-03-02T08:46:32.000Z</time>
      </trkpt>
      <trkpt lat="45.26601" lon="6.16811">
        <ele>2446</ele>
        <time>2013-03-02T08:46:40.000Z</time>
      </trkpt>
      <trkpt lat="45.26604" lon="6.16807">
        <ele>2446.8000488281</ele>
        <time>2013-03-02T08:46:46.000Z</time>
      </trkpt>
      <trkpt lat="45.26605" lon="6.16803">
        <ele>2447.8000488281</ele>
        <time>2013-03-02T08:46:51.000Z</time>
      </trkpt>
      <trkpt lat="45.26606" lon="6.16799">
        <ele>2448.8000488281</ele>
        <time>2013-03-02T08:46:56.000Z</time>
      </trkpt>
      <trkpt lat="45.26606" lon="6.16798">
        <ele>2449.3999023438</ele>
        <time>2013-03-02T08:47:01.000Z</time>
      </trkpt>
      <trkpt lat="45.26602" lon="6.16798">
        <ele>2450.1999511719</ele>
        <time>2013-03-02T08:47:07.000Z</time>
      </trkpt>
      <trkpt lat="45.26599" lon="6.16798">
        <ele>2451</ele>
        <time>2013-03-02T08:47:12.000Z</time>
      </trkpt>
      <trkpt lat="45.26595" lon="6.16798">
        <ele>2452.1999511719</ele>
        <time>2013-03-02T08:47:18.000Z</time>
      </trkpt>
      <trkpt lat="45.26592" lon="6.16799">
        <ele>2452.8000488281</ele>
        <time>2013-03-02T08:47:23.000Z</time>
      </trkpt>
      <trkpt lat="45.26591" lon="6.16797">
        <ele>2453.3999023438</ele>
        <time>2013-03-02T08:47:29.000Z</time>
      </trkpt>
      <trkpt lat="45.26592" lon="6.16795">
        <ele>2453.8000488281</ele>
        <time>2013-03-02T08:47:33.000Z</time>
      </trkpt>
      <trkpt lat="45.26593" lon="6.1679">
        <ele>2454.8000488281</ele>
        <time>2013-03-02T08:47:40.000Z</time>
      </trkpt>
      <trkpt lat="45.26596" lon="6.16786">
        <ele>2455.3999023438</ele>
        <time>2013-03-02T08:47:45.000Z</time>
      </trkpt>
      <trkpt lat="45.266" lon="6.16782">
        <ele>2456.1999511719</ele>
        <time>2013-03-02T08:47:52.000Z</time>
      </trkpt>
      <trkpt lat="45.26604" lon="6.16779">
        <ele>2457.3999023438</ele>
        <time>2013-03-02T08:47:59.000Z</time>
      </trkpt>
      <trkpt lat="45.26604" lon="6.1678">
        <ele>2457.8000488281</ele>
        <time>2013-03-02T08:48:03.000Z</time>
      </trkpt>
      <trkpt lat="45.26598" lon="6.1678">
        <ele>2458.6000976562</ele>
        <time>2013-03-02T08:48:10.000Z</time>
      </trkpt>
      <trkpt lat="45.26596" lon="6.1678">
        <ele>2459.6000976562</ele>
        <time>2013-03-02T08:48:17.000Z</time>
      </trkpt>
      <trkpt lat="45.26598" lon="6.16779">
        <ele>2459.8000488281</ele>
        <time>2013-03-02T08:48:22.000Z</time>
      </trkpt>
      <trkpt lat="45.26603" lon="6.16774">
        <ele>2460.8000488281</ele>
        <time>2013-03-02T08:48:30.000Z</time>
      </trkpt>
      <trkpt lat="45.26604" lon="6.16773">
        <ele>2461.1999511719</ele>
        <time>2013-03-02T08:48:32.000Z</time>
      </trkpt>
      <trkpt lat="45.26604" lon="6.1677">
        <ele>2462</ele>
        <time>2013-03-02T08:48:37.000Z</time>
      </trkpt>
      <trkpt lat="45.266" lon="6.1677">
        <ele>2462.6000976562</ele>
        <time>2013-03-02T08:48:44.000Z</time>
      </trkpt>
      <trkpt lat="45.26595" lon="6.16769">
        <ele>2463.3999023438</ele>
        <time>2013-03-02T08:48:49.000Z</time>
      </trkpt>
      <trkpt lat="45.26593" lon="6.16769">
        <ele>2463.8000488281</ele>
        <time>2013-03-02T08:48:51.000Z</time>
      </trkpt>
      <trkpt lat="45.2659" lon="6.16769">
        <ele>2464.8000488281</ele>
        <time>2013-03-02T08:48:56.000Z</time>
      </trkpt>
      <trkpt lat="45.2659" lon="6.16766">
        <ele>2465.8000488281</ele>
        <time>2013-03-02T08:49:04.000Z</time>
      </trkpt>
      <trkpt lat="45.26593" lon="6.16763">
        <ele>2466.3999023438</ele>
        <time>2013-03-02T08:49:09.000Z</time>
      </trkpt>
      <trkpt lat="45.26596" lon="6.1676">
        <ele>2467</ele>
        <time>2013-03-02T08:49:15.000Z</time>
      </trkpt>
      <trkpt lat="45.26598" lon="6.16756">
        <ele>2468.1999511719</ele>
        <time>2013-03-02T08:49:20.000Z</time>
      </trkpt>
      <trkpt lat="45.26594" lon="6.16756">
        <ele>2469</ele>
        <time>2013-03-02T08:49:27.000Z</time>
      </trkpt>
      <trkpt lat="45.26591" lon="6.16755">
        <ele>2469.6000976562</ele>
        <time>2013-03-02T08:49:31.000Z</time>
      </trkpt>
      <trkpt lat="45.26588" lon="6.16756">
        <ele>2470.3999023438</ele>
        <time>2013-03-02T08:49:36.000Z</time>
      </trkpt>
      <trkpt lat="45.2659" lon="6.16751">
        <ele>2471.8000488281</ele>
        <time>2013-03-02T08:49:47.000Z</time>
      </trkpt>
      <trkpt lat="45.26593" lon="6.16747">
        <ele>2473</ele>
        <time>2013-03-02T08:49:53.000Z</time>
      </trkpt>
      <trkpt lat="45.26593" lon="6.16745">
        <ele>2473.6000976562</ele>
        <time>2013-03-02T08:49:57.000Z</time>
      </trkpt>
      <trkpt lat="45.26597" lon="6.16742">
        <ele>2474.6000976562</ele>
        <time>2013-03-02T08:50:03.000Z</time>
      </trkpt>
      <trkpt lat="45.26595" lon="6.16743">
        <ele>2475.3999023438</ele>
        <time>2013-03-02T08:50:11.000Z</time>
      </trkpt>
      <trkpt lat="45.26591" lon="6.16744">
        <ele>2475.8000488281</ele>
        <time>2013-03-02T08:50:17.000Z</time>
      </trkpt>
      <trkpt lat="45.26587" lon="6.16743">
        <ele>2476.6000976562</ele>
        <time>2013-03-02T08:50:22.000Z</time>
      </trkpt>
      <trkpt lat="45.26584" lon="6.16742">
        <ele>2477.3999023438</ele>
        <time>2013-03-02T08:50:26.000Z</time>
      </trkpt>
      <trkpt lat="45.2658" lon="6.1674">
        <ele>2478.1999511719</ele>
        <time>2013-03-02T08:50:31.000Z</time>
      </trkpt>
      <trkpt lat="45.26581" lon="6.16738">
        <ele>2478.8000488281</ele>
        <time>2013-03-02T08:50:37.000Z</time>
      </trkpt>
      <trkpt lat="45.26584" lon="6.16734">
        <ele>2479.6000976562</ele>
        <time>2013-03-02T08:50:43.000Z</time>
      </trkpt>
      <trkpt lat="45.26586" lon="6.16732">
        <ele>2480.3999023438</ele>
        <time>2013-03-02T08:50:47.000Z</time>
      </trkpt>
      <trkpt lat="45.26587" lon="6.16728">
        <ele>2481.3999023438</ele>
        <time>2013-03-02T08:50:53.000Z</time>
      </trkpt>
      <trkpt lat="45.26587" lon="6.16725">
        <ele>2482.8000488281</ele>
        <time>2013-03-02T08:50:59.000Z</time>
      </trkpt>
      <trkpt lat="45.26588" lon="6.16723">
        <ele>2483.3999023438</ele>
        <time>2013-03-02T08:51:03.000Z</time>
      </trkpt>
      <trkpt lat="45.26588" lon="6.16719">
        <ele>2484.8000488281</ele>
        <time>2013-03-02T08:51:09.000Z</time>
      </trkpt>
      <trkpt lat="45.2659" lon="6.16718">
        <ele>2486</ele>
        <time>2013-03-02T08:51:17.000Z</time>
      </trkpt>
      <trkpt lat="45.26589" lon="6.16715">
        <ele>2486.6000976562</ele>
        <time>2013-03-02T08:51:24.000Z</time>
      </trkpt>
      <trkpt lat="45.26586" lon="6.16713">
        <ele>2487.3999023438</ele>
        <time>2013-03-02T08:51:29.000Z</time>
      </trkpt>
      <trkpt lat="45.26583" lon="6.16711">
        <ele>2488.3999023438</ele>
        <time>2013-03-02T08:51:35.000Z</time>
      </trkpt>
      <trkpt lat="45.2658" lon="6.1671">
        <ele>2489.1999511719</ele>
        <time>2013-03-02T08:51:40.000Z</time>
      </trkpt>
      <trkpt lat="45.26577" lon="6.16708">
        <ele>2490.1999511719</ele>
        <time>2013-03-02T08:51:48.000Z</time>
      </trkpt>
      <trkpt lat="45.26584" lon="6.16701">
        <ele>2493.3999023438</ele>
        <time>2013-03-02T08:52:12.000Z</time>
      </trkpt>
      <trkpt lat="45.26585" lon="6.16698">
        <ele>2493.6000976562</ele>
        <time>2013-03-02T08:52:14.000Z</time>
      </trkpt>
      <trkpt lat="45.26587" lon="6.16695">
        <ele>2495</ele>
        <time>2013-03-02T08:52:21.000Z</time>
      </trkpt>
      <trkpt lat="45.26586" lon="6.16691">
        <ele>2495.6000976562</ele>
        <time>2013-03-02T08:52:26.000Z</time>
      </trkpt>
      <trkpt lat="45.26582" lon="6.1669">
        <ele>2496.3999023438</ele>
        <time>2013-03-02T08:52:33.000Z</time>
      </trkpt>
      <trkpt lat="45.26578" lon="6.16688">
        <ele>2497.1999511719</ele>
        <time>2013-03-02T08:52:38.000Z</time>
      </trkpt>
      <trkpt lat="45.26576" lon="6.16687">
        <ele>2498.1999511719</ele>
        <time>2013-03-02T08:52:44.000Z</time>
      </trkpt>
      <trkpt lat="45.26582" lon="6.16681">
        <ele>2500</ele>
        <time>2013-03-02T08:52:58.000Z</time>
      </trkpt>
      <trkpt lat="45.26581" lon="6.1668">
        <ele>2501</ele>
        <time>2013-03-02T08:53:07.000Z</time>
      </trkpt>
      <trkpt lat="45.26576" lon="6.1668">
        <ele>2501.6000976562</ele>
        <time>2013-03-02T08:53:12.000Z</time>
      </trkpt>
      <trkpt lat="45.26573" lon="6.16681">
        <ele>2502.1999511719</ele>
        <time>2013-03-02T08:53:16.000Z</time>
      </trkpt>
      <trkpt lat="45.26572" lon="6.1668">
        <ele>2503</ele>
        <time>2013-03-02T08:53:21.000Z</time>
      </trkpt>
      <trkpt lat="45.26569" lon="6.16669">
        <ele>2510.1999511719</ele>
        <time>2013-03-02T08:54:16.000Z</time>
      </trkpt>
      <trkpt lat="45.26566" lon="6.16669">
        <ele>2510.8000488281</ele>
        <time>2013-03-02T08:54:21.000Z</time>
      </trkpt>
      <trkpt lat="45.26564" lon="6.16668">
        <ele>2511.1999511719</ele>
        <time>2013-03-02T08:54:25.000Z</time>
      </trkpt>
      <trkpt lat="45.26568" lon="6.16664">
        <ele>2512.3999023438</ele>
        <time>2013-03-02T08:54:34.000Z</time>
      </trkpt>
      <trkpt lat="45.26573" lon="6.16657">
        <ele>2512.8000488281</ele>
        <time>2013-03-02T08:54:40.000Z</time>
      </trkpt>
      <trkpt lat="45.26575" lon="6.16658">
        <ele>2515.3999023438</ele>
        <time>2013-03-02T08:54:56.000Z</time>
      </trkpt>
      <trkpt lat="45.26561" lon="6.1665">
        <ele>2519.1999511719</ele>
        <time>2013-03-02T08:55:18.000Z</time>
      </trkpt>
      <trkpt lat="45.26556" lon="6.16652">
        <ele>2520.3999023438</ele>
        <time>2013-03-02T08:55:28.000Z</time>
      </trkpt>
      <trkpt lat="45.26551" lon="6.16657">
        <ele>2521.8000488281</ele>
        <time>2013-03-02T08:55:36.000Z</time>
      </trkpt>
      <trkpt lat="45.2655" lon="6.16658">
        <ele>2522.1999511719</ele>
        <time>2013-03-02T08:55:39.000Z</time>
      </trkpt>
      <trkpt lat="45.2655" lon="6.16656">
        <ele>2523.3999023438</ele>
        <time>2013-03-02T08:55:46.000Z</time>
      </trkpt>
      <trkpt lat="45.26551" lon="6.16654">
        <ele>2523.6000976562</ele>
        <time>2013-03-02T08:55:58.000Z</time>
      </trkpt>
      <trkpt lat="45.26556" lon="6.16647">
        <ele>2524.6000976562</ele>
        <time>2013-03-02T08:56:05.000Z</time>
      </trkpt>
      <trkpt lat="45.26562" lon="6.16643">
        <ele>2528.6000976562</ele>
        <time>2013-03-02T08:56:28.000Z</time>
      </trkpt>
      <trkpt lat="45.26559" lon="6.16639">
        <ele>2530.3999023438</ele>
        <time>2013-03-02T08:56:41.000Z</time>
      </trkpt>
      <trkpt lat="45.26558" lon="6.16638">
        <ele>2530.8000488281</ele>
        <time>2013-03-02T08:56:43.000Z</time>
      </trkpt>
      <trkpt lat="45.26554" lon="6.16638">
        <ele>2531.1999511719</ele>
        <time>2013-03-02T08:56:48.000Z</time>
      </trkpt>
      <trkpt lat="45.26551" lon="6.16638">
        <ele>2532.1999511719</ele>
        <time>2013-03-02T08:56:52.000Z</time>
      </trkpt>
      <trkpt lat="45.26547" lon="6.16639">
        <ele>2532.8000488281</ele>
        <time>2013-03-02T08:56:57.000Z</time>
      </trkpt>
      <trkpt lat="45.26542" lon="6.16641">
        <ele>2534</ele>
        <time>2013-03-02T08:57:03.000Z</time>
      </trkpt>
      <trkpt lat="45.26539" lon="6.16641">
        <ele>2534.8000488281</ele>
        <time>2013-03-02T08:57:07.000Z</time>
      </trkpt>
      <trkpt lat="45.26538" lon="6.16638">
        <ele>2535.3999023438</ele>
        <time>2013-03-02T08:57:11.000Z</time>
      </trkpt>
      <trkpt lat="45.26534" lon="6.16638">
        <ele>2536.1999511719</ele>
        <time>2013-03-02T08:57:15.000Z</time>
      </trkpt>
      <trkpt lat="45.2654" lon="6.16636">
        <ele>2538.1999511719</ele>
        <time>2013-03-02T08:57:32.000Z</time>
      </trkpt>
      <trkpt lat="45.26543" lon="6.16632">
        <ele>2539.1999511719</ele>
        <time>2013-03-02T08:57:37.000Z</time>
      </trkpt>
      <trkpt lat="45.26547" lon="6.16626">
        <ele>2540.1999511719</ele>
        <time>2013-03-02T08:57:44.000Z</time>
      </trkpt>
      <trkpt lat="45.26546" lon="6.16621">
        <ele>2541.1999511719</ele>
        <time>2013-03-02T08:57:52.000Z</time>
      </trkpt>
      <trkpt lat="45.26542" lon="6.16622">
        <ele>2541.8000488281</ele>
        <time>2013-03-02T08:57:56.000Z</time>
      </trkpt>
      <trkpt lat="45.26537" lon="6.16622">
        <ele>2542.3999023438</ele>
        <time>2013-03-02T08:58:03.000Z</time>
      </trkpt>
      <trkpt lat="45.26529" lon="6.16621">
        <ele>2543.6000976562</ele>
        <time>2013-03-02T08:58:48.000Z</time>
      </trkpt>
      <trkpt lat="45.2653" lon="6.1662">
        <ele>2544.1999511719</ele>
        <time>2013-03-02T08:58:53.000Z</time>
      </trkpt>
      <trkpt lat="45.26534" lon="6.16622">
        <ele>2545.1999511719</ele>
        <time>2013-03-02T08:59:02.000Z</time>
      </trkpt>
      <trkpt lat="45.26543" lon="6.16616">
        <ele>2548</ele>
        <time>2013-03-02T08:59:19.000Z</time>
      </trkpt>
      <trkpt lat="45.26539" lon="6.16613">
        <ele>2548.8000488281</ele>
        <time>2013-03-02T08:59:24.000Z</time>
      </trkpt>
      <trkpt lat="45.26531" lon="6.16612">
        <ele>2550.6000976562</ele>
        <time>2013-03-02T08:59:34.000Z</time>
      </trkpt>
      <trkpt lat="45.26528" lon="6.16612">
        <ele>2551.3999023438</ele>
        <time>2013-03-02T08:59:38.000Z</time>
      </trkpt>
      <trkpt lat="45.26532" lon="6.16607">
        <ele>2552</ele>
        <time>2013-03-02T08:59:49.000Z</time>
      </trkpt>
      <trkpt lat="45.26536" lon="6.16608">
        <ele>2552</ele>
        <time>2013-03-02T08:59:57.000Z</time>
      </trkpt>
      <trkpt lat="45.26538" lon="6.16606">
        <ele>2553.3999023438</ele>
        <time>2013-03-02T09:00:06.000Z</time>
      </trkpt>
      <trkpt lat="45.2654" lon="6.16605">
        <ele>2553.6000976562</ele>
        <time>2013-03-02T09:00:08.000Z</time>
      </trkpt>
      <trkpt lat="45.26543" lon="6.166">
        <ele>2555.1999511719</ele>
        <time>2013-03-02T09:00:17.000Z</time>
      </trkpt>
      <trkpt lat="45.2654" lon="6.16599">
        <ele>2555.6000976562</ele>
        <time>2013-03-02T09:00:24.000Z</time>
      </trkpt>
      <trkpt lat="45.26536" lon="6.16599">
        <ele>2556.3999023438</ele>
        <time>2013-03-02T09:00:29.000Z</time>
      </trkpt>
      <trkpt lat="45.26532" lon="6.16598">
        <ele>2557</ele>
        <time>2013-03-02T09:00:34.000Z</time>
      </trkpt>
      <trkpt lat="45.26529" lon="6.16599">
        <ele>2558</ele>
        <time>2013-03-02T09:00:39.000Z</time>
      </trkpt>
      <trkpt lat="45.26535" lon="6.16603">
        <ele>2560.6000976562</ele>
        <time>2013-03-02T09:00:59.000Z</time>
      </trkpt>
      <trkpt lat="45.26538" lon="6.1659">
        <ele>2561.6000976562</ele>
        <time>2013-03-02T09:01:07.000Z</time>
      </trkpt>
      <trkpt lat="45.26537" lon="6.1659">
        <ele>2561.6000976562</ele>
        <time>2013-03-02T09:01:08.000Z</time>
      </trkpt>
      <trkpt lat="45.26533" lon="6.1659">
        <ele>2562.3999023438</ele>
        <time>2013-03-02T09:01:13.000Z</time>
      </trkpt>
      <trkpt lat="45.26528" lon="6.1659">
        <ele>2563.3999023438</ele>
        <time>2013-03-02T09:01:20.000Z</time>
      </trkpt>
      <trkpt lat="45.26522" lon="6.1659">
        <ele>2564.1999511719</ele>
        <time>2013-03-02T09:01:27.000Z</time>
      </trkpt>
      <trkpt lat="45.26522" lon="6.16587">
        <ele>2565.6000976562</ele>
        <time>2013-03-02T09:01:39.000Z</time>
      </trkpt>
      <trkpt lat="45.26515" lon="6.16602">
        <ele>2565.6000976562</ele>
        <time>2013-03-02T09:02:18.000Z</time>
      </trkpt>
      <trkpt lat="45.26517" lon="6.16606">
        <ele>2565.8000488281</ele>
        <time>2013-03-02T09:02:28.000Z</time>
      </trkpt>
      <trkpt lat="45.26512" lon="6.16589">
        <ele>2565.3999023438</ele>
        <time>2013-03-02T09:05:28.000Z</time>
      </trkpt>
      <trkpt lat="45.26505" lon="6.16589">
        <ele>2563.8000488281</ele>
        <time>2013-03-02T09:05:35.000Z</time>
      </trkpt>
      <trkpt lat="45.26498" lon="6.16591">
        <ele>2562.3999023438</ele>
        <time>2013-03-02T09:05:40.000Z</time>
      </trkpt>
      <trkpt lat="45.26488" lon="6.16589">
        <ele>2560.3999023438</ele>
        <time>2013-03-02T09:05:47.000Z</time>
      </trkpt>
      <trkpt lat="45.26481" lon="6.16589">
        <ele>2559.1999511719</ele>
        <time>2013-03-02T09:05:54.000Z</time>
      </trkpt>
      <trkpt lat="45.26473" lon="6.16593">
        <ele>2559</ele>
        <time>2013-03-02T09:06:01.000Z</time>
      </trkpt>
      <trkpt lat="45.26468" lon="6.16595">
        <ele>2559</ele>
        <time>2013-03-02T09:06:06.000Z</time>
      </trkpt>
      <trkpt lat="45.2646" lon="6.16602">
        <ele>2559.6000976562</ele>
        <time>2013-03-02T09:06:14.000Z</time>
      </trkpt>
      <trkpt lat="45.26452" lon="6.1661">
        <ele>2560.6000976562</ele>
        <time>2013-03-02T09:06:20.000Z</time>
      </trkpt>
      <trkpt lat="45.26446" lon="6.16611">
        <ele>2562</ele>
        <time>2013-03-02T09:06:26.000Z</time>
      </trkpt>
      <trkpt lat="45.26443" lon="6.16612">
        <ele>2563.3999023438</ele>
        <time>2013-03-02T09:06:32.000Z</time>
      </trkpt>
      <trkpt lat="45.26444" lon="6.1661">
        <ele>2564.1999511719</ele>
        <time>2013-03-02T09:06:35.000Z</time>
      </trkpt>
      <trkpt lat="45.26448" lon="6.16607">
        <ele>2565.6000976562</ele>
        <time>2013-03-02T09:06:41.000Z</time>
      </trkpt>
      <trkpt lat="45.26451" lon="6.16602">
        <ele>2566.8000488281</ele>
        <time>2013-03-02T09:06:47.000Z</time>
      </trkpt>
      <trkpt lat="45.26452" lon="6.16599">
        <ele>2567.6000976562</ele>
        <time>2013-03-02T09:06:52.000Z</time>
      </trkpt>
      <trkpt lat="45.26454" lon="6.16594">
        <ele>2569.3999023438</ele>
        <time>2013-03-02T09:07:00.000Z</time>
      </trkpt>
      <trkpt lat="45.26449" lon="6.16592">
        <ele>2570.1999511719</ele>
        <time>2013-03-02T09:07:05.000Z</time>
      </trkpt>
      <trkpt lat="45.26444" lon="6.1659">
        <ele>2571.3999023438</ele>
        <time>2013-03-02T09:07:10.000Z</time>
      </trkpt>
      <trkpt lat="45.2644" lon="6.16588">
        <ele>2572.3999023438</ele>
        <time>2013-03-02T09:07:15.000Z</time>
      </trkpt>
      <trkpt lat="45.26436" lon="6.16588">
        <ele>2573.3999023438</ele>
        <time>2013-03-02T09:07:20.000Z</time>
      </trkpt>
      <trkpt lat="45.26432" lon="6.16588">
        <ele>2574.3999023438</ele>
        <time>2013-03-02T09:07:25.000Z</time>
      </trkpt>
      <trkpt lat="45.26434" lon="6.16587">
        <ele>2575.8000488281</ele>
        <time>2013-03-02T09:07:32.000Z</time>
      </trkpt>
      <trkpt lat="45.26435" lon="6.16583">
        <ele>2577.1999511719</ele>
        <time>2013-03-02T09:07:38.000Z</time>
      </trkpt>
      <trkpt lat="45.26436" lon="6.16582">
        <ele>2577.3999023438</ele>
        <time>2013-03-02T09:07:39.000Z</time>
      </trkpt>
      <trkpt lat="45.26442" lon="6.16576">
        <ele>2579</ele>
        <time>2013-03-02T09:07:47.000Z</time>
      </trkpt>
      <trkpt lat="45.26438" lon="6.16572">
        <ele>2579.6000976562</ele>
        <time>2013-03-02T09:07:51.000Z</time>
      </trkpt>
      <trkpt lat="45.26433" lon="6.16568">
        <ele>2580.6000976562</ele>
        <time>2013-03-02T09:07:56.000Z</time>
      </trkpt>
      <trkpt lat="45.26432" lon="6.16566">
        <ele>2581.1999511719</ele>
        <time>2013-03-02T09:07:59.000Z</time>
      </trkpt>
      <trkpt lat="45.26428" lon="6.1656">
        <ele>2582.3999023438</ele>
        <time>2013-03-02T09:08:05.000Z</time>
      </trkpt>
      <trkpt lat="45.26427" lon="6.16559">
        <ele>2582.8000488281</ele>
        <time>2013-03-02T09:08:07.000Z</time>
      </trkpt>
      <trkpt lat="45.26421" lon="6.16564">
        <ele>2584</ele>
        <time>2013-03-02T09:08:13.000Z</time>
      </trkpt>
      <trkpt lat="45.26416" lon="6.16566">
        <ele>2585.1999511719</ele>
        <time>2013-03-02T09:08:19.000Z</time>
      </trkpt>
      <trkpt lat="45.26412" lon="6.16566">
        <ele>2586.1999511719</ele>
        <time>2013-03-02T09:08:24.000Z</time>
      </trkpt>
      <trkpt lat="45.26408" lon="6.16565">
        <ele>2587.1999511719</ele>
        <time>2013-03-02T09:08:29.000Z</time>
      </trkpt>
      <trkpt lat="45.26405" lon="6.16565">
        <ele>2588.1999511719</ele>
        <time>2013-03-02T09:08:34.000Z</time>
      </trkpt>
      <trkpt lat="45.26402" lon="6.16564">
        <ele>2589.1999511719</ele>
        <time>2013-03-02T09:08:39.000Z</time>
      </trkpt>
      <trkpt lat="45.26398" lon="6.16562">
        <ele>2590.1999511719</ele>
        <time>2013-03-02T09:08:45.000Z</time>
      </trkpt>
      <trkpt lat="45.26395" lon="6.1656">
        <ele>2591.3999023438</ele>
        <time>2013-03-02T09:08:49.000Z</time>
      </trkpt>
      <trkpt lat="45.26394" lon="6.16559">
        <ele>2592.1999511719</ele>
        <time>2013-03-02T09:08:53.000Z</time>
      </trkpt>
      <trkpt lat="45.26394" lon="6.16558">
        <ele>2593.6000976562</ele>
        <time>2013-03-02T09:09:01.000Z</time>
      </trkpt>
      <trkpt lat="45.26396" lon="6.16557">
        <ele>2594.8000488281</ele>
        <time>2013-03-02T09:09:05.000Z</time>
      </trkpt>
      <trkpt lat="45.26398" lon="6.16554">
        <ele>2596.1999511719</ele>
        <time>2013-03-02T09:09:11.000Z</time>
      </trkpt>
      <trkpt lat="45.26399" lon="6.16552">
        <ele>2596.8000488281</ele>
        <time>2013-03-02T09:09:15.000Z</time>
      </trkpt>
      <trkpt lat="45.26402" lon="6.16548">
        <ele>2597.8000488281</ele>
        <time>2013-03-02T09:09:21.000Z</time>
      </trkpt>
      <trkpt lat="45.26403" lon="6.16545">
        <ele>2598.1999511719</ele>
        <time>2013-03-02T09:09:24.000Z</time>
      </trkpt>
      <trkpt lat="45.26407" lon="6.1654">
        <ele>2599.8000488281</ele>
        <time>2013-03-02T09:09:31.000Z</time>
      </trkpt>
      <trkpt lat="45.2641" lon="6.16536">
        <ele>2600.8000488281</ele>
        <time>2013-03-02T09:09:36.000Z</time>
      </trkpt>
      <trkpt lat="45.26409" lon="6.16536">
        <ele>2601.3999023438</ele>
        <time>2013-03-02T09:09:49.000Z</time>
      </trkpt>
      <trkpt lat="45.26403" lon="6.16535">
        <ele>2602.1999511719</ele>
        <time>2013-03-02T09:09:54.000Z</time>
      </trkpt>
      <trkpt lat="45.26397" lon="6.16535">
        <ele>2603.3999023438</ele>
        <time>2013-03-02T09:10:00.000Z</time>
      </trkpt>
      <trkpt lat="45.26395" lon="6.16535">
        <ele>2604.1999511719</ele>
        <time>2013-03-02T09:10:05.000Z</time>
      </trkpt>
      <trkpt lat="45.26396" lon="6.16534">
        <ele>2604.3999023438</ele>
        <time>2013-03-02T09:10:08.000Z</time>
      </trkpt>
      <trkpt lat="45.264" lon="6.16529">
        <ele>2605.3999023438</ele>
        <time>2013-03-02T09:10:15.000Z</time>
      </trkpt>
      <trkpt lat="45.26402" lon="6.16527">
        <ele>2606.3999023438</ele>
        <time>2013-03-02T09:10:19.000Z</time>
      </trkpt>
      <trkpt lat="45.26405" lon="6.16525">
        <ele>2607.6000976562</ele>
        <time>2013-03-02T09:10:25.000Z</time>
      </trkpt>
      <trkpt lat="45.26404" lon="6.16524">
        <ele>2608</ele>
        <time>2013-03-02T09:10:30.000Z</time>
      </trkpt>
      <trkpt lat="45.26398" lon="6.16525">
        <ele>2609.1999511719</ele>
        <time>2013-03-02T09:10:37.000Z</time>
      </trkpt>
      <trkpt lat="45.26394" lon="6.16524">
        <ele>2610</ele>
        <time>2013-03-02T09:10:43.000Z</time>
      </trkpt>
      <trkpt lat="45.2639" lon="6.16522">
        <ele>2611</ele>
        <time>2013-03-02T09:10:48.000Z</time>
      </trkpt>
      <trkpt lat="45.2639" lon="6.16522">
        <ele>2612.1999511719</ele>
        <time>2013-03-02T09:10:54.000Z</time>
      </trkpt>
      <trkpt lat="45.26393" lon="6.16517">
        <ele>2613</ele>
        <time>2013-03-02T09:11:01.000Z</time>
      </trkpt>
      <trkpt lat="45.26397" lon="6.16515">
        <ele>2614</ele>
        <time>2013-03-02T09:11:07.000Z</time>
      </trkpt>
      <trkpt lat="45.26395" lon="6.16514">
        <ele>2614.6000976562</ele>
        <time>2013-03-02T09:11:12.000Z</time>
      </trkpt>
      <trkpt lat="45.26392" lon="6.16513">
        <ele>2615.6000976562</ele>
        <time>2013-03-02T09:11:17.000Z</time>
      </trkpt>
      <trkpt lat="45.26389" lon="6.16513">
        <ele>2616.6000976562</ele>
        <time>2013-03-02T09:11:21.000Z</time>
      </trkpt>
      <trkpt lat="45.26389" lon="6.16511">
        <ele>2617.1999511719</ele>
        <time>2013-03-02T09:11:24.000Z</time>
      </trkpt>
      <trkpt lat="45.26392" lon="6.16505">
        <ele>2618.1999511719</ele>
        <time>2013-03-02T09:11:32.000Z</time>
      </trkpt>
      <trkpt lat="45.26395" lon="6.16502">
        <ele>2619.6000976562</ele>
        <time>2013-03-02T09:11:39.000Z</time>
      </trkpt>
      <trkpt lat="45.26397" lon="6.165">
        <ele>2620.3999023438</ele>
        <time>2013-03-02T09:11:45.000Z</time>
      </trkpt>
      <trkpt lat="45.26394" lon="6.16499">
        <ele>2621.3999023438</ele>
        <time>2013-03-02T09:11:49.000Z</time>
      </trkpt>
      <trkpt lat="45.2639" lon="6.16497">
        <ele>2622.3999023438</ele>
        <time>2013-03-02T09:11:56.000Z</time>
      </trkpt>
      <trkpt lat="45.26387" lon="6.16495">
        <ele>2623.3999023438</ele>
        <time>2013-03-02T09:12:01.000Z</time>
      </trkpt>
      <trkpt lat="45.26384" lon="6.16495">
        <ele>2624.1999511719</ele>
        <time>2013-03-02T09:12:06.000Z</time>
      </trkpt>
      <trkpt lat="45.26381" lon="6.16495">
        <ele>2625.1999511719</ele>
        <time>2013-03-02T09:12:11.000Z</time>
      </trkpt>
      <trkpt lat="45.26378" lon="6.16496">
        <ele>2626.1999511719</ele>
        <time>2013-03-02T09:12:16.000Z</time>
      </trkpt>
      <trkpt lat="45.26378" lon="6.16494">
        <ele>2626.8000488281</ele>
        <time>2013-03-02T09:12:20.000Z</time>
      </trkpt>
      <trkpt lat="45.26381" lon="6.16487">
        <ele>2628</ele>
        <time>2013-03-02T09:12:28.000Z</time>
      </trkpt>
      <trkpt lat="45.26383" lon="6.16483">
        <ele>2628.8000488281</ele>
        <time>2013-03-02T09:12:33.000Z</time>
      </trkpt>
      <trkpt lat="45.26387" lon="6.1648">
        <ele>2630</ele>
        <time>2013-03-02T09:12:39.000Z</time>
      </trkpt>
      <trkpt lat="45.26388" lon="6.16477">
        <ele>2631</ele>
        <time>2013-03-02T09:12:44.000Z</time>
      </trkpt>
      <trkpt lat="45.26392" lon="6.16472">
        <ele>2632.3999023438</ele>
        <time>2013-03-02T09:12:52.000Z</time>
      </trkpt>
      <trkpt lat="45.26394" lon="6.1647">
        <ele>2633.3999023438</ele>
        <time>2013-03-02T09:12:56.000Z</time>
      </trkpt>
      <trkpt lat="45.26392" lon="6.16468">
        <ele>2634.3999023438</ele>
        <time>2013-03-02T09:13:02.000Z</time>
      </trkpt>
      <trkpt lat="45.26389" lon="6.16467">
        <ele>2635.1999511719</ele>
        <time>2013-03-02T09:13:08.000Z</time>
      </trkpt>
      <trkpt lat="45.26385" lon="6.16466">
        <ele>2636.1999511719</ele>
        <time>2013-03-02T09:13:14.000Z</time>
      </trkpt>
      <trkpt lat="45.26381" lon="6.16465">
        <ele>2637.3999023438</ele>
        <time>2013-03-02T09:13:20.000Z</time>
      </trkpt>
      <trkpt lat="45.26378" lon="6.16465">
        <ele>2638.3999023438</ele>
        <time>2013-03-02T09:13:25.000Z</time>
      </trkpt>
      <trkpt lat="45.26375" lon="6.16466">
        <ele>2639</ele>
        <time>2013-03-02T09:13:29.000Z</time>
      </trkpt>
      <trkpt lat="45.26372" lon="6.16466">
        <ele>2640</ele>
        <time>2013-03-02T09:13:34.000Z</time>
      </trkpt>
      <trkpt lat="45.26371" lon="6.16464">
        <ele>2640.8000488281</ele>
        <time>2013-03-02T09:13:41.000Z</time>
      </trkpt>
      <trkpt lat="45.26372" lon="6.16461">
        <ele>2641.3999023438</ele>
        <time>2013-03-02T09:13:45.000Z</time>
      </trkpt>
      <trkpt lat="45.26375" lon="6.16456">
        <ele>2642.3999023438</ele>
        <time>2013-03-02T09:13:52.000Z</time>
      </trkpt>
      <trkpt lat="45.26378" lon="6.16452">
        <ele>2643.3999023438</ele>
        <time>2013-03-02T09:13:58.000Z</time>
      </trkpt>
      <trkpt lat="45.26382" lon="6.16447">
        <ele>2644.3999023438</ele>
        <time>2013-03-02T09:14:05.000Z</time>
      </trkpt>
      <trkpt lat="45.26386" lon="6.16441">
        <ele>2645.6000976562</ele>
        <time>2013-03-02T09:14:12.000Z</time>
      </trkpt>
      <trkpt lat="45.26389" lon="6.16437">
        <ele>2646.6000976562</ele>
        <time>2013-03-02T09:14:18.000Z</time>
      </trkpt>
      <trkpt lat="45.2639" lon="6.16434">
        <ele>2647.6000976562</ele>
        <time>2013-03-02T09:14:23.000Z</time>
      </trkpt>
      <trkpt lat="45.26388" lon="6.16432">
        <ele>2648.6000976562</ele>
        <time>2013-03-02T09:14:31.000Z</time>
      </trkpt>
      <trkpt lat="45.26386" lon="6.16432">
        <ele>2649</ele>
        <time>2013-03-02T09:14:35.000Z</time>
      </trkpt>
      <trkpt lat="45.26383" lon="6.16432">
        <ele>2650.1999511719</ele>
        <time>2013-03-02T09:14:41.000Z</time>
      </trkpt>
      <trkpt lat="45.26379" lon="6.16431">
        <ele>2651.1999511719</ele>
        <time>2013-03-02T09:14:45.000Z</time>
      </trkpt>
      <trkpt lat="45.26376" lon="6.16431">
        <ele>2652.1999511719</ele>
        <time>2013-03-02T09:14:50.000Z</time>
      </trkpt>
      <trkpt lat="45.26373" lon="6.16433">
        <ele>2653.1999511719</ele>
        <time>2013-03-02T09:14:56.000Z</time>
      </trkpt>
      <trkpt lat="45.2637" lon="6.16432">
        <ele>2654.6000976562</ele>
        <time>2013-03-02T09:15:03.000Z</time>
      </trkpt>
      <trkpt lat="45.26371" lon="6.16427">
        <ele>2655.1999511719</ele>
        <time>2013-03-02T09:15:09.000Z</time>
      </trkpt>
      <trkpt lat="45.26373" lon="6.16421">
        <ele>2656</ele>
        <time>2013-03-02T09:15:15.000Z</time>
      </trkpt>
      <trkpt lat="45.26376" lon="6.16415">
        <ele>2656.8000488281</ele>
        <time>2013-03-02T09:15:21.000Z</time>
      </trkpt>
      <trkpt lat="45.26379" lon="6.1641">
        <ele>2657.8000488281</ele>
        <time>2013-03-02T09:15:27.000Z</time>
      </trkpt>
      <trkpt lat="45.26382" lon="6.16403">
        <ele>2659.1999511719</ele>
        <time>2013-03-02T09:15:35.000Z</time>
      </trkpt>
      <trkpt lat="45.26381" lon="6.16402">
        <ele>2660</ele>
        <time>2013-03-02T09:15:39.000Z</time>
      </trkpt>
      <trkpt lat="45.26378" lon="6.16402">
        <ele>2660.8000488281</ele>
        <time>2013-03-02T09:15:44.000Z</time>
      </trkpt>
      <trkpt lat="45.26373" lon="6.16404">
        <ele>2661.8000488281</ele>
        <time>2013-03-02T09:15:51.000Z</time>
      </trkpt>
      <trkpt lat="45.26369" lon="6.16406">
        <ele>2663</ele>
        <time>2013-03-02T09:15:57.000Z</time>
      </trkpt>
      <trkpt lat="45.26365" lon="6.16407">
        <ele>2664</ele>
        <time>2013-03-02T09:16:04.000Z</time>
      </trkpt>
      <trkpt lat="45.26366" lon="6.16402">
        <ele>2664.8000488281</ele>
        <time>2013-03-02T09:16:10.000Z</time>
      </trkpt>
      <trkpt lat="45.26369" lon="6.16394">
        <ele>2666.1999511719</ele>
        <time>2013-03-02T09:16:19.000Z</time>
      </trkpt>
      <trkpt lat="45.26372" lon="6.16387">
        <ele>2667.3999023438</ele>
        <time>2013-03-02T09:16:26.000Z</time>
      </trkpt>
      <trkpt lat="45.26375" lon="6.16382">
        <ele>2668.1999511719</ele>
        <time>2013-03-02T09:16:33.000Z</time>
      </trkpt>
      <trkpt lat="45.26378" lon="6.16377">
        <ele>2669.1999511719</ele>
        <time>2013-03-02T09:16:40.000Z</time>
      </trkpt>
      <trkpt lat="45.26381" lon="6.16373">
        <ele>2670.3999023438</ele>
        <time>2013-03-02T09:16:47.000Z</time>
      </trkpt>
      <trkpt lat="45.26381" lon="6.1637">
        <ele>2671.1999511719</ele>
        <time>2013-03-02T09:16:52.000Z</time>
      </trkpt>
      <trkpt lat="45.26378" lon="6.16369">
        <ele>2672.1999511719</ele>
        <time>2013-03-02T09:16:59.000Z</time>
      </trkpt>
      <trkpt lat="45.26373" lon="6.16368">
        <ele>2673.6000976562</ele>
        <time>2013-03-02T09:17:06.000Z</time>
      </trkpt>
      <trkpt lat="45.26368" lon="6.16369">
        <ele>2674.6000976562</ele>
        <time>2013-03-02T09:17:12.000Z</time>
      </trkpt>
      <trkpt lat="45.26365" lon="6.16364">
        <ele>2675.8000488281</ele>
        <time>2013-03-02T09:17:19.000Z</time>
      </trkpt>
      <trkpt lat="45.26365" lon="6.16363">
        <ele>2675.8000488281</ele>
        <time>2013-03-02T09:17:20.000Z</time>
      </trkpt>
      <trkpt lat="45.26368" lon="6.16357">
        <ele>2676.8000488281</ele>
        <time>2013-03-02T09:17:28.000Z</time>
      </trkpt>
      <trkpt lat="45.26369" lon="6.16353">
        <ele>2677.3999023438</ele>
        <time>2013-03-02T09:17:32.000Z</time>
      </trkpt>
      <trkpt lat="45.26374" lon="6.16348">
        <ele>2678.8000488281</ele>
        <time>2013-03-02T09:17:39.000Z</time>
      </trkpt>
      <trkpt lat="45.26376" lon="6.16343">
        <ele>2680</ele>
        <time>2013-03-02T09:17:46.000Z</time>
      </trkpt>
      <trkpt lat="45.26378" lon="6.16339">
        <ele>2680.8000488281</ele>
        <time>2013-03-02T09:17:52.000Z</time>
      </trkpt>
      <trkpt lat="45.26381" lon="6.16335">
        <ele>2681.8000488281</ele>
        <time>2013-03-02T09:17:58.000Z</time>
      </trkpt>
      <trkpt lat="45.26381" lon="6.16331">
        <ele>2682.8000488281</ele>
        <time>2013-03-02T09:18:03.000Z</time>
      </trkpt>
      <trkpt lat="45.26379" lon="6.16327">
        <ele>2684.1999511719</ele>
        <time>2013-03-02T09:18:10.000Z</time>
      </trkpt>
      <trkpt lat="45.26376" lon="6.16323">
        <ele>2685.3999023438</ele>
        <time>2013-03-02T09:18:16.000Z</time>
      </trkpt>
      <trkpt lat="45.26374" lon="6.16319">
        <ele>2686.8000488281</ele>
        <time>2013-03-02T09:18:23.000Z</time>
      </trkpt>
      <trkpt lat="45.26371" lon="6.16316">
        <ele>2688</ele>
        <time>2013-03-02T09:18:28.000Z</time>
      </trkpt>
      <trkpt lat="45.26368" lon="6.16312">
        <ele>2689.6000976562</ele>
        <time>2013-03-02T09:18:35.000Z</time>
      </trkpt>
      <trkpt lat="45.26364" lon="6.16308">
        <ele>2690.8000488281</ele>
        <time>2013-03-02T09:18:42.000Z</time>
      </trkpt>
      <trkpt lat="45.26361" lon="6.16307">
        <ele>2692</ele>
        <time>2013-03-02T09:18:47.000Z</time>
      </trkpt>
      <trkpt lat="45.26359" lon="6.16305">
        <ele>2693.1999511719</ele>
        <time>2013-03-02T09:18:52.000Z</time>
      </trkpt>
      <trkpt lat="45.26359" lon="6.16301">
        <ele>2694.6000976562</ele>
        <time>2013-03-02T09:18:57.000Z</time>
      </trkpt>
      <trkpt lat="45.26358" lon="6.16297">
        <ele>2695.8000488281</ele>
        <time>2013-03-02T09:19:04.000Z</time>
      </trkpt>
      <trkpt lat="45.26357" lon="6.16294">
        <ele>2696.3999023438</ele>
        <time>2013-03-02T09:19:08.000Z</time>
      </trkpt>
      <trkpt lat="45.26355" lon="6.16289">
        <ele>2697.3999023438</ele>
        <time>2013-03-02T09:19:13.000Z</time>
      </trkpt>
      <trkpt lat="45.26354" lon="6.16287">
        <ele>2698.3999023438</ele>
        <time>2013-03-02T09:19:18.000Z</time>
      </trkpt>
      <trkpt lat="45.26354" lon="6.16285">
        <ele>2699.1999511719</ele>
        <time>2013-03-02T09:19:22.000Z</time>
      </trkpt>
      <trkpt lat="45.26354" lon="6.16282">
        <ele>2700</ele>
        <time>2013-03-02T09:19:26.000Z</time>
      </trkpt>
      <trkpt lat="45.26353" lon="6.16278">
        <ele>2701.3999023438</ele>
        <time>2013-03-02T09:19:33.000Z</time>
      </trkpt>
      <trkpt lat="45.26353" lon="6.16274">
        <ele>2702.6000976562</ele>
        <time>2013-03-02T09:19:38.000Z</time>
      </trkpt>
      <trkpt lat="45.26352" lon="6.16272">
        <ele>2703.6000976562</ele>
        <time>2013-03-02T09:19:42.000Z</time>
      </trkpt>
      <trkpt lat="45.26352" lon="6.1627">
        <ele>2704.3999023438</ele>
        <time>2013-03-02T09:19:46.000Z</time>
      </trkpt>
      <trkpt lat="45.26352" lon="6.16267">
        <ele>2705.3999023438</ele>
        <time>2013-03-02T09:19:50.000Z</time>
      </trkpt>
      <trkpt lat="45.26351" lon="6.16264">
        <ele>2706.6000976562</ele>
        <time>2013-03-02T09:19:55.000Z</time>
      </trkpt>
      <trkpt lat="45.2635" lon="6.1626">
        <ele>2708.1999511719</ele>
        <time>2013-03-02T09:20:02.000Z</time>
      </trkpt>
      <trkpt lat="45.26348" lon="6.16255">
        <ele>2709.8000488281</ele>
        <time>2013-03-02T09:20:13.000Z</time>
      </trkpt>
      <trkpt lat="45.26347" lon="6.16251">
        <ele>2711.3999023438</ele>
        <time>2013-03-02T09:20:19.000Z</time>
      </trkpt>
      <trkpt lat="45.26346" lon="6.16249">
        <ele>2712</ele>
        <time>2013-03-02T09:20:23.000Z</time>
      </trkpt>
      <trkpt lat="45.26344" lon="6.16247">
        <ele>2713</ele>
        <time>2013-03-02T09:20:27.000Z</time>
      </trkpt>
      <trkpt lat="45.26342" lon="6.16244">
        <ele>2713.8000488281</ele>
        <time>2013-03-02T09:20:32.000Z</time>
      </trkpt>
      <trkpt lat="45.2634" lon="6.16241">
        <ele>2714.6000976562</ele>
        <time>2013-03-02T09:20:36.000Z</time>
      </trkpt>
      <trkpt lat="45.26338" lon="6.16238">
        <ele>2715.3999023438</ele>
        <time>2013-03-02T09:20:40.000Z</time>
      </trkpt>
      <trkpt lat="45.26335" lon="6.16237">
        <ele>2716</ele>
        <time>2013-03-02T09:20:48.000Z</time>
      </trkpt>
      <trkpt lat="45.26329" lon="6.1624">
        <ele>2717</ele>
        <time>2013-03-02T09:20:56.000Z</time>
      </trkpt>
      <trkpt lat="45.26325" lon="6.16243">
        <ele>2717.8000488281</ele>
        <time>2013-03-02T09:21:01.000Z</time>
      </trkpt>
      <trkpt lat="45.26319" lon="6.16249">
        <ele>2718.3999023438</ele>
        <time>2013-03-02T09:21:09.000Z</time>
      </trkpt>
      <trkpt lat="45.26315" lon="6.16252">
        <ele>2718.8000488281</ele>
        <time>2013-03-02T09:21:14.000Z</time>
      </trkpt>
      <trkpt lat="45.26311" lon="6.16258">
        <ele>2719.8000488281</ele>
        <time>2013-03-02T09:21:21.000Z</time>
      </trkpt>
      <trkpt lat="45.26308" lon="6.16263">
        <ele>2720.8000488281</ele>
        <time>2013-03-02T09:21:27.000Z</time>
      </trkpt>
      <trkpt lat="45.26305" lon="6.16267">
        <ele>2721.8000488281</ele>
        <time>2013-03-02T09:21:33.000Z</time>
      </trkpt>
      <trkpt lat="45.26304" lon="6.16272">
        <ele>2722.6000976562</ele>
        <time>2013-03-02T09:21:39.000Z</time>
      </trkpt>
      <trkpt lat="45.26301" lon="6.16276">
        <ele>2724.1999511719</ele>
        <time>2013-03-02T09:21:45.000Z</time>
      </trkpt>
      <trkpt lat="45.26299" lon="6.1628">
        <ele>2725.1999511719</ele>
        <time>2013-03-02T09:21:52.000Z</time>
      </trkpt>
      <trkpt lat="45.26305" lon="6.16286">
        <ele>2725.8000488281</ele>
        <time>2013-03-02T09:24:01.000Z</time>
      </trkpt>
      <trkpt lat="45.26305" lon="6.16285">
        <ele>2726</ele>
        <time>2013-03-02T09:24:45.000Z</time>
      </trkpt>
      <trkpt lat="45.26304" lon="6.16286">
        <ele>2726</ele>
        <time>2013-03-02T09:24:56.000Z</time>
      </trkpt>
      <trkpt lat="45.26305" lon="6.16286">
        <ele>2727.3999023438</ele>
        <time>2013-03-02T09:27:47.000Z</time>
      </trkpt>
      <trkpt lat="45.26303" lon="6.16286">
        <ele>2727.6000976562</ele>
        <time>2013-03-02T09:28:11.000Z</time>
      </trkpt>
      <trkpt lat="45.26303" lon="6.16286">
        <ele>2727.3999023438</ele>
        <time>2013-03-02T09:30:02.000Z</time>
      </trkpt>
      <trkpt lat="45.26303" lon="6.1629">
        <ele>2727.6000976562</ele>
        <time>2013-03-02T09:31:00.000Z</time>
      </trkpt>
      <trkpt lat="45.26302" lon="6.1629">
        <ele>2727.1999511719</ele>
        <time>2013-03-02T09:31:07.000Z</time>
      </trkpt>
      <trkpt lat="45.26303" lon="6.16287">
        <ele>2727.3999023438</ele>
        <time>2013-03-02T09:31:14.000Z</time>
      </trkpt>
      <trkpt lat="45.26304" lon="6.16286">
        <ele>2727.3999023438</ele>
        <time>2013-03-02T09:31:19.000Z</time>
      </trkpt>
      <trkpt lat="45.26304" lon="6.16286">
        <ele>2727.6000976562</ele>
        <time>2013-03-02T09:31:24.000Z</time>
      </trkpt>
      <trkpt lat="45.26302" lon="6.1629">
        <ele>2727.3999023438</ele>
        <time>2013-03-02T09:31:28.000Z</time>
      </trkpt>
      <trkpt lat="45.26301" lon="6.1629">
        <ele>2726.3999023438</ele>
        <time>2013-03-02T09:31:35.000Z</time>
      </trkpt>
      <trkpt lat="45.26302" lon="6.16288">
        <ele>2726</ele>
        <time>2013-03-02T09:31:46.000Z</time>
      </trkpt>
      <trkpt lat="45.26302" lon="6.16284">
        <ele>2727.3999023438</ele>
        <time>2013-03-02T09:31:53.000Z</time>
      </trkpt>
      <trkpt lat="45.26304" lon="6.16286">
        <ele>2728</ele>
        <time>2013-03-02T09:32:31.000Z</time>
      </trkpt>
      <trkpt lat="45.26306" lon="6.16278">
        <ele>2728</ele>
        <time>2013-03-02T09:32:37.000Z</time>
      </trkpt>
      <trkpt lat="45.26311" lon="6.16266">
        <ele>2727.8000488281</ele>
        <time>2013-03-02T09:32:39.000Z</time>
      </trkpt>
      <trkpt lat="45.26328" lon="6.16237">
        <ele>2725.6000976562</ele>
        <time>2013-03-02T09:32:43.000Z</time>
      </trkpt>
      <trkpt lat="45.26341" lon="6.16226">
        <ele>2722.8000488281</ele>
        <time>2013-03-02T09:32:47.000Z</time>
      </trkpt>
      <trkpt lat="45.26341" lon="6.16227">
        <ele>2722.6000976562</ele>
        <time>2013-03-02T09:32:48.000Z</time>
      </trkpt>
      <trkpt lat="45.26343" lon="6.16227">
        <ele>2722</ele>
        <time>2013-03-02T09:32:53.000Z</time>
      </trkpt>
      <trkpt lat="45.26345" lon="6.16227">
        <ele>2722.3999023438</ele>
        <time>2013-03-02T09:32:59.000Z</time>
      </trkpt>
      <trkpt lat="45.26347" lon="6.16228">
        <ele>2722.8000488281</ele>
        <time>2013-03-02T09:33:04.000Z</time>
      </trkpt>
      <trkpt lat="45.26349" lon="6.16226">
        <ele>2723.1999511719</ele>
        <time>2013-03-02T09:33:10.000Z</time>
      </trkpt>
      <trkpt lat="45.26351" lon="6.16222">
        <ele>2724.6000976562</ele>
        <time>2013-03-02T09:33:23.000Z</time>
      </trkpt>
      <trkpt lat="45.26349" lon="6.16213">
        <ele>2726.1999511719</ele>
        <time>2013-03-02T09:33:52.000Z</time>
      </trkpt>
      <trkpt lat="45.26348" lon="6.1621">
        <ele>2726.8000488281</ele>
        <time>2013-03-02T09:34:03.000Z</time>
      </trkpt>
      <trkpt lat="45.26348" lon="6.16205">
        <ele>2727</ele>
        <time>2013-03-02T09:34:09.000Z</time>
      </trkpt>
      <trkpt lat="45.26348" lon="6.16202">
        <ele>2727.1999511719</ele>
        <time>2013-03-02T09:34:13.000Z</time>
      </trkpt>
      <trkpt lat="45.26348" lon="6.16198">
        <ele>2727.6000976562</ele>
        <time>2013-03-02T09:34:18.000Z</time>
      </trkpt>
      <trkpt lat="45.26348" lon="6.16193">
        <ele>2728</ele>
        <time>2013-03-02T09:34:26.000Z</time>
      </trkpt>
      <trkpt lat="45.26348" lon="6.1619">
        <ele>2728.3999023438</ele>
        <time>2013-03-02T09:34:31.000Z</time>
      </trkpt>
      <trkpt lat="45.26348" lon="6.16186">
        <ele>2728.6000976562</ele>
        <time>2013-03-02T09:34:37.000Z</time>
      </trkpt>
      <trkpt lat="45.26349" lon="6.16183">
        <ele>2728.8000488281</ele>
        <time>2013-03-02T09:34:44.000Z</time>
      </trkpt>
      <trkpt lat="45.2635" lon="6.16179">
        <ele>2729</ele>
        <time>2013-03-02T09:34:49.000Z</time>
      </trkpt>
      <trkpt lat="45.2635" lon="6.16174">
        <ele>2729.3999023438</ele>
        <time>2013-03-02T09:34:55.000Z</time>
      </trkpt>
      <trkpt lat="45.26351" lon="6.16171">
        <ele>2729.6000976562</ele>
        <time>2013-03-02T09:34:59.000Z</time>
      </trkpt>
      <trkpt lat="45.26351" lon="6.16169">
        <ele>2730</ele>
        <time>2013-03-02T09:35:03.000Z</time>
      </trkpt>
      <trkpt lat="45.26352" lon="6.16166">
        <ele>2730.1999511719</ele>
        <time>2013-03-02T09:35:08.000Z</time>
      </trkpt>
      <trkpt lat="45.26354" lon="6.16163">
        <ele>2730.8000488281</ele>
        <time>2013-03-02T09:35:15.000Z</time>
      </trkpt>
      <trkpt lat="45.26359" lon="6.16163">
        <ele>2733.1999511719</ele>
        <time>2013-03-02T09:36:07.000Z</time>
      </trkpt>
      <trkpt lat="45.2636" lon="6.16165">
        <ele>2735.3999023438</ele>
        <time>2013-03-02T09:36:29.000Z</time>
      </trkpt>
      <trkpt lat="45.26362" lon="6.16165">
        <ele>2736.3999023438</ele>
        <time>2013-03-02T09:36:35.000Z</time>
      </trkpt>
      <trkpt lat="45.26362" lon="6.16162">
        <ele>2737.1999511719</ele>
        <time>2013-03-02T09:36:46.000Z</time>
      </trkpt>
      <trkpt lat="45.26362" lon="6.16163">
        <ele>2737.6000976562</ele>
        <time>2013-03-02T09:40:26.000Z</time>
      </trkpt>
      <trkpt lat="45.2636" lon="6.16162">
        <ele>2737.1999511719</ele>
        <time>2013-03-02T09:40:44.000Z</time>
      </trkpt>
      <trkpt lat="45.2636" lon="6.16158">
        <ele>2738</ele>
        <time>2013-03-02T09:42:10.000Z</time>
      </trkpt>
      <trkpt lat="45.26359" lon="6.16161">
        <ele>2737.6000976562</ele>
        <time>2013-03-02T09:42:36.000Z</time>
      </trkpt>
      <trkpt lat="45.26361" lon="6.16157">
        <ele>2738.8000488281</ele>
        <time>2013-03-02T09:45:49.000Z</time>
      </trkpt>
      <trkpt lat="45.26363" lon="6.1616">
        <ele>2738.3999023438</ele>
        <time>2013-03-02T09:45:54.000Z</time>
      </trkpt>
      <trkpt lat="45.26363" lon="6.16161">
        <ele>2738.3999023438</ele>
        <time>2013-03-02T09:46:00.000Z</time>
      </trkpt>
      <trkpt lat="45.26363" lon="6.16158">
        <ele>2739</ele>
        <time>2013-03-02T09:49:30.000Z</time>
      </trkpt>
      <trkpt lat="45.26364" lon="6.16158">
        <ele>2739</ele>
        <time>2013-03-02T09:49:36.000Z</time>
      </trkpt>
      <trkpt lat="45.26361" lon="6.16156">
        <ele>2739.1999511719</ele>
        <time>2013-03-02T09:50:34.000Z</time>
      </trkpt>
      <trkpt lat="45.26364" lon="6.16156">
        <ele>2739</ele>
        <time>2013-03-02T09:50:43.000Z</time>
      </trkpt>
      <trkpt lat="45.26362" lon="6.16159">
        <ele>2739.6000976562</ele>
        <time>2013-03-02T09:51:32.000Z</time>
      </trkpt>
      <trkpt lat="45.26361" lon="6.16159">
        <ele>2740</ele>
        <time>2013-03-02T09:51:43.000Z</time>
      </trkpt>
      <trkpt lat="45.26359" lon="6.16156">
        <ele>2742.3999023438</ele>
        <time>2013-03-02T10:05:02.000Z</time>
      </trkpt>
      <trkpt lat="45.26357" lon="6.16144">
        <ele>2742</ele>
        <time>2013-03-02T10:05:06.000Z</time>
      </trkpt>
      <trkpt lat="45.26356" lon="6.16127">
        <ele>2740.6000976562</ele>
        <time>2013-03-02T10:05:10.000Z</time>
      </trkpt>
      <trkpt lat="45.26357" lon="6.16127">
        <ele>2739.3999023438</ele>
        <time>2013-03-02T10:05:16.000Z</time>
      </trkpt>
      <trkpt lat="45.26358" lon="6.16129">
        <ele>2739</ele>
        <time>2013-03-02T10:05:25.000Z</time>
      </trkpt>
      <trkpt lat="45.2636" lon="6.16127">
        <ele>2737.8000488281</ele>
        <time>2013-03-02T10:05:31.000Z</time>
      </trkpt>
      <trkpt lat="45.26362" lon="6.16128">
        <ele>2736.3999023438</ele>
        <time>2013-03-02T10:05:35.000Z</time>
      </trkpt>
      <trkpt lat="45.26367" lon="6.16124">
        <ele>2735</ele>
        <time>2013-03-02T10:05:38.000Z</time>
      </trkpt>
      <trkpt lat="45.26373" lon="6.16113">
        <ele>2730.6000976562</ele>
        <time>2013-03-02T10:05:43.000Z</time>
      </trkpt>
      <trkpt lat="45.26378" lon="6.16106">
        <ele>2725</ele>
        <time>2013-03-02T10:05:48.000Z</time>
      </trkpt>
      <trkpt lat="45.26384" lon="6.16095">
        <ele>2722.3999023438</ele>
        <time>2013-03-02T10:05:52.000Z</time>
      </trkpt>
      <trkpt lat="45.26388" lon="6.16087">
        <ele>2718</ele>
        <time>2013-03-02T10:05:57.000Z</time>
      </trkpt>
      <trkpt lat="45.26388" lon="6.16088">
        <ele>2715.3999023438</ele>
        <time>2013-03-02T10:06:11.000Z</time>
      </trkpt>
      <trkpt lat="45.2639" lon="6.16089">
        <ele>2713.6000976562</ele>
        <time>2013-03-02T10:06:17.000Z</time>
      </trkpt>
      <trkpt lat="45.2639" lon="6.1609">
        <ele>2713.1999511719</ele>
        <time>2013-03-02T10:06:19.000Z</time>
      </trkpt>
      <trkpt lat="45.26394" lon="6.16088">
        <ele>2711.3999023438</ele>
        <time>2013-03-02T10:06:23.000Z</time>
      </trkpt>
      <trkpt lat="45.26395" lon="6.16087">
        <ele>2710.8000488281</ele>
        <time>2013-03-02T10:06:24.000Z</time>
      </trkpt>
      <trkpt lat="45.26398" lon="6.16087">
        <ele>2708.1999511719</ele>
        <time>2013-03-02T10:06:28.000Z</time>
      </trkpt>
      <trkpt lat="45.26399" lon="6.16088">
        <ele>2706.3999023438</ele>
        <time>2013-03-02T10:06:33.000Z</time>
      </trkpt>
      <trkpt lat="45.26403" lon="6.16085">
        <ele>2704.6000976562</ele>
        <time>2013-03-02T10:06:37.000Z</time>
      </trkpt>
      <trkpt lat="45.26403" lon="6.16084">
        <ele>2704.1999511719</ele>
        <time>2013-03-02T10:06:38.000Z</time>
      </trkpt>
      <trkpt lat="45.26407" lon="6.16085">
        <ele>2701.3999023438</ele>
        <time>2013-03-02T10:06:42.000Z</time>
      </trkpt>
      <trkpt lat="45.26407" lon="6.16085">
        <ele>2701.3999023438</ele>
        <time>2013-03-02T10:06:43.000Z</time>
      </trkpt>
      <trkpt lat="45.26408" lon="6.16086">
        <ele>2701.1999511719</ele>
        <time>2013-03-02T10:06:44.000Z</time>
      </trkpt>
      <trkpt lat="45.26409" lon="6.16086">
        <ele>2699.3999023438</ele>
        <time>2013-03-02T10:06:48.000Z</time>
      </trkpt>
      <trkpt lat="45.26412" lon="6.16088">
        <ele>2696.1999511719</ele>
        <time>2013-03-02T10:06:53.000Z</time>
      </trkpt>
      <trkpt lat="45.26411" lon="6.16092">
        <ele>2694.3999023438</ele>
        <time>2013-03-02T10:07:10.000Z</time>
      </trkpt>
      <trkpt lat="45.26412" lon="6.16094">
        <ele>2692.6000976562</ele>
        <time>2013-03-02T10:07:15.000Z</time>
      </trkpt>
      <trkpt lat="45.2641" lon="6.16095">
        <ele>2691.3999023438</ele>
        <time>2013-03-02T10:07:33.000Z</time>
      </trkpt>
      <trkpt lat="45.26414" lon="6.16093">
        <ele>2690.8000488281</ele>
        <time>2013-03-02T10:07:37.000Z</time>
      </trkpt>
      <trkpt lat="45.26419" lon="6.16094">
        <ele>2688.8000488281</ele>
        <time>2013-03-02T10:07:41.000Z</time>
      </trkpt>
      <trkpt lat="45.26419" lon="6.16095">
        <ele>2686.8000488281</ele>
        <time>2013-03-02T10:07:44.000Z</time>
      </trkpt>
      <trkpt lat="45.26423" lon="6.16096">
        <ele>2685.1999511719</ele>
        <time>2013-03-02T10:07:47.000Z</time>
      </trkpt>
      <trkpt lat="45.26425" lon="6.16098">
        <ele>2682.6000976562</ele>
        <time>2013-03-02T10:07:52.000Z</time>
      </trkpt>
      <trkpt lat="45.26425" lon="6.161">
        <ele>2681.8000488281</ele>
        <time>2013-03-02T10:07:53.000Z</time>
      </trkpt>
      <trkpt lat="45.2643" lon="6.16103">
        <ele>2679.6000976562</ele>
        <time>2013-03-02T10:07:57.000Z</time>
      </trkpt>
      <trkpt lat="45.26431" lon="6.16104">
        <ele>2679</ele>
        <time>2013-03-02T10:07:59.000Z</time>
      </trkpt>
      <trkpt lat="45.26431" lon="6.16103">
        <ele>2676.1999511719</ele>
        <time>2013-03-02T10:08:04.000Z</time>
      </trkpt>
      <trkpt lat="45.26431" lon="6.16105">
        <ele>2675.1999511719</ele>
        <time>2013-03-02T10:08:26.000Z</time>
      </trkpt>
      <trkpt lat="45.26428" lon="6.1611">
        <ele>2674</ele>
        <time>2013-03-02T10:08:31.000Z</time>
      </trkpt>
      <trkpt lat="45.26427" lon="6.16116">
        <ele>2672.3999023438</ele>
        <time>2013-03-02T10:08:38.000Z</time>
      </trkpt>
      <trkpt lat="45.26427" lon="6.16116">
        <ele>2671.3999023438</ele>
        <time>2013-03-02T10:08:43.000Z</time>
      </trkpt>
      <trkpt lat="45.26433" lon="6.16115">
        <ele>2670</ele>
        <time>2013-03-02T10:08:47.000Z</time>
      </trkpt>
      <trkpt lat="45.26435" lon="6.16119">
        <ele>2667.3999023438</ele>
        <time>2013-03-02T10:08:54.000Z</time>
      </trkpt>
      <trkpt lat="45.26436" lon="6.1612">
        <ele>2666.8000488281</ele>
        <time>2013-03-02T10:08:58.000Z</time>
      </trkpt>
      <trkpt lat="45.26438" lon="6.1613">
        <ele>2664.3999023438</ele>
        <time>2013-03-02T10:09:05.000Z</time>
      </trkpt>
      <trkpt lat="45.26438" lon="6.16131">
        <ele>2662.6000976562</ele>
        <time>2013-03-02T10:09:09.000Z</time>
      </trkpt>
      <trkpt lat="45.2644" lon="6.16132">
        <ele>2661.1999511719</ele>
        <time>2013-03-02T10:09:17.000Z</time>
      </trkpt>
      <trkpt lat="45.26441" lon="6.16135">
        <ele>2658.6000976562</ele>
        <time>2013-03-02T10:09:23.000Z</time>
      </trkpt>
      <trkpt lat="45.26443" lon="6.16136">
        <ele>2656.8000488281</ele>
        <time>2013-03-02T10:09:27.000Z</time>
      </trkpt>
      <trkpt lat="45.26444" lon="6.16133">
        <ele>2654</ele>
        <time>2013-03-02T10:09:34.000Z</time>
      </trkpt>
      <trkpt lat="45.26444" lon="6.1613">
        <ele>2651.1999511719</ele>
        <time>2013-03-02T10:09:56.000Z</time>
      </trkpt>
      <trkpt lat="45.26445" lon="6.1613">
        <ele>2648.8000488281</ele>
        <time>2013-03-02T10:10:03.000Z</time>
      </trkpt>
      <trkpt lat="45.26445" lon="6.1613">
        <ele>2648.3999023438</ele>
        <time>2013-03-02T10:10:05.000Z</time>
      </trkpt>
      <trkpt lat="45.26455" lon="6.16133">
        <ele>2645.1999511719</ele>
        <time>2013-03-02T10:10:12.000Z</time>
      </trkpt>
      <trkpt lat="45.2646" lon="6.16136">
        <ele>2642.1999511719</ele>
        <time>2013-03-02T10:10:16.000Z</time>
      </trkpt>
      <trkpt lat="45.26465" lon="6.16141">
        <ele>2639.1999511719</ele>
        <time>2013-03-02T10:12:24.000Z</time>
      </trkpt>
      <trkpt lat="45.2647" lon="6.1615">
        <ele>2637.8000488281</ele>
        <time>2013-03-02T10:12:28.000Z</time>
      </trkpt>
      <trkpt lat="45.26469" lon="6.1615">
        <ele>2635.8000488281</ele>
        <time>2013-03-02T10:12:33.000Z</time>
      </trkpt>
      <trkpt lat="45.26471" lon="6.16147">
        <ele>2634.1999511719</ele>
        <time>2013-03-02T10:12:38.000Z</time>
      </trkpt>
      <trkpt lat="45.26471" lon="6.16146">
        <ele>2633</ele>
        <time>2013-03-02T10:12:40.000Z</time>
      </trkpt>
      <trkpt lat="45.26477" lon="6.16151">
        <ele>2629.8000488281</ele>
        <time>2013-03-02T10:12:44.000Z</time>
      </trkpt>
      <trkpt lat="45.26478" lon="6.16152">
        <ele>2628.6000976562</ele>
        <time>2013-03-02T10:12:46.000Z</time>
      </trkpt>
      <trkpt lat="45.2648" lon="6.16144">
        <ele>2625.6000976562</ele>
        <time>2013-03-02T10:12:50.000Z</time>
      </trkpt>
      <trkpt lat="45.26481" lon="6.16144">
        <ele>2624.8000488281</ele>
        <time>2013-03-02T10:12:51.000Z</time>
      </trkpt>
      <trkpt lat="45.26486" lon="6.16146">
        <ele>2620.8000488281</ele>
        <time>2013-03-02T10:12:55.000Z</time>
      </trkpt>
      <trkpt lat="45.26487" lon="6.16141">
        <ele>2618</ele>
        <time>2013-03-02T10:12:59.000Z</time>
      </trkpt>
      <trkpt lat="45.26489" lon="6.1614">
        <ele>2615.8000488281</ele>
        <time>2013-03-02T10:13:03.000Z</time>
      </trkpt>
      <trkpt lat="45.26489" lon="6.1614">
        <ele>2614.3999023438</ele>
        <time>2013-03-02T10:13:05.000Z</time>
      </trkpt>
      <trkpt lat="45.26491" lon="6.16135">
        <ele>2612</ele>
        <time>2013-03-02T10:13:09.000Z</time>
      </trkpt>
      <trkpt lat="45.26491" lon="6.16135">
        <ele>2611.6000976562</ele>
        <time>2013-03-02T10:13:10.000Z</time>
      </trkpt>
      <trkpt lat="45.26493" lon="6.16129">
        <ele>2608.3999023438</ele>
        <time>2013-03-02T10:13:15.000Z</time>
      </trkpt>
      <trkpt lat="45.26491" lon="6.16118">
        <ele>2604.1999511719</ele>
        <time>2013-03-02T10:13:20.000Z</time>
      </trkpt>
      <trkpt lat="45.26491" lon="6.16118">
        <ele>2602.6000976562</ele>
        <time>2013-03-02T10:13:22.000Z</time>
      </trkpt>
      <trkpt lat="45.26493" lon="6.16117">
        <ele>2601.3999023438</ele>
        <time>2013-03-02T10:13:24.000Z</time>
      </trkpt>
      <trkpt lat="45.26495" lon="6.16119">
        <ele>2599.3999023438</ele>
        <time>2013-03-02T10:13:28.000Z</time>
      </trkpt>
      <trkpt lat="45.26499" lon="6.16115">
        <ele>2597.3999023438</ele>
        <time>2013-03-02T10:13:43.000Z</time>
      </trkpt>
      <trkpt lat="45.26499" lon="6.1611">
        <ele>2596.6000976562</ele>
        <time>2013-03-02T10:13:47.000Z</time>
      </trkpt>
      <trkpt lat="45.265" lon="6.16104">
        <ele>2593.3999023438</ele>
        <time>2013-03-02T10:13:52.000Z</time>
      </trkpt>
      <trkpt lat="45.26502" lon="6.16099">
        <ele>2592.6000976562</ele>
        <time>2013-03-02T10:13:54.000Z</time>
      </trkpt>
      <trkpt lat="45.2651" lon="6.16097">
        <ele>2587.8000488281</ele>
        <time>2013-03-02T10:13:59.000Z</time>
      </trkpt>
      <trkpt lat="45.26515" lon="6.16095">
        <ele>2583.3999023438</ele>
        <time>2013-03-02T10:14:03.000Z</time>
      </trkpt>
      <trkpt lat="45.26521" lon="6.16094">
        <ele>2580.1999511719</ele>
        <time>2013-03-02T10:14:06.000Z</time>
      </trkpt>
      <trkpt lat="45.26522" lon="6.16093">
        <ele>2579.1999511719</ele>
        <time>2013-03-02T10:14:07.000Z</time>
      </trkpt>
      <trkpt lat="45.26526" lon="6.16096">
        <ele>2575</ele>
        <time>2013-03-02T10:14:11.000Z</time>
      </trkpt>
      <trkpt lat="45.26525" lon="6.16095">
        <ele>2574.1999511719</ele>
        <time>2013-03-02T10:14:12.000Z</time>
      </trkpt>
      <trkpt lat="45.26529" lon="6.16093">
        <ele>2571.3999023438</ele>
        <time>2013-03-02T10:14:16.000Z</time>
      </trkpt>
      <trkpt lat="45.26534" lon="6.16094">
        <ele>2569.8000488281</ele>
        <time>2013-03-02T10:14:19.000Z</time>
      </trkpt>
      <trkpt lat="45.26535" lon="6.16097">
        <ele>2569</ele>
        <time>2013-03-02T10:14:20.000Z</time>
      </trkpt>
      <trkpt lat="45.26535" lon="6.16106">
        <ele>2566.3999023438</ele>
        <time>2013-03-02T10:14:23.000Z</time>
      </trkpt>
      <trkpt lat="45.26543" lon="6.16104">
        <ele>2562.1999511719</ele>
        <time>2013-03-02T10:14:28.000Z</time>
      </trkpt>
      <trkpt lat="45.26546" lon="6.16098">
        <ele>2558.3999023438</ele>
        <time>2013-03-02T10:14:31.000Z</time>
      </trkpt>
      <trkpt lat="45.26549" lon="6.16101">
        <ele>2554.3999023438</ele>
        <time>2013-03-02T10:14:34.000Z</time>
      </trkpt>
      <trkpt lat="45.26547" lon="6.16101">
        <ele>2552.1999511719</ele>
        <time>2013-03-02T10:14:36.000Z</time>
      </trkpt>
      <trkpt lat="45.26547" lon="6.16091">
        <ele>2549.8000488281</ele>
        <time>2013-03-02T10:14:40.000Z</time>
      </trkpt>
      <trkpt lat="45.26548" lon="6.16081">
        <ele>2548</ele>
        <time>2013-03-02T10:14:44.000Z</time>
      </trkpt>
      <trkpt lat="45.26548" lon="6.16074">
        <ele>2545</ele>
        <time>2013-03-02T10:14:49.000Z</time>
      </trkpt>
      <trkpt lat="45.26549" lon="6.16071">
        <ele>2543.3999023438</ele>
        <time>2013-03-02T10:14:58.000Z</time>
      </trkpt>
      <trkpt lat="45.2655" lon="6.16071">
        <ele>2543.1999511719</ele>
        <time>2013-03-02T10:14:59.000Z</time>
      </trkpt>
      <trkpt lat="45.26558" lon="6.16072">
        <ele>2541</ele>
        <time>2013-03-02T10:15:03.000Z</time>
      </trkpt>
      <trkpt lat="45.26562" lon="6.16073">
        <ele>2536.3999023438</ele>
        <time>2013-03-02T10:15:07.000Z</time>
      </trkpt>
      <trkpt lat="45.26562" lon="6.16071">
        <ele>2535.1999511719</ele>
        <time>2013-03-02T10:15:08.000Z</time>
      </trkpt>
      <trkpt lat="45.26565" lon="6.16071">
        <ele>2533.8000488281</ele>
        <time>2013-03-02T10:15:10.000Z</time>
      </trkpt>
      <trkpt lat="45.26571" lon="6.1608">
        <ele>2529.3999023438</ele>
        <time>2013-03-02T10:15:14.000Z</time>
      </trkpt>
      <trkpt lat="45.26578" lon="6.16094">
        <ele>2526</ele>
        <time>2013-03-02T10:15:18.000Z</time>
      </trkpt>
      <trkpt lat="45.26575" lon="6.16096">
        <ele>2523.8000488281</ele>
        <time>2013-03-02T10:15:24.000Z</time>
      </trkpt>
      <trkpt lat="45.26576" lon="6.16095">
        <ele>2523.6000976562</ele>
        <time>2013-03-02T10:15:27.000Z</time>
      </trkpt>
      <trkpt lat="45.26575" lon="6.16089">
        <ele>2520.3999023438</ele>
        <time>2013-03-02T10:15:33.000Z</time>
      </trkpt>
      <trkpt lat="45.26575" lon="6.16088">
        <ele>2519</ele>
        <time>2013-03-02T10:15:37.000Z</time>
      </trkpt>
      <trkpt lat="45.26581" lon="6.16082">
        <ele>2518.1999511719</ele>
        <time>2013-03-02T10:15:41.000Z</time>
      </trkpt>
      <trkpt lat="45.26585" lon="6.16077">
        <ele>2515.6000976562</ele>
        <time>2013-03-02T10:15:44.000Z</time>
      </trkpt>
      <trkpt lat="45.26594" lon="6.16083">
        <ele>2511.3999023438</ele>
        <time>2013-03-02T10:15:48.000Z</time>
      </trkpt>
      <trkpt lat="45.26598" lon="6.16077">
        <ele>2507.1999511719</ele>
        <time>2013-03-02T10:15:52.000Z</time>
      </trkpt>
      <trkpt lat="45.26601" lon="6.16076">
        <ele>2506.1999511719</ele>
        <time>2013-03-02T10:15:53.000Z</time>
      </trkpt>
      <trkpt lat="45.26608" lon="6.16063">
        <ele>2497.1999511719</ele>
        <time>2013-03-02T10:15:59.000Z</time>
      </trkpt>
      <trkpt lat="45.26607" lon="6.16062">
        <ele>2497.1999511719</ele>
        <time>2013-03-02T10:16:00.000Z</time>
      </trkpt>
      <trkpt lat="45.26605" lon="6.16062">
        <ele>2492.1999511719</ele>
        <time>2013-03-02T10:16:08.000Z</time>
      </trkpt>
      <trkpt lat="45.26608" lon="6.1606">
        <ele>2490.3999023438</ele>
        <time>2013-03-02T10:16:12.000Z</time>
      </trkpt>
      <trkpt lat="45.2661" lon="6.16055">
        <ele>2487.1999511719</ele>
        <time>2013-03-02T10:16:16.000Z</time>
      </trkpt>
      <trkpt lat="45.2661" lon="6.16053">
        <ele>2486.1999511719</ele>
        <time>2013-03-02T10:16:17.000Z</time>
      </trkpt>
      <trkpt lat="45.26624" lon="6.16046">
        <ele>2481.8000488281</ele>
        <time>2013-03-02T10:16:21.000Z</time>
      </trkpt>
      <trkpt lat="45.26641" lon="6.16046">
        <ele>2475.3999023438</ele>
        <time>2013-03-02T10:16:26.000Z</time>
      </trkpt>
      <trkpt lat="45.26649" lon="6.16043">
        <ele>2469.1999511719</ele>
        <time>2013-03-02T10:16:29.000Z</time>
      </trkpt>
      <trkpt lat="45.26649" lon="6.16032">
        <ele>2462.1999511719</ele>
        <time>2013-03-02T10:16:32.000Z</time>
      </trkpt>
      <trkpt lat="45.26646" lon="6.16035">
        <ele>2455</ele>
        <time>2013-03-02T10:18:14.000Z</time>
      </trkpt>
      <trkpt lat="45.26652" lon="6.16039">
        <ele>2454.1999511719</ele>
        <time>2013-03-02T10:18:17.000Z</time>
      </trkpt>
      <trkpt lat="45.26663" lon="6.16033">
        <ele>2450.1999511719</ele>
        <time>2013-03-02T10:18:21.000Z</time>
      </trkpt>
      <trkpt lat="45.26676" lon="6.1603">
        <ele>2444.8000488281</ele>
        <time>2013-03-02T10:18:24.000Z</time>
      </trkpt>
      <trkpt lat="45.26685" lon="6.16029">
        <ele>2440.1999511719</ele>
        <time>2013-03-02T10:18:26.000Z</time>
      </trkpt>
      <trkpt lat="45.26705" lon="6.16028">
        <ele>2427.1999511719</ele>
        <time>2013-03-02T10:18:31.000Z</time>
      </trkpt>
      <trkpt lat="45.26716" lon="6.16029">
        <ele>2424.1999511719</ele>
        <time>2013-03-02T10:18:33.000Z</time>
      </trkpt>
      <trkpt lat="45.26726" lon="6.16026">
        <ele>2414.8000488281</ele>
        <time>2013-03-02T10:18:36.000Z</time>
      </trkpt>
      <trkpt lat="45.26741" lon="6.16024">
        <ele>2405.3999023438</ele>
        <time>2013-03-02T10:18:39.000Z</time>
      </trkpt>
      <trkpt lat="45.26753" lon="6.16027">
        <ele>2396.3999023438</ele>
        <time>2013-03-02T10:18:42.000Z</time>
      </trkpt>
      <trkpt lat="45.26753" lon="6.1601">
        <ele>2391.1999511719</ele>
        <time>2013-03-02T10:18:44.000Z</time>
      </trkpt>
      <trkpt lat="45.26758" lon="6.16001">
        <ele>2384.1999511719</ele>
        <time>2013-03-02T10:18:47.000Z</time>
      </trkpt>
      <trkpt lat="45.26762" lon="6.15977">
        <ele>2375.6000976562</ele>
        <time>2013-03-02T10:18:51.000Z</time>
      </trkpt>
      <trkpt lat="45.26764" lon="6.15971">
        <ele>2370</ele>
        <time>2013-03-02T10:18:54.000Z</time>
      </trkpt>
      <trkpt lat="45.26764" lon="6.15972">
        <ele>2366.6000976562</ele>
        <time>2013-03-02T10:18:58.000Z</time>
      </trkpt>
      <trkpt lat="45.26769" lon="6.15972">
        <ele>2366</ele>
        <time>2013-03-02T10:19:20.000Z</time>
      </trkpt>
      <trkpt lat="45.2677" lon="6.15961">
        <ele>2365.6000976562</ele>
        <time>2013-03-02T10:19:24.000Z</time>
      </trkpt>
      <trkpt lat="45.26775" lon="6.15947">
        <ele>2364.3999023438</ele>
        <time>2013-03-02T10:19:27.000Z</time>
      </trkpt>
      <trkpt lat="45.26792" lon="6.15942">
        <ele>2360.3999023438</ele>
        <time>2013-03-02T10:19:31.000Z</time>
      </trkpt>
      <trkpt lat="45.26813" lon="6.15938">
        <ele>2354.8000488281</ele>
        <time>2013-03-02T10:19:34.000Z</time>
      </trkpt>
      <trkpt lat="45.2684" lon="6.15932">
        <ele>2343.1999511719</ele>
        <time>2013-03-02T10:19:38.000Z</time>
      </trkpt>
      <trkpt lat="45.26846" lon="6.15932">
        <ele>2340</ele>
        <time>2013-03-02T10:19:39.000Z</time>
      </trkpt>
      <trkpt lat="45.26869" lon="6.15925">
        <ele>2324</ele>
        <time>2013-03-02T10:19:44.000Z</time>
      </trkpt>
      <trkpt lat="45.26871" lon="6.15941">
        <ele>2315.6000976562</ele>
        <time>2013-03-02T10:19:47.000Z</time>
      </trkpt>
      <trkpt lat="45.26875" lon="6.15953">
        <ele>2313.1999511719</ele>
        <time>2013-03-02T10:19:49.000Z</time>
      </trkpt>
      <trkpt lat="45.2688" lon="6.1596">
        <ele>2305.6000976562</ele>
        <time>2013-03-02T10:19:52.000Z</time>
      </trkpt>
      <trkpt lat="45.26895" lon="6.15959">
        <ele>2297.1999511719</ele>
        <time>2013-03-02T10:19:55.000Z</time>
      </trkpt>
      <trkpt lat="45.26904" lon="6.15962">
        <ele>2288.6000976562</ele>
        <time>2013-03-02T10:19:58.000Z</time>
      </trkpt>
      <trkpt lat="45.26904" lon="6.15961">
        <ele>2283.8000488281</ele>
        <time>2013-03-02T10:20:00.000Z</time>
      </trkpt>
      <trkpt lat="45.26903" lon="6.15959">
        <ele>2278.8000488281</ele>
        <time>2013-03-02T10:20:08.000Z</time>
      </trkpt>
      <trkpt lat="45.26904" lon="6.15962">
        <ele>2278.8000488281</ele>
        <time>2013-03-02T10:20:19.000Z</time>
      </trkpt>
      <trkpt lat="45.26901" lon="6.1596">
        <ele>2278.8000488281</ele>
        <time>2013-03-02T10:20:41.000Z</time>
      </trkpt>
      <trkpt lat="45.26902" lon="6.15958">
        <ele>2278.3999023438</ele>
        <time>2013-03-02T10:20:55.000Z</time>
      </trkpt>
      <trkpt lat="45.26902" lon="6.15958">
        <ele>2278.1999511719</ele>
        <time>2013-03-02T10:20:58.000Z</time>
      </trkpt>
      <trkpt lat="45.26907" lon="6.15966">
        <ele>2277</ele>
        <time>2013-03-02T10:21:02.000Z</time>
      </trkpt>
      <trkpt lat="45.26908" lon="6.15979">
        <ele>2275.3999023438</ele>
        <time>2013-03-02T10:21:06.000Z</time>
      </trkpt>
      <trkpt lat="45.26916" lon="6.15987">
        <ele>2272.8000488281</ele>
        <time>2013-03-02T10:21:09.000Z</time>
      </trkpt>
      <trkpt lat="45.26924" lon="6.15978">
        <ele>2268.6000976562</ele>
        <time>2013-03-02T10:21:12.000Z</time>
      </trkpt>
      <trkpt lat="45.26927" lon="6.15973">
        <ele>2263</ele>
        <time>2013-03-02T10:21:16.000Z</time>
      </trkpt>
      <trkpt lat="45.26929" lon="6.15955">
        <ele>2258.6000976562</ele>
        <time>2013-03-02T10:21:21.000Z</time>
      </trkpt>
      <trkpt lat="45.2693" lon="6.1595">
        <ele>2257.8000488281</ele>
        <time>2013-03-02T10:21:22.000Z</time>
      </trkpt>
      <trkpt lat="45.26944" lon="6.1594">
        <ele>2252.8000488281</ele>
        <time>2013-03-02T10:21:26.000Z</time>
      </trkpt>
      <trkpt lat="45.26951" lon="6.15936">
        <ele>2249.1999511719</ele>
        <time>2013-03-02T10:21:30.000Z</time>
      </trkpt>
      <trkpt lat="45.2695" lon="6.15936">
        <ele>2245.8000488281</ele>
        <time>2013-03-02T10:21:34.000Z</time>
      </trkpt>
      <trkpt lat="45.26957" lon="6.15939">
        <ele>2243.3999023438</ele>
        <time>2013-03-02T10:21:39.000Z</time>
      </trkpt>
      <trkpt lat="45.2696" lon="6.15939">
        <ele>2242.8000488281</ele>
        <time>2013-03-02T10:21:40.000Z</time>
      </trkpt>
      <trkpt lat="45.26975" lon="6.15942">
        <ele>2233.6000976562</ele>
        <time>2013-03-02T10:21:46.000Z</time>
      </trkpt>
      <trkpt lat="45.26987" lon="6.15948">
        <ele>2225.6000976562</ele>
        <time>2013-03-02T10:21:50.000Z</time>
      </trkpt>
      <trkpt lat="45.26998" lon="6.15958">
        <ele>2217.8000488281</ele>
        <time>2013-03-02T10:21:53.000Z</time>
      </trkpt>
      <trkpt lat="45.2701" lon="6.15964">
        <ele>2209.6000976562</ele>
        <time>2013-03-02T10:21:57.000Z</time>
      </trkpt>
      <trkpt lat="45.27017" lon="6.15974">
        <ele>2200.6000976562</ele>
        <time>2013-03-02T10:22:00.000Z</time>
      </trkpt>
      <trkpt lat="45.27021" lon="6.15973">
        <ele>2191.1999511719</ele>
        <time>2013-03-02T10:22:04.000Z</time>
      </trkpt>
      <trkpt lat="45.27021" lon="6.15973">
        <ele>2189</ele>
        <time>2013-03-02T10:22:05.000Z</time>
      </trkpt>
      <trkpt lat="45.27017" lon="6.15973">
        <ele>2184</ele>
        <time>2013-03-02T10:22:11.000Z</time>
      </trkpt>
      <trkpt lat="45.27011" lon="6.1597">
        <ele>2183.8000488281</ele>
        <time>2013-03-02T10:22:18.000Z</time>
      </trkpt>
      <trkpt lat="45.27016" lon="6.15973">
        <ele>2183.3999023438</ele>
        <time>2013-03-02T10:22:28.000Z</time>
      </trkpt>
      <trkpt lat="45.27027" lon="6.15981">
        <ele>2183.8000488281</ele>
        <time>2013-03-02T10:22:41.000Z</time>
      </trkpt>
      <trkpt lat="45.27022" lon="6.15978">
        <ele>2183.6000976562</ele>
        <time>2013-03-02T10:22:51.000Z</time>
      </trkpt>
      <trkpt lat="45.27027" lon="6.15977">
        <ele>2183.6000976562</ele>
        <time>2013-03-02T10:23:57.000Z</time>
      </trkpt>
      <trkpt lat="45.2703" lon="6.15978">
        <ele>2183.3999023438</ele>
        <time>2013-03-02T10:24:00.000Z</time>
      </trkpt>
      <trkpt lat="45.27032" lon="6.15977">
        <ele>2183.3999023438</ele>
        <time>2013-03-02T10:24:02.000Z</time>
      </trkpt>
      <trkpt lat="45.2704" lon="6.15984">
        <ele>2182</ele>
        <time>2013-03-02T10:24:06.000Z</time>
      </trkpt>
      <trkpt lat="45.27047" lon="6.15992">
        <ele>2176.1999511719</ele>
        <time>2013-03-02T10:24:10.000Z</time>
      </trkpt>
      <trkpt lat="45.27055" lon="6.16">
        <ele>2169.1999511719</ele>
        <time>2013-03-02T10:24:13.000Z</time>
      </trkpt>
      <trkpt lat="45.27055" lon="6.16004">
        <ele>2166.8000488281</ele>
        <time>2013-03-02T10:24:14.000Z</time>
      </trkpt>
      <trkpt lat="45.27064" lon="6.16006">
        <ele>2155.6000976562</ele>
        <time>2013-03-02T10:24:18.000Z</time>
      </trkpt>
      <trkpt lat="45.2706" lon="6.16008">
        <ele>2151</ele>
        <time>2013-03-02T10:24:20.000Z</time>
      </trkpt>
      <trkpt lat="45.2706" lon="6.16018">
        <ele>2145</ele>
        <time>2013-03-02T10:24:25.000Z</time>
      </trkpt>
      <trkpt lat="45.27071" lon="6.16011">
        <ele>2143.8000488281</ele>
        <time>2013-03-02T10:24:27.000Z</time>
      </trkpt>
      <trkpt lat="45.27077" lon="6.1601">
        <ele>2140</ele>
        <time>2013-03-02T10:24:30.000Z</time>
      </trkpt>
      <trkpt lat="45.27093" lon="6.16007">
        <ele>2134.3999023438</ele>
        <time>2013-03-02T10:24:33.000Z</time>
      </trkpt>
      <trkpt lat="45.27098" lon="6.16007">
        <ele>2129</ele>
        <time>2013-03-02T10:24:36.000Z</time>
      </trkpt>
      <trkpt lat="45.27105" lon="6.16006">
        <ele>2123</ele>
        <time>2013-03-02T10:24:39.000Z</time>
      </trkpt>
      <trkpt lat="45.27117" lon="6.1601">
        <ele>2117.1999511719</ele>
        <time>2013-03-02T10:24:42.000Z</time>
      </trkpt>
      <trkpt lat="45.27129" lon="6.16014">
        <ele>2110.6000976562</ele>
        <time>2013-03-02T10:24:45.000Z</time>
      </trkpt>
      <trkpt lat="45.27133" lon="6.16013">
        <ele>2103.6000976562</ele>
        <time>2013-03-02T10:24:48.000Z</time>
      </trkpt>
      <trkpt lat="45.27132" lon="6.16019">
        <ele>2098.6000976562</ele>
        <time>2013-03-02T10:24:52.000Z</time>
      </trkpt>
      <trkpt lat="45.27128" lon="6.1602">
        <ele>2095.6000976562</ele>
        <time>2013-03-02T10:24:56.000Z</time>
      </trkpt>
      <trkpt lat="45.27128" lon="6.16016">
        <ele>2094.6000976562</ele>
        <time>2013-03-02T10:25:51.000Z</time>
      </trkpt>
      <trkpt lat="45.27137" lon="6.16009">
        <ele>2093.3999023438</ele>
        <time>2013-03-02T10:25:55.000Z</time>
      </trkpt>
      <trkpt lat="45.27148" lon="6.16004">
        <ele>2090.3999023438</ele>
        <time>2013-03-02T10:25:58.000Z</time>
      </trkpt>
      <trkpt lat="45.27165" lon="6.16001">
        <ele>2084.3999023438</ele>
        <time>2013-03-02T10:26:01.000Z</time>
      </trkpt>
      <trkpt lat="45.27178" lon="6.15999">
        <ele>2077.3999023438</ele>
        <time>2013-03-02T10:26:04.000Z</time>
      </trkpt>
      <trkpt lat="45.27186" lon="6.15997">
        <ele>2072.8000488281</ele>
        <time>2013-03-02T10:26:06.000Z</time>
      </trkpt>
      <trkpt lat="45.27207" lon="6.15991">
        <ele>2063.6000976562</ele>
        <time>2013-03-02T10:26:11.000Z</time>
      </trkpt>
      <trkpt lat="45.27215" lon="6.1599">
        <ele>2058.8000488281</ele>
        <time>2013-03-02T10:26:13.000Z</time>
      </trkpt>
      <trkpt lat="45.2723" lon="6.15981">
        <ele>2050.1999511719</ele>
        <time>2013-03-02T10:26:16.000Z</time>
      </trkpt>
      <trkpt lat="45.27236" lon="6.1597">
        <ele>2040.8000488281</ele>
        <time>2013-03-02T10:26:19.000Z</time>
      </trkpt>
      <trkpt lat="45.27259" lon="6.15965">
        <ele>2027.5999755859</ele>
        <time>2013-03-02T10:26:23.000Z</time>
      </trkpt>
      <trkpt lat="45.27267" lon="6.15961">
        <ele>2024.1999511719</ele>
        <time>2013-03-02T10:26:24.000Z</time>
      </trkpt>
      <trkpt lat="45.27281" lon="6.15954">
        <ele>2017</ele>
        <time>2013-03-02T10:26:26.000Z</time>
      </trkpt>
      <trkpt lat="45.27299" lon="6.15948">
        <ele>2002.1999511719</ele>
        <time>2013-03-02T10:26:30.000Z</time>
      </trkpt>
      <trkpt lat="45.273" lon="6.15946">
        <ele>1996.5999755859</ele>
        <time>2013-03-02T10:26:32.000Z</time>
      </trkpt>
      <trkpt lat="45.273" lon="6.15944">
        <ele>1994.5999755859</ele>
        <time>2013-03-02T10:26:34.000Z</time>
      </trkpt>
      <trkpt lat="45.273" lon="6.15944">
        <ele>1993.1999511719</ele>
        <time>2013-03-02T10:26:35.000Z</time>
      </trkpt>
      <trkpt lat="45.27314" lon="6.15941">
        <ele>1989</ele>
        <time>2013-03-02T10:26:40.000Z</time>
      </trkpt>
      <trkpt lat="45.2734" lon="6.15929">
        <ele>1981.4000244141</ele>
        <time>2013-03-02T10:26:44.000Z</time>
      </trkpt>
      <trkpt lat="45.27364" lon="6.15929">
        <ele>1972.5999755859</ele>
        <time>2013-03-02T10:26:47.000Z</time>
      </trkpt>
      <trkpt lat="45.27377" lon="6.1592">
        <ele>1966.4000244141</ele>
        <time>2013-03-02T10:26:49.000Z</time>
      </trkpt>
      <trkpt lat="45.2741" lon="6.15901">
        <ele>1951.1999511719</ele>
        <time>2013-03-02T10:26:54.000Z</time>
      </trkpt>
      <trkpt lat="45.27411" lon="6.15896">
        <ele>1946.4000244141</ele>
        <time>2013-03-02T10:26:56.000Z</time>
      </trkpt>
      <trkpt lat="45.27408" lon="6.15897">
        <ele>1943</ele>
        <time>2013-03-02T10:26:59.000Z</time>
      </trkpt>
      <trkpt lat="45.27402" lon="6.15901">
        <ele>1941</ele>
        <time>2013-03-02T10:27:09.000Z</time>
      </trkpt>
      <trkpt lat="45.27412" lon="6.15897">
        <ele>1940.1999511719</ele>
        <time>2013-03-02T10:29:18.000Z</time>
      </trkpt>
      <trkpt lat="45.27415" lon="6.15892">
        <ele>1940</ele>
        <time>2013-03-02T10:29:24.000Z</time>
      </trkpt>
      <trkpt lat="45.27417" lon="6.15887">
        <ele>1939.4000244141</ele>
        <time>2013-03-02T10:29:36.000Z</time>
      </trkpt>
      <trkpt lat="45.2742" lon="6.15885">
        <ele>1939.1999511719</ele>
        <time>2013-03-02T10:29:42.000Z</time>
      </trkpt>
      <trkpt lat="45.27422" lon="6.15882">
        <ele>1939</ele>
        <time>2013-03-02T10:29:47.000Z</time>
      </trkpt>
      <trkpt lat="45.27428" lon="6.15878">
        <ele>1938.8000488281</ele>
        <time>2013-03-02T10:29:54.000Z</time>
      </trkpt>
      <trkpt lat="45.27434" lon="6.15876">
        <ele>1938.8000488281</ele>
        <time>2013-03-02T10:30:00.000Z</time>
      </trkpt>
      <trkpt lat="45.27437" lon="6.15871">
        <ele>1938.8000488281</ele>
        <time>2013-03-02T10:30:07.000Z</time>
      </trkpt>
      <trkpt lat="45.27436" lon="6.15869">
        <ele>1939</ele>
        <time>2013-03-02T10:30:14.000Z</time>
      </trkpt>
      <trkpt lat="45.27435" lon="6.15865">
        <ele>1940.4000244141</ele>
        <time>2013-03-02T10:36:17.000Z</time>
      </trkpt>
      <trkpt lat="45.27435" lon="6.15866">
        <ele>1940.4000244141</ele>
        <time>2013-03-02T10:36:29.000Z</time>
      </trkpt>
      <trkpt lat="45.27433" lon="6.15863">
        <ele>1940.4000244141</ele>
        <time>2013-03-02T10:36:44.000Z</time>
      </trkpt>
      <trkpt lat="45.27433" lon="6.15865">
        <ele>1940.8000488281</ele>
        <time>2013-03-02T10:36:55.000Z</time>
      </trkpt>
      <trkpt lat="45.27444" lon="6.15867">
        <ele>1941.4000244141</ele>
        <time>2013-03-02T10:37:41.000Z</time>
      </trkpt>
      <trkpt lat="45.27447" lon="6.15872">
        <ele>1941.4000244141</ele>
        <time>2013-03-02T10:37:47.000Z</time>
      </trkpt>
      <trkpt lat="45.27445" lon="6.1587">
        <ele>1941.5999755859</ele>
        <time>2013-03-02T10:37:50.000Z</time>
      </trkpt>
      <trkpt lat="45.27439" lon="6.15868">
        <ele>1941.4000244141</ele>
        <time>2013-03-02T10:37:58.000Z</time>
      </trkpt>
      <trkpt lat="45.27445" lon="6.15869">
        <ele>1941.5999755859</ele>
        <time>2013-03-02T10:38:12.000Z</time>
      </trkpt>
      <trkpt lat="45.27448" lon="6.15874">
        <ele>1941.1999511719</ele>
        <time>2013-03-02T10:38:20.000Z</time>
      </trkpt>
      <trkpt lat="45.27434" lon="6.15868">
        <ele>1941.5999755859</ele>
        <time>2013-03-02T10:38:46.000Z</time>
      </trkpt>
      <trkpt lat="45.27435" lon="6.15865">
        <ele>1942.1999511719</ele>
        <time>2013-03-02T10:38:53.000Z</time>
      </trkpt>
      <trkpt lat="45.27442" lon="6.15863">
        <ele>1942.8000488281</ele>
        <time>2013-03-02T10:39:47.000Z</time>
      </trkpt>
      <trkpt lat="45.27442" lon="6.15862">
        <ele>1943.8000488281</ele>
        <time>2013-03-02T10:39:54.000Z</time>
      </trkpt>
      <trkpt lat="45.27442" lon="6.15858">
        <ele>1944.1999511719</ele>
        <time>2013-03-02T10:39:59.000Z</time>
      </trkpt>
      <trkpt lat="45.27439" lon="6.15848">
        <ele>1945.1999511719</ele>
        <time>2013-03-02T10:40:09.000Z</time>
      </trkpt>
      <trkpt lat="45.27437" lon="6.15844">
        <ele>1946.1999511719</ele>
        <time>2013-03-02T10:40:15.000Z</time>
      </trkpt>
      <trkpt lat="45.27435" lon="6.1584">
        <ele>1946.8000488281</ele>
        <time>2013-03-02T10:40:20.000Z</time>
      </trkpt>
      <trkpt lat="45.27432" lon="6.15836">
        <ele>1947.5999755859</ele>
        <time>2013-03-02T10:40:24.000Z</time>
      </trkpt>
      <trkpt lat="45.27431" lon="6.15831">
        <ele>1948.5999755859</ele>
        <time>2013-03-02T10:40:29.000Z</time>
      </trkpt>
      <trkpt lat="45.27424" lon="6.15829">
        <ele>1949</ele>
        <time>2013-03-02T10:40:33.000Z</time>
      </trkpt>
      <trkpt lat="45.27416" lon="6.1582">
        <ele>1949.1999511719</ele>
        <time>2013-03-02T10:40:39.000Z</time>
      </trkpt>
      <trkpt lat="45.27419" lon="6.15817">
        <ele>1949.8000488281</ele>
        <time>2013-03-02T10:40:42.000Z</time>
      </trkpt>
      <trkpt lat="45.27416" lon="6.15811">
        <ele>1951</ele>
        <time>2013-03-02T10:40:47.000Z</time>
      </trkpt>
      <trkpt lat="45.27414" lon="6.15806">
        <ele>1951.5999755859</ele>
        <time>2013-03-02T10:40:53.000Z</time>
      </trkpt>
      <trkpt lat="45.27412" lon="6.15803">
        <ele>1952</ele>
        <time>2013-03-02T10:40:57.000Z</time>
      </trkpt>
      <trkpt lat="45.27413" lon="6.158">
        <ele>1952.5999755859</ele>
        <time>2013-03-02T10:41:01.000Z</time>
      </trkpt>
      <trkpt lat="45.27415" lon="6.15795">
        <ele>1953.4000244141</ele>
        <time>2013-03-02T10:41:07.000Z</time>
      </trkpt>
      <trkpt lat="45.27415" lon="6.1579">
        <ele>1953.8000488281</ele>
        <time>2013-03-02T10:41:12.000Z</time>
      </trkpt>
      <trkpt lat="45.27415" lon="6.15785">
        <ele>1954.4000244141</ele>
        <time>2013-03-02T10:41:18.000Z</time>
      </trkpt>
      <trkpt lat="45.27416" lon="6.15784">
        <ele>1954.4000244141</ele>
        <time>2013-03-02T10:41:19.000Z</time>
      </trkpt>
      <trkpt lat="45.27413" lon="6.15776">
        <ele>1955.5999755859</ele>
        <time>2013-03-02T10:41:27.000Z</time>
      </trkpt>
      <trkpt lat="45.27411" lon="6.1577">
        <ele>1956.8000488281</ele>
        <time>2013-03-02T10:41:34.000Z</time>
      </trkpt>
      <trkpt lat="45.27409" lon="6.15764">
        <ele>1957.5999755859</ele>
        <time>2013-03-02T10:41:40.000Z</time>
      </trkpt>
      <trkpt lat="45.27411" lon="6.15761">
        <ele>1958.1999511719</ele>
        <time>2013-03-02T10:41:44.000Z</time>
      </trkpt>
      <trkpt lat="45.2741" lon="6.15757">
        <ele>1958.8000488281</ele>
        <time>2013-03-02T10:41:48.000Z</time>
      </trkpt>
      <trkpt lat="45.2741" lon="6.15753">
        <ele>1959.5999755859</ele>
        <time>2013-03-02T10:41:53.000Z</time>
      </trkpt>
      <trkpt lat="45.27409" lon="6.15752">
        <ele>1959.5999755859</ele>
        <time>2013-03-02T10:41:54.000Z</time>
      </trkpt>
      <trkpt lat="45.27408" lon="6.15747">
        <ele>1960.4000244141</ele>
        <time>2013-03-02T10:41:59.000Z</time>
      </trkpt>
      <trkpt lat="45.27407" lon="6.15742">
        <ele>1961.4000244141</ele>
        <time>2013-03-02T10:42:04.000Z</time>
      </trkpt>
      <trkpt lat="45.27407" lon="6.15739">
        <ele>1961.8000488281</ele>
        <time>2013-03-02T10:42:07.000Z</time>
      </trkpt>
      <trkpt lat="45.27406" lon="6.15733">
        <ele>1962.5999755859</ele>
        <time>2013-03-02T10:42:12.000Z</time>
      </trkpt>
      <trkpt lat="45.27405" lon="6.15731">
        <ele>1963</ele>
        <time>2013-03-02T10:42:14.000Z</time>
      </trkpt>
      <trkpt lat="45.274" lon="6.15726">
        <ele>1963.8000488281</ele>
        <time>2013-03-02T10:42:19.000Z</time>
      </trkpt>
      <trkpt lat="45.27396" lon="6.1572">
        <ele>1964.8000488281</ele>
        <time>2013-03-02T10:42:25.000Z</time>
      </trkpt>
      <trkpt lat="45.27393" lon="6.15713">
        <ele>1966.1999511719</ele>
        <time>2013-03-02T10:42:31.000Z</time>
      </trkpt>
      <trkpt lat="45.27391" lon="6.15711">
        <ele>1967</ele>
        <time>2013-03-02T10:42:34.000Z</time>
      </trkpt>
      <trkpt lat="45.27391" lon="6.15708">
        <ele>1967.4000244141</ele>
        <time>2013-03-02T10:42:37.000Z</time>
      </trkpt>
      <trkpt lat="45.27392" lon="6.15706">
        <ele>1967.8000488281</ele>
        <time>2013-03-02T10:42:40.000Z</time>
      </trkpt>
      <trkpt lat="45.27394" lon="6.15701">
        <ele>1968.8000488281</ele>
        <time>2013-03-02T10:42:46.000Z</time>
      </trkpt>
      <trkpt lat="45.2739" lon="6.15695">
        <ele>1970</ele>
        <time>2013-03-02T10:42:52.000Z</time>
      </trkpt>
      <trkpt lat="45.27391" lon="6.15692">
        <ele>1971</ele>
        <time>2013-03-02T10:42:57.000Z</time>
      </trkpt>
      <trkpt lat="45.27388" lon="6.15687">
        <ele>1971.8000488281</ele>
        <time>2013-03-02T10:43:02.000Z</time>
      </trkpt>
      <trkpt lat="45.27392" lon="6.15683">
        <ele>1973</ele>
        <time>2013-03-02T10:43:08.000Z</time>
      </trkpt>
      <trkpt lat="45.27392" lon="6.15676">
        <ele>1974.4000244141</ele>
        <time>2013-03-02T10:43:15.000Z</time>
      </trkpt>
      <trkpt lat="45.2739" lon="6.15671">
        <ele>1976</ele>
        <time>2013-03-02T10:43:21.000Z</time>
      </trkpt>
      <trkpt lat="45.27387" lon="6.15665">
        <ele>1977</ele>
        <time>2013-03-02T10:43:27.000Z</time>
      </trkpt>
      <trkpt lat="45.27386" lon="6.1566">
        <ele>1978.4000244141</ele>
        <time>2013-03-02T10:43:34.000Z</time>
      </trkpt>
      <trkpt lat="45.27386" lon="6.15657">
        <ele>1979</ele>
        <time>2013-03-02T10:43:38.000Z</time>
      </trkpt>
      <trkpt lat="45.27385" lon="6.15653">
        <ele>1980.1999511719</ele>
        <time>2013-03-02T10:43:43.000Z</time>
      </trkpt>
      <trkpt lat="45.27384" lon="6.15648">
        <ele>1981.4000244141</ele>
        <time>2013-03-02T10:43:49.000Z</time>
      </trkpt>
      <trkpt lat="45.27384" lon="6.15646">
        <ele>1982.4000244141</ele>
        <time>2013-03-02T10:43:59.000Z</time>
      </trkpt>
      <trkpt lat="45.27387" lon="6.15644">
        <ele>1983</ele>
        <time>2013-03-02T10:44:03.000Z</time>
      </trkpt>
      <trkpt lat="45.27391" lon="6.15637">
        <ele>1985.8000488281</ele>
        <time>2013-03-02T10:44:14.000Z</time>
      </trkpt>
      <trkpt lat="45.27393" lon="6.15633">
        <ele>1987</ele>
        <time>2013-03-02T10:44:20.000Z</time>
      </trkpt>
      <trkpt lat="45.27395" lon="6.15627">
        <ele>1988.5999755859</ele>
        <time>2013-03-02T10:44:27.000Z</time>
      </trkpt>
      <trkpt lat="45.27387" lon="6.15622">
        <ele>1990.4000244141</ele>
        <time>2013-03-02T10:44:36.000Z</time>
      </trkpt>
      <trkpt lat="45.27386" lon="6.15622">
        <ele>1990.5999755859</ele>
        <time>2013-03-02T10:44:37.000Z</time>
      </trkpt>
      <trkpt lat="45.27377" lon="6.1562">
        <ele>1991.4000244141</ele>
        <time>2013-03-02T10:44:43.000Z</time>
      </trkpt>
      <trkpt lat="45.27377" lon="6.15618">
        <ele>1992.5999755859</ele>
        <time>2013-03-02T10:44:49.000Z</time>
      </trkpt>
      <trkpt lat="45.2738" lon="6.15614">
        <ele>1993.8000488281</ele>
        <time>2013-03-02T10:44:55.000Z</time>
      </trkpt>
      <trkpt lat="45.27382" lon="6.1561">
        <ele>1994.8000488281</ele>
        <time>2013-03-02T10:45:01.000Z</time>
      </trkpt>
      <trkpt lat="45.2738" lon="6.1561">
        <ele>1995.5999755859</ele>
        <time>2013-03-02T10:45:06.000Z</time>
      </trkpt>
      <trkpt lat="45.27376" lon="6.15609">
        <ele>1996.1999511719</ele>
        <time>2013-03-02T10:45:11.000Z</time>
      </trkpt>
      <trkpt lat="45.27373" lon="6.15609">
        <ele>1997</ele>
        <time>2013-03-02T10:45:16.000Z</time>
      </trkpt>
      <trkpt lat="45.27371" lon="6.15608">
        <ele>1998.1999511719</ele>
        <time>2013-03-02T10:45:22.000Z</time>
      </trkpt>
      <trkpt lat="45.27369" lon="6.15608">
        <ele>1999</ele>
        <time>2013-03-02T10:45:26.000Z</time>
      </trkpt>
      <trkpt lat="45.27364" lon="6.15607">
        <ele>2000.8000488281</ele>
        <time>2013-03-02T10:45:35.000Z</time>
      </trkpt>
      <trkpt lat="45.27372" lon="6.15608">
        <ele>2001.8000488281</ele>
        <time>2013-03-02T10:45:40.000Z</time>
      </trkpt>
      <trkpt lat="45.27372" lon="6.15602">
        <ele>2003</ele>
        <time>2013-03-02T10:45:47.000Z</time>
      </trkpt>
      <trkpt lat="45.2737" lon="6.15596">
        <ele>2003.8000488281</ele>
        <time>2013-03-02T10:45:53.000Z</time>
      </trkpt>
      <trkpt lat="45.27368" lon="6.1559">
        <ele>2004.5999755859</ele>
        <time>2013-03-02T10:45:59.000Z</time>
      </trkpt>
      <trkpt lat="45.27369" lon="6.15586">
        <ele>2005.5999755859</ele>
        <time>2013-03-02T10:46:04.000Z</time>
      </trkpt>
      <trkpt lat="45.27369" lon="6.1558">
        <ele>2006.8000488281</ele>
        <time>2013-03-02T10:46:10.000Z</time>
      </trkpt>
      <trkpt lat="45.27368" lon="6.15575">
        <ele>2007.5999755859</ele>
        <time>2013-03-02T10:46:15.000Z</time>
      </trkpt>
      <trkpt lat="45.27367" lon="6.15569">
        <ele>2008.4000244141</ele>
        <time>2013-03-02T10:46:20.000Z</time>
      </trkpt>
      <trkpt lat="45.27367" lon="6.15565">
        <ele>2008.8000488281</ele>
        <time>2013-03-02T10:46:24.000Z</time>
      </trkpt>
      <trkpt lat="45.2737" lon="6.15558">
        <ele>2009.5999755859</ele>
        <time>2013-03-02T10:46:30.000Z</time>
      </trkpt>
      <trkpt lat="45.2737" lon="6.15555">
        <ele>2009.8000488281</ele>
        <time>2013-03-02T10:46:32.000Z</time>
      </trkpt>
      <trkpt lat="45.27373" lon="6.15551">
        <ele>2010.1999511719</ele>
        <time>2013-03-02T10:46:36.000Z</time>
      </trkpt>
      <trkpt lat="45.27373" lon="6.15548">
        <ele>2010.5999755859</ele>
        <time>2013-03-02T10:46:38.000Z</time>
      </trkpt>
      <trkpt lat="45.27372" lon="6.15545">
        <ele>2011</ele>
        <time>2013-03-02T10:46:41.000Z</time>
      </trkpt>
      <trkpt lat="45.27371" lon="6.15542">
        <ele>2011.4000244141</ele>
        <time>2013-03-02T10:46:44.000Z</time>
      </trkpt>
      <trkpt lat="45.27372" lon="6.1554">
        <ele>2011.5999755859</ele>
        <time>2013-03-02T10:46:46.000Z</time>
      </trkpt>
      <trkpt lat="45.27372" lon="6.15537">
        <ele>2011.8000488281</ele>
        <time>2013-03-02T10:46:49.000Z</time>
      </trkpt>
      <trkpt lat="45.27371" lon="6.15532">
        <ele>2012.8000488281</ele>
        <time>2013-03-02T10:46:54.000Z</time>
      </trkpt>
      <trkpt lat="45.27371" lon="6.15531">
        <ele>2013</ele>
        <time>2013-03-02T10:46:55.000Z</time>
      </trkpt>
      <trkpt lat="45.27371" lon="6.15527">
        <ele>2013.8000488281</ele>
        <time>2013-03-02T10:47:00.000Z</time>
      </trkpt>
      <trkpt lat="45.27372" lon="6.15525">
        <ele>2014.4000244141</ele>
        <time>2013-03-02T10:47:03.000Z</time>
      </trkpt>
      <trkpt lat="45.27373" lon="6.15519">
        <ele>2015.5999755859</ele>
        <time>2013-03-02T10:47:09.000Z</time>
      </trkpt>
      <trkpt lat="45.27375" lon="6.15514">
        <ele>2016.4000244141</ele>
        <time>2013-03-02T10:47:15.000Z</time>
      </trkpt>
      <trkpt lat="45.27375" lon="6.15509">
        <ele>2017</ele>
        <time>2013-03-02T10:47:20.000Z</time>
      </trkpt>
      <trkpt lat="45.27378" lon="6.15503">
        <ele>2018.5999755859</ele>
        <time>2013-03-02T10:47:26.000Z</time>
      </trkpt>
      <trkpt lat="45.27377" lon="6.15497">
        <ele>2019.8000488281</ele>
        <time>2013-03-02T10:47:32.000Z</time>
      </trkpt>
      <trkpt lat="45.27378" lon="6.15492">
        <ele>2020.5999755859</ele>
        <time>2013-03-02T10:47:38.000Z</time>
      </trkpt>
      <trkpt lat="45.27378" lon="6.15486">
        <ele>2021.4000244141</ele>
        <time>2013-03-02T10:47:44.000Z</time>
      </trkpt>
      <trkpt lat="45.27379" lon="6.15483">
        <ele>2021.8000488281</ele>
        <time>2013-03-02T10:47:47.000Z</time>
      </trkpt>
      <trkpt lat="45.27379" lon="6.15481">
        <ele>2022.4000244141</ele>
        <time>2013-03-02T10:47:50.000Z</time>
      </trkpt>
      <trkpt lat="45.27381" lon="6.15476">
        <ele>2023.1999511719</ele>
        <time>2013-03-02T10:47:56.000Z</time>
      </trkpt>
      <trkpt lat="45.27382" lon="6.15472">
        <ele>2024</ele>
        <time>2013-03-02T10:48:00.000Z</time>
      </trkpt>
      <trkpt lat="45.27381" lon="6.15468">
        <ele>2024.5999755859</ele>
        <time>2013-03-02T10:48:03.000Z</time>
      </trkpt>
      <trkpt lat="45.27382" lon="6.15467">
        <ele>2024.8000488281</ele>
        <time>2013-03-02T10:48:05.000Z</time>
      </trkpt>
      <trkpt lat="45.27384" lon="6.15462">
        <ele>2025.8000488281</ele>
        <time>2013-03-02T10:48:10.000Z</time>
      </trkpt>
      <trkpt lat="45.27384" lon="6.15456">
        <ele>2026.1999511719</ele>
        <time>2013-03-02T10:48:15.000Z</time>
      </trkpt>
      <trkpt lat="45.27387" lon="6.15448">
        <ele>2027</ele>
        <time>2013-03-02T10:48:22.000Z</time>
      </trkpt>
      <trkpt lat="45.2739" lon="6.15445">
        <ele>2027.5999755859</ele>
        <time>2013-03-02T10:48:26.000Z</time>
      </trkpt>
      <trkpt lat="45.27388" lon="6.15437">
        <ele>2028.8000488281</ele>
        <time>2013-03-02T10:48:32.000Z</time>
      </trkpt>
      <trkpt lat="45.27386" lon="6.1543">
        <ele>2029.4000244141</ele>
        <time>2013-03-02T10:48:38.000Z</time>
      </trkpt>
      <trkpt lat="45.27384" lon="6.15425">
        <ele>2029.5999755859</ele>
        <time>2013-03-02T10:48:41.000Z</time>
      </trkpt>
      <trkpt lat="45.27383" lon="6.15421">
        <ele>2029.8000488281</ele>
        <time>2013-03-02T10:48:44.000Z</time>
      </trkpt>
      <trkpt lat="45.27379" lon="6.15415">
        <ele>2030.5999755859</ele>
        <time>2013-03-02T10:48:49.000Z</time>
      </trkpt>
      <trkpt lat="45.27378" lon="6.15414">
        <ele>2030.8000488281</ele>
        <time>2013-03-02T10:48:50.000Z</time>
      </trkpt>
      <trkpt lat="45.27375" lon="6.15406">
        <ele>2031.5999755859</ele>
        <time>2013-03-02T10:48:56.000Z</time>
      </trkpt>
      <trkpt lat="45.27372" lon="6.15401">
        <ele>2032.4000244141</ele>
        <time>2013-03-02T10:49:00.000Z</time>
      </trkpt>
      <trkpt lat="45.27374" lon="6.15398">
        <ele>2032.8000488281</ele>
        <time>2013-03-02T10:49:03.000Z</time>
      </trkpt>
      <trkpt lat="45.27372" lon="6.15391">
        <ele>2034</ele>
        <time>2013-03-02T10:49:08.000Z</time>
      </trkpt>
      <trkpt lat="45.27372" lon="6.15387">
        <ele>2034.5999755859</ele>
        <time>2013-03-02T10:49:12.000Z</time>
      </trkpt>
      <trkpt lat="45.2737" lon="6.1538">
        <ele>2035.4000244141</ele>
        <time>2013-03-02T10:49:17.000Z</time>
      </trkpt>
      <trkpt lat="45.2737" lon="6.15378">
        <ele>2035.8000488281</ele>
        <time>2013-03-02T10:49:19.000Z</time>
      </trkpt>
      <trkpt lat="45.27372" lon="6.1537">
        <ele>2036.8000488281</ele>
        <time>2013-03-02T10:49:26.000Z</time>
      </trkpt>
      <trkpt lat="45.27372" lon="6.15366">
        <ele>2036.8000488281</ele>
        <time>2013-03-02T10:49:29.000Z</time>
      </trkpt>
      <trkpt lat="45.2737" lon="6.1536">
        <ele>2037.4000244141</ele>
        <time>2013-03-02T10:49:35.000Z</time>
      </trkpt>
      <trkpt lat="45.27368" lon="6.15356">
        <ele>2038.8000488281</ele>
        <time>2013-03-02T10:49:39.000Z</time>
      </trkpt>
      <trkpt lat="45.27365" lon="6.15348">
        <ele>2040.1999511719</ele>
        <time>2013-03-02T10:49:45.000Z</time>
      </trkpt>
      <trkpt lat="45.27366" lon="6.15345">
        <ele>2041.5999755859</ele>
        <time>2013-03-02T10:49:51.000Z</time>
      </trkpt>
      <trkpt lat="45.27362" lon="6.15341">
        <ele>2042.1999511719</ele>
        <time>2013-03-02T10:49:55.000Z</time>
      </trkpt>
      <trkpt lat="45.27357" lon="6.15338">
        <ele>2042.8000488281</ele>
        <time>2013-03-02T10:49:59.000Z</time>
      </trkpt>
      <trkpt lat="45.27353" lon="6.15333">
        <ele>2043.8000488281</ele>
        <time>2013-03-02T10:50:04.000Z</time>
      </trkpt>
      <trkpt lat="45.27349" lon="6.15329">
        <ele>2045</ele>
        <time>2013-03-02T10:50:10.000Z</time>
      </trkpt>
      <trkpt lat="45.27347" lon="6.15326">
        <ele>2046</ele>
        <time>2013-03-02T10:50:14.000Z</time>
      </trkpt>
      <trkpt lat="45.27351" lon="6.15324">
        <ele>2046.8000488281</ele>
        <time>2013-03-02T10:50:19.000Z</time>
      </trkpt>
      <trkpt lat="45.27344" lon="6.15321">
        <ele>2047.8000488281</ele>
        <time>2013-03-02T10:50:23.000Z</time>
      </trkpt>
      <trkpt lat="45.27343" lon="6.1532">
        <ele>2048</ele>
        <time>2013-03-02T10:50:24.000Z</time>
      </trkpt>
      <trkpt lat="45.27343" lon="6.15318">
        <ele>2049.3999023438</ele>
        <time>2013-03-02T10:50:30.000Z</time>
      </trkpt>
      <trkpt lat="45.27339" lon="6.15314">
        <ele>2050</ele>
        <time>2013-03-02T10:50:34.000Z</time>
      </trkpt>
      <trkpt lat="45.27335" lon="6.15311">
        <ele>2050.6000976562</ele>
        <time>2013-03-02T10:50:38.000Z</time>
      </trkpt>
      <trkpt lat="45.27327" lon="6.15306">
        <ele>2051.8000488281</ele>
        <time>2013-03-02T10:50:44.000Z</time>
      </trkpt>
      <trkpt lat="45.27328" lon="6.15304">
        <ele>2052.6000976562</ele>
        <time>2013-03-02T10:50:48.000Z</time>
      </trkpt>
      <trkpt lat="45.27325" lon="6.153">
        <ele>2054</ele>
        <time>2013-03-02T10:50:54.000Z</time>
      </trkpt>
      <trkpt lat="45.27319" lon="6.15297">
        <ele>2054.6000976562</ele>
        <time>2013-03-02T10:50:58.000Z</time>
      </trkpt>
      <trkpt lat="45.27314" lon="6.15293">
        <ele>2055.1999511719</ele>
        <time>2013-03-02T10:51:02.000Z</time>
      </trkpt>
      <trkpt lat="45.27313" lon="6.15289">
        <ele>2056.6000976562</ele>
        <time>2013-03-02T10:51:09.000Z</time>
      </trkpt>
      <trkpt lat="45.27313" lon="6.15288">
        <ele>2056.8000488281</ele>
        <time>2013-03-02T10:51:10.000Z</time>
      </trkpt>
      <trkpt lat="45.27316" lon="6.15284">
        <ele>2057.8000488281</ele>
        <time>2013-03-02T10:51:16.000Z</time>
      </trkpt>
      <trkpt lat="45.27315" lon="6.15281">
        <ele>2058.8000488281</ele>
        <time>2013-03-02T10:51:20.000Z</time>
      </trkpt>
      <trkpt lat="45.27308" lon="6.15275">
        <ele>2060.1999511719</ele>
        <time>2013-03-02T10:51:27.000Z</time>
      </trkpt>
      <trkpt lat="45.27305" lon="6.15272">
        <ele>2061.8000488281</ele>
        <time>2013-03-02T10:51:34.000Z</time>
      </trkpt>
      <trkpt lat="45.27304" lon="6.15271">
        <ele>2062</ele>
        <time>2013-03-02T10:51:35.000Z</time>
      </trkpt>
      <trkpt lat="45.273" lon="6.15267">
        <ele>2062.8000488281</ele>
        <time>2013-03-02T10:51:39.000Z</time>
      </trkpt>
      <trkpt lat="45.27297" lon="6.15262">
        <ele>2064</ele>
        <time>2013-03-02T10:51:45.000Z</time>
      </trkpt>
      <trkpt lat="45.27292" lon="6.15258">
        <ele>2064.8000488281</ele>
        <time>2013-03-02T10:51:49.000Z</time>
      </trkpt>
      <trkpt lat="45.27286" lon="6.15252">
        <ele>2065.8000488281</ele>
        <time>2013-03-02T10:51:54.000Z</time>
      </trkpt>
      <trkpt lat="45.27286" lon="6.15248">
        <ele>2067</ele>
        <time>2013-03-02T10:52:01.000Z</time>
      </trkpt>
      <trkpt lat="45.27282" lon="6.15244">
        <ele>2068.1999511719</ele>
        <time>2013-03-02T10:52:07.000Z</time>
      </trkpt>
      <trkpt lat="45.27279" lon="6.1524">
        <ele>2069.3999023438</ele>
        <time>2013-03-02T10:52:12.000Z</time>
      </trkpt>
      <trkpt lat="45.27276" lon="6.15236">
        <ele>2070</ele>
        <time>2013-03-02T10:52:17.000Z</time>
      </trkpt>
      <trkpt lat="45.27276" lon="6.15234">
        <ele>2071</ele>
        <time>2013-03-02T10:52:21.000Z</time>
      </trkpt>
      <trkpt lat="45.27272" lon="6.1523">
        <ele>2072</ele>
        <time>2013-03-02T10:52:25.000Z</time>
      </trkpt>
      <trkpt lat="45.27268" lon="6.15226">
        <ele>2072.8000488281</ele>
        <time>2013-03-02T10:52:30.000Z</time>
      </trkpt>
      <trkpt lat="45.27265" lon="6.15223">
        <ele>2073.8000488281</ele>
        <time>2013-03-02T10:52:35.000Z</time>
      </trkpt>
      <trkpt lat="45.27264" lon="6.15221">
        <ele>2074.8000488281</ele>
        <time>2013-03-02T10:52:39.000Z</time>
      </trkpt>
      <trkpt lat="45.27261" lon="6.15217">
        <ele>2075.8000488281</ele>
        <time>2013-03-02T10:52:44.000Z</time>
      </trkpt>
      <trkpt lat="45.27264" lon="6.15213">
        <ele>2077.1999511719</ele>
        <time>2013-03-02T10:52:49.000Z</time>
      </trkpt>
      <trkpt lat="45.27266" lon="6.15207">
        <ele>2078.8000488281</ele>
        <time>2013-03-02T10:52:56.000Z</time>
      </trkpt>
      <trkpt lat="45.27268" lon="6.15202">
        <ele>2080.1999511719</ele>
        <time>2013-03-02T10:53:02.000Z</time>
      </trkpt>
      <trkpt lat="45.27271" lon="6.15196">
        <ele>2081.1999511719</ele>
        <time>2013-03-02T10:53:10.000Z</time>
      </trkpt>
      <trkpt lat="45.27275" lon="6.15192">
        <ele>2082.1999511719</ele>
        <time>2013-03-02T10:53:16.000Z</time>
      </trkpt>
      <trkpt lat="45.27278" lon="6.15188">
        <ele>2083.6000976562</ele>
        <time>2013-03-02T10:53:23.000Z</time>
      </trkpt>
      <trkpt lat="45.27278" lon="6.15185">
        <ele>2084.1999511719</ele>
        <time>2013-03-02T10:53:26.000Z</time>
      </trkpt>
      <trkpt lat="45.27278" lon="6.15182">
        <ele>2085</ele>
        <time>2013-03-02T10:53:29.000Z</time>
      </trkpt>
      <trkpt lat="45.27274" lon="6.15178">
        <ele>2086.1999511719</ele>
        <time>2013-03-02T10:53:35.000Z</time>
      </trkpt>
      <trkpt lat="45.27271" lon="6.15174">
        <ele>2087.3999023438</ele>
        <time>2013-03-02T10:53:40.000Z</time>
      </trkpt>
      <trkpt lat="45.27271" lon="6.15174">
        <ele>2087.3999023438</ele>
        <time>2013-03-02T10:53:41.000Z</time>
      </trkpt>
      <trkpt lat="45.27268" lon="6.15172">
        <ele>2088.3999023438</ele>
        <time>2013-03-02T10:53:46.000Z</time>
      </trkpt>
      <trkpt lat="45.27261" lon="6.15169">
        <ele>2089.1999511719</ele>
        <time>2013-03-02T10:53:52.000Z</time>
      </trkpt>
      <trkpt lat="45.27256" lon="6.15165">
        <ele>2089.8000488281</ele>
        <time>2013-03-02T10:53:56.000Z</time>
      </trkpt>
      <trkpt lat="45.27253" lon="6.15158">
        <ele>2091</ele>
        <time>2013-03-02T10:54:03.000Z</time>
      </trkpt>
      <trkpt lat="45.27255" lon="6.15154">
        <ele>2092</ele>
        <time>2013-03-02T10:54:08.000Z</time>
      </trkpt>
      <trkpt lat="45.27258" lon="6.1515">
        <ele>2093.1999511719</ele>
        <time>2013-03-02T10:54:13.000Z</time>
      </trkpt>
      <trkpt lat="45.27257" lon="6.15149">
        <ele>2093.3999023438</ele>
        <time>2013-03-02T10:54:14.000Z</time>
      </trkpt>
      <trkpt lat="45.27257" lon="6.15146">
        <ele>2094.1999511719</ele>
        <time>2013-03-02T10:54:17.000Z</time>
      </trkpt>
      <trkpt lat="45.27259" lon="6.15141">
        <ele>2095.1999511719</ele>
        <time>2013-03-02T10:54:23.000Z</time>
      </trkpt>
      <trkpt lat="45.27259" lon="6.15136">
        <ele>2096.1999511719</ele>
        <time>2013-03-02T10:54:28.000Z</time>
      </trkpt>
      <trkpt lat="45.27259" lon="6.15133">
        <ele>2097</ele>
        <time>2013-03-02T10:54:31.000Z</time>
      </trkpt>
      <trkpt lat="45.27256" lon="6.1513">
        <ele>2097.6000976562</ele>
        <time>2013-03-02T10:54:34.000Z</time>
      </trkpt>
      <trkpt lat="45.27256" lon="6.15125">
        <ele>2098.8000488281</ele>
        <time>2013-03-02T10:54:39.000Z</time>
      </trkpt>
      <trkpt lat="45.27253" lon="6.1512">
        <ele>2099.8000488281</ele>
        <time>2013-03-02T10:54:44.000Z</time>
      </trkpt>
      <trkpt lat="45.27254" lon="6.15117">
        <ele>2100.8000488281</ele>
        <time>2013-03-02T10:54:48.000Z</time>
      </trkpt>
      <trkpt lat="45.27253" lon="6.15112">
        <ele>2101.8000488281</ele>
        <time>2013-03-02T10:54:53.000Z</time>
      </trkpt>
      <trkpt lat="45.2725" lon="6.1511">
        <ele>2102.3999023438</ele>
        <time>2013-03-02T10:54:57.000Z</time>
      </trkpt>
      <trkpt lat="45.27245" lon="6.15109">
        <ele>2103.6000976562</ele>
        <time>2013-03-02T10:55:02.000Z</time>
      </trkpt>
      <trkpt lat="45.27239" lon="6.15109">
        <ele>2104.6000976562</ele>
        <time>2013-03-02T10:55:07.000Z</time>
      </trkpt>
      <trkpt lat="45.27236" lon="6.15111">
        <ele>2105.3999023438</ele>
        <time>2013-03-02T10:55:11.000Z</time>
      </trkpt>
      <trkpt lat="45.27233" lon="6.15114">
        <ele>2106.1999511719</ele>
        <time>2013-03-02T10:55:17.000Z</time>
      </trkpt>
      <trkpt lat="45.27228" lon="6.15116">
        <ele>2107.3999023438</ele>
        <time>2013-03-02T10:55:23.000Z</time>
      </trkpt>
      <trkpt lat="45.27221" lon="6.15119">
        <ele>2109.1999511719</ele>
        <time>2013-03-02T10:55:32.000Z</time>
      </trkpt>
      <trkpt lat="45.27218" lon="6.15119">
        <ele>2110.6000976562</ele>
        <time>2013-03-02T10:55:38.000Z</time>
      </trkpt>
      <trkpt lat="45.27215" lon="6.15118">
        <ele>2111.3999023438</ele>
        <time>2013-03-02T10:55:43.000Z</time>
      </trkpt>
      <trkpt lat="45.27214" lon="6.15117">
        <ele>2112.1999511719</ele>
        <time>2013-03-02T10:55:46.000Z</time>
      </trkpt>
      <trkpt lat="45.27212" lon="6.15113">
        <ele>2113.8000488281</ele>
        <time>2013-03-02T10:55:53.000Z</time>
      </trkpt>
      <trkpt lat="45.27202" lon="6.15112">
        <ele>2116.1999511719</ele>
        <time>2013-03-02T10:56:03.000Z</time>
      </trkpt>
      <trkpt lat="45.27199" lon="6.15108">
        <ele>2118</ele>
        <time>2013-03-02T10:56:11.000Z</time>
      </trkpt>
      <trkpt lat="45.27199" lon="6.15106">
        <ele>2118.3999023438</ele>
        <time>2013-03-02T10:56:13.000Z</time>
      </trkpt>
      <trkpt lat="45.27196" lon="6.15099">
        <ele>2120</ele>
        <time>2013-03-02T10:56:20.000Z</time>
      </trkpt>
      <trkpt lat="45.27197" lon="6.15096">
        <ele>2120.8000488281</ele>
        <time>2013-03-02T10:56:25.000Z</time>
      </trkpt>
      <trkpt lat="45.27198" lon="6.15093">
        <ele>2121.6000976562</ele>
        <time>2013-03-02T10:56:29.000Z</time>
      </trkpt>
      <trkpt lat="45.27199" lon="6.15086">
        <ele>2122.8000488281</ele>
        <time>2013-03-02T10:56:36.000Z</time>
      </trkpt>
      <trkpt lat="45.272" lon="6.15082">
        <ele>2123.6000976562</ele>
        <time>2013-03-02T10:56:41.000Z</time>
      </trkpt>
      <trkpt lat="45.272" lon="6.15076">
        <ele>2125</ele>
        <time>2013-03-02T10:56:47.000Z</time>
      </trkpt>
      <trkpt lat="45.27201" lon="6.15074">
        <ele>2126</ele>
        <time>2013-03-02T10:56:52.000Z</time>
      </trkpt>
      <trkpt lat="45.27198" lon="6.15075">
        <ele>2126.6000976562</ele>
        <time>2013-03-02T10:56:56.000Z</time>
      </trkpt>
      <trkpt lat="45.27191" lon="6.15076">
        <ele>2127.3999023438</ele>
        <time>2013-03-02T10:57:02.000Z</time>
      </trkpt>
      <trkpt lat="45.27191" lon="6.1508">
        <ele>2128.6000976562</ele>
        <time>2013-03-02T10:57:07.000Z</time>
      </trkpt>
      <trkpt lat="45.27186" lon="6.15081">
        <ele>2129.3999023438</ele>
        <time>2013-03-02T10:57:11.000Z</time>
      </trkpt>
      <trkpt lat="45.27182" lon="6.15083">
        <ele>2130.6000976562</ele>
        <time>2013-03-02T10:57:16.000Z</time>
      </trkpt>
      <trkpt lat="45.27178" lon="6.15086">
        <ele>2131.3999023438</ele>
        <time>2013-03-02T10:57:20.000Z</time>
      </trkpt>
      <trkpt lat="45.27175" lon="6.15088">
        <ele>2132.1999511719</ele>
        <time>2013-03-02T10:57:24.000Z</time>
      </trkpt>
      <trkpt lat="45.27171" lon="6.1509">
        <ele>2133.1999511719</ele>
        <time>2013-03-02T10:57:28.000Z</time>
      </trkpt>
      <trkpt lat="45.27169" lon="6.15095">
        <ele>2134.3999023438</ele>
        <time>2013-03-02T10:57:34.000Z</time>
      </trkpt>
      <trkpt lat="45.27167" lon="6.15101">
        <ele>2136.3999023438</ele>
        <time>2013-03-02T10:57:42.000Z</time>
      </trkpt>
      <trkpt lat="45.27168" lon="6.15103">
        <ele>2137</ele>
        <time>2013-03-02T10:57:46.000Z</time>
      </trkpt>
      <trkpt lat="45.27168" lon="6.15101">
        <ele>2137.6000976562</ele>
        <time>2013-03-02T10:57:50.000Z</time>
      </trkpt>
      <trkpt lat="45.27167" lon="6.15095">
        <ele>2138.3999023438</ele>
        <time>2013-03-02T10:57:56.000Z</time>
      </trkpt>
      <trkpt lat="45.27168" lon="6.15094">
        <ele>2138.8000488281</ele>
        <time>2013-03-02T10:57:58.000Z</time>
      </trkpt>
      <trkpt lat="45.27168" lon="6.15091">
        <ele>2139.6000976562</ele>
        <time>2013-03-02T10:58:01.000Z</time>
      </trkpt>
      <trkpt lat="45.27167" lon="6.15087">
        <ele>2140.6000976562</ele>
        <time>2013-03-02T10:58:06.000Z</time>
      </trkpt>
      <trkpt lat="45.27167" lon="6.15083">
        <ele>2141.3999023438</ele>
        <time>2013-03-02T10:58:11.000Z</time>
      </trkpt>
      <trkpt lat="45.27168" lon="6.1508">
        <ele>2142.1999511719</ele>
        <time>2013-03-02T10:58:15.000Z</time>
      </trkpt>
      <trkpt lat="45.27167" lon="6.1508">
        <ele>2143.1999511719</ele>
        <time>2013-03-02T10:58:21.000Z</time>
      </trkpt>
      <trkpt lat="45.27166" lon="6.15081">
        <ele>2143.1999511719</ele>
        <time>2013-03-02T10:58:22.000Z</time>
      </trkpt>
      <trkpt lat="45.27161" lon="6.15085">
        <ele>2144.1999511719</ele>
        <time>2013-03-02T10:58:28.000Z</time>
      </trkpt>
      <trkpt lat="45.27157" lon="6.15087">
        <ele>2145.3999023438</ele>
        <time>2013-03-02T10:58:34.000Z</time>
      </trkpt>
      <trkpt lat="45.27152" lon="6.15087">
        <ele>2146</ele>
        <time>2013-03-02T10:58:38.000Z</time>
      </trkpt>
      <trkpt lat="45.27147" lon="6.15089">
        <ele>2147.1999511719</ele>
        <time>2013-03-02T10:58:43.000Z</time>
      </trkpt>
      <trkpt lat="45.27147" lon="6.15087">
        <ele>2148.6000976562</ele>
        <time>2013-03-02T10:58:49.000Z</time>
      </trkpt>
      <trkpt lat="45.27151" lon="6.15082">
        <ele>2149.6000976562</ele>
        <time>2013-03-02T10:58:56.000Z</time>
      </trkpt>
      <trkpt lat="45.27154" lon="6.15078">
        <ele>2150.6000976562</ele>
        <time>2013-03-02T10:59:02.000Z</time>
      </trkpt>
      <trkpt lat="45.27155" lon="6.15074">
        <ele>2151.3999023438</ele>
        <time>2013-03-02T10:59:06.000Z</time>
      </trkpt>
      <trkpt lat="45.27156" lon="6.15075">
        <ele>2152.3999023438</ele>
        <time>2013-03-02T10:59:12.000Z</time>
      </trkpt>
      <trkpt lat="45.27155" lon="6.15078">
        <ele>2153</ele>
        <time>2013-03-02T10:59:17.000Z</time>
      </trkpt>
      <trkpt lat="45.27154" lon="6.15078">
        <ele>2153.1999511719</ele>
        <time>2013-03-02T10:59:18.000Z</time>
      </trkpt>
      <trkpt lat="45.2715" lon="6.15081">
        <ele>2155</ele>
        <time>2013-03-02T10:59:25.000Z</time>
      </trkpt>
      <trkpt lat="45.27146" lon="6.15082">
        <ele>2156</ele>
        <time>2013-03-02T10:59:30.000Z</time>
      </trkpt>
      <trkpt lat="45.27144" lon="6.15084">
        <ele>2157.1999511719</ele>
        <time>2013-03-02T10:59:36.000Z</time>
      </trkpt>
      <trkpt lat="45.27144" lon="6.15084">
        <ele>2157.6000976562</ele>
        <time>2013-03-02T10:59:38.000Z</time>
      </trkpt>
      <trkpt lat="45.27145" lon="6.15077">
        <ele>2158.1999511719</ele>
        <time>2013-03-02T10:59:45.000Z</time>
      </trkpt>
      <trkpt lat="45.27146" lon="6.15072">
        <ele>2159.3999023438</ele>
        <time>2013-03-02T10:59:50.000Z</time>
      </trkpt>
      <trkpt lat="45.27149" lon="6.15066">
        <ele>2160.6000976562</ele>
        <time>2013-03-02T10:59:56.000Z</time>
      </trkpt>
      <trkpt lat="45.27149" lon="6.15062">
        <ele>2161.6000976562</ele>
        <time>2013-03-02T11:00:01.000Z</time>
      </trkpt>
      <trkpt lat="45.27148" lon="6.15062">
        <ele>2162.1999511719</ele>
        <time>2013-03-02T11:00:07.000Z</time>
      </trkpt>
      <trkpt lat="45.27148" lon="6.15062">
        <ele>2162.3999023438</ele>
        <time>2013-03-02T11:00:08.000Z</time>
      </trkpt>
      <trkpt lat="45.27143" lon="6.15066">
        <ele>2163.1999511719</ele>
        <time>2013-03-02T11:00:14.000Z</time>
      </trkpt>
      <trkpt lat="45.27138" lon="6.15069">
        <ele>2164</ele>
        <time>2013-03-02T11:00:20.000Z</time>
      </trkpt>
      <trkpt lat="45.27135" lon="6.1507">
        <ele>2164.8000488281</ele>
        <time>2013-03-02T11:00:24.000Z</time>
      </trkpt>
      <trkpt lat="45.27129" lon="6.15071">
        <ele>2165.8000488281</ele>
        <time>2013-03-02T11:00:28.000Z</time>
      </trkpt>
      <trkpt lat="45.27126" lon="6.1507">
        <ele>2166.8000488281</ele>
        <time>2013-03-02T11:00:33.000Z</time>
      </trkpt>
      <trkpt lat="45.27127" lon="6.15067">
        <ele>2168</ele>
        <time>2013-03-02T11:00:39.000Z</time>
      </trkpt>
      <trkpt lat="45.27129" lon="6.15061">
        <ele>2169</ele>
        <time>2013-03-02T11:00:46.000Z</time>
      </trkpt>
      <trkpt lat="45.2713" lon="6.15055">
        <ele>2170.1999511719</ele>
        <time>2013-03-02T11:00:52.000Z</time>
      </trkpt>
      <trkpt lat="45.27131" lon="6.1505">
        <ele>2171.3999023438</ele>
        <time>2013-03-02T11:00:58.000Z</time>
      </trkpt>
      <trkpt lat="45.27131" lon="6.15048">
        <ele>2172</ele>
        <time>2013-03-02T11:01:03.000Z</time>
      </trkpt>
      <trkpt lat="45.2713" lon="6.15049">
        <ele>2172.3999023438</ele>
        <time>2013-03-02T11:01:06.000Z</time>
      </trkpt>
      <trkpt lat="45.27126" lon="6.15053">
        <ele>2173.1999511719</ele>
        <time>2013-03-02T11:01:11.000Z</time>
      </trkpt>
      <trkpt lat="45.27122" lon="6.15059">
        <ele>2174.8000488281</ele>
        <time>2013-03-02T11:01:19.000Z</time>
      </trkpt>
      <trkpt lat="45.27117" lon="6.15061">
        <ele>2176</ele>
        <time>2013-03-02T11:01:25.000Z</time>
      </trkpt>
      <trkpt lat="45.27114" lon="6.15064">
        <ele>2177</ele>
        <time>2013-03-02T11:01:30.000Z</time>
      </trkpt>
      <trkpt lat="45.27114" lon="6.15063">
        <ele>2177.8000488281</ele>
        <time>2013-03-02T11:01:35.000Z</time>
      </trkpt>
      <trkpt lat="45.27116" lon="6.15056">
        <ele>2178.8000488281</ele>
        <time>2013-03-02T11:01:42.000Z</time>
      </trkpt>
      <trkpt lat="45.27117" lon="6.1505">
        <ele>2180</ele>
        <time>2013-03-02T11:01:48.000Z</time>
      </trkpt>
      <trkpt lat="45.27118" lon="6.15045">
        <ele>2181.3999023438</ele>
        <time>2013-03-02T11:01:54.000Z</time>
      </trkpt>
      <trkpt lat="45.27119" lon="6.15044">
        <ele>2182.1999511719</ele>
        <time>2013-03-02T11:01:58.000Z</time>
      </trkpt>
      <trkpt lat="45.27115" lon="6.15048">
        <ele>2182.8000488281</ele>
        <time>2013-03-02T11:02:02.000Z</time>
      </trkpt>
      <trkpt lat="45.27111" lon="6.15052">
        <ele>2183.3999023438</ele>
        <time>2013-03-02T11:02:07.000Z</time>
      </trkpt>
      <trkpt lat="45.27108" lon="6.15056">
        <ele>2184.6000976562</ele>
        <time>2013-03-02T11:02:13.000Z</time>
      </trkpt>
      <trkpt lat="45.27103" lon="6.1506">
        <ele>2185.8000488281</ele>
        <time>2013-03-02T11:02:20.000Z</time>
      </trkpt>
      <trkpt lat="45.27102" lon="6.15064">
        <ele>2186.8000488281</ele>
        <time>2013-03-02T11:02:24.000Z</time>
      </trkpt>
      <trkpt lat="45.271" lon="6.15068">
        <ele>2187.8000488281</ele>
        <time>2013-03-02T11:02:29.000Z</time>
      </trkpt>
      <trkpt lat="45.27097" lon="6.15071">
        <ele>2189</ele>
        <time>2013-03-02T11:02:34.000Z</time>
      </trkpt>
      <trkpt lat="45.27094" lon="6.15074">
        <ele>2189.8000488281</ele>
        <time>2013-03-02T11:02:39.000Z</time>
      </trkpt>
      <trkpt lat="45.27089" lon="6.15078">
        <ele>2191.3999023438</ele>
        <time>2013-03-02T11:02:45.000Z</time>
      </trkpt>
      <trkpt lat="45.27086" lon="6.15082">
        <ele>2192.3999023438</ele>
        <time>2013-03-02T11:02:50.000Z</time>
      </trkpt>
      <trkpt lat="45.27086" lon="6.15083">
        <ele>2192.3999023438</ele>
        <time>2013-03-02T11:02:51.000Z</time>
      </trkpt>
      <trkpt lat="45.27085" lon="6.1509">
        <ele>2194</ele>
        <time>2013-03-02T11:02:58.000Z</time>
      </trkpt>
      <trkpt lat="45.27086" lon="6.15095">
        <ele>2194.8000488281</ele>
        <time>2013-03-02T11:03:02.000Z</time>
      </trkpt>
      <trkpt lat="45.2708" lon="6.15098">
        <ele>2196.3999023438</ele>
        <time>2013-03-02T11:03:09.000Z</time>
      </trkpt>
      <trkpt lat="45.27077" lon="6.15099">
        <ele>2197.3999023438</ele>
        <time>2013-03-02T11:03:19.000Z</time>
      </trkpt>
      <trkpt lat="45.27076" lon="6.15102">
        <ele>2197.8000488281</ele>
        <time>2013-03-02T11:03:26.000Z</time>
      </trkpt>
      <trkpt lat="45.27074" lon="6.15104">
        <ele>2199.3999023438</ele>
        <time>2013-03-02T11:03:48.000Z</time>
      </trkpt>
      <trkpt lat="45.27072" lon="6.15104">
        <ele>2200</ele>
        <time>2013-03-02T11:03:59.000Z</time>
      </trkpt>
      <trkpt lat="45.27071" lon="6.15103">
        <ele>2200.1999511719</ele>
        <time>2013-03-02T11:04:00.000Z</time>
      </trkpt>
      <trkpt lat="45.27069" lon="6.15097">
        <ele>2201.6000976562</ele>
        <time>2013-03-02T11:04:06.000Z</time>
      </trkpt>
      <trkpt lat="45.27068" lon="6.15091">
        <ele>2203</ele>
        <time>2013-03-02T11:04:12.000Z</time>
      </trkpt>
      <trkpt lat="45.27066" lon="6.15086">
        <ele>2204.3999023438</ele>
        <time>2013-03-02T11:04:18.000Z</time>
      </trkpt>
      <trkpt lat="45.27064" lon="6.1508">
        <ele>2205.6000976562</ele>
        <time>2013-03-02T11:04:24.000Z</time>
      </trkpt>
      <trkpt lat="45.27062" lon="6.15075">
        <ele>2207</ele>
        <time>2013-03-02T11:04:30.000Z</time>
      </trkpt>
      <trkpt lat="45.27061" lon="6.15072">
        <ele>2207.6000976562</ele>
        <time>2013-03-02T11:04:35.000Z</time>
      </trkpt>
      <trkpt lat="45.27058" lon="6.15066">
        <ele>2208.8000488281</ele>
        <time>2013-03-02T11:04:41.000Z</time>
      </trkpt>
      <trkpt lat="45.27056" lon="6.15062">
        <ele>2209.6000976562</ele>
        <time>2013-03-02T11:04:46.000Z</time>
      </trkpt>
      <trkpt lat="45.27052" lon="6.15056">
        <ele>2210.6000976562</ele>
        <time>2013-03-02T11:04:52.000Z</time>
      </trkpt>
      <trkpt lat="45.27049" lon="6.15053">
        <ele>2211.3999023438</ele>
        <time>2013-03-02T11:04:56.000Z</time>
      </trkpt>
      <trkpt lat="45.27047" lon="6.15049">
        <ele>2212.1999511719</ele>
        <time>2013-03-02T11:05:01.000Z</time>
      </trkpt>
      <trkpt lat="45.27046" lon="6.15046">
        <ele>2213.1999511719</ele>
        <time>2013-03-02T11:05:06.000Z</time>
      </trkpt>
      <trkpt lat="45.27045" lon="6.15042">
        <ele>2213.6000976562</ele>
        <time>2013-03-02T11:05:10.000Z</time>
      </trkpt>
      <trkpt lat="45.27045" lon="6.15039">
        <ele>2214.6000976562</ele>
        <time>2013-03-02T11:05:15.000Z</time>
      </trkpt>
      <trkpt lat="45.27045" lon="6.15035">
        <ele>2215.6000976562</ele>
        <time>2013-03-02T11:05:20.000Z</time>
      </trkpt>
      <trkpt lat="45.27044" lon="6.15031">
        <ele>2216.1999511719</ele>
        <time>2013-03-02T11:05:24.000Z</time>
      </trkpt>
      <trkpt lat="45.27044" lon="6.15026">
        <ele>2217</ele>
        <time>2013-03-02T11:05:29.000Z</time>
      </trkpt>
      <trkpt lat="45.27044" lon="6.15022">
        <ele>2218.1999511719</ele>
        <time>2013-03-02T11:05:34.000Z</time>
      </trkpt>
      <trkpt lat="45.27044" lon="6.15018">
        <ele>2219.1999511719</ele>
        <time>2013-03-02T11:05:40.000Z</time>
      </trkpt>
      <trkpt lat="45.27042" lon="6.15014">
        <ele>2219.6000976562</ele>
        <time>2013-03-02T11:05:44.000Z</time>
      </trkpt>
      <trkpt lat="45.2704" lon="6.15011">
        <ele>2220.1999511719</ele>
        <time>2013-03-02T11:05:49.000Z</time>
      </trkpt>
      <trkpt lat="45.27038" lon="6.15013">
        <ele>2220.8000488281</ele>
        <time>2013-03-02T11:05:52.000Z</time>
      </trkpt>
      <trkpt lat="45.27034" lon="6.15017">
        <ele>2221.6000976562</ele>
        <time>2013-03-02T11:05:58.000Z</time>
      </trkpt>
      <trkpt lat="45.27032" lon="6.15023">
        <ele>2222.8000488281</ele>
        <time>2013-03-02T11:06:03.000Z</time>
      </trkpt>
      <trkpt lat="45.27028" lon="6.15028">
        <ele>2224.1999511719</ele>
        <time>2013-03-02T11:06:09.000Z</time>
      </trkpt>
      <trkpt lat="45.27023" lon="6.15032">
        <ele>2225.3999023438</ele>
        <time>2013-03-02T11:06:14.000Z</time>
      </trkpt>
      <trkpt lat="45.2702" lon="6.15034">
        <ele>2226.6000976562</ele>
        <time>2013-03-02T11:06:20.000Z</time>
      </trkpt>
      <trkpt lat="45.27017" lon="6.15038">
        <ele>2227.3999023438</ele>
        <time>2013-03-02T11:06:24.000Z</time>
      </trkpt>
      <trkpt lat="45.27014" lon="6.1504">
        <ele>2228.3999023438</ele>
        <time>2013-03-02T11:06:29.000Z</time>
      </trkpt>
      <trkpt lat="45.27011" lon="6.15041">
        <ele>2229.6000976562</ele>
        <time>2013-03-02T11:06:35.000Z</time>
      </trkpt>
      <trkpt lat="45.27011" lon="6.1504">
        <ele>2229.8000488281</ele>
        <time>2013-03-02T11:06:36.000Z</time>
      </trkpt>
      <trkpt lat="45.27011" lon="6.15036">
        <ele>2230.8000488281</ele>
        <time>2013-03-02T11:06:42.000Z</time>
      </trkpt>
      <trkpt lat="45.27012" lon="6.15033">
        <ele>2231.3999023438</ele>
        <time>2013-03-02T11:06:46.000Z</time>
      </trkpt>
      <trkpt lat="45.27009" lon="6.15027">
        <ele>2232.8000488281</ele>
        <time>2013-03-02T11:06:52.000Z</time>
      </trkpt>
      <trkpt lat="45.27007" lon="6.15021">
        <ele>2234.1999511719</ele>
        <time>2013-03-02T11:06:58.000Z</time>
      </trkpt>
      <trkpt lat="45.27005" lon="6.1502">
        <ele>2234.6000976562</ele>
        <time>2013-03-02T11:07:00.000Z</time>
      </trkpt>
      <trkpt lat="45.27003" lon="6.15022">
        <ele>2235</ele>
        <time>2013-03-02T11:07:04.000Z</time>
      </trkpt>
      <trkpt lat="45.26999" lon="6.15025">
        <ele>2235.3999023438</ele>
        <time>2013-03-02T11:07:08.000Z</time>
      </trkpt>
      <trkpt lat="45.26998" lon="6.15031">
        <ele>2236.8000488281</ele>
        <time>2013-03-02T11:07:14.000Z</time>
      </trkpt>
      <trkpt lat="45.26999" lon="6.15037">
        <ele>2237.6000976562</ele>
        <time>2013-03-02T11:07:20.000Z</time>
      </trkpt>
      <trkpt lat="45.26998" lon="6.15042">
        <ele>2238.3999023438</ele>
        <time>2013-03-02T11:07:24.000Z</time>
      </trkpt>
      <trkpt lat="45.26997" lon="6.15046">
        <ele>2239.3999023438</ele>
        <time>2013-03-02T11:07:29.000Z</time>
      </trkpt>
      <trkpt lat="45.26995" lon="6.15051">
        <ele>2240.3999023438</ele>
        <time>2013-03-02T11:07:34.000Z</time>
      </trkpt>
      <trkpt lat="45.26991" lon="6.15053">
        <ele>2241.1999511719</ele>
        <time>2013-03-02T11:07:38.000Z</time>
      </trkpt>
      <trkpt lat="45.26989" lon="6.15059">
        <ele>2242.6000976562</ele>
        <time>2013-03-02T11:07:45.000Z</time>
      </trkpt>
      <trkpt lat="45.26988" lon="6.15065">
        <ele>2244.1999511719</ele>
        <time>2013-03-02T11:07:51.000Z</time>
      </trkpt>
      <trkpt lat="45.26991" lon="6.15072">
        <ele>2245.6000976562</ele>
        <time>2013-03-02T11:07:58.000Z</time>
      </trkpt>
      <trkpt lat="45.26988" lon="6.15076">
        <ele>2246.8000488281</ele>
        <time>2013-03-02T11:08:04.000Z</time>
      </trkpt>
      <trkpt lat="45.26985" lon="6.15084">
        <ele>2249.1999511719</ele>
        <time>2013-03-02T11:08:14.000Z</time>
      </trkpt>
      <trkpt lat="45.26984" lon="6.15087">
        <ele>2250</ele>
        <time>2013-03-02T11:08:18.000Z</time>
      </trkpt>
      <trkpt lat="45.2698" lon="6.15091">
        <ele>2251</ele>
        <time>2013-03-02T11:08:23.000Z</time>
      </trkpt>
      <trkpt lat="45.26976" lon="6.15092">
        <ele>2251.8000488281</ele>
        <time>2013-03-02T11:08:27.000Z</time>
      </trkpt>
      <trkpt lat="45.26971" lon="6.15096">
        <ele>2252.8000488281</ele>
        <time>2013-03-02T11:08:32.000Z</time>
      </trkpt>
      <trkpt lat="45.2697" lon="6.15099">
        <ele>2253.6000976562</ele>
        <time>2013-03-02T11:08:36.000Z</time>
      </trkpt>
      <trkpt lat="45.26971" lon="6.15105">
        <ele>2254.6000976562</ele>
        <time>2013-03-02T11:08:41.000Z</time>
      </trkpt>
      <trkpt lat="45.26972" lon="6.15112">
        <ele>2255.3999023438</ele>
        <time>2013-03-02T11:08:47.000Z</time>
      </trkpt>
      <trkpt lat="45.26972" lon="6.15115">
        <ele>2256.1999511719</ele>
        <time>2013-03-02T11:08:51.000Z</time>
      </trkpt>
      <trkpt lat="45.26971" lon="6.15114">
        <ele>2256.6000976562</ele>
        <time>2013-03-02T11:08:52.000Z</time>
      </trkpt>
      <trkpt lat="45.26968" lon="6.1511">
        <ele>2257.6000976562</ele>
        <time>2013-03-02T11:08:57.000Z</time>
      </trkpt>
      <trkpt lat="45.26966" lon="6.15105">
        <ele>2258.3999023438</ele>
        <time>2013-03-02T11:09:01.000Z</time>
      </trkpt>
      <trkpt lat="45.26963" lon="6.15099">
        <ele>2259.1999511719</ele>
        <time>2013-03-02T11:09:06.000Z</time>
      </trkpt>
      <trkpt lat="45.2696" lon="6.15093">
        <ele>2260</ele>
        <time>2013-03-02T11:09:12.000Z</time>
      </trkpt>
      <trkpt lat="45.26958" lon="6.15088">
        <ele>2261</ele>
        <time>2013-03-02T11:09:16.000Z</time>
      </trkpt>
      <trkpt lat="45.26956" lon="6.15083">
        <ele>2262.1999511719</ele>
        <time>2013-03-02T11:09:22.000Z</time>
      </trkpt>
      <trkpt lat="45.26954" lon="6.15079">
        <ele>2263.1999511719</ele>
        <time>2013-03-02T11:09:27.000Z</time>
      </trkpt>
      <trkpt lat="45.2695" lon="6.15073">
        <ele>2264.3999023438</ele>
        <time>2013-03-02T11:09:33.000Z</time>
      </trkpt>
      <trkpt lat="45.26948" lon="6.15069">
        <ele>2265.1999511719</ele>
        <time>2013-03-02T11:09:38.000Z</time>
      </trkpt>
      <trkpt lat="45.26948" lon="6.15064">
        <ele>2266.3999023438</ele>
        <time>2013-03-02T11:09:44.000Z</time>
      </trkpt>
      <trkpt lat="45.26947" lon="6.1506">
        <ele>2267.3999023438</ele>
        <time>2013-03-02T11:09:49.000Z</time>
      </trkpt>
      <trkpt lat="45.26946" lon="6.15055">
        <ele>2268.1999511719</ele>
        <time>2013-03-02T11:09:54.000Z</time>
      </trkpt>
      <trkpt lat="45.26943" lon="6.15049">
        <ele>2269.1999511719</ele>
        <time>2013-03-02T11:10:00.000Z</time>
      </trkpt>
      <trkpt lat="45.26939" lon="6.15044">
        <ele>2270.1999511719</ele>
        <time>2013-03-02T11:10:06.000Z</time>
      </trkpt>
      <trkpt lat="45.26937" lon="6.15046">
        <ele>2270.8000488281</ele>
        <time>2013-03-02T11:10:10.000Z</time>
      </trkpt>
      <trkpt lat="45.26933" lon="6.15049">
        <ele>2271.3999023438</ele>
        <time>2013-03-02T11:10:15.000Z</time>
      </trkpt>
      <trkpt lat="45.26931" lon="6.15053">
        <ele>2272</ele>
        <time>2013-03-02T11:10:19.000Z</time>
      </trkpt>
      <trkpt lat="45.26931" lon="6.15056">
        <ele>2273.1999511719</ele>
        <time>2013-03-02T11:10:23.000Z</time>
      </trkpt>
      <trkpt lat="45.26929" lon="6.1506">
        <ele>2273.6000976562</ele>
        <time>2013-03-02T11:10:28.000Z</time>
      </trkpt>
      <trkpt lat="45.26929" lon="6.15065">
        <ele>2274.8000488281</ele>
        <time>2013-03-02T11:10:33.000Z</time>
      </trkpt>
      <trkpt lat="45.26928" lon="6.15066">
        <ele>2275.6000976562</ele>
        <time>2013-03-02T11:10:36.000Z</time>
      </trkpt>
      <trkpt lat="45.26925" lon="6.1507">
        <ele>2277</ele>
        <time>2013-03-02T11:10:41.000Z</time>
      </trkpt>
      <trkpt lat="45.26922" lon="6.15075">
        <ele>2278.1999511719</ele>
        <time>2013-03-02T11:10:47.000Z</time>
      </trkpt>
      <trkpt lat="45.26921" lon="6.15076">
        <ele>2278.3999023438</ele>
        <time>2013-03-02T11:10:48.000Z</time>
      </trkpt>
      <trkpt lat="45.2692" lon="6.15081">
        <ele>2279</ele>
        <time>2013-03-02T11:10:53.000Z</time>
      </trkpt>
      <trkpt lat="45.26918" lon="6.15087">
        <ele>2280.3999023438</ele>
        <time>2013-03-02T11:10:59.000Z</time>
      </trkpt>
      <trkpt lat="45.26916" lon="6.15091">
        <ele>2281.1999511719</ele>
        <time>2013-03-02T11:11:04.000Z</time>
      </trkpt>
      <trkpt lat="45.26914" lon="6.15094">
        <ele>2282</ele>
        <time>2013-03-02T11:11:08.000Z</time>
      </trkpt>
      <trkpt lat="45.26914" lon="6.15093">
        <ele>2283.1999511719</ele>
        <time>2013-03-02T11:11:13.000Z</time>
      </trkpt>
      <trkpt lat="45.26914" lon="6.15086">
        <ele>2283.6000976562</ele>
        <time>2013-03-02T11:11:19.000Z</time>
      </trkpt>
      <trkpt lat="45.26914" lon="6.15081">
        <ele>2284.1999511719</ele>
        <time>2013-03-02T11:11:24.000Z</time>
      </trkpt>
      <trkpt lat="45.26914" lon="6.15076">
        <ele>2285.6000976562</ele>
        <time>2013-03-02T11:11:29.000Z</time>
      </trkpt>
      <trkpt lat="45.26915" lon="6.15074">
        <ele>2286.6000976562</ele>
        <time>2013-03-02T11:11:33.000Z</time>
      </trkpt>
      <trkpt lat="45.26914" lon="6.1507">
        <ele>2287.1999511719</ele>
        <time>2013-03-02T11:11:37.000Z</time>
      </trkpt>
      <trkpt lat="45.26914" lon="6.15064">
        <ele>2288.1999511719</ele>
        <time>2013-03-02T11:11:43.000Z</time>
      </trkpt>
      <trkpt lat="45.26913" lon="6.15058">
        <ele>2289.6000976562</ele>
        <time>2013-03-02T11:11:49.000Z</time>
      </trkpt>
      <trkpt lat="45.26912" lon="6.15052">
        <ele>2290.8000488281</ele>
        <time>2013-03-02T11:11:55.000Z</time>
      </trkpt>
      <trkpt lat="45.26912" lon="6.15048">
        <ele>2291.6000976562</ele>
        <time>2013-03-02T11:11:59.000Z</time>
      </trkpt>
      <trkpt lat="45.26912" lon="6.15047">
        <ele>2292</ele>
        <time>2013-03-02T11:12:02.000Z</time>
      </trkpt>
      <trkpt lat="45.26902" lon="6.15051">
        <ele>2293</ele>
        <time>2013-03-02T11:12:09.000Z</time>
      </trkpt>
      <trkpt lat="45.26899" lon="6.15054">
        <ele>2293.6000976562</ele>
        <time>2013-03-02T11:12:13.000Z</time>
      </trkpt>
      <trkpt lat="45.26896" lon="6.15056">
        <ele>2294.3999023438</ele>
        <time>2013-03-02T11:12:17.000Z</time>
      </trkpt>
      <trkpt lat="45.26892" lon="6.15059">
        <ele>2295.1999511719</ele>
        <time>2013-03-02T11:12:22.000Z</time>
      </trkpt>
      <trkpt lat="45.2689" lon="6.15062">
        <ele>2296.1999511719</ele>
        <time>2013-03-02T11:12:27.000Z</time>
      </trkpt>
      <trkpt lat="45.26889" lon="6.15068">
        <ele>2297.3999023438</ele>
        <time>2013-03-02T11:12:33.000Z</time>
      </trkpt>
      <trkpt lat="45.26889" lon="6.15071">
        <ele>2298.3999023438</ele>
        <time>2013-03-02T11:12:38.000Z</time>
      </trkpt>
      <trkpt lat="45.26888" lon="6.15074">
        <ele>2300.6000976562</ele>
        <time>2013-03-02T11:12:50.000Z</time>
      </trkpt>
      <trkpt lat="45.26886" lon="6.15068">
        <ele>2301.6000976562</ele>
        <time>2013-03-02T11:12:57.000Z</time>
      </trkpt>
      <trkpt lat="45.26886" lon="6.15063">
        <ele>2302.8000488281</ele>
        <time>2013-03-02T11:13:03.000Z</time>
      </trkpt>
      <trkpt lat="45.26885" lon="6.1506">
        <ele>2303.8000488281</ele>
        <time>2013-03-02T11:13:08.000Z</time>
      </trkpt>
      <trkpt lat="45.26884" lon="6.15059">
        <ele>2304.6000976562</ele>
        <time>2013-03-02T11:13:12.000Z</time>
      </trkpt>
      <trkpt lat="45.26881" lon="6.1506">
        <ele>2304.8000488281</ele>
        <time>2013-03-02T11:13:15.000Z</time>
      </trkpt>
      <trkpt lat="45.26881" lon="6.15066">
        <ele>2305.8000488281</ele>
        <time>2013-03-02T11:13:21.000Z</time>
      </trkpt>
      <trkpt lat="45.2688" lon="6.15072">
        <ele>2307.6000976562</ele>
        <time>2013-03-02T11:13:32.000Z</time>
      </trkpt>
      <trkpt lat="45.2688" lon="6.15071">
        <ele>2308</ele>
        <time>2013-03-02T11:13:34.000Z</time>
      </trkpt>
      <trkpt lat="45.26879" lon="6.15065">
        <ele>2308.6000976562</ele>
        <time>2013-03-02T11:13:40.000Z</time>
      </trkpt>
      <trkpt lat="45.26877" lon="6.1506">
        <ele>2309.6000976562</ele>
        <time>2013-03-02T11:13:46.000Z</time>
      </trkpt>
      <trkpt lat="45.26877" lon="6.15059">
        <ele>2310.6000976562</ele>
        <time>2013-03-02T11:13:52.000Z</time>
      </trkpt>
      <trkpt lat="45.26877" lon="6.15062">
        <ele>2311</ele>
        <time>2013-03-02T11:13:57.000Z</time>
      </trkpt>
      <trkpt lat="45.26875" lon="6.15068">
        <ele>2311.8000488281</ele>
        <time>2013-03-02T11:14:03.000Z</time>
      </trkpt>
      <trkpt lat="45.26876" lon="6.15074">
        <ele>2313.1999511719</ele>
        <time>2013-03-02T11:14:10.000Z</time>
      </trkpt>
      <trkpt lat="45.26879" lon="6.15079">
        <ele>2314.6000976562</ele>
        <time>2013-03-02T11:14:18.000Z</time>
      </trkpt>
      <trkpt lat="45.26874" lon="6.15074">
        <ele>2315.6000976562</ele>
        <time>2013-03-02T11:14:25.000Z</time>
      </trkpt>
      <trkpt lat="45.26871" lon="6.1507">
        <ele>2316.1999511719</ele>
        <time>2013-03-02T11:14:29.000Z</time>
      </trkpt>
      <trkpt lat="45.26867" lon="6.15066">
        <ele>2317.3999023438</ele>
        <time>2013-03-02T11:14:34.000Z</time>
      </trkpt>
      <trkpt lat="45.26862" lon="6.1506">
        <ele>2318.1999511719</ele>
        <time>2013-03-02T11:14:39.000Z</time>
      </trkpt>
      <trkpt lat="45.26861" lon="6.15057">
        <ele>2319.1999511719</ele>
        <time>2013-03-02T11:14:44.000Z</time>
      </trkpt>
      <trkpt lat="45.26869" lon="6.15054">
        <ele>2320.1999511719</ele>
        <time>2013-03-02T11:14:50.000Z</time>
      </trkpt>
      <trkpt lat="45.26867" lon="6.15056">
        <ele>2320.6000976562</ele>
        <time>2013-03-02T11:14:53.000Z</time>
      </trkpt>
      <trkpt lat="45.2686" lon="6.15062">
        <ele>2321.6000976562</ele>
        <time>2013-03-02T11:15:00.000Z</time>
      </trkpt>
      <trkpt lat="45.26856" lon="6.15065">
        <ele>2322.1999511719</ele>
        <time>2013-03-02T11:15:04.000Z</time>
      </trkpt>
      <trkpt lat="45.26854" lon="6.15071">
        <ele>2323.1999511719</ele>
        <time>2013-03-02T11:15:09.000Z</time>
      </trkpt>
      <trkpt lat="45.26854" lon="6.15074">
        <ele>2323.6000976562</ele>
        <time>2013-03-02T11:15:11.000Z</time>
      </trkpt>
      <trkpt lat="45.26855" lon="6.15079">
        <ele>2324.1999511719</ele>
        <time>2013-03-02T11:15:14.000Z</time>
      </trkpt>
      <trkpt lat="45.26855" lon="6.15089">
        <ele>2325.6000976562</ele>
        <time>2013-03-02T11:15:21.000Z</time>
      </trkpt>
      <trkpt lat="45.26855" lon="6.15093">
        <ele>2326.3999023438</ele>
        <time>2013-03-02T11:15:25.000Z</time>
      </trkpt>
      <trkpt lat="45.26857" lon="6.15091">
        <ele>2327.3999023438</ele>
        <time>2013-03-02T11:15:32.000Z</time>
      </trkpt>
      <trkpt lat="45.26849" lon="6.15083">
        <ele>2328.3999023438</ele>
        <time>2013-03-02T11:15:39.000Z</time>
      </trkpt>
      <trkpt lat="45.26846" lon="6.15076">
        <ele>2329.6000976562</ele>
        <time>2013-03-02T11:15:45.000Z</time>
      </trkpt>
      <trkpt lat="45.26843" lon="6.15071">
        <ele>2330.6000976562</ele>
        <time>2013-03-02T11:15:50.000Z</time>
      </trkpt>
      <trkpt lat="45.26842" lon="6.15067">
        <ele>2331.6000976562</ele>
        <time>2013-03-02T11:15:56.000Z</time>
      </trkpt>
      <trkpt lat="45.26842" lon="6.15062">
        <ele>2332.8000488281</ele>
        <time>2013-03-02T11:16:02.000Z</time>
      </trkpt>
      <trkpt lat="45.26841" lon="6.1506">
        <ele>2334.1999511719</ele>
        <time>2013-03-02T11:16:08.000Z</time>
      </trkpt>
      <trkpt lat="45.2684" lon="6.15061">
        <ele>2334.6000976562</ele>
        <time>2013-03-02T11:16:10.000Z</time>
      </trkpt>
      <trkpt lat="45.26839" lon="6.15067">
        <ele>2335</ele>
        <time>2013-03-02T11:16:15.000Z</time>
      </trkpt>
      <trkpt lat="45.26837" lon="6.15071">
        <ele>2335.6000976562</ele>
        <time>2013-03-02T11:16:19.000Z</time>
      </trkpt>
      <trkpt lat="45.26834" lon="6.15077">
        <ele>2336.1999511719</ele>
        <time>2013-03-02T11:16:24.000Z</time>
      </trkpt>
      <trkpt lat="45.26833" lon="6.15082">
        <ele>2337.1999511719</ele>
        <time>2013-03-02T11:16:28.000Z</time>
      </trkpt>
      <trkpt lat="45.26831" lon="6.15088">
        <ele>2338.3999023438</ele>
        <time>2013-03-02T11:16:33.000Z</time>
      </trkpt>
      <trkpt lat="45.26832" lon="6.1509">
        <ele>2339.3999023438</ele>
        <time>2013-03-02T11:16:37.000Z</time>
      </trkpt>
      <trkpt lat="45.26832" lon="6.1509">
        <ele>2339.8000488281</ele>
        <time>2013-03-02T11:16:39.000Z</time>
      </trkpt>
      <trkpt lat="45.2683" lon="6.15084">
        <ele>2340.6000976562</ele>
        <time>2013-03-02T11:16:44.000Z</time>
      </trkpt>
      <trkpt lat="45.26826" lon="6.15077">
        <ele>2341.1999511719</ele>
        <time>2013-03-02T11:16:49.000Z</time>
      </trkpt>
      <trkpt lat="45.26825" lon="6.1507">
        <ele>2342.3999023438</ele>
        <time>2013-03-02T11:16:55.000Z</time>
      </trkpt>
      <trkpt lat="45.26823" lon="6.15064">
        <ele>2343.3999023438</ele>
        <time>2013-03-02T11:17:00.000Z</time>
      </trkpt>
      <trkpt lat="45.26821" lon="6.15062">
        <ele>2344.1999511719</ele>
        <time>2013-03-02T11:17:04.000Z</time>
      </trkpt>
      <trkpt lat="45.26816" lon="6.15056">
        <ele>2345.1999511719</ele>
        <time>2013-03-02T11:17:11.000Z</time>
      </trkpt>
      <trkpt lat="45.26815" lon="6.15054">
        <ele>2346.1999511719</ele>
        <time>2013-03-02T11:17:16.000Z</time>
      </trkpt>
      <trkpt lat="45.26814" lon="6.15055">
        <ele>2346.6000976562</ele>
        <time>2013-03-02T11:17:18.000Z</time>
      </trkpt>
      <trkpt lat="45.26812" lon="6.15057">
        <ele>2347.3999023438</ele>
        <time>2013-03-02T11:17:21.000Z</time>
      </trkpt>
      <trkpt lat="45.26811" lon="6.1506">
        <ele>2348</ele>
        <time>2013-03-02T11:17:24.000Z</time>
      </trkpt>
      <trkpt lat="45.26808" lon="6.15066">
        <ele>2348.8000488281</ele>
        <time>2013-03-02T11:17:30.000Z</time>
      </trkpt>
      <trkpt lat="45.26807" lon="6.15073">
        <ele>2350</ele>
        <time>2013-03-02T11:17:36.000Z</time>
      </trkpt>
      <trkpt lat="45.26807" lon="6.15077">
        <ele>2350.8000488281</ele>
        <time>2013-03-02T11:17:40.000Z</time>
      </trkpt>
      <trkpt lat="45.26807" lon="6.15083">
        <ele>2352</ele>
        <time>2013-03-02T11:17:47.000Z</time>
      </trkpt>
      <trkpt lat="45.26806" lon="6.15082">
        <ele>2352.3999023438</ele>
        <time>2013-03-02T11:17:48.000Z</time>
      </trkpt>
      <trkpt lat="45.26796" lon="6.15075">
        <ele>2354</ele>
        <time>2013-03-02T11:17:56.000Z</time>
      </trkpt>
      <trkpt lat="45.26792" lon="6.15071">
        <ele>2354.6000976562</ele>
        <time>2013-03-02T11:18:01.000Z</time>
      </trkpt>
      <trkpt lat="45.26787" lon="6.15066">
        <ele>2355.6000976562</ele>
        <time>2013-03-02T11:18:07.000Z</time>
      </trkpt>
      <trkpt lat="45.26784" lon="6.15061">
        <ele>2356.6000976562</ele>
        <time>2013-03-02T11:18:13.000Z</time>
      </trkpt>
      <trkpt lat="45.26782" lon="6.15056">
        <ele>2357.6000976562</ele>
        <time>2013-03-02T11:18:19.000Z</time>
      </trkpt>
      <trkpt lat="45.26782" lon="6.1505">
        <ele>2358.8000488281</ele>
        <time>2013-03-02T11:18:25.000Z</time>
      </trkpt>
      <trkpt lat="45.26783" lon="6.15048">
        <ele>2359.1999511719</ele>
        <time>2013-03-02T11:18:28.000Z</time>
      </trkpt>
      <trkpt lat="45.26792" lon="6.15043">
        <ele>2360.3999023438</ele>
        <time>2013-03-02T11:18:33.000Z</time>
      </trkpt>
      <trkpt lat="45.26792" lon="6.15043">
        <ele>2361</ele>
        <time>2013-03-02T11:18:36.000Z</time>
      </trkpt>
      <trkpt lat="45.26786" lon="6.15043">
        <ele>2362</ele>
        <time>2013-03-02T11:18:41.000Z</time>
      </trkpt>
      <trkpt lat="45.26777" lon="6.15044">
        <ele>2363.1999511719</ele>
        <time>2013-03-02T11:18:48.000Z</time>
      </trkpt>
      <trkpt lat="45.26772" lon="6.15048">
        <ele>2364</ele>
        <time>2013-03-02T11:18:54.000Z</time>
      </trkpt>
      <trkpt lat="45.26769" lon="6.1505">
        <ele>2365</ele>
        <time>2013-03-02T11:18:59.000Z</time>
      </trkpt>
      <trkpt lat="45.26769" lon="6.1505">
        <ele>2365.3999023438</ele>
        <time>2013-03-02T11:19:01.000Z</time>
      </trkpt>
      <trkpt lat="45.26768" lon="6.15042">
        <ele>2366.6000976562</ele>
        <time>2013-03-02T11:19:09.000Z</time>
      </trkpt>
      <trkpt lat="45.26769" lon="6.15038">
        <ele>2367.8000488281</ele>
        <time>2013-03-02T11:19:14.000Z</time>
      </trkpt>
      <trkpt lat="45.26772" lon="6.15034">
        <ele>2368.8000488281</ele>
        <time>2013-03-02T11:19:19.000Z</time>
      </trkpt>
      <trkpt lat="45.26771" lon="6.15034">
        <ele>2368.8000488281</ele>
        <time>2013-03-02T11:19:20.000Z</time>
      </trkpt>
      <trkpt lat="45.26769" lon="6.15036">
        <ele>2369.3999023438</ele>
        <time>2013-03-02T11:19:23.000Z</time>
      </trkpt>
      <trkpt lat="45.26765" lon="6.15041">
        <ele>2370.6000976562</ele>
        <time>2013-03-02T11:19:30.000Z</time>
      </trkpt>
      <trkpt lat="45.26764" lon="6.15042">
        <ele>2371.3999023438</ele>
        <time>2013-03-02T11:19:35.000Z</time>
      </trkpt>
      <trkpt lat="45.26763" lon="6.15036">
        <ele>2372.6000976562</ele>
        <time>2013-03-02T11:19:42.000Z</time>
      </trkpt>
      <trkpt lat="45.26761" lon="6.15032">
        <ele>2373.1999511719</ele>
        <time>2013-03-02T11:19:47.000Z</time>
      </trkpt>
      <trkpt lat="45.26759" lon="6.1503">
        <ele>2374.3999023438</ele>
        <time>2013-03-02T11:19:52.000Z</time>
      </trkpt>
      <trkpt lat="45.26753" lon="6.15028">
        <ele>2375.6000976562</ele>
        <time>2013-03-02T11:19:58.000Z</time>
      </trkpt>
      <trkpt lat="45.26749" lon="6.15028">
        <ele>2376.8000488281</ele>
        <time>2013-03-02T11:20:03.000Z</time>
      </trkpt>
      <trkpt lat="45.26746" lon="6.15029">
        <ele>2377.1999511719</ele>
        <time>2013-03-02T11:20:06.000Z</time>
      </trkpt>
      <trkpt lat="45.26746" lon="6.15034">
        <ele>2377.8000488281</ele>
        <time>2013-03-02T11:20:11.000Z</time>
      </trkpt>
      <trkpt lat="45.26748" lon="6.15036">
        <ele>2378.1999511719</ele>
        <time>2013-03-02T11:20:13.000Z</time>
      </trkpt>
      <trkpt lat="45.26751" lon="6.15045">
        <ele>2379.1999511719</ele>
        <time>2013-03-02T11:20:18.000Z</time>
      </trkpt>
      <trkpt lat="45.26757" lon="6.15052">
        <ele>2380.1999511719</ele>
        <time>2013-03-02T11:20:25.000Z</time>
      </trkpt>
      <trkpt lat="45.26757" lon="6.15056">
        <ele>2381</ele>
        <time>2013-03-02T11:20:29.000Z</time>
      </trkpt>
      <trkpt lat="45.26757" lon="6.15063">
        <ele>2382.1999511719</ele>
        <time>2013-03-02T11:20:36.000Z</time>
      </trkpt>
      <trkpt lat="45.26755" lon="6.15069">
        <ele>2383.1999511719</ele>
        <time>2013-03-02T11:20:42.000Z</time>
      </trkpt>
      <trkpt lat="45.26753" lon="6.15074">
        <ele>2384.3999023438</ele>
        <time>2013-03-02T11:20:48.000Z</time>
      </trkpt>
      <trkpt lat="45.26749" lon="6.15078">
        <ele>2386.6000976562</ele>
        <time>2013-03-02T11:20:59.000Z</time>
      </trkpt>
      <trkpt lat="45.26746" lon="6.15077">
        <ele>2387.3999023438</ele>
        <time>2013-03-02T11:21:02.000Z</time>
      </trkpt>
      <trkpt lat="45.26735" lon="6.15072">
        <ele>2388.6000976562</ele>
        <time>2013-03-02T11:21:09.000Z</time>
      </trkpt>
      <trkpt lat="45.26727" lon="6.15069">
        <ele>2389.3999023438</ele>
        <time>2013-03-02T11:21:15.000Z</time>
      </trkpt>
      <trkpt lat="45.26721" lon="6.15067">
        <ele>2390.3999023438</ele>
        <time>2013-03-02T11:21:21.000Z</time>
      </trkpt>
      <trkpt lat="45.26718" lon="6.15065">
        <ele>2391.1999511719</ele>
        <time>2013-03-02T11:21:26.000Z</time>
      </trkpt>
      <trkpt lat="45.2671" lon="6.15061">
        <ele>2392</ele>
        <time>2013-03-02T11:21:32.000Z</time>
      </trkpt>
      <trkpt lat="45.26703" lon="6.15057">
        <ele>2393.1999511719</ele>
        <time>2013-03-02T11:21:38.000Z</time>
      </trkpt>
      <trkpt lat="45.267" lon="6.15056">
        <ele>2394.3999023438</ele>
        <time>2013-03-02T11:21:44.000Z</time>
      </trkpt>
      <trkpt lat="45.26694" lon="6.15052">
        <ele>2395</ele>
        <time>2013-03-02T11:21:49.000Z</time>
      </trkpt>
      <trkpt lat="45.26691" lon="6.15051">
        <ele>2396.1999511719</ele>
        <time>2013-03-02T11:21:55.000Z</time>
      </trkpt>
      <trkpt lat="45.26698" lon="6.15048">
        <ele>2397</ele>
        <time>2013-03-02T11:21:59.000Z</time>
      </trkpt>
      <trkpt lat="45.26698" lon="6.15045">
        <ele>2397.8000488281</ele>
        <time>2013-03-02T11:22:03.000Z</time>
      </trkpt>
      <trkpt lat="45.26696" lon="6.15042">
        <ele>2398.6000976562</ele>
        <time>2013-03-02T11:22:07.000Z</time>
      </trkpt>
      <trkpt lat="45.26693" lon="6.1504">
        <ele>2399.6000976562</ele>
        <time>2013-03-02T11:22:12.000Z</time>
      </trkpt>
      <trkpt lat="45.2669" lon="6.15035">
        <ele>2400.1999511719</ele>
        <time>2013-03-02T11:22:17.000Z</time>
      </trkpt>
      <trkpt lat="45.26689" lon="6.15033">
        <ele>2401</ele>
        <time>2013-03-02T11:22:22.000Z</time>
      </trkpt>
      <trkpt lat="45.26688" lon="6.15032">
        <ele>2401.1999511719</ele>
        <time>2013-03-02T11:22:24.000Z</time>
      </trkpt>
      <trkpt lat="45.26687" lon="6.15033">
        <ele>2402.3999023438</ele>
        <time>2013-03-02T11:22:31.000Z</time>
      </trkpt>
      <trkpt lat="45.26688" lon="6.15043">
        <ele>2403.6000976562</ele>
        <time>2013-03-02T11:22:38.000Z</time>
      </trkpt>
      <trkpt lat="45.26687" lon="6.15049">
        <ele>2404.1999511719</ele>
        <time>2013-03-02T11:22:43.000Z</time>
      </trkpt>
      <trkpt lat="45.26686" lon="6.15056">
        <ele>2405.3999023438</ele>
        <time>2013-03-02T11:22:49.000Z</time>
      </trkpt>
      <trkpt lat="45.26686" lon="6.15062">
        <ele>2406.8000488281</ele>
        <time>2013-03-02T11:22:55.000Z</time>
      </trkpt>
      <trkpt lat="45.26684" lon="6.15058">
        <ele>2408.1999511719</ele>
        <time>2013-03-02T11:23:05.000Z</time>
      </trkpt>
      <trkpt lat="45.26681" lon="6.15052">
        <ele>2409</ele>
        <time>2013-03-02T11:23:11.000Z</time>
      </trkpt>
      <trkpt lat="45.26678" lon="6.15046">
        <ele>2410.3999023438</ele>
        <time>2013-03-02T11:23:18.000Z</time>
      </trkpt>
      <trkpt lat="45.26676" lon="6.15043">
        <ele>2410.8000488281</ele>
        <time>2013-03-02T11:23:21.000Z</time>
      </trkpt>
      <trkpt lat="45.26673" lon="6.15038">
        <ele>2411.8000488281</ele>
        <time>2013-03-02T11:23:27.000Z</time>
      </trkpt>
      <trkpt lat="45.26671" lon="6.15034">
        <ele>2412.1999511719</ele>
        <time>2013-03-02T11:23:31.000Z</time>
      </trkpt>
      <trkpt lat="45.26669" lon="6.15031">
        <ele>2413</ele>
        <time>2013-03-02T11:23:35.000Z</time>
      </trkpt>
      <trkpt lat="45.26668" lon="6.15028">
        <ele>2414</ele>
        <time>2013-03-02T11:23:40.000Z</time>
      </trkpt>
      <trkpt lat="45.26665" lon="6.15022">
        <ele>2415.6000976562</ele>
        <time>2013-03-02T11:23:47.000Z</time>
      </trkpt>
      <trkpt lat="45.26662" lon="6.15016">
        <ele>2416.8000488281</ele>
        <time>2013-03-02T11:23:54.000Z</time>
      </trkpt>
      <trkpt lat="45.26659" lon="6.15013">
        <ele>2417.6000976562</ele>
        <time>2013-03-02T11:24:00.000Z</time>
      </trkpt>
      <trkpt lat="45.26658" lon="6.15013">
        <ele>2417.6000976562</ele>
        <time>2013-03-02T11:24:01.000Z</time>
      </trkpt>
      <trkpt lat="45.2665" lon="6.15008">
        <ele>2419.1999511719</ele>
        <time>2013-03-02T11:24:09.000Z</time>
      </trkpt>
      <trkpt lat="45.26644" lon="6.15005">
        <ele>2420</ele>
        <time>2013-03-02T11:24:15.000Z</time>
      </trkpt>
      <trkpt lat="45.26638" lon="6.15003">
        <ele>2420.8000488281</ele>
        <time>2013-03-02T11:24:22.000Z</time>
      </trkpt>
      <trkpt lat="45.26633" lon="6.15">
        <ele>2421.8000488281</ele>
        <time>2013-03-02T11:24:28.000Z</time>
      </trkpt>
      <trkpt lat="45.26628" lon="6.14999">
        <ele>2422.6000976562</ele>
        <time>2013-03-02T11:24:34.000Z</time>
      </trkpt>
      <trkpt lat="45.26622" lon="6.14997">
        <ele>2423.8000488281</ele>
        <time>2013-03-02T11:24:41.000Z</time>
      </trkpt>
      <trkpt lat="45.26617" lon="6.14995">
        <ele>2424.8000488281</ele>
        <time>2013-03-02T11:24:47.000Z</time>
      </trkpt>
      <trkpt lat="45.26613" lon="6.14992">
        <ele>2425.8000488281</ele>
        <time>2013-03-02T11:24:54.000Z</time>
      </trkpt>
      <trkpt lat="45.26611" lon="6.1499">
        <ele>2426.3999023438</ele>
        <time>2013-03-02T11:24:59.000Z</time>
      </trkpt>
      <trkpt lat="45.26606" lon="6.14987">
        <ele>2427.3999023438</ele>
        <time>2013-03-02T11:25:04.000Z</time>
      </trkpt>
      <trkpt lat="45.26603" lon="6.14985">
        <ele>2428.6000976562</ele>
        <time>2013-03-02T11:25:10.000Z</time>
      </trkpt>
      <trkpt lat="45.26601" lon="6.14984">
        <ele>2429.3999023438</ele>
        <time>2013-03-02T11:25:15.000Z</time>
      </trkpt>
      <trkpt lat="45.26599" lon="6.14982">
        <ele>2430.1999511719</ele>
        <time>2013-03-02T11:25:19.000Z</time>
      </trkpt>
      <trkpt lat="45.26597" lon="6.14981">
        <ele>2431.1999511719</ele>
        <time>2013-03-02T11:25:24.000Z</time>
      </trkpt>
      <trkpt lat="45.26594" lon="6.14978">
        <ele>2432.3999023438</ele>
        <time>2013-03-02T11:25:29.000Z</time>
      </trkpt>
      <trkpt lat="45.2659" lon="6.14979">
        <ele>2433.3999023438</ele>
        <time>2013-03-02T11:25:39.000Z</time>
      </trkpt>
      <trkpt lat="45.26587" lon="6.14977">
        <ele>2434.6000976562</ele>
        <time>2013-03-02T11:25:46.000Z</time>
      </trkpt>
      <trkpt lat="45.26582" lon="6.14974">
        <ele>2436.1999511719</ele>
        <time>2013-03-02T11:25:52.000Z</time>
      </trkpt>
      <trkpt lat="45.26579" lon="6.14973">
        <ele>2437.3999023438</ele>
        <time>2013-03-02T11:25:57.000Z</time>
      </trkpt>
      <trkpt lat="45.26574" lon="6.14971">
        <ele>2438.6000976562</ele>
        <time>2013-03-02T11:26:03.000Z</time>
      </trkpt>
      <trkpt lat="45.26568" lon="6.14966">
        <ele>2439.8000488281</ele>
        <time>2013-03-02T11:26:09.000Z</time>
      </trkpt>
      <trkpt lat="45.26564" lon="6.14964">
        <ele>2440.8000488281</ele>
        <time>2013-03-02T11:26:15.000Z</time>
      </trkpt>
      <trkpt lat="45.26561" lon="6.14963">
        <ele>2441.6000976562</ele>
        <time>2013-03-02T11:26:19.000Z</time>
      </trkpt>
      <trkpt lat="45.26557" lon="6.14963">
        <ele>2442.6000976562</ele>
        <time>2013-03-02T11:26:24.000Z</time>
      </trkpt>
      <trkpt lat="45.26555" lon="6.14962">
        <ele>2443.1999511719</ele>
        <time>2013-03-02T11:26:28.000Z</time>
      </trkpt>
      <trkpt lat="45.26552" lon="6.14962">
        <ele>2444</ele>
        <time>2013-03-02T11:26:33.000Z</time>
      </trkpt>
      <trkpt lat="45.26548" lon="6.1496">
        <ele>2445</ele>
        <time>2013-03-02T11:26:39.000Z</time>
      </trkpt>
      <trkpt lat="45.26545" lon="6.1496">
        <ele>2446</ele>
        <time>2013-03-02T11:26:44.000Z</time>
      </trkpt>
      <trkpt lat="45.26541" lon="6.14959">
        <ele>2447</ele>
        <time>2013-03-02T11:26:49.000Z</time>
      </trkpt>
      <trkpt lat="45.26539" lon="6.14959">
        <ele>2447.6000976562</ele>
        <time>2013-03-02T11:26:54.000Z</time>
      </trkpt>
      <trkpt lat="45.26537" lon="6.14959">
        <ele>2448.1999511719</ele>
        <time>2013-03-02T11:26:58.000Z</time>
      </trkpt>
      <trkpt lat="45.26531" lon="6.14956">
        <ele>2449.3999023438</ele>
        <time>2013-03-02T11:27:05.000Z</time>
      </trkpt>
      <trkpt lat="45.26526" lon="6.14955">
        <ele>2450.3999023438</ele>
        <time>2013-03-02T11:27:11.000Z</time>
      </trkpt>
      <trkpt lat="45.26523" lon="6.14957">
        <ele>2451.6000976562</ele>
        <time>2013-03-02T11:27:17.000Z</time>
      </trkpt>
      <trkpt lat="45.2652" lon="6.14958">
        <ele>2452.3999023438</ele>
        <time>2013-03-02T11:27:22.000Z</time>
      </trkpt>
      <trkpt lat="45.26517" lon="6.14959">
        <ele>2453.3999023438</ele>
        <time>2013-03-02T11:27:27.000Z</time>
      </trkpt>
      <trkpt lat="45.26514" lon="6.14961">
        <ele>2454.3999023438</ele>
        <time>2013-03-02T11:27:32.000Z</time>
      </trkpt>
      <trkpt lat="45.26511" lon="6.14961">
        <ele>2455.3999023438</ele>
        <time>2013-03-02T11:27:37.000Z</time>
      </trkpt>
      <trkpt lat="45.26507" lon="6.14959">
        <ele>2456.3999023438</ele>
        <time>2013-03-02T11:27:41.000Z</time>
      </trkpt>
      <trkpt lat="45.26505" lon="6.14957">
        <ele>2457</ele>
        <time>2013-03-02T11:27:45.000Z</time>
      </trkpt>
      <trkpt lat="45.26504" lon="6.14956">
        <ele>2457.3999023438</ele>
        <time>2013-03-02T11:27:47.000Z</time>
      </trkpt>
      <trkpt lat="45.26504" lon="6.14955">
        <ele>2458.3999023438</ele>
        <time>2013-03-02T11:27:52.000Z</time>
      </trkpt>
      <trkpt lat="45.26502" lon="6.1495">
        <ele>2459.3999023438</ele>
        <time>2013-03-02T11:27:57.000Z</time>
      </trkpt>
      <trkpt lat="45.26501" lon="6.14946">
        <ele>2460.1999511719</ele>
        <time>2013-03-02T11:28:02.000Z</time>
      </trkpt>
      <trkpt lat="45.26501" lon="6.14943">
        <ele>2461</ele>
        <time>2013-03-02T11:28:07.000Z</time>
      </trkpt>
      <trkpt lat="45.26503" lon="6.14941">
        <ele>2461.8000488281</ele>
        <time>2013-03-02T11:28:11.000Z</time>
      </trkpt>
      <trkpt lat="45.26503" lon="6.14938">
        <ele>2462.8000488281</ele>
        <time>2013-03-02T11:28:16.000Z</time>
      </trkpt>
      <trkpt lat="45.26504" lon="6.14935">
        <ele>2463.6000976562</ele>
        <time>2013-03-02T11:28:21.000Z</time>
      </trkpt>
      <trkpt lat="45.26504" lon="6.14933">
        <ele>2464.6000976562</ele>
        <time>2013-03-02T11:28:25.000Z</time>
      </trkpt>
      <trkpt lat="45.26502" lon="6.14932">
        <ele>2465.3999023438</ele>
        <time>2013-03-02T11:28:30.000Z</time>
      </trkpt>
      <trkpt lat="45.265" lon="6.14931">
        <ele>2465.8000488281</ele>
        <time>2013-03-02T11:28:33.000Z</time>
      </trkpt>
      <trkpt lat="45.26493" lon="6.14935">
        <ele>2466.8000488281</ele>
        <time>2013-03-02T11:28:41.000Z</time>
      </trkpt>
      <trkpt lat="45.26487" lon="6.14936">
        <ele>2467.8000488281</ele>
        <time>2013-03-02T11:28:47.000Z</time>
      </trkpt>
      <trkpt lat="45.26483" lon="6.14939">
        <ele>2468.8000488281</ele>
        <time>2013-03-02T11:28:53.000Z</time>
      </trkpt>
      <trkpt lat="45.26481" lon="6.14942">
        <ele>2469.6000976562</ele>
        <time>2013-03-02T11:28:57.000Z</time>
      </trkpt>
      <trkpt lat="45.26479" lon="6.14945">
        <ele>2470.1999511719</ele>
        <time>2013-03-02T11:29:02.000Z</time>
      </trkpt>
      <trkpt lat="45.26477" lon="6.14949">
        <ele>2471.3999023438</ele>
        <time>2013-03-02T11:29:08.000Z</time>
      </trkpt>
      <trkpt lat="45.26474" lon="6.14955">
        <ele>2472.8000488281</ele>
        <time>2013-03-02T11:29:15.000Z</time>
      </trkpt>
      <trkpt lat="45.26473" lon="6.14959">
        <ele>2473.8000488281</ele>
        <time>2013-03-02T11:29:20.000Z</time>
      </trkpt>
      <trkpt lat="45.26473" lon="6.14963">
        <ele>2474.6000976562</ele>
        <time>2013-03-02T11:29:24.000Z</time>
      </trkpt>
      <trkpt lat="45.26473" lon="6.1496">
        <ele>2475.6000976562</ele>
        <time>2013-03-02T11:29:30.000Z</time>
      </trkpt>
      <trkpt lat="45.26473" lon="6.14958">
        <ele>2475.6000976562</ele>
        <time>2013-03-02T11:29:32.000Z</time>
      </trkpt>
      <trkpt lat="45.26474" lon="6.1495">
        <ele>2476.6000976562</ele>
        <time>2013-03-02T11:29:39.000Z</time>
      </trkpt>
      <trkpt lat="45.26474" lon="6.14943">
        <ele>2477.6000976562</ele>
        <time>2013-03-02T11:29:45.000Z</time>
      </trkpt>
      <trkpt lat="45.26473" lon="6.14937">
        <ele>2478.8000488281</ele>
        <time>2013-03-02T11:29:51.000Z</time>
      </trkpt>
      <trkpt lat="45.26473" lon="6.14933">
        <ele>2479.8000488281</ele>
        <time>2013-03-02T11:29:56.000Z</time>
      </trkpt>
      <trkpt lat="45.26474" lon="6.14927">
        <ele>2481.1999511719</ele>
        <time>2013-03-02T11:30:03.000Z</time>
      </trkpt>
      <trkpt lat="45.26474" lon="6.14923">
        <ele>2482.1999511719</ele>
        <time>2013-03-02T11:30:08.000Z</time>
      </trkpt>
      <trkpt lat="45.26469" lon="6.14924">
        <ele>2483.6000976562</ele>
        <time>2013-03-02T11:30:15.000Z</time>
      </trkpt>
      <trkpt lat="45.26466" lon="6.14927">
        <ele>2484</ele>
        <time>2013-03-02T11:30:19.000Z</time>
      </trkpt>
      <trkpt lat="45.26461" lon="6.14933">
        <ele>2484.8000488281</ele>
        <time>2013-03-02T11:30:26.000Z</time>
      </trkpt>
      <trkpt lat="45.26461" lon="6.14936">
        <ele>2485.1999511719</ele>
        <time>2013-03-02T11:30:29.000Z</time>
      </trkpt>
      <trkpt lat="45.2646" lon="6.14943">
        <ele>2486</ele>
        <time>2013-03-02T11:30:34.000Z</time>
      </trkpt>
      <trkpt lat="45.26457" lon="6.14947">
        <ele>2486.6000976562</ele>
        <time>2013-03-02T11:30:39.000Z</time>
      </trkpt>
      <trkpt lat="45.26454" lon="6.14954">
        <ele>2488</ele>
        <time>2013-03-02T11:30:46.000Z</time>
      </trkpt>
      <trkpt lat="45.26453" lon="6.14956">
        <ele>2489.3999023438</ele>
        <time>2013-03-02T11:30:53.000Z</time>
      </trkpt>
      <trkpt lat="45.26453" lon="6.14955">
        <ele>2489.3999023438</ele>
        <time>2013-03-02T11:30:54.000Z</time>
      </trkpt>
      <trkpt lat="45.26452" lon="6.1495">
        <ele>2490.3999023438</ele>
        <time>2013-03-02T11:30:59.000Z</time>
      </trkpt>
      <trkpt lat="45.26452" lon="6.14942">
        <ele>2491.1999511719</ele>
        <time>2013-03-02T11:31:05.000Z</time>
      </trkpt>
      <trkpt lat="45.26452" lon="6.14935">
        <ele>2492.1999511719</ele>
        <time>2013-03-02T11:31:11.000Z</time>
      </trkpt>
      <trkpt lat="45.26452" lon="6.14929">
        <ele>2493.6000976562</ele>
        <time>2013-03-02T11:31:17.000Z</time>
      </trkpt>
      <trkpt lat="45.2645" lon="6.14926">
        <ele>2494.3999023438</ele>
        <time>2013-03-02T11:31:22.000Z</time>
      </trkpt>
      <trkpt lat="45.26449" lon="6.14927">
        <ele>2494.6000976562</ele>
        <time>2013-03-02T11:31:25.000Z</time>
      </trkpt>
      <trkpt lat="45.26444" lon="6.14937">
        <ele>2495.6000976562</ele>
        <time>2013-03-02T11:31:33.000Z</time>
      </trkpt>
      <trkpt lat="45.2644" lon="6.14944">
        <ele>2496.6000976562</ele>
        <time>2013-03-02T11:31:39.000Z</time>
      </trkpt>
      <trkpt lat="45.26433" lon="6.1495">
        <ele>2498</ele>
        <time>2013-03-02T11:31:47.000Z</time>
      </trkpt>
      <trkpt lat="45.26427" lon="6.14955">
        <ele>2499.1999511719</ele>
        <time>2013-03-02T11:31:53.000Z</time>
      </trkpt>
      <trkpt lat="45.26421" lon="6.1496">
        <ele>2499.8000488281</ele>
        <time>2013-03-02T11:31:59.000Z</time>
      </trkpt>
      <trkpt lat="45.26416" lon="6.14964">
        <ele>2501</ele>
        <time>2013-03-02T11:32:05.000Z</time>
      </trkpt>
      <trkpt lat="45.26411" lon="6.14968">
        <ele>2502.1999511719</ele>
        <time>2013-03-02T11:32:11.000Z</time>
      </trkpt>
      <trkpt lat="45.2641" lon="6.1497">
        <ele>2502.6000976562</ele>
        <time>2013-03-02T11:32:13.000Z</time>
      </trkpt>
      <trkpt lat="45.26407" lon="6.14975">
        <ele>2503.8000488281</ele>
        <time>2013-03-02T11:32:19.000Z</time>
      </trkpt>
      <trkpt lat="45.26406" lon="6.14976">
        <ele>2504.1999511719</ele>
        <time>2013-03-02T11:32:21.000Z</time>
      </trkpt>
      <trkpt lat="45.26405" lon="6.14986">
        <ele>2505.6000976562</ele>
        <time>2013-03-02T11:32:28.000Z</time>
      </trkpt>
      <trkpt lat="45.26404" lon="6.14997">
        <ele>2507.1999511719</ele>
        <time>2013-03-02T11:32:36.000Z</time>
      </trkpt>
      <trkpt lat="45.26403" lon="6.15008">
        <ele>2507.8000488281</ele>
        <time>2013-03-02T11:32:42.000Z</time>
      </trkpt>
      <trkpt lat="45.26403" lon="6.15011">
        <ele>2508.1999511719</ele>
        <time>2013-03-02T11:32:48.000Z</time>
      </trkpt>
      <trkpt lat="45.26403" lon="6.15018">
        <ele>2508.6000976562</ele>
        <time>2013-03-02T11:32:56.000Z</time>
      </trkpt>
      <trkpt lat="45.26403" lon="6.15019">
        <ele>2508.8000488281</ele>
        <time>2013-03-02T11:32:57.000Z</time>
      </trkpt>
      <trkpt lat="45.26405" lon="6.1503">
        <ele>2508.8000488281</ele>
        <time>2013-03-02T11:33:06.000Z</time>
      </trkpt>
      <trkpt lat="45.26408" lon="6.15039">
        <ele>2509</ele>
        <time>2013-03-02T11:33:14.000Z</time>
      </trkpt>
      <trkpt lat="45.26409" lon="6.15044">
        <ele>2509.3999023438</ele>
        <time>2013-03-02T11:33:20.000Z</time>
      </trkpt>
      <trkpt lat="45.26411" lon="6.1505">
        <ele>2509.8000488281</ele>
        <time>2013-03-02T11:33:25.000Z</time>
      </trkpt>
      <trkpt lat="45.26414" lon="6.15054">
        <ele>2510.6000976562</ele>
        <time>2013-03-02T11:33:31.000Z</time>
      </trkpt>
      <trkpt lat="45.26418" lon="6.15061">
        <ele>2511.6000976562</ele>
        <time>2013-03-02T11:33:38.000Z</time>
      </trkpt>
      <trkpt lat="45.26422" lon="6.15063">
        <ele>2512.8000488281</ele>
        <time>2013-03-02T11:33:44.000Z</time>
      </trkpt>
      <trkpt lat="45.26426" lon="6.15066">
        <ele>2513.3999023438</ele>
        <time>2013-03-02T11:33:50.000Z</time>
      </trkpt>
      <trkpt lat="45.26429" lon="6.1507">
        <ele>2514.3999023438</ele>
        <time>2013-03-02T11:33:56.000Z</time>
      </trkpt>
      <trkpt lat="45.26431" lon="6.15072">
        <ele>2514.8000488281</ele>
        <time>2013-03-02T11:34:00.000Z</time>
      </trkpt>
      <trkpt lat="45.26434" lon="6.15078">
        <ele>2515.8000488281</ele>
        <time>2013-03-02T11:34:06.000Z</time>
      </trkpt>
      <trkpt lat="45.26437" lon="6.15082">
        <ele>2516.3999023438</ele>
        <time>2013-03-02T11:34:12.000Z</time>
      </trkpt>
      <trkpt lat="45.2644" lon="6.15086">
        <ele>2517.1999511719</ele>
        <time>2013-03-02T11:34:18.000Z</time>
      </trkpt>
      <trkpt lat="45.26443" lon="6.1509">
        <ele>2517.6000976562</ele>
        <time>2013-03-02T11:34:24.000Z</time>
      </trkpt>
      <trkpt lat="45.26446" lon="6.15094">
        <ele>2518.1999511719</ele>
        <time>2013-03-02T11:34:30.000Z</time>
      </trkpt>
      <trkpt lat="45.26449" lon="6.15096">
        <ele>2519</ele>
        <time>2013-03-02T11:34:35.000Z</time>
      </trkpt>
      <trkpt lat="45.26452" lon="6.151">
        <ele>2520.1999511719</ele>
        <time>2013-03-02T11:34:41.000Z</time>
      </trkpt>
      <trkpt lat="45.26456" lon="6.15103">
        <ele>2521.1999511719</ele>
        <time>2013-03-02T11:34:46.000Z</time>
      </trkpt>
      <trkpt lat="45.2646" lon="6.15105">
        <ele>2522</ele>
        <time>2013-03-02T11:34:52.000Z</time>
      </trkpt>
      <trkpt lat="45.26463" lon="6.15107">
        <ele>2523</ele>
        <time>2013-03-02T11:34:58.000Z</time>
      </trkpt>
      <trkpt lat="45.26468" lon="6.1511">
        <ele>2524.1999511719</ele>
        <time>2013-03-02T11:35:05.000Z</time>
      </trkpt>
      <trkpt lat="45.2647" lon="6.15114">
        <ele>2525.6000976562</ele>
        <time>2013-03-02T11:35:11.000Z</time>
      </trkpt>
      <trkpt lat="45.26473" lon="6.1512">
        <ele>2526.3999023438</ele>
        <time>2013-03-02T11:35:17.000Z</time>
      </trkpt>
      <trkpt lat="45.26473" lon="6.15124">
        <ele>2527.1999511719</ele>
        <time>2013-03-02T11:35:23.000Z</time>
      </trkpt>
      <trkpt lat="45.26478" lon="6.15127">
        <ele>2527.8000488281</ele>
        <time>2013-03-02T11:35:29.000Z</time>
      </trkpt>
      <trkpt lat="45.2648" lon="6.15134">
        <ele>2528.6000976562</ele>
        <time>2013-03-02T11:35:36.000Z</time>
      </trkpt>
      <trkpt lat="45.26481" lon="6.15139">
        <ele>2529</ele>
        <time>2013-03-02T11:35:42.000Z</time>
      </trkpt>
      <trkpt lat="45.26482" lon="6.15146">
        <ele>2529.1999511719</ele>
        <time>2013-03-02T11:35:48.000Z</time>
      </trkpt>
      <trkpt lat="45.26484" lon="6.15154">
        <ele>2530</ele>
        <time>2013-03-02T11:35:55.000Z</time>
      </trkpt>
      <trkpt lat="45.26486" lon="6.15159">
        <ele>2530.6000976562</ele>
        <time>2013-03-02T11:36:01.000Z</time>
      </trkpt>
      <trkpt lat="45.26487" lon="6.15162">
        <ele>2531.3999023438</ele>
        <time>2013-03-02T11:36:06.000Z</time>
      </trkpt>
      <trkpt lat="45.26489" lon="6.15167">
        <ele>2532.1999511719</ele>
        <time>2013-03-02T11:36:12.000Z</time>
      </trkpt>
      <trkpt lat="45.26491" lon="6.15171">
        <ele>2533.3999023438</ele>
        <time>2013-03-02T11:36:18.000Z</time>
      </trkpt>
      <trkpt lat="45.26493" lon="6.15175">
        <ele>2534.1999511719</ele>
        <time>2013-03-02T11:36:23.000Z</time>
      </trkpt>
      <trkpt lat="45.26495" lon="6.15181">
        <ele>2534.8000488281</ele>
        <time>2013-03-02T11:36:29.000Z</time>
      </trkpt>
      <trkpt lat="45.26497" lon="6.15186">
        <ele>2535.6000976562</ele>
        <time>2013-03-02T11:36:35.000Z</time>
      </trkpt>
      <trkpt lat="45.26499" lon="6.15192">
        <ele>2536.6000976562</ele>
        <time>2013-03-02T11:36:42.000Z</time>
      </trkpt>
      <trkpt lat="45.26502" lon="6.15196">
        <ele>2537.8000488281</ele>
        <time>2013-03-02T11:36:48.000Z</time>
      </trkpt>
      <trkpt lat="45.26504" lon="6.15199">
        <ele>2539</ele>
        <time>2013-03-02T11:36:54.000Z</time>
      </trkpt>
      <trkpt lat="45.26506" lon="6.15202">
        <ele>2539.6000976562</ele>
        <time>2013-03-02T11:36:59.000Z</time>
      </trkpt>
      <trkpt lat="45.26508" lon="6.15207">
        <ele>2540.6000976562</ele>
        <time>2013-03-02T11:37:04.000Z</time>
      </trkpt>
      <trkpt lat="45.2651" lon="6.15211">
        <ele>2541.3999023438</ele>
        <time>2013-03-02T11:37:09.000Z</time>
      </trkpt>
      <trkpt lat="45.26511" lon="6.15215">
        <ele>2542.8000488281</ele>
        <time>2013-03-02T11:37:15.000Z</time>
      </trkpt>
      <trkpt lat="45.26512" lon="6.15215">
        <ele>2543.3999023438</ele>
        <time>2013-03-02T11:37:24.000Z</time>
      </trkpt>
      <trkpt lat="45.26515" lon="6.15216">
        <ele>2543.6000976562</ele>
        <time>2013-03-02T11:37:43.000Z</time>
      </trkpt>
      <trkpt lat="45.26518" lon="6.15223">
        <ele>2544.8000488281</ele>
        <time>2013-03-02T11:37:50.000Z</time>
      </trkpt>
      <trkpt lat="45.2652" lon="6.15228">
        <ele>2545.8000488281</ele>
        <time>2013-03-02T11:37:56.000Z</time>
      </trkpt>
      <trkpt lat="45.26526" lon="6.1523">
        <ele>2547.1999511719</ele>
        <time>2013-03-02T11:38:02.000Z</time>
      </trkpt>
      <trkpt lat="45.26529" lon="6.15234">
        <ele>2548.3999023438</ele>
        <time>2013-03-02T11:38:08.000Z</time>
      </trkpt>
      <trkpt lat="45.26533" lon="6.15237">
        <ele>2549.6000976562</ele>
        <time>2013-03-02T11:38:14.000Z</time>
      </trkpt>
      <trkpt lat="45.26536" lon="6.15242">
        <ele>2550.8000488281</ele>
        <time>2013-03-02T11:38:20.000Z</time>
      </trkpt>
      <trkpt lat="45.26538" lon="6.15247">
        <ele>2551.8000488281</ele>
        <time>2013-03-02T11:38:26.000Z</time>
      </trkpt>
      <trkpt lat="45.2654" lon="6.15252">
        <ele>2552.8000488281</ele>
        <time>2013-03-02T11:38:31.000Z</time>
      </trkpt>
      <trkpt lat="45.26542" lon="6.15255">
        <ele>2553.3999023438</ele>
        <time>2013-03-02T11:38:35.000Z</time>
      </trkpt>
      <trkpt lat="45.26546" lon="6.15258">
        <ele>2554.6000976562</ele>
        <time>2013-03-02T11:38:42.000Z</time>
      </trkpt>
      <trkpt lat="45.26548" lon="6.15262">
        <ele>2555.6000976562</ele>
        <time>2013-03-02T11:38:47.000Z</time>
      </trkpt>
      <trkpt lat="45.2655" lon="6.15266">
        <ele>2556.3999023438</ele>
        <time>2013-03-02T11:38:53.000Z</time>
      </trkpt>
      <trkpt lat="45.26553" lon="6.15271">
        <ele>2557.3999023438</ele>
        <time>2013-03-02T11:39:00.000Z</time>
      </trkpt>
      <trkpt lat="45.26555" lon="6.15276">
        <ele>2558.3999023438</ele>
        <time>2013-03-02T11:39:06.000Z</time>
      </trkpt>
      <trkpt lat="45.26554" lon="6.15282">
        <ele>2559.8000488281</ele>
        <time>2013-03-02T11:39:14.000Z</time>
      </trkpt>
      <trkpt lat="45.26553" lon="6.15285">
        <ele>2561.6000976562</ele>
        <time>2013-03-02T11:39:21.000Z</time>
      </trkpt>
      <trkpt lat="45.26551" lon="6.15291">
        <ele>2563</ele>
        <time>2013-03-02T11:39:29.000Z</time>
      </trkpt>
      <trkpt lat="45.26549" lon="6.15294">
        <ele>2564.1999511719</ele>
        <time>2013-03-02T11:39:35.000Z</time>
      </trkpt>
      <trkpt lat="45.26547" lon="6.15299">
        <ele>2565.3999023438</ele>
        <time>2013-03-02T11:39:42.000Z</time>
      </trkpt>
      <trkpt lat="45.26545" lon="6.15304">
        <ele>2566.6000976562</ele>
        <time>2013-03-02T11:39:49.000Z</time>
      </trkpt>
      <trkpt lat="45.26544" lon="6.15309">
        <ele>2567.8000488281</ele>
        <time>2013-03-02T11:39:57.000Z</time>
      </trkpt>
      <trkpt lat="45.26544" lon="6.15309">
        <ele>2569</ele>
        <time>2013-03-02T11:40:06.000Z</time>
      </trkpt>
      <trkpt lat="45.26545" lon="6.15311">
        <ele>2569.1999511719</ele>
        <time>2013-03-02T11:40:13.000Z</time>
      </trkpt>
      <trkpt lat="45.26547" lon="6.15312">
        <ele>2569.3999023438</ele>
        <time>2013-03-02T11:40:17.000Z</time>
      </trkpt>
      <trkpt lat="45.2655" lon="6.15315">
        <ele>2570.1999511719</ele>
        <time>2013-03-02T11:40:24.000Z</time>
      </trkpt>
      <trkpt lat="45.26553" lon="6.15318">
        <ele>2571.1999511719</ele>
        <time>2013-03-02T11:40:29.000Z</time>
      </trkpt>
      <trkpt lat="45.26555" lon="6.1532">
        <ele>2572.3999023438</ele>
        <time>2013-03-02T11:40:34.000Z</time>
      </trkpt>
      <trkpt lat="45.26557" lon="6.15321">
        <ele>2573</ele>
        <time>2013-03-02T11:40:38.000Z</time>
      </trkpt>
      <trkpt lat="45.26559" lon="6.15322">
        <ele>2573.8000488281</ele>
        <time>2013-03-02T11:40:42.000Z</time>
      </trkpt>
      <trkpt lat="45.26563" lon="6.15323">
        <ele>2574.8000488281</ele>
        <time>2013-03-02T11:40:48.000Z</time>
      </trkpt>
      <trkpt lat="45.26567" lon="6.15324">
        <ele>2575.8000488281</ele>
        <time>2013-03-02T11:40:53.000Z</time>
      </trkpt>
      <trkpt lat="45.26571" lon="6.15326">
        <ele>2576.8000488281</ele>
        <time>2013-03-02T11:40:59.000Z</time>
      </trkpt>
      <trkpt lat="45.26576" lon="6.15327">
        <ele>2577.6000976562</ele>
        <time>2013-03-02T11:41:05.000Z</time>
      </trkpt>
      <trkpt lat="45.2658" lon="6.15327">
        <ele>2578.1999511719</ele>
        <time>2013-03-02T11:41:10.000Z</time>
      </trkpt>
      <trkpt lat="45.26586" lon="6.15328">
        <ele>2578.8000488281</ele>
        <time>2013-03-02T11:41:16.000Z</time>
      </trkpt>
      <trkpt lat="45.26589" lon="6.1533">
        <ele>2579.6000976562</ele>
        <time>2013-03-02T11:41:22.000Z</time>
      </trkpt>
      <trkpt lat="45.2659" lon="6.1533">
        <ele>2580.3999023438</ele>
        <time>2013-03-02T11:41:27.000Z</time>
      </trkpt>
      <trkpt lat="45.26588" lon="6.1533">
        <ele>2581.3999023438</ele>
        <time>2013-03-02T11:41:32.000Z</time>
      </trkpt>
      <trkpt lat="45.26586" lon="6.1533">
        <ele>2582.6000976562</ele>
        <time>2013-03-02T11:41:38.000Z</time>
      </trkpt>
      <trkpt lat="45.26583" lon="6.15332">
        <ele>2584</ele>
        <time>2013-03-02T11:41:44.000Z</time>
      </trkpt>
      <trkpt lat="45.26582" lon="6.15333">
        <ele>2584.1999511719</ele>
        <time>2013-03-02T11:41:46.000Z</time>
      </trkpt>
      <trkpt lat="45.26578" lon="6.15333">
        <ele>2585.1999511719</ele>
        <time>2013-03-02T11:41:53.000Z</time>
      </trkpt>
      <trkpt lat="45.26576" lon="6.15335">
        <ele>2586</ele>
        <time>2013-03-02T11:41:59.000Z</time>
      </trkpt>
      <trkpt lat="45.26576" lon="6.1534">
        <ele>2586.8000488281</ele>
        <time>2013-03-02T11:42:05.000Z</time>
      </trkpt>
      <trkpt lat="45.26576" lon="6.15343">
        <ele>2587.3999023438</ele>
        <time>2013-03-02T11:42:08.000Z</time>
      </trkpt>
      <trkpt lat="45.26578" lon="6.1535">
        <ele>2588.6000976562</ele>
        <time>2013-03-02T11:42:15.000Z</time>
      </trkpt>
      <trkpt lat="45.26579" lon="6.15353">
        <ele>2589.3999023438</ele>
        <time>2013-03-02T11:42:20.000Z</time>
      </trkpt>
      <trkpt lat="45.26577" lon="6.15357">
        <ele>2591</ele>
        <time>2013-03-02T11:42:27.000Z</time>
      </trkpt>
      <trkpt lat="45.26577" lon="6.15357">
        <ele>2591.3999023438</ele>
        <time>2013-03-02T11:42:34.000Z</time>
      </trkpt>
      <trkpt lat="45.26576" lon="6.15358">
        <ele>2591.3999023438</ele>
        <time>2013-03-02T11:42:36.000Z</time>
      </trkpt>
      <trkpt lat="45.26573" lon="6.15363">
        <ele>2592.3999023438</ele>
        <time>2013-03-02T11:42:44.000Z</time>
      </trkpt>
      <trkpt lat="45.26571" lon="6.15367">
        <ele>2593.3999023438</ele>
        <time>2013-03-02T11:42:50.000Z</time>
      </trkpt>
      <trkpt lat="45.26572" lon="6.1537">
        <ele>2593.8000488281</ele>
        <time>2013-03-02T11:42:56.000Z</time>
      </trkpt>
      <trkpt lat="45.26573" lon="6.15371">
        <ele>2594</ele>
        <time>2013-03-02T11:42:59.000Z</time>
      </trkpt>
      <trkpt lat="45.26577" lon="6.15374">
        <ele>2595.1999511719</ele>
        <time>2013-03-02T11:43:06.000Z</time>
      </trkpt>
      <trkpt lat="45.26579" lon="6.15378">
        <ele>2596</ele>
        <time>2013-03-02T11:43:11.000Z</time>
      </trkpt>
      <trkpt lat="45.26578" lon="6.1538">
        <ele>2596.8000488281</ele>
        <time>2013-03-02T11:43:17.000Z</time>
      </trkpt>
      <trkpt lat="45.26577" lon="6.15381">
        <ele>2597.6000976562</ele>
        <time>2013-03-02T11:43:23.000Z</time>
      </trkpt>
      <trkpt lat="45.26577" lon="6.15383">
        <ele>2598.6000976562</ele>
        <time>2013-03-02T11:43:29.000Z</time>
      </trkpt>
      <trkpt lat="45.26579" lon="6.15382">
        <ele>2599</ele>
        <time>2013-03-02T11:43:33.000Z</time>
      </trkpt>
      <trkpt lat="45.26581" lon="6.15383">
        <ele>2600</ele>
        <time>2013-03-02T11:43:39.000Z</time>
      </trkpt>
      <trkpt lat="45.26583" lon="6.15384">
        <ele>2600.6000976562</ele>
        <time>2013-03-02T11:43:43.000Z</time>
      </trkpt>
      <trkpt lat="45.26584" lon="6.15386">
        <ele>2601.3999023438</ele>
        <time>2013-03-02T11:43:48.000Z</time>
      </trkpt>
      <trkpt lat="45.26581" lon="6.15387">
        <ele>2601.6000976562</ele>
        <time>2013-03-02T11:43:56.000Z</time>
      </trkpt>
      <trkpt lat="45.26579" lon="6.1539">
        <ele>2602.3999023438</ele>
        <time>2013-03-02T11:44:01.000Z</time>
      </trkpt>
      <trkpt lat="45.26578" lon="6.15394">
        <ele>2603.8000488281</ele>
        <time>2013-03-02T11:44:08.000Z</time>
      </trkpt>
      <trkpt lat="45.2658" lon="6.15396">
        <ele>2605.1999511719</ele>
        <time>2013-03-02T11:44:15.000Z</time>
      </trkpt>
      <trkpt lat="45.26584" lon="6.15397">
        <ele>2605.8000488281</ele>
        <time>2013-03-02T11:44:20.000Z</time>
      </trkpt>
      <trkpt lat="45.26584" lon="6.154">
        <ele>2607</ele>
        <time>2013-03-02T11:44:26.000Z</time>
      </trkpt>
      <trkpt lat="45.26582" lon="6.15403">
        <ele>2608.1999511719</ele>
        <time>2013-03-02T11:44:32.000Z</time>
      </trkpt>
      <trkpt lat="45.26579" lon="6.15407">
        <ele>2608.8000488281</ele>
        <time>2013-03-02T11:44:47.000Z</time>
      </trkpt>
      <trkpt lat="45.26577" lon="6.15412">
        <ele>2609.6000976562</ele>
        <time>2013-03-02T11:44:54.000Z</time>
      </trkpt>
      <trkpt lat="45.26575" lon="6.15415">
        <ele>2610.6000976562</ele>
        <time>2013-03-02T11:44:59.000Z</time>
      </trkpt>
      <trkpt lat="45.26574" lon="6.15419">
        <ele>2611.3999023438</ele>
        <time>2013-03-02T11:45:04.000Z</time>
      </trkpt>
      <trkpt lat="45.26575" lon="6.15425">
        <ele>2613</ele>
        <time>2013-03-02T11:45:11.000Z</time>
      </trkpt>
      <trkpt lat="45.26574" lon="6.15429">
        <ele>2614</ele>
        <time>2013-03-02T11:45:18.000Z</time>
      </trkpt>
      <trkpt lat="45.26571" lon="6.1543">
        <ele>2615.1999511719</ele>
        <time>2013-03-02T11:45:25.000Z</time>
      </trkpt>
      <trkpt lat="45.2657" lon="6.15433">
        <ele>2616.3999023438</ele>
        <time>2013-03-02T11:45:31.000Z</time>
      </trkpt>
      <trkpt lat="45.26569" lon="6.15439">
        <ele>2618</ele>
        <time>2013-03-02T11:45:40.000Z</time>
      </trkpt>
      <trkpt lat="45.2657" lon="6.15443">
        <ele>2618.8000488281</ele>
        <time>2013-03-02T11:45:45.000Z</time>
      </trkpt>
      <trkpt lat="45.2657" lon="6.15446">
        <ele>2619.8000488281</ele>
        <time>2013-03-02T11:45:50.000Z</time>
      </trkpt>
      <trkpt lat="45.26568" lon="6.15451">
        <ele>2621</ele>
        <time>2013-03-02T11:46:42.000Z</time>
      </trkpt>
      <trkpt lat="45.26566" lon="6.15453">
        <ele>2622</ele>
        <time>2013-03-02T11:46:46.000Z</time>
      </trkpt>
      <trkpt lat="45.26563" lon="6.15458">
        <ele>2623.6000976562</ele>
        <time>2013-03-02T11:46:53.000Z</time>
      </trkpt>
      <trkpt lat="45.26559" lon="6.15466">
        <ele>2625.6000976562</ele>
        <time>2013-03-02T11:47:02.000Z</time>
      </trkpt>
      <trkpt lat="45.26556" lon="6.15469">
        <ele>2626.6000976562</ele>
        <time>2013-03-02T11:47:09.000Z</time>
      </trkpt>
      <trkpt lat="45.26554" lon="6.15474">
        <ele>2627.6000976562</ele>
        <time>2013-03-02T11:47:15.000Z</time>
      </trkpt>
      <trkpt lat="45.26551" lon="6.15477">
        <ele>2627.8000488281</ele>
        <time>2013-03-02T11:47:20.000Z</time>
      </trkpt>
      <trkpt lat="45.26548" lon="6.15479">
        <ele>2627.6000976562</ele>
        <time>2013-03-02T11:47:26.000Z</time>
      </trkpt>
      <trkpt lat="45.26546" lon="6.1548">
        <ele>2627.1999511719</ele>
        <time>2013-03-02T11:47:32.000Z</time>
      </trkpt>
      <trkpt lat="45.26542" lon="6.15483">
        <ele>2626.8000488281</ele>
        <time>2013-03-02T11:47:39.000Z</time>
      </trkpt>
      <trkpt lat="45.2654" lon="6.15487">
        <ele>2627.3999023438</ele>
        <time>2013-03-02T11:47:45.000Z</time>
      </trkpt>
      <trkpt lat="45.26538" lon="6.15488">
        <ele>2628</ele>
        <time>2013-03-02T11:47:49.000Z</time>
      </trkpt>
      <trkpt lat="45.26535" lon="6.15494">
        <ele>2629.1999511719</ele>
        <time>2013-03-02T11:47:57.000Z</time>
      </trkpt>
      <trkpt lat="45.26534" lon="6.155">
        <ele>2630.3999023438</ele>
        <time>2013-03-02T11:48:04.000Z</time>
      </trkpt>
      <trkpt lat="45.26531" lon="6.15507">
        <ele>2632.1999511719</ele>
        <time>2013-03-02T11:48:13.000Z</time>
      </trkpt>
      <trkpt lat="45.2653" lon="6.15514">
        <ele>2633.1999511719</ele>
        <time>2013-03-02T11:48:20.000Z</time>
      </trkpt>
      <trkpt lat="45.26529" lon="6.15518">
        <ele>2634</ele>
        <time>2013-03-02T11:48:26.000Z</time>
      </trkpt>
      <trkpt lat="45.26528" lon="6.15521">
        <ele>2635.3999023438</ele>
        <time>2013-03-02T11:48:32.000Z</time>
      </trkpt>
      <trkpt lat="45.26526" lon="6.15523">
        <ele>2636</ele>
        <time>2013-03-02T11:48:41.000Z</time>
      </trkpt>
      <trkpt lat="45.26522" lon="6.15527">
        <ele>2636</ele>
        <time>2013-03-02T11:48:59.000Z</time>
      </trkpt>
      <trkpt lat="45.26522" lon="6.15532">
        <ele>2636</ele>
        <time>2013-03-02T11:57:52.000Z</time>
      </trkpt>
      <trkpt lat="45.26524" lon="6.15532">
        <ele>2636.6000976562</ele>
        <time>2013-03-02T12:10:08.000Z</time>
      </trkpt>
      <trkpt lat="45.26523" lon="6.15528">
        <ele>2636.8000488281</ele>
        <time>2013-03-02T12:14:24.000Z</time>
      </trkpt>
      <trkpt lat="45.26526" lon="6.15532">
        <ele>2633.8000488281</ele>
        <time>2013-03-02T12:14:49.000Z</time>
      </trkpt>
      <trkpt lat="45.26526" lon="6.15532">
        <ele>2633.3999023438</ele>
        <time>2013-03-02T12:14:54.000Z</time>
      </trkpt>
      <trkpt lat="45.26531" lon="6.15536">
        <ele>2632.1999511719</ele>
        <time>2013-03-02T12:14:59.000Z</time>
      </trkpt>
      <trkpt lat="45.26534" lon="6.15537">
        <ele>2630</ele>
        <time>2013-03-02T12:15:02.000Z</time>
      </trkpt>
      <trkpt lat="45.26534" lon="6.15537">
        <ele>2629</ele>
        <time>2013-03-02T12:15:03.000Z</time>
      </trkpt>
      <trkpt lat="45.26541" lon="6.15543">
        <ele>2624</ele>
        <time>2013-03-02T12:15:08.000Z</time>
      </trkpt>
      <trkpt lat="45.26546" lon="6.15548">
        <ele>2620.6000976562</ele>
        <time>2013-03-02T12:15:11.000Z</time>
      </trkpt>
      <trkpt lat="45.26547" lon="6.15548">
        <ele>2616.3999023438</ele>
        <time>2013-03-02T12:15:14.000Z</time>
      </trkpt>
      <trkpt lat="45.26546" lon="6.15549">
        <ele>2613</ele>
        <time>2013-03-02T12:15:19.000Z</time>
      </trkpt>
      <trkpt lat="45.26539" lon="6.15552">
        <ele>2612.3999023438</ele>
        <time>2013-03-02T12:15:49.000Z</time>
      </trkpt>
      <trkpt lat="45.26541" lon="6.15558">
        <ele>2611.6000976562</ele>
        <time>2013-03-02T12:15:53.000Z</time>
      </trkpt>
      <trkpt lat="45.26541" lon="6.15562">
        <ele>2609.3999023438</ele>
        <time>2013-03-02T12:16:13.000Z</time>
      </trkpt>
      <trkpt lat="45.26538" lon="6.15564">
        <ele>2607.8000488281</ele>
        <time>2013-03-02T12:16:42.000Z</time>
      </trkpt>
      <trkpt lat="45.26532" lon="6.15576">
        <ele>2606.1999511719</ele>
        <time>2013-03-02T12:16:48.000Z</time>
      </trkpt>
      <trkpt lat="45.26531" lon="6.15577">
        <ele>2604.1999511719</ele>
        <time>2013-03-02T12:16:52.000Z</time>
      </trkpt>
      <trkpt lat="45.26532" lon="6.15579">
        <ele>2602.8000488281</ele>
        <time>2013-03-02T12:16:56.000Z</time>
      </trkpt>
      <trkpt lat="45.26531" lon="6.15594">
        <ele>2600.8000488281</ele>
        <time>2013-03-02T12:17:00.000Z</time>
      </trkpt>
      <trkpt lat="45.2653" lon="6.15599">
        <ele>2599.3999023438</ele>
        <time>2013-03-02T12:17:03.000Z</time>
      </trkpt>
      <trkpt lat="45.26531" lon="6.15599">
        <ele>2598.6000976562</ele>
        <time>2013-03-02T12:17:04.000Z</time>
      </trkpt>
      <trkpt lat="45.26535" lon="6.15597">
        <ele>2596</ele>
        <time>2013-03-02T12:17:08.000Z</time>
      </trkpt>
      <trkpt lat="45.26535" lon="6.15597">
        <ele>2595.6000976562</ele>
        <time>2013-03-02T12:17:09.000Z</time>
      </trkpt>
      <trkpt lat="45.26539" lon="6.15603">
        <ele>2592.8000488281</ele>
        <time>2013-03-02T12:17:13.000Z</time>
      </trkpt>
      <trkpt lat="45.26543" lon="6.15602">
        <ele>2589.8000488281</ele>
        <time>2013-03-02T12:17:16.000Z</time>
      </trkpt>
      <trkpt lat="45.2655" lon="6.1561">
        <ele>2585.1999511719</ele>
        <time>2013-03-02T12:17:20.000Z</time>
      </trkpt>
      <trkpt lat="45.26554" lon="6.15609">
        <ele>2582</ele>
        <time>2013-03-02T12:17:23.000Z</time>
      </trkpt>
      <trkpt lat="45.26559" lon="6.15612">
        <ele>2578.6000976562</ele>
        <time>2013-03-02T12:17:26.000Z</time>
      </trkpt>
      <trkpt lat="45.26563" lon="6.15608">
        <ele>2577.3999023438</ele>
        <time>2013-03-02T12:17:28.000Z</time>
      </trkpt>
      <trkpt lat="45.26565" lon="6.15608">
        <ele>2572</ele>
        <time>2013-03-02T12:17:33.000Z</time>
      </trkpt>
      <trkpt lat="45.26564" lon="6.15608">
        <ele>2570.6000976562</ele>
        <time>2013-03-02T12:17:40.000Z</time>
      </trkpt>
      <trkpt lat="45.26569" lon="6.1561">
        <ele>2569.8000488281</ele>
        <time>2013-03-02T12:17:44.000Z</time>
      </trkpt>
      <trkpt lat="45.26578" lon="6.15611">
        <ele>2565.8000488281</ele>
        <time>2013-03-02T12:17:48.000Z</time>
      </trkpt>
      <trkpt lat="45.26586" lon="6.15618">
        <ele>2561</ele>
        <time>2013-03-02T12:17:51.000Z</time>
      </trkpt>
      <trkpt lat="45.26588" lon="6.15615">
        <ele>2559</ele>
        <time>2013-03-02T12:17:53.000Z</time>
      </trkpt>
      <trkpt lat="45.26589" lon="6.15618">
        <ele>2554.1999511719</ele>
        <time>2013-03-02T12:17:56.000Z</time>
      </trkpt>
      <trkpt lat="45.26594" lon="6.15619">
        <ele>2549.6000976562</ele>
        <time>2013-03-02T12:17:59.000Z</time>
      </trkpt>
      <trkpt lat="45.266" lon="6.15618">
        <ele>2545.3999023438</ele>
        <time>2013-03-02T12:18:02.000Z</time>
      </trkpt>
      <trkpt lat="45.26607" lon="6.1562">
        <ele>2540.6000976562</ele>
        <time>2013-03-02T12:18:05.000Z</time>
      </trkpt>
      <trkpt lat="45.26612" lon="6.15623">
        <ele>2535.1999511719</ele>
        <time>2013-03-02T12:18:08.000Z</time>
      </trkpt>
      <trkpt lat="45.26623" lon="6.15626">
        <ele>2527.6000976562</ele>
        <time>2013-03-02T12:18:12.000Z</time>
      </trkpt>
      <trkpt lat="45.26624" lon="6.15629">
        <ele>2523</ele>
        <time>2013-03-02T12:18:15.000Z</time>
      </trkpt>
      <trkpt lat="45.26622" lon="6.1563">
        <ele>2520.1999511719</ele>
        <time>2013-03-02T12:18:19.000Z</time>
      </trkpt>
      <trkpt lat="45.26622" lon="6.1563">
        <ele>2519.1999511719</ele>
        <time>2013-03-02T12:18:22.000Z</time>
      </trkpt>
      <trkpt lat="45.26633" lon="6.15629">
        <ele>2517.3999023438</ele>
        <time>2013-03-02T12:18:26.000Z</time>
      </trkpt>
      <trkpt lat="45.26642" lon="6.15619">
        <ele>2513.6000976562</ele>
        <time>2013-03-02T12:18:29.000Z</time>
      </trkpt>
      <trkpt lat="45.26645" lon="6.15622">
        <ele>2508.3999023438</ele>
        <time>2013-03-02T12:18:32.000Z</time>
      </trkpt>
      <trkpt lat="45.26652" lon="6.15625">
        <ele>2503.1999511719</ele>
        <time>2013-03-02T12:18:35.000Z</time>
      </trkpt>
      <trkpt lat="45.26661" lon="6.15623">
        <ele>2497.3999023438</ele>
        <time>2013-03-02T12:18:38.000Z</time>
      </trkpt>
      <trkpt lat="45.26671" lon="6.15626">
        <ele>2490.8000488281</ele>
        <time>2013-03-02T12:18:41.000Z</time>
      </trkpt>
      <trkpt lat="45.26677" lon="6.15626">
        <ele>2486</ele>
        <time>2013-03-02T12:18:44.000Z</time>
      </trkpt>
      <trkpt lat="45.26683" lon="6.15628">
        <ele>2478.8000488281</ele>
        <time>2013-03-02T12:18:47.000Z</time>
      </trkpt>
      <trkpt lat="45.26693" lon="6.15629">
        <ele>2469.1999511719</ele>
        <time>2013-03-02T12:18:52.000Z</time>
      </trkpt>
      <trkpt lat="45.26693" lon="6.15627">
        <ele>2465.1999511719</ele>
        <time>2013-03-02T12:18:55.000Z</time>
      </trkpt>
      <trkpt lat="45.26691" lon="6.15627">
        <ele>2462.1999511719</ele>
        <time>2013-03-02T12:19:01.000Z</time>
      </trkpt>
      <trkpt lat="45.26699" lon="6.15635">
        <ele>2460.8000488281</ele>
        <time>2013-03-02T12:19:05.000Z</time>
      </trkpt>
      <trkpt lat="45.26712" lon="6.15645">
        <ele>2456.6000976562</ele>
        <time>2013-03-02T12:19:08.000Z</time>
      </trkpt>
      <trkpt lat="45.2672" lon="6.15645">
        <ele>2456.6000976562</ele>
        <time>2013-03-02T12:19:09.000Z</time>
      </trkpt>
      <trkpt lat="45.26728" lon="6.15645">
        <ele>2454.3999023438</ele>
        <time>2013-03-02T12:19:10.000Z</time>
      </trkpt>
      <trkpt lat="45.26749" lon="6.15647">
        <ele>2445.6000976562</ele>
        <time>2013-03-02T12:19:13.000Z</time>
      </trkpt>
      <trkpt lat="45.26765" lon="6.15645">
        <ele>2432</ele>
        <time>2013-03-02T12:19:17.000Z</time>
      </trkpt>
      <trkpt lat="45.26767" lon="6.15643">
        <ele>2423.8000488281</ele>
        <time>2013-03-02T12:19:20.000Z</time>
      </trkpt>
      <trkpt lat="45.26791" lon="6.15657">
        <ele>2413.6000976562</ele>
        <time>2013-03-02T12:19:25.000Z</time>
      </trkpt>
      <trkpt lat="45.26813" lon="6.15663">
        <ele>2405.1999511719</ele>
        <time>2013-03-02T12:19:28.000Z</time>
      </trkpt>
      <trkpt lat="45.26833" lon="6.15674">
        <ele>2395</ele>
        <time>2013-03-02T12:19:31.000Z</time>
      </trkpt>
      <trkpt lat="45.26841" lon="6.1568">
        <ele>2385.8000488281</ele>
        <time>2013-03-02T12:19:34.000Z</time>
      </trkpt>
      <trkpt lat="45.26843" lon="6.15685">
        <ele>2385.8000488281</ele>
        <time>2013-03-02T12:19:35.000Z</time>
      </trkpt>
      <trkpt lat="45.26844" lon="6.15685">
        <ele>2379.3999023438</ele>
        <time>2013-03-02T12:19:38.000Z</time>
      </trkpt>
      <trkpt lat="45.26849" lon="6.15685">
        <ele>2375.3999023438</ele>
        <time>2013-03-02T12:19:42.000Z</time>
      </trkpt>
      <trkpt lat="45.26851" lon="6.15685">
        <ele>2374.3999023438</ele>
        <time>2013-03-02T12:19:51.000Z</time>
      </trkpt>
      <trkpt lat="45.26845" lon="6.15684">
        <ele>2373.6000976562</ele>
        <time>2013-03-02T12:20:47.000Z</time>
      </trkpt>
      <trkpt lat="45.26846" lon="6.15682">
        <ele>2373.3999023438</ele>
        <time>2013-03-02T12:20:50.000Z</time>
      </trkpt>
      <trkpt lat="45.26857" lon="6.1568">
        <ele>2371.6000976562</ele>
        <time>2013-03-02T12:20:54.000Z</time>
      </trkpt>
      <trkpt lat="45.26864" lon="6.1569">
        <ele>2368.3999023438</ele>
        <time>2013-03-02T12:20:57.000Z</time>
      </trkpt>
      <trkpt lat="45.26876" lon="6.15685">
        <ele>2363.3999023438</ele>
        <time>2013-03-02T12:21:00.000Z</time>
      </trkpt>
      <trkpt lat="45.26884" lon="6.15685">
        <ele>2357.1999511719</ele>
        <time>2013-03-02T12:21:03.000Z</time>
      </trkpt>
      <trkpt lat="45.2689" lon="6.15691">
        <ele>2352</ele>
        <time>2013-03-02T12:21:05.000Z</time>
      </trkpt>
      <trkpt lat="45.26896" lon="6.15698">
        <ele>2344.6000976562</ele>
        <time>2013-03-02T12:21:08.000Z</time>
      </trkpt>
      <trkpt lat="45.26898" lon="6.15702">
        <ele>2339.6000976562</ele>
        <time>2013-03-02T12:21:10.000Z</time>
      </trkpt>
      <trkpt lat="45.26903" lon="6.15705">
        <ele>2331</ele>
        <time>2013-03-02T12:21:14.000Z</time>
      </trkpt>
      <trkpt lat="45.26909" lon="6.15709">
        <ele>2329</ele>
        <time>2013-03-02T12:21:16.000Z</time>
      </trkpt>
      <trkpt lat="45.26918" lon="6.15713">
        <ele>2322.6000976562</ele>
        <time>2013-03-02T12:21:19.000Z</time>
      </trkpt>
      <trkpt lat="45.26924" lon="6.15718">
        <ele>2316.1999511719</ele>
        <time>2013-03-02T12:21:22.000Z</time>
      </trkpt>
      <trkpt lat="45.26932" lon="6.15736">
        <ele>2305.3999023438</ele>
        <time>2013-03-02T12:21:27.000Z</time>
      </trkpt>
      <trkpt lat="45.26934" lon="6.15732">
        <ele>2303.3999023438</ele>
        <time>2013-03-02T12:21:28.000Z</time>
      </trkpt>
      <trkpt lat="45.26935" lon="6.15729">
        <ele>2295.3999023438</ele>
        <time>2013-03-02T12:21:33.000Z</time>
      </trkpt>
      <trkpt lat="45.26935" lon="6.15729">
        <ele>2293.3999023438</ele>
        <time>2013-03-02T12:21:41.000Z</time>
      </trkpt>
      <trkpt lat="45.26944" lon="6.15731">
        <ele>2292.3999023438</ele>
        <time>2013-03-02T12:21:45.000Z</time>
      </trkpt>
      <trkpt lat="45.26949" lon="6.1573">
        <ele>2288.1999511719</ele>
        <time>2013-03-02T12:21:49.000Z</time>
      </trkpt>
      <trkpt lat="45.26957" lon="6.1573">
        <ele>2283</ele>
        <time>2013-03-02T12:21:52.000Z</time>
      </trkpt>
      <trkpt lat="45.26967" lon="6.15727">
        <ele>2277.1999511719</ele>
        <time>2013-03-02T12:21:55.000Z</time>
      </trkpt>
      <trkpt lat="45.26979" lon="6.15725">
        <ele>2267.8000488281</ele>
        <time>2013-03-02T12:21:59.000Z</time>
      </trkpt>
      <trkpt lat="45.2698" lon="6.15727">
        <ele>2265.6000976562</ele>
        <time>2013-03-02T12:22:00.000Z</time>
      </trkpt>
      <trkpt lat="45.26988" lon="6.1572">
        <ele>2254</ele>
        <time>2013-03-02T12:22:05.000Z</time>
      </trkpt>
      <trkpt lat="45.26992" lon="6.15732">
        <ele>2249.8000488281</ele>
        <time>2013-03-02T12:22:09.000Z</time>
      </trkpt>
      <trkpt lat="45.27" lon="6.15738">
        <ele>2244.3999023438</ele>
        <time>2013-03-02T12:22:13.000Z</time>
      </trkpt>
      <trkpt lat="45.27003" lon="6.15735">
        <ele>2240</ele>
        <time>2013-03-02T12:22:16.000Z</time>
      </trkpt>
      <trkpt lat="45.27004" lon="6.15732">
        <ele>2237.3999023438</ele>
        <time>2013-03-02T12:22:20.000Z</time>
      </trkpt>
      <trkpt lat="45.27005" lon="6.15736">
        <ele>2236</ele>
        <time>2013-03-02T12:23:51.000Z</time>
      </trkpt>
      <trkpt lat="45.27009" lon="6.15736">
        <ele>2234.3999023438</ele>
        <time>2013-03-02T12:23:55.000Z</time>
      </trkpt>
      <trkpt lat="45.2701" lon="6.15738">
        <ele>2233.6000976562</ele>
        <time>2013-03-02T12:23:56.000Z</time>
      </trkpt>
      <trkpt lat="45.27015" lon="6.1574">
        <ele>2230.1999511719</ele>
        <time>2013-03-02T12:23:59.000Z</time>
      </trkpt>
      <trkpt lat="45.27017" lon="6.15749">
        <ele>2226.1999511719</ele>
        <time>2013-03-02T12:24:02.000Z</time>
      </trkpt>
      <trkpt lat="45.27019" lon="6.15749">
        <ele>2221</ele>
        <time>2013-03-02T12:24:06.000Z</time>
      </trkpt>
      <trkpt lat="45.27018" lon="6.15751">
        <ele>2218</ele>
        <time>2013-03-02T12:24:11.000Z</time>
      </trkpt>
      <trkpt lat="45.27022" lon="6.15754">
        <ele>2216.6000976562</ele>
        <time>2013-03-02T12:24:25.000Z</time>
      </trkpt>
      <trkpt lat="45.27024" lon="6.15755">
        <ele>2215.3999023438</ele>
        <time>2013-03-02T12:24:28.000Z</time>
      </trkpt>
      <trkpt lat="45.27028" lon="6.15753">
        <ele>2213</ele>
        <time>2013-03-02T12:24:32.000Z</time>
      </trkpt>
      <trkpt lat="45.27027" lon="6.15754">
        <ele>2211.3999023438</ele>
        <time>2013-03-02T12:24:35.000Z</time>
      </trkpt>
      <trkpt lat="45.2703" lon="6.15757">
        <ele>2210.1999511719</ele>
        <time>2013-03-02T12:24:38.000Z</time>
      </trkpt>
      <trkpt lat="45.27034" lon="6.15756">
        <ele>2207.1999511719</ele>
        <time>2013-03-02T12:24:42.000Z</time>
      </trkpt>
      <trkpt lat="45.27035" lon="6.15756">
        <ele>2203.8000488281</ele>
        <time>2013-03-02T12:24:48.000Z</time>
      </trkpt>
      <trkpt lat="45.27034" lon="6.15757">
        <ele>2203.1999511719</ele>
        <time>2013-03-02T12:24:50.000Z</time>
      </trkpt>
      <trkpt lat="45.27039" lon="6.15759">
        <ele>2201.1999511719</ele>
        <time>2013-03-02T12:24:54.000Z</time>
      </trkpt>
      <trkpt lat="45.27043" lon="6.15761">
        <ele>2195.6000976562</ele>
        <time>2013-03-02T12:25:00.000Z</time>
      </trkpt>
      <trkpt lat="45.27043" lon="6.15761">
        <ele>2194</ele>
        <time>2013-03-02T12:25:04.000Z</time>
      </trkpt>
      <trkpt lat="45.27048" lon="6.1576">
        <ele>2192.8000488281</ele>
        <time>2013-03-02T12:25:08.000Z</time>
      </trkpt>
      <trkpt lat="45.27047" lon="6.1576">
        <ele>2192.3999023438</ele>
        <time>2013-03-02T12:25:09.000Z</time>
      </trkpt>
      <trkpt lat="45.27048" lon="6.15767">
        <ele>2188.8000488281</ele>
        <time>2013-03-02T12:25:14.000Z</time>
      </trkpt>
      <trkpt lat="45.27048" lon="6.15767">
        <ele>2188.1999511719</ele>
        <time>2013-03-02T12:25:15.000Z</time>
      </trkpt>
      <trkpt lat="45.27053" lon="6.15766">
        <ele>2185.6000976562</ele>
        <time>2013-03-02T12:25:19.000Z</time>
      </trkpt>
      <trkpt lat="45.27051" lon="6.15767">
        <ele>2182.3999023438</ele>
        <time>2013-03-02T12:25:25.000Z</time>
      </trkpt>
      <trkpt lat="45.27051" lon="6.15767">
        <ele>2182.1999511719</ele>
        <time>2013-03-02T12:25:27.000Z</time>
      </trkpt>
      <trkpt lat="45.27055" lon="6.15772">
        <ele>2181.3999023438</ele>
        <time>2013-03-02T12:25:31.000Z</time>
      </trkpt>
      <trkpt lat="45.27056" lon="6.15772">
        <ele>2181.1999511719</ele>
        <time>2013-03-02T12:25:32.000Z</time>
      </trkpt>
      <trkpt lat="45.27061" lon="6.15763">
        <ele>2178.1999511719</ele>
        <time>2013-03-02T12:25:36.000Z</time>
      </trkpt>
      <trkpt lat="45.27062" lon="6.15761">
        <ele>2175.3999023438</ele>
        <time>2013-03-02T12:25:39.000Z</time>
      </trkpt>
      <trkpt lat="45.2706" lon="6.15763">
        <ele>2171.8000488281</ele>
        <time>2013-03-02T12:25:44.000Z</time>
      </trkpt>
      <trkpt lat="45.27063" lon="6.15769">
        <ele>2170</ele>
        <time>2013-03-02T12:25:48.000Z</time>
      </trkpt>
      <trkpt lat="45.27064" lon="6.15767">
        <ele>2167.8000488281</ele>
        <time>2013-03-02T12:25:58.000Z</time>
      </trkpt>
      <trkpt lat="45.27068" lon="6.15761">
        <ele>2166.8000488281</ele>
        <time>2013-03-02T12:26:02.000Z</time>
      </trkpt>
      <trkpt lat="45.27071" lon="6.1576">
        <ele>2165.8000488281</ele>
        <time>2013-03-02T12:26:04.000Z</time>
      </trkpt>
      <trkpt lat="45.2707" lon="6.15764">
        <ele>2163.3999023438</ele>
        <time>2013-03-02T12:26:07.000Z</time>
      </trkpt>
      <trkpt lat="45.27074" lon="6.15764">
        <ele>2159.1999511719</ele>
        <time>2013-03-02T12:26:11.000Z</time>
      </trkpt>
      <trkpt lat="45.27081" lon="6.1577">
        <ele>2154.8000488281</ele>
        <time>2013-03-02T12:26:15.000Z</time>
      </trkpt>
      <trkpt lat="45.27085" lon="6.15767">
        <ele>2152.6000976562</ele>
        <time>2013-03-02T12:26:17.000Z</time>
      </trkpt>
      <trkpt lat="45.27086" lon="6.15767">
        <ele>2151.8000488281</ele>
        <time>2013-03-02T12:26:19.000Z</time>
      </trkpt>
      <trkpt lat="45.27087" lon="6.15767">
        <ele>2150.1999511719</ele>
        <time>2013-03-02T12:26:21.000Z</time>
      </trkpt>
      <trkpt lat="45.27088" lon="6.1577">
        <ele>2147.3999023438</ele>
        <time>2013-03-02T12:26:26.000Z</time>
      </trkpt>
      <trkpt lat="45.27098" lon="6.15765">
        <ele>2145</ele>
        <time>2013-03-02T12:26:30.000Z</time>
      </trkpt>
      <trkpt lat="45.27098" lon="6.15765">
        <ele>2144.1999511719</ele>
        <time>2013-03-02T12:26:31.000Z</time>
      </trkpt>
      <trkpt lat="45.27099" lon="6.1577">
        <ele>2140.8000488281</ele>
        <time>2013-03-02T12:26:35.000Z</time>
      </trkpt>
      <trkpt lat="45.27102" lon="6.15765">
        <ele>2137.3999023438</ele>
        <time>2013-03-02T12:26:39.000Z</time>
      </trkpt>
      <trkpt lat="45.27101" lon="6.15762">
        <ele>2133.8000488281</ele>
        <time>2013-03-02T12:26:43.000Z</time>
      </trkpt>
      <trkpt lat="45.271" lon="6.15762">
        <ele>2133</ele>
        <time>2013-03-02T12:26:45.000Z</time>
      </trkpt>
      <trkpt lat="45.27101" lon="6.15761">
        <ele>2131.8000488281</ele>
        <time>2013-03-02T12:26:48.000Z</time>
      </trkpt>
      <trkpt lat="45.27108" lon="6.15761">
        <ele>2129.8000488281</ele>
        <time>2013-03-02T12:26:52.000Z</time>
      </trkpt>
      <trkpt lat="45.27117" lon="6.15761">
        <ele>2126</ele>
        <time>2013-03-02T12:26:55.000Z</time>
      </trkpt>
      <trkpt lat="45.27124" lon="6.15762">
        <ele>2119.3999023438</ele>
        <time>2013-03-02T12:26:59.000Z</time>
      </trkpt>
      <trkpt lat="45.2713" lon="6.15767">
        <ele>2112.6000976562</ele>
        <time>2013-03-02T12:27:03.000Z</time>
      </trkpt>
      <trkpt lat="45.27138" lon="6.15757">
        <ele>2106.6000976562</ele>
        <time>2013-03-02T12:27:06.000Z</time>
      </trkpt>
      <trkpt lat="45.27144" lon="6.15765">
        <ele>2102.3999023438</ele>
        <time>2013-03-02T12:27:08.000Z</time>
      </trkpt>
      <trkpt lat="45.27151" lon="6.15759">
        <ele>2100</ele>
        <time>2013-03-02T12:27:10.000Z</time>
      </trkpt>
      <trkpt lat="45.27163" lon="6.15762">
        <ele>2092.3999023438</ele>
        <time>2013-03-02T12:27:13.000Z</time>
      </trkpt>
      <trkpt lat="45.2717" lon="6.1576">
        <ele>2087.3999023438</ele>
        <time>2013-03-02T12:27:15.000Z</time>
      </trkpt>
      <trkpt lat="45.27174" lon="6.15769">
        <ele>2080</ele>
        <time>2013-03-02T12:27:18.000Z</time>
      </trkpt>
      <trkpt lat="45.27173" lon="6.15772">
        <ele>2074.1999511719</ele>
        <time>2013-03-02T12:27:22.000Z</time>
      </trkpt>
      <trkpt lat="45.27176" lon="6.15769">
        <ele>2072.8000488281</ele>
        <time>2013-03-02T12:27:29.000Z</time>
      </trkpt>
      <trkpt lat="45.27186" lon="6.15774">
        <ele>2070.6000976562</ele>
        <time>2013-03-02T12:27:33.000Z</time>
      </trkpt>
      <trkpt lat="45.27195" lon="6.15786">
        <ele>2069.1999511719</ele>
        <time>2013-03-02T12:27:35.000Z</time>
      </trkpt>
      <trkpt lat="45.27211" lon="6.15785">
        <ele>2062.8000488281</ele>
        <time>2013-03-02T12:27:38.000Z</time>
      </trkpt>
      <trkpt lat="45.27223" lon="6.15807">
        <ele>2053.6000976562</ele>
        <time>2013-03-02T12:27:41.000Z</time>
      </trkpt>
      <trkpt lat="45.27241" lon="6.15796">
        <ele>2043</ele>
        <time>2013-03-02T12:27:44.000Z</time>
      </trkpt>
      <trkpt lat="45.27251" lon="6.15805">
        <ele>2035.4000244141</ele>
        <time>2013-03-02T12:27:46.000Z</time>
      </trkpt>
      <trkpt lat="45.27267" lon="6.15817">
        <ele>2024.4000244141</ele>
        <time>2013-03-02T12:27:49.000Z</time>
      </trkpt>
      <trkpt lat="45.27278" lon="6.1581">
        <ele>2017.4000244141</ele>
        <time>2013-03-02T12:27:51.000Z</time>
      </trkpt>
      <trkpt lat="45.27287" lon="6.15823">
        <ele>2010.5999755859</ele>
        <time>2013-03-02T12:27:53.000Z</time>
      </trkpt>
      <trkpt lat="45.27299" lon="6.15844">
        <ele>2000.8000488281</ele>
        <time>2013-03-02T12:27:56.000Z</time>
      </trkpt>
      <trkpt lat="45.2731" lon="6.15833">
        <ele>1994.8000488281</ele>
        <time>2013-03-02T12:27:58.000Z</time>
      </trkpt>
      <trkpt lat="45.2732" lon="6.15839">
        <ele>1989</ele>
        <time>2013-03-02T12:28:01.000Z</time>
      </trkpt>
      <trkpt lat="45.27338" lon="6.15844">
        <ele>1981.8000488281</ele>
        <time>2013-03-02T12:28:04.000Z</time>
      </trkpt>
      <trkpt lat="45.27356" lon="6.15859">
        <ele>1974.4000244141</ele>
        <time>2013-03-02T12:28:07.000Z</time>
      </trkpt>
      <trkpt lat="45.27382" lon="6.15871">
        <ele>1965.1999511719</ele>
        <time>2013-03-02T12:28:10.000Z</time>
      </trkpt>
      <trkpt lat="45.27401" lon="6.15873">
        <ele>1958.4000244141</ele>
        <time>2013-03-02T12:28:12.000Z</time>
      </trkpt>
      <trkpt lat="45.2743" lon="6.15868">
        <ele>1944.8000488281</ele>
        <time>2013-03-02T12:28:17.000Z</time>
      </trkpt>
      <trkpt lat="45.27431" lon="6.15867">
        <ele>1940</ele>
        <time>2013-03-02T12:28:22.000Z</time>
      </trkpt>
      <trkpt lat="45.27431" lon="6.15868">
        <ele>1939.8000488281</ele>
        <time>2013-03-02T12:28:23.000Z</time>
      </trkpt>
      <trkpt lat="45.27432" lon="6.15861">
        <ele>1940.1999511719</ele>
        <time>2013-03-02T12:35:13.000Z</time>
      </trkpt>
      <trkpt lat="45.27434" lon="6.15859">
        <ele>1940.1999511719</ele>
        <time>2013-03-02T12:35:25.000Z</time>
      </trkpt>
      <trkpt lat="45.27439" lon="6.1587">
        <ele>1940.1999511719</ele>
        <time>2013-03-02T12:37:01.000Z</time>
      </trkpt>
      <trkpt lat="45.27449" lon="6.15887">
        <ele>1938.5999755859</ele>
        <time>2013-03-02T12:37:05.000Z</time>
      </trkpt>
      <trkpt lat="45.27456" lon="6.15902">
        <ele>1936.8000488281</ele>
        <time>2013-03-02T12:37:07.000Z</time>
      </trkpt>
      <trkpt lat="45.27472" lon="6.15929">
        <ele>1930.8000488281</ele>
        <time>2013-03-02T12:37:13.000Z</time>
      </trkpt>
      <trkpt lat="45.27494" lon="6.1595">
        <ele>1926.5999755859</ele>
        <time>2013-03-02T12:37:21.000Z</time>
      </trkpt>
      <trkpt lat="45.27516" lon="6.15973">
        <ele>1922.4000244141</ele>
        <time>2013-03-02T12:37:28.000Z</time>
      </trkpt>
      <trkpt lat="45.27519" lon="6.15978">
        <ele>1921.8000488281</ele>
        <time>2013-03-02T12:37:29.000Z</time>
      </trkpt>
      <trkpt lat="45.27539" lon="6.15993">
        <ele>1917.8000488281</ele>
        <time>2013-03-02T12:37:33.000Z</time>
      </trkpt>
      <trkpt lat="45.27551" lon="6.16006">
        <ele>1914.8000488281</ele>
        <time>2013-03-02T12:37:35.000Z</time>
      </trkpt>
      <trkpt lat="45.27579" lon="6.16042">
        <ele>1904.8000488281</ele>
        <time>2013-03-02T12:37:40.000Z</time>
      </trkpt>
      <trkpt lat="45.27589" lon="6.16054">
        <ele>1902.5999755859</ele>
        <time>2013-03-02T12:37:42.000Z</time>
      </trkpt>
      <trkpt lat="45.27616" lon="6.16085">
        <ele>1894</ele>
        <time>2013-03-02T12:37:48.000Z</time>
      </trkpt>
      <trkpt lat="45.27628" lon="6.16098">
        <ele>1890.8000488281</ele>
        <time>2013-03-02T12:37:51.000Z</time>
      </trkpt>
      <trkpt lat="45.27637" lon="6.16104">
        <ele>1889</ele>
        <time>2013-03-02T12:37:53.000Z</time>
      </trkpt>
      <trkpt lat="45.27667" lon="6.1613">
        <ele>1883.5999755859</ele>
        <time>2013-03-02T12:37:59.000Z</time>
      </trkpt>
      <trkpt lat="45.27685" lon="6.16149">
        <ele>1880.1999511719</ele>
        <time>2013-03-02T12:38:02.000Z</time>
      </trkpt>
      <trkpt lat="45.27696" lon="6.16163">
        <ele>1875.5999755859</ele>
        <time>2013-03-02T12:38:06.000Z</time>
      </trkpt>
      <trkpt lat="45.27696" lon="6.16163">
        <ele>1875.5999755859</ele>
        <time>2013-03-02T12:38:07.000Z</time>
      </trkpt>
      <trkpt lat="45.27697" lon="6.16163">
        <ele>1872.5999755859</ele>
        <time>2013-03-02T12:38:18.000Z</time>
      </trkpt>
      <trkpt lat="45.27705" lon="6.16163">
        <ele>1872</ele>
        <time>2013-03-02T12:38:22.000Z</time>
      </trkpt>
      <trkpt lat="45.27725" lon="6.16157">
        <ele>1868.8000488281</ele>
        <time>2013-03-02T12:38:27.000Z</time>
      </trkpt>
      <trkpt lat="45.27728" lon="6.16161">
        <ele>1866.5999755859</ele>
        <time>2013-03-02T12:38:29.000Z</time>
      </trkpt>
      <trkpt lat="45.27742" lon="6.16167">
        <ele>1861.5999755859</ele>
        <time>2013-03-02T12:38:33.000Z</time>
      </trkpt>
      <trkpt lat="45.27752" lon="6.16179">
        <ele>1857.4000244141</ele>
        <time>2013-03-02T12:38:35.000Z</time>
      </trkpt>
      <trkpt lat="45.27764" lon="6.16183">
        <ele>1852.5999755859</ele>
        <time>2013-03-02T12:38:37.000Z</time>
      </trkpt>
      <trkpt lat="45.27776" lon="6.162">
        <ele>1844.4000244141</ele>
        <time>2013-03-02T12:38:40.000Z</time>
      </trkpt>
      <trkpt lat="45.27789" lon="6.16225">
        <ele>1831.8000488281</ele>
        <time>2013-03-02T12:38:45.000Z</time>
      </trkpt>
      <trkpt lat="45.27792" lon="6.16241">
        <ele>1825.5999755859</ele>
        <time>2013-03-02T12:38:48.000Z</time>
      </trkpt>
      <trkpt lat="45.27799" lon="6.16264">
        <ele>1818.8000488281</ele>
        <time>2013-03-02T12:38:52.000Z</time>
      </trkpt>
      <trkpt lat="45.27801" lon="6.16274">
        <ele>1817</ele>
        <time>2013-03-02T12:38:53.000Z</time>
      </trkpt>
      <trkpt lat="45.27805" lon="6.16307">
        <ele>1811</ele>
        <time>2013-03-02T12:38:57.000Z</time>
      </trkpt>
      <trkpt lat="45.27803" lon="6.1632">
        <ele>1808.1999511719</ele>
        <time>2013-03-02T12:39:01.000Z</time>
      </trkpt>
      <trkpt lat="45.27801" lon="6.1632">
        <ele>1807.1999511719</ele>
        <time>2013-03-02T12:39:08.000Z</time>
      </trkpt>
      <trkpt lat="45.27807" lon="6.16333">
        <ele>1806.4000244141</ele>
        <time>2013-03-02T12:39:12.000Z</time>
      </trkpt>
      <trkpt lat="45.2781" lon="6.16339">
        <ele>1805.8000488281</ele>
        <time>2013-03-02T12:39:13.000Z</time>
      </trkpt>
      <trkpt lat="45.27828" lon="6.16362">
        <ele>1801.4000244141</ele>
        <time>2013-03-02T12:39:17.000Z</time>
      </trkpt>
      <trkpt lat="45.27839" lon="6.16376">
        <ele>1797.8000488281</ele>
        <time>2013-03-02T12:39:19.000Z</time>
      </trkpt>
      <trkpt lat="45.27854" lon="6.16415">
        <ele>1790.1999511719</ele>
        <time>2013-03-02T12:39:23.000Z</time>
      </trkpt>
      <trkpt lat="45.27894" lon="6.16474">
        <ele>1780</ele>
        <time>2013-03-02T12:39:29.000Z</time>
      </trkpt>
      <trkpt lat="45.27913" lon="6.16501">
        <ele>1774.8000488281</ele>
        <time>2013-03-02T12:39:32.000Z</time>
      </trkpt>
      <trkpt lat="45.27935" lon="6.16525">
        <ele>1769.8000488281</ele>
        <time>2013-03-02T12:39:36.000Z</time>
      </trkpt>
      <trkpt lat="45.27948" lon="6.16523">
        <ele>1767.4000244141</ele>
        <time>2013-03-02T12:39:40.000Z</time>
      </trkpt>
      <trkpt lat="45.27945" lon="6.16521">
        <ele>1767</ele>
        <time>2013-03-02T12:39:46.000Z</time>
      </trkpt>
      <trkpt lat="45.27946" lon="6.16518">
        <ele>1766.5999755859</ele>
        <time>2013-03-02T12:40:41.000Z</time>
      </trkpt>
      <trkpt lat="45.27948" lon="6.16532">
        <ele>1766.1999511719</ele>
        <time>2013-03-02T12:40:45.000Z</time>
      </trkpt>
      <trkpt lat="45.27962" lon="6.16564">
        <ele>1763.5999755859</ele>
        <time>2013-03-02T12:40:50.000Z</time>
      </trkpt>
      <trkpt lat="45.27969" lon="6.16583">
        <ele>1761.4000244141</ele>
        <time>2013-03-02T12:40:53.000Z</time>
      </trkpt>
      <trkpt lat="45.27984" lon="6.16619">
        <ele>1758</ele>
        <time>2013-03-02T12:40:58.000Z</time>
      </trkpt>
      <trkpt lat="45.28" lon="6.16652">
        <ele>1755</ele>
        <time>2013-03-02T12:41:02.000Z</time>
      </trkpt>
      <trkpt lat="45.28002" lon="6.16661">
        <ele>1754.1999511719</ele>
        <time>2013-03-02T12:41:03.000Z</time>
      </trkpt>
      <trkpt lat="45.28011" lon="6.16696">
        <ele>1751</ele>
        <time>2013-03-02T12:41:08.000Z</time>
      </trkpt>
      <trkpt lat="45.28016" lon="6.16733">
        <ele>1748.1999511719</ele>
        <time>2013-03-02T12:41:13.000Z</time>
      </trkpt>
      <trkpt lat="45.28024" lon="6.16764">
        <ele>1745</ele>
        <time>2013-03-02T12:41:17.000Z</time>
      </trkpt>
      <trkpt lat="45.28025" lon="6.16803">
        <ele>1741.1999511719</ele>
        <time>2013-03-02T12:41:21.000Z</time>
      </trkpt>
      <trkpt lat="45.28023" lon="6.16814">
        <ele>1740.1999511719</ele>
        <time>2013-03-02T12:41:22.000Z</time>
      </trkpt>
      <trkpt lat="45.28022" lon="6.16878">
        <ele>1735.5999755859</ele>
        <time>2013-03-02T12:41:29.000Z</time>
      </trkpt>
      <trkpt lat="45.28024" lon="6.16895">
        <ele>1735.4000244141</ele>
        <time>2013-03-02T12:41:31.000Z</time>
      </trkpt>
      <trkpt lat="45.28025" lon="6.16926">
        <ele>1734.1999511719</ele>
        <time>2013-03-02T12:41:35.000Z</time>
      </trkpt>
      <trkpt lat="45.28032" lon="6.16957">
        <ele>1732.8000488281</ele>
        <time>2013-03-02T12:41:40.000Z</time>
      </trkpt>
      <trkpt lat="45.28037" lon="6.16992">
        <ele>1731.1999511719</ele>
        <time>2013-03-02T12:41:46.000Z</time>
      </trkpt>
      <trkpt lat="45.28037" lon="6.16999">
        <ele>1730.8000488281</ele>
        <time>2013-03-02T12:41:47.000Z</time>
      </trkpt>
      <trkpt lat="45.28039" lon="6.17024">
        <ele>1729.4000244141</ele>
        <time>2013-03-02T12:41:50.000Z</time>
      </trkpt>
      <trkpt lat="45.28041" lon="6.17053">
        <ele>1727.4000244141</ele>
        <time>2013-03-02T12:41:53.000Z</time>
      </trkpt>
      <trkpt lat="45.2804" lon="6.17078">
        <ele>1726</ele>
        <time>2013-03-02T12:41:56.000Z</time>
      </trkpt>
      <trkpt lat="45.28036" lon="6.17131">
        <ele>1722.1999511719</ele>
        <time>2013-03-02T12:42:02.000Z</time>
      </trkpt>
      <trkpt lat="45.28032" lon="6.17184">
        <ele>1718.8000488281</ele>
        <time>2013-03-02T12:42:08.000Z</time>
      </trkpt>
      <trkpt lat="45.2803" lon="6.17202">
        <ele>1717.4000244141</ele>
        <time>2013-03-02T12:42:10.000Z</time>
      </trkpt>
      <trkpt lat="45.28026" lon="6.17237">
        <ele>1714</ele>
        <time>2013-03-02T12:42:14.000Z</time>
      </trkpt>
      <trkpt lat="45.2803" lon="6.17258">
        <ele>1711.5999755859</ele>
        <time>2013-03-02T12:42:17.000Z</time>
      </trkpt>
      <trkpt lat="45.2803" lon="6.17271">
        <ele>1710.1999511719</ele>
        <time>2013-03-02T12:42:19.000Z</time>
      </trkpt>
      <trkpt lat="45.28033" lon="6.17294">
        <ele>1708.4000244141</ele>
        <time>2013-03-02T12:42:23.000Z</time>
      </trkpt>
      <trkpt lat="45.28034" lon="6.17314">
        <ele>1706.1999511719</ele>
        <time>2013-03-02T12:42:26.000Z</time>
      </trkpt>
      <trkpt lat="45.28036" lon="6.17321">
        <ele>1704.1999511719</ele>
        <time>2013-03-02T12:42:29.000Z</time>
      </trkpt>
      <trkpt lat="45.28036" lon="6.17324">
        <ele>1703.5999755859</ele>
        <time>2013-03-02T12:42:30.000Z</time>
      </trkpt>
      <trkpt lat="45.28038" lon="6.17346">
        <ele>1701.8000488281</ele>
        <time>2013-03-02T12:42:35.000Z</time>
      </trkpt>
      <trkpt lat="45.2804" lon="6.17348">
        <ele>1700.4000244141</ele>
        <time>2013-03-02T12:42:39.000Z</time>
      </trkpt>
      <trkpt lat="45.28032" lon="6.17356">
        <ele>1698.4000244141</ele>
        <time>2013-03-02T12:42:43.000Z</time>
      </trkpt>
      <trkpt lat="45.28028" lon="6.17378">
        <ele>1696.4000244141</ele>
        <time>2013-03-02T12:42:46.000Z</time>
      </trkpt>
      <trkpt lat="45.28029" lon="6.17387">
        <ele>1695</ele>
        <time>2013-03-02T12:42:47.000Z</time>
      </trkpt>
      <trkpt lat="45.28033" lon="6.17444">
        <ele>1686.5999755859</ele>
        <time>2013-03-02T12:42:52.000Z</time>
      </trkpt>
      <trkpt lat="45.28036" lon="6.17477">
        <ele>1682.1999511719</ele>
        <time>2013-03-02T12:42:55.000Z</time>
      </trkpt>
      <trkpt lat="45.28036" lon="6.17498">
        <ele>1679.8000488281</ele>
        <time>2013-03-02T12:42:57.000Z</time>
      </trkpt>
      <trkpt lat="45.28039" lon="6.17545">
        <ele>1675</ele>
        <time>2013-03-02T12:43:02.000Z</time>
      </trkpt>
      <trkpt lat="45.28037" lon="6.17565">
        <ele>1673.4000244141</ele>
        <time>2013-03-02T12:43:04.000Z</time>
      </trkpt>
      <trkpt lat="45.28027" lon="6.17596">
        <ele>1669.1999511719</ele>
        <time>2013-03-02T12:43:08.000Z</time>
      </trkpt>
      <trkpt lat="45.28025" lon="6.17626">
        <ele>1666.4000244141</ele>
        <time>2013-03-02T12:43:12.000Z</time>
      </trkpt>
      <trkpt lat="45.28027" lon="6.17651">
        <ele>1663.8000488281</ele>
        <time>2013-03-02T12:43:16.000Z</time>
      </trkpt>
      <trkpt lat="45.28031" lon="6.177">
        <ele>1660.8000488281</ele>
        <time>2013-03-02T12:43:24.000Z</time>
      </trkpt>
      <trkpt lat="45.28032" lon="6.17707">
        <ele>1660.1999511719</ele>
        <time>2013-03-02T12:43:25.000Z</time>
      </trkpt>
      <trkpt lat="45.28023" lon="6.17727">
        <ele>1657.5999755859</ele>
        <time>2013-03-02T12:43:29.000Z</time>
      </trkpt>
      <trkpt lat="45.28014" lon="6.17739">
        <ele>1655.1999511719</ele>
        <time>2013-03-02T12:43:31.000Z</time>
      </trkpt>
      <trkpt lat="45.28001" lon="6.17769">
        <ele>1649.4000244141</ele>
        <time>2013-03-02T12:43:35.000Z</time>
      </trkpt>
      <trkpt lat="45.27999" lon="6.17789">
        <ele>1647.5999755859</ele>
        <time>2013-03-02T12:43:37.000Z</time>
      </trkpt>
      <trkpt lat="45.28" lon="6.17807">
        <ele>1643.4000244141</ele>
        <time>2013-03-02T12:43:40.000Z</time>
      </trkpt>
      <trkpt lat="45.27992" lon="6.17809">
        <ele>1640</ele>
        <time>2013-03-02T12:43:43.000Z</time>
      </trkpt>
      <trkpt lat="45.27993" lon="6.17815">
        <ele>1638.4000244141</ele>
        <time>2013-03-02T12:43:45.000Z</time>
      </trkpt>
      <trkpt lat="45.27986" lon="6.1786">
        <ele>1633</ele>
        <time>2013-03-02T12:43:52.000Z</time>
      </trkpt>
      <trkpt lat="45.27982" lon="6.17911">
        <ele>1629.8000488281</ele>
        <time>2013-03-02T12:43:58.000Z</time>
      </trkpt>
      <trkpt lat="45.27981" lon="6.17931">
        <ele>1628.5999755859</ele>
        <time>2013-03-02T12:44:00.000Z</time>
      </trkpt>
      <trkpt lat="45.2798" lon="6.17953">
        <ele>1627.8000488281</ele>
        <time>2013-03-02T12:44:02.000Z</time>
      </trkpt>
      <trkpt lat="45.27979" lon="6.17972">
        <ele>1626</ele>
        <time>2013-03-02T12:44:04.000Z</time>
      </trkpt>
      <trkpt lat="45.27981" lon="6.18003">
        <ele>1623.1999511719</ele>
        <time>2013-03-02T12:44:07.000Z</time>
      </trkpt>
      <trkpt lat="45.27986" lon="6.18033">
        <ele>1620.1999511719</ele>
        <time>2013-03-02T12:44:10.000Z</time>
      </trkpt>
      <trkpt lat="45.27993" lon="6.18084">
        <ele>1615.5999755859</ele>
        <time>2013-03-02T12:44:15.000Z</time>
      </trkpt>
      <trkpt lat="45.27992" lon="6.18126">
        <ele>1611.1999511719</ele>
        <time>2013-03-02T12:44:19.000Z</time>
      </trkpt>
      <trkpt lat="45.27993" lon="6.18149">
        <ele>1608.1999511719</ele>
        <time>2013-03-02T12:44:22.000Z</time>
      </trkpt>
      <trkpt lat="45.27995" lon="6.18168">
        <ele>1605.1999511719</ele>
        <time>2013-03-02T12:44:26.000Z</time>
      </trkpt>
      <trkpt lat="45.27996" lon="6.18173">
        <ele>1604.8000488281</ele>
        <time>2013-03-02T12:44:27.000Z</time>
      </trkpt>
      <trkpt lat="45.28001" lon="6.18202">
        <ele>1603</ele>
        <time>2013-03-02T12:44:31.000Z</time>
      </trkpt>
      <trkpt lat="45.28006" lon="6.18207">
        <ele>1599.8000488281</ele>
        <time>2013-03-02T12:44:35.000Z</time>
      </trkpt>
      <trkpt lat="45.28009" lon="6.18224">
        <ele>1597.1999511719</ele>
        <time>2013-03-02T12:44:38.000Z</time>
      </trkpt>
      <trkpt lat="45.28" lon="6.18251">
        <ele>1594.1999511719</ele>
        <time>2013-03-02T12:44:41.000Z</time>
      </trkpt>
      <trkpt lat="45.27982" lon="6.18285">
        <ele>1589.4000244141</ele>
        <time>2013-03-02T12:44:45.000Z</time>
      </trkpt>
      <trkpt lat="45.27977" lon="6.18292">
        <ele>1588.4000244141</ele>
        <time>2013-03-02T12:44:46.000Z</time>
      </trkpt>
      <trkpt lat="45.27964" lon="6.1832">
        <ele>1584.5999755859</ele>
        <time>2013-03-02T12:44:51.000Z</time>
      </trkpt>
      <trkpt lat="45.27961" lon="6.18327">
        <ele>1584</ele>
        <time>2013-03-02T12:44:53.000Z</time>
      </trkpt>
      <trkpt lat="45.27959" lon="6.1833">
        <ele>1582.5999755859</ele>
        <time>2013-03-02T12:44:56.000Z</time>
      </trkpt>
      <trkpt lat="45.27949" lon="6.18345">
        <ele>1581.1999511719</ele>
        <time>2013-03-02T12:45:10.000Z</time>
      </trkpt>
      <trkpt lat="45.27941" lon="6.18367">
        <ele>1579.5999755859</ele>
        <time>2013-03-02T12:45:15.000Z</time>
      </trkpt>
      <trkpt lat="45.2794" lon="6.18395">
        <ele>1577.4000244141</ele>
        <time>2013-03-02T12:45:21.000Z</time>
      </trkpt>
      <trkpt lat="45.27941" lon="6.18404">
        <ele>1576.1999511719</ele>
        <time>2013-03-02T12:45:25.000Z</time>
      </trkpt>
      <trkpt lat="45.27942" lon="6.18405">
        <ele>1576</ele>
        <time>2013-03-02T12:45:34.000Z</time>
      </trkpt>
      <trkpt lat="45.27942" lon="6.18406">
        <ele>1575.8000488281</ele>
        <time>2013-03-02T12:45:35.000Z</time>
      </trkpt>
      <trkpt lat="45.27944" lon="6.18407">
        <ele>1575.5999755859</ele>
        <time>2013-03-02T12:45:37.000Z</time>
      </trkpt>
      <trkpt lat="45.2795" lon="6.18417">
        <ele>1573.4000244141</ele>
        <time>2013-03-02T12:45:42.000Z</time>
      </trkpt>
      <trkpt lat="45.27944" lon="6.1842">
        <ele>1572.1999511719</ele>
        <time>2013-03-02T12:45:45.000Z</time>
      </trkpt>
      <trkpt lat="45.27943" lon="6.18427">
        <ele>1570.5999755859</ele>
        <time>2013-03-02T12:45:47.000Z</time>
      </trkpt>
      <trkpt lat="45.27926" lon="6.18445">
        <ele>1566.1999511719</ele>
        <time>2013-03-02T12:45:51.000Z</time>
      </trkpt>
      <trkpt lat="45.27911" lon="6.1845">
        <ele>1561.8000488281</ele>
        <time>2013-03-02T12:45:54.000Z</time>
      </trkpt>
      <trkpt lat="45.27905" lon="6.18459">
        <ele>1557.1999511719</ele>
        <time>2013-03-02T12:45:57.000Z</time>
      </trkpt>
      <trkpt lat="45.27902" lon="6.18466">
        <ele>1554</ele>
        <time>2013-03-02T12:46:00.000Z</time>
      </trkpt>
      <trkpt lat="45.27896" lon="6.18471">
        <ele>1552.1999511719</ele>
        <time>2013-03-02T12:46:06.000Z</time>
      </trkpt>
      <trkpt lat="45.27898" lon="6.18485">
        <ele>1551</ele>
        <time>2013-03-02T12:47:17.000Z</time>
      </trkpt>
      <trkpt lat="45.27896" lon="6.18491">
        <ele>1549.1999511719</ele>
        <time>2013-03-02T12:47:21.000Z</time>
      </trkpt>
      <trkpt lat="45.27897" lon="6.18498">
        <ele>1548.4000244141</ele>
        <time>2013-03-02T12:47:22.000Z</time>
      </trkpt>
      <trkpt lat="45.27897" lon="6.18508">
        <ele>1546.4000244141</ele>
        <time>2013-03-02T12:47:24.000Z</time>
      </trkpt>
      <trkpt lat="45.27896" lon="6.1853">
        <ele>1544.1999511719</ele>
        <time>2013-03-02T12:47:27.000Z</time>
      </trkpt>
      <trkpt lat="45.27901" lon="6.18547">
        <ele>1540.4000244141</ele>
        <time>2013-03-02T12:47:30.000Z</time>
      </trkpt>
      <trkpt lat="45.27907" lon="6.18576">
        <ele>1536.1999511719</ele>
        <time>2013-03-02T12:47:34.000Z</time>
      </trkpt>
      <trkpt lat="45.27911" lon="6.18611">
        <ele>1532.4000244141</ele>
        <time>2013-03-02T12:47:38.000Z</time>
      </trkpt>
      <trkpt lat="45.27914" lon="6.18633">
        <ele>1529.5999755859</ele>
        <time>2013-03-02T12:47:41.000Z</time>
      </trkpt>
      <trkpt lat="45.27912" lon="6.18672">
        <ele>1525.8000488281</ele>
        <time>2013-03-02T12:47:46.000Z</time>
      </trkpt>
      <trkpt lat="45.27912" lon="6.18681">
        <ele>1525</ele>
        <time>2013-03-02T12:47:47.000Z</time>
      </trkpt>
      <trkpt lat="45.27913" lon="6.18718">
        <ele>1522.5999755859</ele>
        <time>2013-03-02T12:47:51.000Z</time>
      </trkpt>
      <trkpt lat="45.27918" lon="6.18762">
        <ele>1518.4000244141</ele>
        <time>2013-03-02T12:47:56.000Z</time>
      </trkpt>
      <trkpt lat="45.27912" lon="6.18806">
        <ele>1514.4000244141</ele>
        <time>2013-03-02T12:48:01.000Z</time>
      </trkpt>
      <trkpt lat="45.27899" lon="6.18828">
        <ele>1512.4000244141</ele>
        <time>2013-03-02T12:48:04.000Z</time>
      </trkpt>
      <trkpt lat="45.27878" lon="6.18858">
        <ele>1509</ele>
        <time>2013-03-02T12:48:10.000Z</time>
      </trkpt>
      <trkpt lat="45.27869" lon="6.18876">
        <ele>1506.5999755859</ele>
        <time>2013-03-02T12:48:14.000Z</time>
      </trkpt>
      <trkpt lat="45.27862" lon="6.18905">
        <ele>1504.4000244141</ele>
        <time>2013-03-02T12:48:20.000Z</time>
      </trkpt>
      <trkpt lat="45.27861" lon="6.18931">
        <ele>1502.5999755859</ele>
        <time>2013-03-02T12:48:25.000Z</time>
      </trkpt>
      <trkpt lat="45.27865" lon="6.18953">
        <ele>1501</ele>
        <time>2013-03-02T12:48:29.000Z</time>
      </trkpt>
      <trkpt lat="45.27856" lon="6.18976">
        <ele>1498.1999511719</ele>
        <time>2013-03-02T12:48:33.000Z</time>
      </trkpt>
      <trkpt lat="45.27845" lon="6.18979">
        <ele>1495.8000488281</ele>
        <time>2013-03-02T12:48:35.000Z</time>
      </trkpt>
      <trkpt lat="45.27838" lon="6.18977">
        <ele>1493.5999755859</ele>
        <time>2013-03-02T12:48:37.000Z</time>
      </trkpt>
      <trkpt lat="45.27837" lon="6.18993">
        <ele>1490.8000488281</ele>
        <time>2013-03-02T12:48:41.000Z</time>
      </trkpt>
      <trkpt lat="45.27839" lon="6.19005">
        <ele>1489.4000244141</ele>
        <time>2013-03-02T12:48:43.000Z</time>
      </trkpt>
      <trkpt lat="45.27844" lon="6.19017">
        <ele>1487.8000488281</ele>
        <time>2013-03-02T12:48:45.000Z</time>
      </trkpt>
      <trkpt lat="45.27846" lon="6.19048">
        <ele>1484.1999511719</ele>
        <time>2013-03-02T12:48:49.000Z</time>
      </trkpt>
      <trkpt lat="45.2785" lon="6.19068">
        <ele>1482.1999511719</ele>
        <time>2013-03-02T12:48:52.000Z</time>
      </trkpt>
      <trkpt lat="45.27859" lon="6.19097">
        <ele>1479.8000488281</ele>
        <time>2013-03-02T12:48:57.000Z</time>
      </trkpt>
      <trkpt lat="45.27865" lon="6.19138">
        <ele>1477.1999511719</ele>
        <time>2013-03-02T12:49:04.000Z</time>
      </trkpt>
      <trkpt lat="45.27868" lon="6.19147">
        <ele>1476</ele>
        <time>2013-03-02T12:49:07.000Z</time>
      </trkpt>
      <trkpt lat="45.27871" lon="6.19161">
        <ele>1473.8000488281</ele>
        <time>2013-03-02T12:49:11.000Z</time>
      </trkpt>
      <trkpt lat="45.27879" lon="6.19173">
        <ele>1471.4000244141</ele>
        <time>2013-03-02T12:49:14.000Z</time>
      </trkpt>
      <trkpt lat="45.2788" lon="6.19189">
        <ele>1468.8000488281</ele>
        <time>2013-03-02T12:49:17.000Z</time>
      </trkpt>
      <trkpt lat="45.27879" lon="6.19205">
        <ele>1466.8000488281</ele>
        <time>2013-03-02T12:49:21.000Z</time>
      </trkpt>
      <trkpt lat="45.27884" lon="6.19223">
        <ele>1466</ele>
        <time>2013-03-02T12:49:25.000Z</time>
      </trkpt>
      <trkpt lat="45.2789" lon="6.19258">
        <ele>1464</ele>
        <time>2013-03-02T12:49:30.000Z</time>
      </trkpt>
      <trkpt lat="45.27901" lon="6.19287">
        <ele>1462.1999511719</ele>
        <time>2013-03-02T12:49:34.000Z</time>
      </trkpt>
      <trkpt lat="45.27921" lon="6.19322">
        <ele>1459</ele>
        <time>2013-03-02T12:49:39.000Z</time>
      </trkpt>
      <trkpt lat="45.27935" lon="6.19337">
        <ele>1456.5999755859</ele>
        <time>2013-03-02T12:49:42.000Z</time>
      </trkpt>
      <trkpt lat="45.27947" lon="6.19354">
        <ele>1454</ele>
        <time>2013-03-02T12:49:45.000Z</time>
      </trkpt>
      <trkpt lat="45.27952" lon="6.1937">
        <ele>1450.5999755859</ele>
        <time>2013-03-02T12:49:49.000Z</time>
      </trkpt>
      <trkpt lat="45.27954" lon="6.19385">
        <ele>1447.8000488281</ele>
        <time>2013-03-02T12:50:39.000Z</time>
      </trkpt>
      <trkpt lat="45.27966" lon="6.19408">
        <ele>1446.5999755859</ele>
        <time>2013-03-02T12:50:44.000Z</time>
      </trkpt>
      <trkpt lat="45.27975" lon="6.19428">
        <ele>1445.1999511719</ele>
        <time>2013-03-02T12:50:47.000Z</time>
      </trkpt>
      <trkpt lat="45.27982" lon="6.19471">
        <ele>1441.4000244141</ele>
        <time>2013-03-02T12:50:53.000Z</time>
      </trkpt>
      <trkpt lat="45.27984" lon="6.19493">
        <ele>1438.5999755859</ele>
        <time>2013-03-02T12:50:57.000Z</time>
      </trkpt>
      <trkpt lat="45.27988" lon="6.19512">
        <ele>1435.8000488281</ele>
        <time>2013-03-02T12:51:02.000Z</time>
      </trkpt>
      <trkpt lat="45.27998" lon="6.19541">
        <ele>1433.4000244141</ele>
        <time>2013-03-02T12:51:08.000Z</time>
      </trkpt>
      <trkpt lat="45.28006" lon="6.19567">
        <ele>1432.1999511719</ele>
        <time>2013-03-02T12:51:14.000Z</time>
      </trkpt>
      <trkpt lat="45.28013" lon="6.19586">
        <ele>1428.5999755859</ele>
        <time>2013-03-02T12:51:19.000Z</time>
      </trkpt>
      <trkpt lat="45.28016" lon="6.196">
        <ele>1426</ele>
        <time>2013-03-02T12:51:22.000Z</time>
      </trkpt>
      <trkpt lat="45.28019" lon="6.19604">
        <ele>1424.4000244141</ele>
        <time>2013-03-02T12:51:25.000Z</time>
      </trkpt>
      <trkpt lat="45.28026" lon="6.19615">
        <ele>1423.1999511719</ele>
        <time>2013-03-02T12:51:30.000Z</time>
      </trkpt>
      <trkpt lat="45.28031" lon="6.19624">
        <ele>1422.5999755859</ele>
        <time>2013-03-02T12:51:32.000Z</time>
      </trkpt>
      <trkpt lat="45.28047" lon="6.19664">
        <ele>1420.1999511719</ele>
        <time>2013-03-02T12:51:38.000Z</time>
      </trkpt>
      <trkpt lat="45.28063" lon="6.19698">
        <ele>1417.4000244141</ele>
        <time>2013-03-02T12:51:43.000Z</time>
      </trkpt>
      <trkpt lat="45.28083" lon="6.19741">
        <ele>1414.5999755859</ele>
        <time>2013-03-02T12:51:49.000Z</time>
      </trkpt>
      <trkpt lat="45.28091" lon="6.19777">
        <ele>1412</ele>
        <time>2013-03-02T12:51:54.000Z</time>
      </trkpt>
      <trkpt lat="45.2809" lon="6.19785">
        <ele>1411.5999755859</ele>
        <time>2013-03-02T12:51:55.000Z</time>
      </trkpt>
      <trkpt lat="45.2809" lon="6.19827">
        <ele>1409.5999755859</ele>
        <time>2013-03-02T12:52:01.000Z</time>
      </trkpt>
      <trkpt lat="45.28101" lon="6.19862">
        <ele>1407.5999755859</ele>
        <time>2013-03-02T12:52:08.000Z</time>
      </trkpt>
      <trkpt lat="45.28104" lon="6.19869">
        <ele>1407</ele>
        <time>2013-03-02T12:52:11.000Z</time>
      </trkpt>
      <trkpt lat="45.28113" lon="6.19869">
        <ele>1407</ele>
        <time>2013-03-02T12:52:15.000Z</time>
      </trkpt>
      <trkpt lat="45.28117" lon="6.1987">
        <ele>1407</ele>
        <time>2013-03-02T12:52:17.000Z</time>
      </trkpt>
      <trkpt lat="45.28121" lon="6.19872">
        <ele>1406.8000488281</ele>
        <time>2013-03-02T12:52:20.000Z</time>
      </trkpt>
      <trkpt lat="45.28118" lon="6.19887">
        <ele>1406.1999511719</ele>
        <time>2013-03-02T12:52:25.000Z</time>
      </trkpt>
      <trkpt lat="45.28117" lon="6.19891">
        <ele>1406</ele>
        <time>2013-03-02T12:52:26.000Z</time>
      </trkpt>
      <trkpt lat="45.28112" lon="6.19906">
        <ele>1405</ele>
        <time>2013-03-02T12:52:30.000Z</time>
      </trkpt>
      <trkpt lat="45.28112" lon="6.19917">
        <ele>1402.8000488281</ele>
        <time>2013-03-02T12:52:36.000Z</time>
      </trkpt>
      <trkpt lat="45.28114" lon="6.19926">
        <ele>1402</ele>
        <time>2013-03-02T12:52:47.000Z</time>
      </trkpt>
      <trkpt lat="45.28118" lon="6.19946">
        <ele>1401</ele>
        <time>2013-03-02T12:52:51.000Z</time>
      </trkpt>
      <trkpt lat="45.28119" lon="6.19953">
        <ele>1400.5999755859</ele>
        <time>2013-03-02T12:52:52.000Z</time>
      </trkpt>
      <trkpt lat="45.28127" lon="6.1998">
        <ele>1399</ele>
        <time>2013-03-02T12:52:56.000Z</time>
      </trkpt>
      <trkpt lat="45.28133" lon="6.20012">
        <ele>1395.8000488281</ele>
        <time>2013-03-02T12:53:00.000Z</time>
      </trkpt>
      <trkpt lat="45.28139" lon="6.20026">
        <ele>1394</ele>
        <time>2013-03-02T12:53:02.000Z</time>
      </trkpt>
      <trkpt lat="45.28145" lon="6.20056">
        <ele>1388.8000488281</ele>
        <time>2013-03-02T12:53:07.000Z</time>
      </trkpt>
      <trkpt lat="45.28147" lon="6.20063">
        <ele>1388.8000488281</ele>
        <time>2013-03-02T12:53:08.000Z</time>
      </trkpt>
      <trkpt lat="45.28162" lon="6.20086">
        <ele>1382.5999755859</ele>
        <time>2013-03-02T12:53:12.000Z</time>
      </trkpt>
      <trkpt lat="45.28175" lon="6.20107">
        <ele>1377.5999755859</ele>
        <time>2013-03-02T12:53:16.000Z</time>
      </trkpt>
      <trkpt lat="45.28187" lon="6.20117">
        <ele>1375.5999755859</ele>
        <time>2013-03-02T12:53:19.000Z</time>
      </trkpt>
      <trkpt lat="45.28191" lon="6.2012">
        <ele>1374.5999755859</ele>
        <time>2013-03-02T12:53:20.000Z</time>
      </trkpt>
      <trkpt lat="45.282" lon="6.20129">
        <ele>1372.8000488281</ele>
        <time>2013-03-02T12:53:22.000Z</time>
      </trkpt>
      <trkpt lat="45.28212" lon="6.20154">
        <ele>1369</ele>
        <time>2013-03-02T12:53:26.000Z</time>
      </trkpt>
      <trkpt lat="45.2823" lon="6.20193">
        <ele>1363.4000244141</ele>
        <time>2013-03-02T12:53:33.000Z</time>
      </trkpt>
      <trkpt lat="45.28238" lon="6.20218">
        <ele>1360.1999511719</ele>
        <time>2013-03-02T12:53:37.000Z</time>
      </trkpt>
      <trkpt lat="45.28247" lon="6.20251">
        <ele>1355.8000488281</ele>
        <time>2013-03-02T12:53:43.000Z</time>
      </trkpt>
      <trkpt lat="45.2825" lon="6.20262">
        <ele>1355.1999511719</ele>
        <time>2013-03-02T12:53:45.000Z</time>
      </trkpt>
      <trkpt lat="45.28253" lon="6.20267">
        <ele>1354.4000244141</ele>
        <time>2013-03-02T12:53:46.000Z</time>
      </trkpt>
      <trkpt lat="45.28262" lon="6.20281">
        <ele>1352.5999755859</ele>
        <time>2013-03-02T12:53:49.000Z</time>
      </trkpt>
      <trkpt lat="45.28271" lon="6.20296">
        <ele>1350.4000244141</ele>
        <time>2013-03-02T12:53:53.000Z</time>
      </trkpt>
      <trkpt lat="45.2827" lon="6.20299">
        <ele>1347.5999755859</ele>
        <time>2013-03-02T12:53:56.000Z</time>
      </trkpt>
      <trkpt lat="45.2827" lon="6.20301">
        <ele>1344.1999511719</ele>
        <time>2013-03-02T12:54:02.000Z</time>
      </trkpt>
      <trkpt lat="45.28268" lon="6.20305">
        <ele>1343.8000488281</ele>
        <time>2013-03-02T12:54:07.000Z</time>
      </trkpt>
      <trkpt lat="45.28269" lon="6.20307">
        <ele>1343</ele>
        <time>2013-03-02T12:54:12.000Z</time>
      </trkpt>
      <trkpt lat="45.28268" lon="6.20307">
        <ele>1342.5999755859</ele>
        <time>2013-03-02T12:54:23.000Z</time>
      </trkpt>
      <trkpt lat="45.28266" lon="6.20313">
        <ele>1341.8000488281</ele>
        <time>2013-03-02T12:54:27.000Z</time>
      </trkpt>
      <trkpt lat="45.2827" lon="6.20319">
        <ele>1339.8000488281</ele>
        <time>2013-03-02T12:54:30.000Z</time>
      </trkpt>
      <trkpt lat="45.28275" lon="6.20316">
        <ele>1337.8000488281</ele>
        <time>2013-03-02T12:54:33.000Z</time>
      </trkpt>
      <trkpt lat="45.28277" lon="6.20316">
        <ele>1336.8000488281</ele>
        <time>2013-03-02T12:54:35.000Z</time>
      </trkpt>
      <trkpt lat="45.28282" lon="6.20324">
        <ele>1335.1999511719</ele>
        <time>2013-03-02T12:54:38.000Z</time>
      </trkpt>
      <trkpt lat="45.28285" lon="6.20328">
        <ele>1334</ele>
        <time>2013-03-02T12:54:40.000Z</time>
      </trkpt>
      <trkpt lat="45.28286" lon="6.2034">
        <ele>1332.4000244141</ele>
        <time>2013-03-02T12:54:44.000Z</time>
      </trkpt>
      <trkpt lat="45.28297" lon="6.20364">
        <ele>1331.1999511719</ele>
        <time>2013-03-02T12:54:48.000Z</time>
      </trkpt>
      <trkpt lat="45.2831" lon="6.20375">
        <ele>1329.1999511719</ele>
        <time>2013-03-02T12:54:51.000Z</time>
      </trkpt>
      <trkpt lat="45.28313" lon="6.20379">
        <ele>1328.4000244141</ele>
        <time>2013-03-02T12:54:52.000Z</time>
      </trkpt>
      <trkpt lat="45.28318" lon="6.20381">
        <ele>1327.4000244141</ele>
        <time>2013-03-02T12:54:54.000Z</time>
      </trkpt>
      <trkpt lat="45.28314" lon="6.20385">
        <ele>1326.5999755859</ele>
        <time>2013-03-02T12:54:56.000Z</time>
      </trkpt>
      <trkpt lat="45.28311" lon="6.2039">
        <ele>1324.8000488281</ele>
        <time>2013-03-02T12:54:57.000Z</time>
      </trkpt>
      <trkpt lat="45.2831" lon="6.20418">
        <ele>1322</ele>
        <time>2013-03-02T12:55:01.000Z</time>
      </trkpt>
      <trkpt lat="45.28319" lon="6.20441">
        <ele>1318</ele>
        <time>2013-03-02T12:55:05.000Z</time>
      </trkpt>
      <trkpt lat="45.28322" lon="6.20452">
        <ele>1316.1999511719</ele>
        <time>2013-03-02T12:55:07.000Z</time>
      </trkpt>
      <trkpt lat="45.28323" lon="6.20474">
        <ele>1313.8000488281</ele>
        <time>2013-03-02T12:55:10.000Z</time>
      </trkpt>
      <trkpt lat="45.28325" lon="6.20488">
        <ele>1312.1999511719</ele>
        <time>2013-03-02T12:55:12.000Z</time>
      </trkpt>
      <trkpt lat="45.28335" lon="6.2052">
        <ele>1308.4000244141</ele>
        <time>2013-03-02T12:55:17.000Z</time>
      </trkpt>
      <trkpt lat="45.28346" lon="6.20546">
        <ele>1306.4000244141</ele>
        <time>2013-03-02T12:55:23.000Z</time>
      </trkpt>
      <trkpt lat="45.28353" lon="6.20577">
        <ele>1305</ele>
        <time>2013-03-02T12:55:29.000Z</time>
      </trkpt>
      <trkpt lat="45.28359" lon="6.20596">
        <ele>1303.8000488281</ele>
        <time>2013-03-02T12:55:35.000Z</time>
      </trkpt>
      <trkpt lat="45.28364" lon="6.20602">
        <ele>1303</ele>
        <time>2013-03-02T12:55:38.000Z</time>
      </trkpt>
      <trkpt lat="45.28368" lon="6.20621">
        <ele>1301.8000488281</ele>
        <time>2013-03-02T12:55:43.000Z</time>
      </trkpt>
      <trkpt lat="45.28372" lon="6.20638">
        <ele>1299.8000488281</ele>
        <time>2013-03-02T12:55:46.000Z</time>
      </trkpt>
      <trkpt lat="45.28377" lon="6.20647">
        <ele>1297.5999755859</ele>
        <time>2013-03-02T12:55:49.000Z</time>
      </trkpt>
      <trkpt lat="45.28381" lon="6.20649">
        <ele>1296.8000488281</ele>
        <time>2013-03-02T12:55:51.000Z</time>
      </trkpt>
      <trkpt lat="45.28384" lon="6.20658">
        <ele>1295.5999755859</ele>
        <time>2013-03-02T12:55:54.000Z</time>
      </trkpt>
      <trkpt lat="45.28377" lon="6.20663">
        <ele>1293.4000244141</ele>
        <time>2013-03-02T12:55:58.000Z</time>
      </trkpt>
      <trkpt lat="45.28371" lon="6.20668">
        <ele>1291.4000244141</ele>
        <time>2013-03-02T12:56:01.000Z</time>
      </trkpt>
      <trkpt lat="45.28373" lon="6.20689">
        <ele>1288.8000488281</ele>
        <time>2013-03-02T12:56:04.000Z</time>
      </trkpt>
      <trkpt lat="45.28371" lon="6.20689">
        <ele>1286.1999511719</ele>
        <time>2013-03-02T12:56:07.000Z</time>
      </trkpt>
      <trkpt lat="45.28362" lon="6.20709">
        <ele>1282</ele>
        <time>2013-03-02T12:56:10.000Z</time>
      </trkpt>
      <trkpt lat="45.28358" lon="6.2073">
        <ele>1276.5999755859</ele>
        <time>2013-03-02T12:56:13.000Z</time>
      </trkpt>
      <trkpt lat="45.28355" lon="6.20737">
        <ele>1274.5999755859</ele>
        <time>2013-03-02T12:56:15.000Z</time>
      </trkpt>
      <trkpt lat="45.28347" lon="6.20749">
        <ele>1269.5999755859</ele>
        <time>2013-03-02T12:56:18.000Z</time>
      </trkpt>
      <trkpt lat="45.28344" lon="6.20759">
        <ele>1265.5999755859</ele>
        <time>2013-03-02T12:56:21.000Z</time>
      </trkpt>
      <trkpt lat="45.28339" lon="6.20783">
        <ele>1261.1999511719</ele>
        <time>2013-03-02T12:56:24.000Z</time>
      </trkpt>
      <trkpt lat="45.28331" lon="6.20779">
        <ele>1254.5999755859</ele>
        <time>2013-03-02T12:56:28.000Z</time>
      </trkpt>
      <trkpt lat="45.28329" lon="6.20778">
        <ele>1253.1999511719</ele>
        <time>2013-03-02T12:56:30.000Z</time>
      </trkpt>
      <trkpt lat="45.28331" lon="6.20778">
        <ele>1250.5999755859</ele>
        <time>2013-03-02T12:56:33.000Z</time>
      </trkpt>
      <trkpt lat="45.28329" lon="6.20796">
        <ele>1249</ele>
        <time>2013-03-02T12:56:37.000Z</time>
      </trkpt>
      <trkpt lat="45.28331" lon="6.20821">
        <ele>1246</ele>
        <time>2013-03-02T12:56:40.000Z</time>
      </trkpt>
      <trkpt lat="45.28325" lon="6.20858">
        <ele>1239.8000488281</ele>
        <time>2013-03-02T12:56:45.000Z</time>
      </trkpt>
      <trkpt lat="45.28323" lon="6.20883">
        <ele>1235</ele>
        <time>2013-03-02T12:56:48.000Z</time>
      </trkpt>
      <trkpt lat="45.28325" lon="6.20906">
        <ele>1230.5999755859</ele>
        <time>2013-03-02T12:56:51.000Z</time>
      </trkpt>
      <trkpt lat="45.28325" lon="6.20936">
        <ele>1225</ele>
        <time>2013-03-02T12:56:55.000Z</time>
      </trkpt>
      <trkpt lat="45.28323" lon="6.20957">
        <ele>1221.1999511719</ele>
        <time>2013-03-02T12:56:58.000Z</time>
      </trkpt>
      <trkpt lat="45.28317" lon="6.20979">
        <ele>1215.4000244141</ele>
        <time>2013-03-02T12:57:03.000Z</time>
      </trkpt>
      <trkpt lat="45.28314" lon="6.20982">
        <ele>1215.4000244141</ele>
        <time>2013-03-02T12:57:04.000Z</time>
      </trkpt>
      <trkpt lat="45.28312" lon="6.20998">
        <ele>1212.4000244141</ele>
        <time>2013-03-02T12:57:07.000Z</time>
      </trkpt>
      <trkpt lat="45.28311" lon="6.21">
        <ele>1210</ele>
        <time>2013-03-02T12:57:10.000Z</time>
      </trkpt>
      <trkpt lat="45.28311" lon="6.20997">
        <ele>1207.8000488281</ele>
        <time>2013-03-02T12:57:28.000Z</time>
      </trkpt>
    </trkseg>
  </trk>
</gpx>